<?xml version='1.0' encoding='UTF-8'?><gpx version="1.1" creator="JPX - https://github.com/jenetics/jpx" xmlns="http://www.topografix.com/GPX/1/1"><trk><trkseg><trkpt lat="44.202627620453676" lon="9.6506762445769"><ele>633.0</ele><time>2026-04-05T15:16:05Z</time></trkpt><trkpt lat="44.20260356907174" lon="9.650575358369542"><ele>633.0</ele><time>2026-04-05T15:16:59.999Z</time></trkpt><trkpt lat="44.202593994442104" lon="9.650456875386332"><ele>633.0</ele><time>2026-04-05T15:17:02.999Z</time></trkpt><trkpt lat="44.202567667160864" lon="9.650340083000177"><ele>633.0</ele><time>2026-04-05T15:17:04.999Z</time></trkpt><trkpt lat="44.20253427096587" lon="9.650238885358895"><ele>633.0</ele><time>2026-04-05T15:17:06.998Z</time></trkpt><trkpt lat="44.202497453308425" lon="9.650131072623438"><ele>633.0</ele><time>2026-04-05T15:17:08.998Z</time></trkpt><trkpt lat="44.20245990325448" lon="9.650012724268878"><ele>631.5</ele><time>2026-04-05T15:17:10.998Z</time></trkpt><trkpt lat="44.202409736148994" lon="9.64988785008967"><ele>630.0</ele><time>2026-04-05T15:17:12.998Z</time></trkpt><trkpt lat="44.20236648790157" lon="9.649822130131888"><ele>628.5</ele><time>2026-04-05T15:17:13.998Z</time></trkpt><trkpt lat="44.202308890723415" lon="9.649764961491613"><ele>627.0</ele><time>2026-04-05T15:17:14.998Z</time></trkpt><trkpt lat="44.20217564693832" lon="9.64972072080416"><ele>625.5</ele><time>2026-04-05T15:17:16.998Z</time></trkpt><trkpt lat="44.20210701756555" lon="9.649718613434374"><ele>624.0</ele><time>2026-04-05T15:17:17.998Z</time></trkpt><trkpt lat="44.202009331320895" lon="9.64969424983264"><ele>624.0</ele><time>2026-04-05T15:17:19.998Z</time></trkpt><trkpt lat="44.20194133954261" lon="9.64965142026594"><ele>624.0</ele><time>2026-04-05T15:17:20.998Z</time></trkpt><trkpt lat="44.201842685306815" lon="9.649579479074015"><ele>624.0</ele><time>2026-04-05T15:17:22.998Z</time></trkpt><trkpt lat="44.201767583632154" lon="9.649482592391314"><ele>624.0</ele><time>2026-04-05T15:17:24.998Z</time></trkpt><trkpt lat="44.201743483150516" lon="9.64935247431005"><ele>624.0</ele><time>2026-04-05T15:17:26.998Z</time></trkpt><trkpt lat="44.20174195006625" lon="9.649183441403483"><ele>627.5</ele><time>2026-04-05T15:17:28.998Z</time></trkpt><trkpt lat="44.20172414972364" lon="9.649037626441656"><ele>631.0</ele><time>2026-04-05T15:17:29.998Z</time></trkpt><trkpt lat="44.2016723251357" lon="9.648986889953498"><ele>634.5</ele><time>2026-04-05T15:17:30.998Z</time></trkpt><trkpt lat="44.20161351440868" lon="9.648935698684973"><ele>638.0</ele><time>2026-04-05T15:17:31.999Z</time></trkpt><trkpt lat="44.20154936264139" lon="9.648929759125252"><ele>641.5</ele><time>2026-04-05T15:17:32.999Z</time></trkpt><trkpt lat="44.201422926251674" lon="9.64896127252443"><ele>645.0</ele><time>2026-04-05T15:17:34.999Z</time></trkpt><trkpt lat="44.20134864326968" lon="9.648929391281545"><ele>645.8333333333334</ele><time>2026-04-05T15:17:36.999Z</time></trkpt><trkpt lat="44.201281621258886" lon="9.648885603886786"><ele>646.6666666666666</ele><time>2026-04-05T15:17:37.999Z</time></trkpt><trkpt lat="44.201212386326546" lon="9.648866736019434"><ele>647.5</ele><time>2026-04-05T15:17:39Z</time></trkpt><trkpt lat="44.20109060125379" lon="9.64891950187732"><ele>648.3333333333333</ele><time>2026-04-05T15:17:41Z</time></trkpt><trkpt lat="44.2010612308971" lon="9.648997881694385"><ele>649.1666666666666</ele><time>2026-04-05T15:17:42Z</time></trkpt><trkpt lat="44.20103831236087" lon="9.649096913852679"><ele>650.0</ele><time>2026-04-05T15:17:44Z</time></trkpt><trkpt lat="44.201047403277535" lon="9.6492428171804"><ele>650.0</ele><time>2026-04-05T15:17:46Z</time></trkpt><trkpt lat="44.201063784825784" lon="9.64937442907496"><ele>650.0</ele><time>2026-04-05T15:17:48Z</time></trkpt><trkpt lat="44.20100944503142" lon="9.64954684241412"><ele>650.0</ele><time>2026-04-05T15:17:50Z</time></trkpt><trkpt lat="44.20092977867238" lon="9.649649598374934"><ele>650.0</ele><time>2026-04-05T15:17:52Z</time></trkpt><trkpt lat="44.200874086780026" lon="9.64970887800015"><ele>650.0</ele><time>2026-04-05T15:17:53Z</time></trkpt><trkpt lat="44.200818681127444" lon="9.649764879427888"><ele>645.0</ele><time>2026-04-05T15:17:54Z</time></trkpt><trkpt lat="44.20069259150263" lon="9.649785264898194"><ele>640.0</ele><time>2026-04-05T15:17:56Z</time></trkpt><trkpt lat="44.20060683314049" lon="9.649807945727362"><ele>635.0</ele><time>2026-04-05T15:17:57Z</time></trkpt><trkpt lat="44.200529628509834" lon="9.649822636074944"><ele>630.0</ele><time>2026-04-05T15:17:58Z</time></trkpt><trkpt lat="44.20043910750586" lon="9.64981774964396"><ele>625.0</ele><time>2026-04-05T15:18:00Z</time></trkpt><trkpt lat="44.20039402912183" lon="9.649750143286001"><ele>620.0</ele><time>2026-04-05T15:18:02Z</time></trkpt><trkpt lat="44.200338661506635" lon="9.649606596457906"><ele>617.8333333333333</ele><time>2026-04-05T15:18:04Z</time></trkpt><trkpt lat="44.20034071495979" lon="9.649517212647506"><ele>615.6666666666666</ele><time>2026-04-05T15:18:05Z</time></trkpt><trkpt lat="44.20030234300501" lon="9.649375932547093"><ele>613.5</ele><time>2026-04-05T15:18:07Z</time></trkpt><trkpt lat="44.20027673257317" lon="9.649290921080544"><ele>611.3333333333334</ele><time>2026-04-05T15:18:08Z</time></trkpt><trkpt lat="44.20022265582915" lon="9.649222693718656"><ele>609.1666666666667</ele><time>2026-04-05T15:18:08.999Z</time></trkpt><trkpt lat="44.20014601676107" lon="9.649201194096031"><ele>607.0</ele><time>2026-04-05T15:18:09.999Z</time></trkpt><trkpt lat="44.19999259338915" lon="9.64914741043781"><ele>612.3333333333334</ele><time>2026-04-05T15:18:11.999Z</time></trkpt><trkpt lat="44.19992890900258" lon="9.64910421933148"><ele>617.6666666666667</ele><time>2026-04-05T15:18:12.999Z</time></trkpt><trkpt lat="44.199859106974635" lon="9.649084792676472"><ele>623.0</ele><time>2026-04-05T15:18:13.999Z</time></trkpt><trkpt lat="44.19978061045224" lon="9.649073649443569"><ele>628.3333333333334</ele><time>2026-04-05T15:18:14.999Z</time></trkpt><trkpt lat="44.199704439252066" lon="9.649056109640538"><ele>633.6666666666666</ele><time>2026-04-05T15:18:15.999Z</time></trkpt><trkpt lat="44.19964343518984" lon="9.649161265805203"><ele>639.0</ele><time>2026-04-05T15:18:16.999Z</time></trkpt><trkpt lat="44.19956956157214" lon="9.649210108362055"><ele>640.4</ele><time>2026-04-05T15:18:17.999Z</time></trkpt><trkpt lat="44.19949926751082" lon="9.649226829788397"><ele>641.8</ele><time>2026-04-05T15:18:18.999Z</time></trkpt><trkpt lat="44.19943212567877" lon="9.649222490003865"><ele>643.1999999999999</ele><time>2026-04-05T15:18:19.999Z</time></trkpt><trkpt lat="44.19933077450144" lon="9.649254297341837"><ele>644.5999999999999</ele><time>2026-04-05T15:18:21.999Z</time></trkpt><trkpt lat="44.199277945179944" lon="9.64938068497896"><ele>646.0</ele><time>2026-04-05T15:18:23.999Z</time></trkpt><trkpt lat="44.19926523961831" lon="9.649537752925784"><ele>640.5999999999999</ele><time>2026-04-05T15:18:25.999Z</time></trkpt><trkpt lat="44.19921688358288" lon="9.649678814421993"><ele>635.1999999999999</ele><time>2026-04-05T15:18:27.999Z</time></trkpt><trkpt lat="44.19914598694211" lon="9.649764601979076"><ele>629.8</ele><time>2026-04-05T15:18:29.999Z</time></trkpt><trkpt lat="44.19908902194037" lon="9.649832788489302"><ele>624.4</ele><time>2026-04-05T15:18:30.999Z</time></trkpt><trkpt lat="44.19900281767395" lon="9.649924761542094"><ele>619.0</ele><time>2026-04-05T15:18:31.999Z</time></trkpt><trkpt lat="44.19895700651813" lon="9.65003003116209"><ele>617.1666666666667</ele><time>2026-04-05T15:18:32.999Z</time></trkpt><trkpt lat="44.19886827474947" lon="9.650139363993418"><ele>615.3333333333334</ele><time>2026-04-05T15:18:34.999Z</time></trkpt><trkpt lat="44.19880465671731" lon="9.650150818927003"><ele>613.5</ele><time>2026-04-05T15:18:35.999Z</time></trkpt><trkpt lat="44.1987288696748" lon="9.650133916262012"><ele>611.6666666666666</ele><time>2026-04-05T15:18:36.999Z</time></trkpt><trkpt lat="44.198653236207626" lon="9.6500945553279"><ele>609.8333333333333</ele><time>2026-04-05T15:18:37.999Z</time></trkpt><trkpt lat="44.19857692101338" lon="9.650044122128946"><ele>608.0</ele><time>2026-04-05T15:18:38.999Z</time></trkpt><trkpt lat="44.1985157658349" lon="9.649985292081261"><ele>608.0</ele><time>2026-04-05T15:18:39.999Z</time></trkpt><trkpt lat="44.198470853625345" lon="9.649909195151237"><ele>608.0</ele><time>2026-04-05T15:18:40.999Z</time></trkpt><trkpt lat="44.19841837171643" lon="9.649834390632584"><ele>608.0</ele><time>2026-04-05T15:18:41.999Z</time></trkpt><trkpt lat="44.19835166899195" lon="9.649770374424715"><ele>608.0</ele><time>2026-04-05T15:18:42.999Z</time></trkpt><trkpt lat="44.1982905770689" lon="9.649694302746171"><ele>608.0</ele><time>2026-04-05T15:18:43.999Z</time></trkpt><trkpt lat="44.1982365341332" lon="9.649615620041251"><ele>608.0</ele><time>2026-04-05T15:18:44.999Z</time></trkpt><trkpt lat="44.19820215021288" lon="9.649504844829751"><ele>611.0</ele><time>2026-04-05T15:18:45.999Z</time></trkpt><trkpt lat="44.198163971361964" lon="9.649392711104884"><ele>614.0</ele><time>2026-04-05T15:18:46.999Z</time></trkpt><trkpt lat="44.19811854592267" lon="9.649293974440699"><ele>617.0</ele><time>2026-04-05T15:18:47.999Z</time></trkpt><trkpt lat="44.19806392589261" lon="9.649208598629823"><ele>620.0</ele><time>2026-04-05T15:18:48.999Z</time></trkpt><trkpt lat="44.19799073476485" lon="9.64915604723447"><ele>623.0</ele><time>2026-04-05T15:18:49.999Z</time></trkpt><trkpt lat="44.19790994647586" lon="9.64911332259441"><ele>626.0</ele><time>2026-04-05T15:18:50.999Z</time></trkpt><trkpt lat="44.19783101715377" lon="9.649114537247613"><ele>626.0</ele><time>2026-04-05T15:18:51.999Z</time></trkpt><trkpt lat="44.19775520814696" lon="9.649142874347577"><ele>626.0</ele><time>2026-04-05T15:18:52.999Z</time></trkpt><trkpt lat="44.197672971945465" lon="9.649218371966793"><ele>626.0</ele><time>2026-04-05T15:18:53.999Z</time></trkpt><trkpt lat="44.19759513436571" lon="9.649313068164062"><ele>626.0</ele><time>2026-04-05T15:18:54.999Z</time></trkpt><trkpt lat="44.19754470283276" lon="9.649401840959422"><ele>626.0</ele><time>2026-04-05T15:18:55.999Z</time></trkpt><trkpt lat="44.19747908445559" lon="9.649458585329771"><ele>626.0</ele><time>2026-04-05T15:18:56.999Z</time></trkpt><trkpt lat="44.19740815207782" lon="9.649540583156773"><ele>627.5</ele><time>2026-04-05T15:18:57.999Z</time></trkpt><trkpt lat="44.19734445073745" lon="9.649614221899126"><ele>629.0</ele><time>2026-04-05T15:18:58.999Z</time></trkpt><trkpt lat="44.197280425226786" lon="9.649695653411973"><ele>630.5</ele><time>2026-04-05T15:18:59.999Z</time></trkpt><trkpt lat="44.197225480736854" lon="9.649789572274436"><ele>632.0</ele><time>2026-04-05T15:19:00.999Z</time></trkpt><trkpt lat="44.19717878189659" lon="9.649888828397915"><ele>633.5</ele><time>2026-04-05T15:19:01.999Z</time></trkpt><trkpt lat="44.19715844303541" lon="9.650009297779217"><ele>635.0</ele><time>2026-04-05T15:19:02.999Z</time></trkpt><trkpt lat="44.197147699789525" lon="9.650115854560722"><ele>635.0</ele><time>2026-04-05T15:19:03.999Z</time></trkpt><trkpt lat="44.19715347795769" lon="9.65023187725172"><ele>635.0</ele><time>2026-04-05T15:19:04.999Z</time></trkpt><trkpt lat="44.19713142542596" lon="9.650339371935965"><ele>635.0</ele><time>2026-04-05T15:19:05.999Z</time></trkpt><trkpt lat="44.19712108320242" lon="9.650447475690202"><ele>635.0</ele><time>2026-04-05T15:19:06.999Z</time></trkpt><trkpt lat="44.19710195094512" lon="9.650542937128082"><ele>635.0</ele><time>2026-04-05T15:19:07.999Z</time></trkpt><trkpt lat="44.197084210842235" lon="9.650627372744099"><ele>635.0</ele><time>2026-04-05T15:19:08.999Z</time></trkpt><trkpt lat="44.19699292244894" lon="9.650648443619561"><ele>630.1666666666666</ele><time>2026-04-05T15:19:10.999Z</time></trkpt><trkpt lat="44.19690285840236" lon="9.65060968477146"><ele>625.3333333333333</ele><time>2026-04-05T15:19:12.999Z</time></trkpt><trkpt lat="44.19683544173625" lon="9.650595700556444"><ele>620.5</ele><time>2026-04-05T15:19:13.999Z</time></trkpt><trkpt lat="44.196767531490266" lon="9.650601639854294"><ele>615.6666666666666</ele><time>2026-04-05T15:19:14.999Z</time></trkpt><trkpt lat="44.19670117412768" lon="9.650649514939115"><ele>610.8333333333334</ele><time>2026-04-05T15:19:15.999Z</time></trkpt><trkpt lat="44.19663507949643" lon="9.650822280377733"><ele>606.0</ele><time>2026-04-05T15:19:17.999Z</time></trkpt><trkpt lat="44.19658054228874" lon="9.651020034236511"><ele>602.8333333333334</ele><time>2026-04-05T15:19:19.998Z</time></trkpt><trkpt lat="44.19656775476623" lon="9.651152637671768"><ele>599.6666666666666</ele><time>2026-04-05T15:19:20.998Z</time></trkpt><trkpt lat="44.19657561718933" lon="9.651275389167495"><ele>596.5</ele><time>2026-04-05T15:19:21.998Z</time></trkpt><trkpt lat="44.19657884099603" lon="9.651398510459472"><ele>593.3333333333333</ele><time>2026-04-05T15:19:22.998Z</time></trkpt><trkpt lat="44.19657579330272" lon="9.651507071405591"><ele>590.1666666666666</ele><time>2026-04-05T15:19:23.998Z</time></trkpt><trkpt lat="44.19653029173907" lon="9.651571726146134"><ele>587.0</ele><time>2026-04-05T15:19:26.998Z</time></trkpt><trkpt lat="44.19646340892233" lon="9.651465935414487"><ele>590.0</ele><time>2026-04-05T15:19:28.998Z</time></trkpt><trkpt lat="44.196405937307084" lon="9.651313225109027"><ele>593.0</ele><time>2026-04-05T15:19:30.998Z</time></trkpt><trkpt lat="44.19633753424903" lon="9.651256512155317"><ele>596.0</ele><time>2026-04-05T15:19:31.998Z</time></trkpt><trkpt lat="44.19626044680938" lon="9.651219545358938"><ele>599.0</ele><time>2026-04-05T15:19:32.998Z</time></trkpt><trkpt lat="44.19617734793048" lon="9.651173968069362"><ele>602.0</ele><time>2026-04-05T15:19:33.998Z</time></trkpt><trkpt lat="44.19608635523651" lon="9.651105143220834"><ele>602.0</ele><time>2026-04-05T15:19:34.998Z</time></trkpt><trkpt lat="44.196017238195736" lon="9.651098701425635"><ele>602.0</ele><time>2026-04-05T15:19:35.998Z</time></trkpt><trkpt lat="44.19593848621585" lon="9.65114027014315"><ele>602.0</ele><time>2026-04-05T15:19:36.998Z</time></trkpt><trkpt lat="44.19588119209972" lon="9.651183102480138"><ele>602.0</ele><time>2026-04-05T15:19:38Z</time></trkpt><trkpt lat="44.195815303211056" lon="9.651186692205659"><ele>602.0</ele><time>2026-04-05T15:19:39Z</time></trkpt><trkpt lat="44.195717543829076" lon="9.651145568313696"><ele>602.0</ele><time>2026-04-05T15:19:41Z</time></trkpt><trkpt lat="44.19568840665887" lon="9.651007570234977"><ele>602.8000000000001</ele><time>2026-04-05T15:19:43Z</time></trkpt><trkpt lat="44.195643495229575" lon="9.650913313099476"><ele>603.6</ele><time>2026-04-05T15:19:45Z</time></trkpt><trkpt lat="44.195570278988484" lon="9.650834834235987"><ele>604.4000000000001</ele><time>2026-04-05T15:19:47Z</time></trkpt><trkpt lat="44.19546082683142" lon="9.650756951671193"><ele>605.2</ele><time>2026-04-05T15:19:49Z</time></trkpt><trkpt lat="44.19533070285919" lon="9.650750256779864"><ele>606.0</ele><time>2026-04-05T15:19:51Z</time></trkpt><trkpt lat="44.1952645092789" lon="9.650812468444801"><ele>606.0</ele><time>2026-04-05T15:19:52Z</time></trkpt><trkpt lat="44.19520488052302" lon="9.650875429177791"><ele>606.0</ele><time>2026-04-05T15:19:53Z</time></trkpt><trkpt lat="44.19516591639993" lon="9.650954061793673"><ele>606.0</ele><time>2026-04-05T15:19:54Z</time></trkpt><trkpt lat="44.195121871820795" lon="9.651062252969812"><ele>606.0</ele><time>2026-04-05T15:19:56Z</time></trkpt><trkpt lat="44.19507579547527" lon="9.651173739688428"><ele>606.0</ele><time>2026-04-05T15:19:59Z</time></trkpt><trkpt lat="44.19503839784958" lon="9.651260894021831"><ele>606.0</ele><time>2026-04-05T15:20:01Z</time></trkpt><trkpt lat="44.19497553495029" lon="9.651388331778438"><ele>604.0</ele><time>2026-04-05T15:20:04Z</time></trkpt><trkpt lat="44.194906129371645" lon="9.651455191901952"><ele>602.0</ele><time>2026-04-05T15:20:06Z</time></trkpt><trkpt lat="44.194827003130506" lon="9.651515863605338"><ele>600.0</ele><time>2026-04-05T15:20:08Z</time></trkpt><trkpt lat="44.19474329860595" lon="9.651577027406843"><ele>598.0</ele><time>2026-04-05T15:20:10Z</time></trkpt><trkpt lat="44.19466253932709" lon="9.651604683256904"><ele>596.0</ele><time>2026-04-05T15:20:12Z</time></trkpt><trkpt lat="44.19460028654799" lon="9.651653263745402"><ele>594.0</ele><time>2026-04-05T15:21:50Z</time></trkpt><trkpt lat="44.19453167943178" lon="9.65173019713381"><ele>594.0</ele><time>2026-04-05T15:22:38.999Z</time></trkpt><trkpt lat="44.19461608688653" lon="9.651638853817193"><ele>594.0</ele><time>2026-04-05T15:22:52.999Z</time></trkpt><trkpt lat="44.19458020902268" lon="9.651723276294376"><ele>594.0</ele><time>2026-04-05T15:23:44.998Z</time></trkpt><trkpt lat="44.19452634378088" lon="9.651783944635332"><ele>594.0</ele><time>2026-04-05T15:23:46.998Z</time></trkpt><trkpt lat="44.194464235673145" lon="9.651851686556466"><ele>594.0</ele><time>2026-04-05T15:23:48.998Z</time></trkpt><trkpt lat="44.19437333187984" lon="9.651891837791407"><ele>594.0</ele><time>2026-04-05T15:23:51Z</time></trkpt><trkpt lat="44.19425632337486" lon="9.651878828355416"><ele>594.0</ele><time>2026-04-05T15:23:53Z</time></trkpt><trkpt lat="44.194149237718904" lon="9.651832033185364"><ele>594.0</ele><time>2026-04-05T15:23:55Z</time></trkpt><trkpt lat="44.194031248191166" lon="9.651760658659118"><ele>594.0</ele><time>2026-04-05T15:23:57Z</time></trkpt><trkpt lat="44.193985914345646" lon="9.651603230304627"><ele>594.0</ele><time>2026-04-05T15:23:59Z</time></trkpt><trkpt lat="44.19387829715113" lon="9.651520042149032"><ele>592.5</ele><time>2026-04-05T15:24:01Z</time></trkpt><trkpt lat="44.19376461477622" lon="9.651528681780738"><ele>591.0</ele><time>2026-04-05T15:24:03Z</time></trkpt><trkpt lat="44.193654200431354" lon="9.651575788539933"><ele>589.5</ele><time>2026-04-05T15:24:05Z</time></trkpt><trkpt lat="44.1935903203991" lon="9.651594291370872"><ele>588.0</ele><time>2026-04-05T15:24:06Z</time></trkpt><trkpt lat="44.19352276520119" lon="9.651611234475332"><ele>586.5</ele><time>2026-04-05T15:24:07Z</time></trkpt><trkpt lat="44.193453051799565" lon="9.65163141869349"><ele>585.0</ele><time>2026-04-05T15:24:08Z</time></trkpt><trkpt lat="44.19338417429843" lon="9.651619661864643"><ele>585.0</ele><time>2026-04-05T15:24:09Z</time></trkpt><trkpt lat="44.19327387015912" lon="9.651656151153963"><ele>585.0</ele><time>2026-04-05T15:24:11Z</time></trkpt><trkpt lat="44.19319633051029" lon="9.651611749874666"><ele>585.0</ele><time>2026-04-05T15:24:13Z</time></trkpt><trkpt lat="44.193199363006755" lon="9.651449362017287"><ele>585.0</ele><time>2026-04-05T15:24:16Z</time></trkpt><trkpt lat="44.193242511678086" lon="9.651321682775363"><ele>585.0</ele><time>2026-04-05T15:24:18Z</time></trkpt><trkpt lat="44.19327738864492" lon="9.651170360749244"><ele>582.4</ele><time>2026-04-05T15:24:20Z</time></trkpt><trkpt lat="44.19332716403501" lon="9.651024612107623"><ele>579.8</ele><time>2026-04-05T15:24:22Z</time></trkpt><trkpt lat="44.19339163356596" lon="9.651004432657606"><ele>577.2</ele><time>2026-04-05T15:24:23Z</time></trkpt><trkpt lat="44.1935179578575" lon="9.650984439233147"><ele>574.6</ele><time>2026-04-05T15:24:25Z</time></trkpt><trkpt lat="44.193592229252175" lon="9.650960195539412"><ele>572.0</ele><time>2026-04-05T15:24:26Z</time></trkpt><trkpt lat="44.19367062397844" lon="9.650972157430884"><ele>572.0</ele><time>2026-04-05T15:24:27Z</time></trkpt><trkpt lat="44.19374957702242" lon="9.650978873970196"><ele>572.0</ele><time>2026-04-05T15:24:28Z</time></trkpt><trkpt lat="44.19382678313033" lon="9.65094991748204"><ele>572.0</ele><time>2026-04-05T15:24:29Z</time></trkpt><trkpt lat="44.19388530073959" lon="9.650873620695222"><ele>572.0</ele><time>2026-04-05T15:24:30Z</time></trkpt><trkpt lat="44.19393315323608" lon="9.650781980396793"><ele>572.0</ele><time>2026-04-05T15:24:31Z</time></trkpt><trkpt lat="44.19396777822168" lon="9.650679130913034"><ele>572.0</ele><time>2026-04-05T15:24:32Z</time></trkpt><trkpt lat="44.194009312738665" lon="9.650594886168653"><ele>573.0</ele><time>2026-04-05T15:24:33Z</time></trkpt><trkpt lat="44.19405553141341" lon="9.650503674702968"><ele>574.0</ele><time>2026-04-05T15:24:34Z</time></trkpt><trkpt lat="44.194114608750816" lon="9.650426946142009"><ele>575.0</ele><time>2026-04-05T15:24:35Z</time></trkpt><trkpt lat="44.194169903264644" lon="9.650362461088427"><ele>576.0</ele><time>2026-04-05T15:24:36Z</time></trkpt><trkpt lat="44.1942222188788" lon="9.65028114920099"><ele>577.0</ele><time>2026-04-05T15:24:37Z</time></trkpt><trkpt lat="44.19428624981202" lon="9.65021053992017"><ele>578.0</ele><time>2026-04-05T15:24:37.999Z</time></trkpt><trkpt lat="44.19433516786471" lon="9.650121028546799"><ele>578.0</ele><time>2026-04-05T15:24:38.999Z</time></trkpt><trkpt lat="44.194359856023716" lon="9.650019830645789"><ele>578.0</ele><time>2026-04-05T15:24:39.999Z</time></trkpt><trkpt lat="44.19437799849358" lon="9.649911698012916"><ele>578.0</ele><time>2026-04-05T15:24:40.999Z</time></trkpt><trkpt lat="44.194385944129195" lon="9.649803660059266"><ele>578.0</ele><time>2026-04-05T15:24:41.999Z</time></trkpt><trkpt lat="44.19440279109948" lon="9.64971516032066"><ele>578.0</ele><time>2026-04-05T15:24:42.999Z</time></trkpt><trkpt lat="44.19449351762699" lon="9.64961523907761"><ele>578.0</ele><time>2026-04-05T15:24:44.999Z</time></trkpt><trkpt lat="44.194603626989384" lon="9.649569859455728"><ele>578.0</ele><time>2026-04-05T15:24:46.999Z</time></trkpt><trkpt lat="44.194715197304824" lon="9.64953282355174"><ele>578.0</ele><time>2026-04-05T15:24:48.999Z</time></trkpt><trkpt lat="44.19478536851691" lon="9.649482327389306"><ele>578.0</ele><time>2026-04-05T15:24:49.999Z</time></trkpt><trkpt lat="44.19484887286655" lon="9.64941683636164"><ele>578.0</ele><time>2026-04-05T15:24:50.999Z</time></trkpt><trkpt lat="44.194901585371554" lon="9.649325806016817"><ele>578.0</ele><time>2026-04-05T15:24:51.999Z</time></trkpt><trkpt lat="44.19495672251741" lon="9.649260394191021"><ele>578.0</ele><time>2026-04-05T15:24:52.999Z</time></trkpt><trkpt lat="44.19499995968188" lon="9.649185619378345"><ele>578.1999999999999</ele><time>2026-04-05T15:24:53.999Z</time></trkpt><trkpt lat="44.19503452401014" lon="9.649067256498872"><ele>578.4</ele><time>2026-04-05T15:24:54.999Z</time></trkpt><trkpt lat="44.19503262282161" lon="9.648940815246883"><ele>578.5999999999999</ele><time>2026-04-05T15:24:55.999Z</time></trkpt><trkpt lat="44.19499931500726" lon="9.648830811177838"><ele>578.8</ele><time>2026-04-05T15:24:56.999Z</time></trkpt><trkpt lat="44.194975143659" lon="9.64869956888225"><ele>579.0</ele><time>2026-04-05T15:24:57.999Z</time></trkpt><trkpt lat="44.19496619682333" lon="9.648569688017847"><ele>579.0</ele><time>2026-04-05T15:24:58.999Z</time></trkpt><trkpt lat="44.19496781114534" lon="9.648451143930712"><ele>579.0</ele><time>2026-04-05T15:24:59.999Z</time></trkpt><trkpt lat="44.19498672053548" lon="9.648353260937576"><ele>579.0</ele><time>2026-04-05T15:25:00.999Z</time></trkpt><trkpt lat="44.19501748875717" lon="9.648247873341663"><ele>579.0</ele><time>2026-04-05T15:25:01.999Z</time></trkpt><trkpt lat="44.195051997492556" lon="9.648143103683422"><ele>579.0</ele><time>2026-04-05T15:25:02.999Z</time></trkpt><trkpt lat="44.19508408959376" lon="9.648040261884152"><ele>579.0</ele><time>2026-04-05T15:25:03.999Z</time></trkpt><trkpt lat="44.19513440109669" lon="9.647954714466293"><ele>579.0</ele><time>2026-04-05T15:25:04.999Z</time></trkpt><trkpt lat="44.19521298834807" lon="9.6479031515117"><ele>579.0</ele><time>2026-04-05T15:25:05.999Z</time></trkpt><trkpt lat="44.19528664519096" lon="9.647828188946937"><ele>579.0</ele><time>2026-04-05T15:25:06.999Z</time></trkpt><trkpt lat="44.19532495195027" lon="9.647700095139202"><ele>579.0</ele><time>2026-04-05T15:25:07.999Z</time></trkpt><trkpt lat="44.195370267337445" lon="9.647591279577"><ele>579.0</ele><time>2026-04-05T15:25:08.999Z</time></trkpt><trkpt lat="44.19543690013525" lon="9.647519369196889"><ele>580.1666666666666</ele><time>2026-04-05T15:25:09.999Z</time></trkpt><trkpt lat="44.19550432095769" lon="9.64748979892486"><ele>581.3333333333334</ele><time>2026-04-05T15:25:10.999Z</time></trkpt><trkpt lat="44.19558131878018" lon="9.647550154435738"><ele>582.5</ele><time>2026-04-05T15:25:12.999Z</time></trkpt><trkpt lat="44.195638218691776" lon="9.64761199050535"><ele>583.6666666666667</ele><time>2026-04-05T15:25:14.999Z</time></trkpt><trkpt lat="44.19572190240094" lon="9.64770528439208"><ele>584.8333333333334</ele><time>2026-04-05T15:25:37.999Z</time></trkpt><trkpt lat="44.195772535735145" lon="9.647758458435296"><ele>586.0</ele><time>2026-04-05T15:25:38.999Z</time></trkpt><trkpt lat="44.19588550958511" lon="9.647742559678104"><ele>586.0</ele><time>2026-04-05T15:25:40.999Z</time></trkpt><trkpt lat="44.19594216233809" lon="9.647609812142266"><ele>586.0</ele><time>2026-04-05T15:25:42.999Z</time></trkpt><trkpt lat="44.1960124042645" lon="9.64747289663854"><ele>586.0</ele><time>2026-04-05T15:25:44.999Z</time></trkpt><trkpt lat="44.19608606431062" lon="9.647345288795554"><ele>586.0</ele><time>2026-04-05T15:25:45.999Z</time></trkpt><trkpt lat="44.196140934269145" lon="9.647301759559985"><ele>586.0</ele><time>2026-04-05T15:25:46.999Z</time></trkpt><trkpt lat="44.19623812403448" lon="9.647242328308508"><ele>586.0</ele><time>2026-04-05T15:25:48.999Z</time></trkpt><trkpt lat="44.19630130066773" lon="9.647200201561887"><ele>586.0</ele><time>2026-04-05T15:25:50.999Z</time></trkpt><trkpt lat="44.19640021054198" lon="9.647111450429907"><ele>586.0</ele><time>2026-04-05T15:25:52.999Z</time></trkpt><trkpt lat="44.19648120474521" lon="9.646980359804344"><ele>586.0</ele><time>2026-04-05T15:25:54.999Z</time></trkpt><trkpt lat="44.19652450489209" lon="9.646851171755412"><ele>586.0</ele><time>2026-04-05T15:25:56Z</time></trkpt><trkpt lat="44.19652426679595" lon="9.64672686934873"><ele>580.8</ele><time>2026-04-05T15:25:57Z</time></trkpt><trkpt lat="44.19649313582057" lon="9.64659694223798"><ele>575.6</ele><time>2026-04-05T15:25:58Z</time></trkpt><trkpt lat="44.19650011734882" lon="9.646480317905207"><ele>570.4</ele><time>2026-04-05T15:25:59Z</time></trkpt><trkpt lat="44.19648176274466" lon="9.64634054729929"><ele>565.2</ele><time>2026-04-05T15:26:01Z</time></trkpt><trkpt lat="44.196455589486284" lon="9.646217004851852"><ele>560.0</ele><time>2026-04-05T15:26:03Z</time></trkpt><trkpt lat="44.19636477229155" lon="9.646159432664373"><ele>561.0</ele><time>2026-04-05T15:26:05Z</time></trkpt><trkpt lat="44.196278689123645" lon="9.646075212395063"><ele>562.0</ele><time>2026-04-05T15:26:07Z</time></trkpt><trkpt lat="44.1962102452287" lon="9.645927204190675"><ele>563.0</ele><time>2026-04-05T15:26:09Z</time></trkpt><trkpt lat="44.1961569966231" lon="9.645832895415229"><ele>564.0</ele><time>2026-04-05T15:26:10Z</time></trkpt><trkpt lat="44.19611168600232" lon="9.645730111624156"><ele>565.0</ele><time>2026-04-05T15:26:11Z</time></trkpt><trkpt lat="44.19603600560225" lon="9.645667310545196"><ele>565.0</ele><time>2026-04-05T15:26:12Z</time></trkpt><trkpt lat="44.195955921592216" lon="9.645611136557045"><ele>565.0</ele><time>2026-04-05T15:26:13Z</time></trkpt><trkpt lat="44.19591102002246" lon="9.645505265692956"><ele>565.0</ele><time>2026-04-05T15:26:14Z</time></trkpt><trkpt lat="44.1958653704636" lon="9.645418261639742"><ele>565.0</ele><time>2026-04-05T15:26:15Z</time></trkpt><trkpt lat="44.19582361568154" lon="9.64532684903261"><ele>565.0</ele><time>2026-04-05T15:26:16Z</time></trkpt><trkpt lat="44.195783498787996" lon="9.64522664962242"><ele>565.0</ele><time>2026-04-05T15:26:17Z</time></trkpt><trkpt lat="44.19577125691627" lon="9.645109567629735"><ele>568.1666666666667</ele><time>2026-04-05T15:26:18Z</time></trkpt><trkpt lat="44.195758282158316" lon="9.644992673080672"><ele>571.3333333333334</ele><time>2026-04-05T15:26:19Z</time></trkpt><trkpt lat="44.195685900029915" lon="9.644906579426134"><ele>574.5</ele><time>2026-04-05T15:26:20Z</time></trkpt><trkpt lat="44.195646502305806" lon="9.644807663230175"><ele>577.6666666666666</ele><time>2026-04-05T15:26:21Z</time></trkpt><trkpt lat="44.195601940396614" lon="9.644721385967696"><ele>580.8333333333333</ele><time>2026-04-05T15:26:22Z</time></trkpt><trkpt lat="44.195576622325596" lon="9.644627273730087"><ele>584.0</ele><time>2026-04-05T15:26:23Z</time></trkpt><trkpt lat="44.19554947975754" lon="9.644523072574776"><ele>574.0</ele><time>2026-04-05T15:26:24Z</time></trkpt><trkpt lat="44.195515662243935" lon="9.644414620036818"><ele>564.0</ele><time>2026-04-05T15:26:25Z</time></trkpt><trkpt lat="44.19550542403133" lon="9.644279075500576"><ele>554.0</ele><time>2026-04-05T15:26:26Z</time></trkpt><trkpt lat="44.19547476095922" lon="9.644124972887061"><ele>544.0</ele><time>2026-04-05T15:26:27Z</time></trkpt><trkpt lat="44.195446275889275" lon="9.643949673405153"><ele>534.0</ele><time>2026-04-05T15:26:28Z</time></trkpt><trkpt lat="44.195413237582024" lon="9.643777892267385"><ele>535.0</ele><time>2026-04-05T15:26:29Z</time></trkpt><trkpt lat="44.195380864882516" lon="9.643615226120344"><ele>536.0</ele><time>2026-04-05T15:26:30Z</time></trkpt><trkpt lat="44.19537753667298" lon="9.643425068576137"><ele>537.0</ele><time>2026-04-05T15:26:31Z</time></trkpt><trkpt lat="44.19538766142029" lon="9.643221540011083"><ele>538.0</ele><time>2026-04-05T15:26:32Z</time></trkpt><trkpt lat="44.19540288244873" lon="9.643023777018428"><ele>538.0</ele><time>2026-04-05T15:26:33Z</time></trkpt><trkpt lat="44.19540178274803" lon="9.642853753033922"><ele>538.0</ele><time>2026-04-05T15:26:34Z</time></trkpt><trkpt lat="44.19540198677167" lon="9.642718161374251"><ele>538.0</ele><time>2026-04-05T15:26:35Z</time></trkpt><trkpt lat="44.19541010789879" lon="9.642615938394643"><ele>538.0</ele><time>2026-04-05T15:26:36Z</time></trkpt><trkpt lat="44.19543528915793" lon="9.642530726972058"><ele>538.0</ele><time>2026-04-05T15:26:37Z</time></trkpt><trkpt lat="44.19550001810254" lon="9.642487243961012"><ele>538.0</ele><time>2026-04-05T15:26:38Z</time></trkpt><trkpt lat="44.19556798203321" lon="9.64256111200204"><ele>538.1999999999999</ele><time>2026-04-05T15:26:39Z</time></trkpt><trkpt lat="44.19564249830183" lon="9.642588975691407"><ele>538.4</ele><time>2026-04-05T15:26:40Z</time></trkpt><trkpt lat="44.19573597451749" lon="9.642628309956432"><ele>538.5999999999999</ele><time>2026-04-05T15:26:41Z</time></trkpt><trkpt lat="44.19583568780833" lon="9.64266961230357"><ele>538.8</ele><time>2026-04-05T15:26:42Z</time></trkpt><trkpt lat="44.19594603885984" lon="9.642710072707528"><ele>539.0</ele><time>2026-04-05T15:26:43Z</time></trkpt><trkpt lat="44.19606164397215" lon="9.642752459630204"><ele>548.6</ele><time>2026-04-05T15:26:44Z</time></trkpt><trkpt lat="44.19616234971716" lon="9.642797745566316"><ele>558.2</ele><time>2026-04-05T15:26:45Z</time></trkpt><trkpt lat="44.19624271587121" lon="9.642854328678604"><ele>567.8000000000001</ele><time>2026-04-05T15:26:46Z</time></trkpt><trkpt lat="44.1963139767094" lon="9.642909438859496"><ele>577.4</ele><time>2026-04-05T15:26:47Z</time></trkpt><trkpt lat="44.19637196768501" lon="9.642950132257674"><ele>587.0</ele><time>2026-04-05T15:26:48Z</time></trkpt><trkpt lat="44.196488520172615" lon="9.642913115227195"><ele>585.8333333333333</ele><time>2026-04-05T15:26:50Z</time></trkpt><trkpt lat="44.19650333954544" lon="9.642807606393905"><ele>584.6666666666666</ele><time>2026-04-05T15:26:51Z</time></trkpt><trkpt lat="44.196548933043736" lon="9.64272375281445"><ele>583.5</ele><time>2026-04-05T15:26:51.999Z</time></trkpt><trkpt lat="44.19660890663743" lon="9.642620342191769"><ele>582.3333333333334</ele><time>2026-04-05T15:26:52.999Z</time></trkpt><trkpt lat="44.19666921873048" lon="9.642515720383518"><ele>581.1666666666667</ele><time>2026-04-05T15:26:53.999Z</time></trkpt><trkpt lat="44.196708205044295" lon="9.64243331464956"><ele>580.0</ele><time>2026-04-05T15:26:54.999Z</time></trkpt><trkpt lat="44.196724098868835" lon="9.642325744014002"><ele>580.0</ele><time>2026-04-05T15:26:55.999Z</time></trkpt><trkpt lat="44.196670056749326" lon="9.642208947804681"><ele>580.0</ele><time>2026-04-05T15:26:56.999Z</time></trkpt><trkpt lat="44.19662672396045" lon="9.642092307490604"><ele>580.0</ele><time>2026-04-05T15:26:57.999Z</time></trkpt><trkpt lat="44.19657474115724" lon="9.641964201626445"><ele>580.0</ele><time>2026-04-05T15:26:58.999Z</time></trkpt><trkpt lat="44.19651999482165" lon="9.641814206920372"><ele>580.0</ele><time>2026-04-05T15:26:59.999Z</time></trkpt><trkpt lat="44.196478773686" lon="9.64166119242955"><ele>570.0</ele><time>2026-04-05T15:27:00.999Z</time></trkpt><trkpt lat="44.19644414644102" lon="9.641500851693516"><ele>560.0</ele><time>2026-04-05T15:27:01.999Z</time></trkpt><trkpt lat="44.19639594231568" lon="9.641324867734857"><ele>550.0</ele><time>2026-04-05T15:27:02.999Z</time></trkpt><trkpt lat="44.1963784760444" lon="9.641153538859912"><ele>540.0</ele><time>2026-04-05T15:27:03.999Z</time></trkpt><trkpt lat="44.196337696952774" lon="9.641002164691107"><ele>537.4</ele><time>2026-04-05T15:27:04.999Z</time></trkpt><trkpt lat="44.19630539187926" lon="9.640831583633172"><ele>534.8</ele><time>2026-04-05T15:27:05.999Z</time></trkpt><trkpt lat="44.196295433332324" lon="9.64066636824687"><ele>532.2</ele><time>2026-04-05T15:27:06.999Z</time></trkpt><trkpt lat="44.19629818294496" lon="9.640563391572096"><ele>529.6</ele><time>2026-04-05T15:27:07.999Z</time></trkpt><trkpt lat="44.196344718206525" lon="9.64043410912534"><ele>527.0</ele><time>2026-04-05T15:27:09.999Z</time></trkpt><trkpt lat="44.19642858627553" lon="9.640468266920085"><ele>532.6666666666666</ele><time>2026-04-05T15:27:11.999Z</time></trkpt><trkpt lat="44.19654509389224" lon="9.640532112576912"><ele>538.3333333333333</ele><time>2026-04-05T15:27:13.999Z</time></trkpt><trkpt lat="44.19660475773099" lon="9.640599509203929"><ele>544.0</ele><time>2026-04-05T15:27:14.999Z</time></trkpt><trkpt lat="44.1966799058465" lon="9.640648756115137"><ele>549.6666666666666</ele><time>2026-04-05T15:27:15.999Z</time></trkpt><trkpt lat="44.19676664272147" lon="9.640666553540235"><ele>555.3333333333334</ele><time>2026-04-05T15:27:16.999Z</time></trkpt><trkpt lat="44.19683133023076" lon="9.640688540227817"><ele>561.0</ele><time>2026-04-05T15:27:17.999Z</time></trkpt><trkpt lat="44.19693090029684" lon="9.64056797205297"><ele>561.0</ele><time>2026-04-05T15:27:19.999Z</time></trkpt><trkpt lat="44.196940907939464" lon="9.640433899575697"><ele>561.0</ele><time>2026-04-05T15:27:20.999Z</time></trkpt><trkpt lat="44.19699387736707" lon="9.64031605459116"><ele>561.0</ele><time>2026-04-05T15:27:21.999Z</time></trkpt><trkpt lat="44.197057001772144" lon="9.640164121004078"><ele>561.0</ele><time>2026-04-05T15:27:22.999Z</time></trkpt><trkpt lat="44.1971191558646" lon="9.639994886593565"><ele>554.25</ele><time>2026-04-05T15:27:23.999Z</time></trkpt><trkpt lat="44.197153437200846" lon="9.639796034414397"><ele>547.5</ele><time>2026-04-05T15:27:24.999Z</time></trkpt><trkpt lat="44.19721552818126" lon="9.639609576814893"><ele>540.75</ele><time>2026-04-05T15:27:25.999Z</time></trkpt><trkpt lat="44.19725715759441" lon="9.63946179213631"><ele>534.0</ele><time>2026-04-05T15:27:26.999Z</time></trkpt><trkpt lat="44.197310032106586" lon="9.639329991492938"><ele>536.2</ele><time>2026-04-05T15:27:27.999Z</time></trkpt><trkpt lat="44.19737928210168" lon="9.639207398379156"><ele>538.4</ele><time>2026-04-05T15:27:28.999Z</time></trkpt><trkpt lat="44.19745958552579" lon="9.639102890059824"><ele>540.6</ele><time>2026-04-05T15:27:29.999Z</time></trkpt><trkpt lat="44.19752617762785" lon="9.638997315050739"><ele>542.8</ele><time>2026-04-05T15:27:30.999Z</time></trkpt><trkpt lat="44.19757954489303" lon="9.638887255536714"><ele>545.0</ele><time>2026-04-05T15:27:31.999Z</time></trkpt><trkpt lat="44.19759634333068" lon="9.638744306459367"><ele>541.4</ele><time>2026-04-05T15:27:32.999Z</time></trkpt><trkpt lat="44.19757343315046" lon="9.638581269485698"><ele>537.8</ele><time>2026-04-05T15:27:33.999Z</time></trkpt><trkpt lat="44.19753455188917" lon="9.638428412925155"><ele>534.2</ele><time>2026-04-05T15:27:34.999Z</time></trkpt><trkpt lat="44.19754861760626" lon="9.638285953975803"><ele>530.6</ele><time>2026-04-05T15:27:35.999Z</time></trkpt><trkpt lat="44.197577817680795" lon="9.638151904576068"><ele>527.0</ele><time>2026-04-05T15:27:36.999Z</time></trkpt><trkpt lat="44.197645649637565" lon="9.638040015712914"><ele>527.0</ele><time>2026-04-05T15:27:37.999Z</time></trkpt><trkpt lat="44.19770145137852" lon="9.637896810471132"><ele>527.0</ele><time>2026-04-05T15:27:38.999Z</time></trkpt><trkpt lat="44.197771021957664" lon="9.637752616430987"><ele>527.0</ele><time>2026-04-05T15:27:39.999Z</time></trkpt><trkpt lat="44.19785328218053" lon="9.637615704126679"><ele>527.0</ele><time>2026-04-05T15:27:40.999Z</time></trkpt><trkpt lat="44.19793974595827" lon="9.63748213657643"><ele>523.8000000000001</ele><time>2026-04-05T15:27:41.999Z</time></trkpt><trkpt lat="44.1980144554771" lon="9.63736191212447"><ele>520.6</ele><time>2026-04-05T15:27:42.999Z</time></trkpt><trkpt lat="44.1980778041888" lon="9.63725428624718"><ele>517.4000000000001</ele><time>2026-04-05T15:27:43.999Z</time></trkpt><trkpt lat="44.19812249893393" lon="9.637125217290993"><ele>514.2</ele><time>2026-04-05T15:27:44.999Z</time></trkpt><trkpt lat="44.198157440125094" lon="9.636970600474912"><ele>511.0</ele><time>2026-04-05T15:27:45.999Z</time></trkpt><trkpt lat="44.19811797291235" lon="9.636808475264566"><ele>515.0</ele><time>2026-04-05T15:27:46.999Z</time></trkpt><trkpt lat="44.198079266072426" lon="9.63664479434848"><ele>519.0</ele><time>2026-04-05T15:27:47.999Z</time></trkpt><trkpt lat="44.19805492441434" lon="9.636523364902214"><ele>523.0</ele><time>2026-04-05T15:27:48.999Z</time></trkpt><trkpt lat="44.19807197617187" lon="9.636429304846368"><ele>527.0</ele><time>2026-04-05T15:27:49.999Z</time></trkpt><trkpt lat="44.198125005705805" lon="9.636227936325263"><ele>531.0</ele><time>2026-04-05T15:27:51.999Z</time></trkpt><trkpt lat="44.198191577839104" lon="9.636153322412524"><ele>526.0</ele><time>2026-04-05T15:27:52.999Z</time></trkpt><trkpt lat="44.19827029672802" lon="9.636092746991489"><ele>521.0</ele><time>2026-04-05T15:27:53.999Z</time></trkpt><trkpt lat="44.19836145828098" lon="9.63604664634039"><ele>516.0</ele><time>2026-04-05T15:27:54.999Z</time></trkpt><trkpt lat="44.1984603826361" lon="9.636015605864465"><ele>511.0</ele><time>2026-04-05T15:27:55.999Z</time></trkpt><trkpt lat="44.19856812529854" lon="9.63600391764645"><ele>506.0</ele><time>2026-04-05T15:27:56.999Z</time></trkpt><trkpt lat="44.19867264334716" lon="9.636007156773369"><ele>506.0</ele><time>2026-04-05T15:27:57.999Z</time></trkpt><trkpt lat="44.19875952042879" lon="9.635997773952763"><ele>506.0</ele><time>2026-04-05T15:27:58.999Z</time></trkpt><trkpt lat="44.198828177570256" lon="9.635951903692906"><ele>506.0</ele><time>2026-04-05T15:27:59.999Z</time></trkpt><trkpt lat="44.19890440223279" lon="9.635850540319849"><ele>506.0</ele><time>2026-04-05T15:28:02Z</time></trkpt><trkpt lat="44.1989730145447" lon="9.635737775423362"><ele>506.0</ele><time>2026-04-05T15:28:03Z</time></trkpt><trkpt lat="44.198962727305535" lon="9.635590317754522"><ele>506.0</ele><time>2026-04-05T15:28:04Z</time></trkpt><trkpt lat="44.198922211504886" lon="9.635421800284329"><ele>506.0</ele><time>2026-04-05T15:28:05Z</time></trkpt><trkpt lat="44.19886949207078" lon="9.63526722673695"><ele>506.0</ele><time>2026-04-05T15:28:06Z</time></trkpt><trkpt lat="44.198799840461525" lon="9.635072214933187"><ele>506.0</ele><time>2026-04-05T15:28:07Z</time></trkpt><trkpt lat="44.19874238669858" lon="9.634915536933262"><ele>501.8333333333333</ele><time>2026-04-05T15:28:08Z</time></trkpt><trkpt lat="44.198706871136906" lon="9.63479586045087"><ele>497.66666666666663</ele><time>2026-04-05T15:28:09Z</time></trkpt><trkpt lat="44.198696012108485" lon="9.634707070280975"><ele>493.5</ele><time>2026-04-05T15:28:10Z</time></trkpt><trkpt lat="44.19870513285113" lon="9.634597930242112"><ele>489.33333333333337</ele><time>2026-04-05T15:28:11Z</time></trkpt><trkpt lat="44.19871172839812" lon="9.634423389368546"><ele>485.1666666666667</ele><time>2026-04-05T15:28:12Z</time></trkpt><trkpt lat="44.19871624146631" lon="9.634306261045506"><ele>481.0</ele><time>2026-04-05T15:28:13Z</time></trkpt><trkpt lat="44.198729218205045" lon="9.634167832758038"><ele>479.50000000000006</ele><time>2026-04-05T15:28:14Z</time></trkpt><trkpt lat="44.19875757119957" lon="9.63407224632963"><ele>478.0</ele><time>2026-04-05T15:28:15Z</time></trkpt><trkpt lat="44.198806475834914" lon="9.6340105206686"><ele>476.5</ele><time>2026-04-05T15:28:16Z</time></trkpt><trkpt lat="44.1988726369627" lon="9.633968105918333"><ele>475.0</ele><time>2026-04-05T15:28:17Z</time></trkpt><trkpt lat="44.19894459293508" lon="9.63394644846369"><ele>473.50000000000006</ele><time>2026-04-05T15:28:18Z</time></trkpt><trkpt lat="44.19902992889405" lon="9.633926508415685"><ele>472.0</ele><time>2026-04-05T15:28:19Z</time></trkpt><trkpt lat="44.19911595199188" lon="9.633913659733068"><ele>479.0</ele><time>2026-04-05T15:28:20Z</time></trkpt><trkpt lat="44.19922412093415" lon="9.633895430542863"><ele>486.00000000000006</ele><time>2026-04-05T15:28:21Z</time></trkpt><trkpt lat="44.19932943293642" lon="9.633877646464283"><ele>493.00000000000006</ele><time>2026-04-05T15:28:22Z</time></trkpt><trkpt lat="44.19943236309651" lon="9.633864774444556"><ele>500.0</ele><time>2026-04-05T15:28:23Z</time></trkpt><trkpt lat="44.19952814785548" lon="9.633840184820658"><ele>507.0</ele><time>2026-04-05T15:28:24Z</time></trkpt><trkpt lat="44.199623343491076" lon="9.633859252488374"><ele>507.0</ele><time>2026-04-05T15:28:25Z</time></trkpt><trkpt lat="44.19971246046393" lon="9.63385448596958"><ele>507.00000000000006</ele><time>2026-04-05T15:28:26Z</time></trkpt><trkpt lat="44.19980446967255" lon="9.633813819897126"><ele>507.00000000000006</ele><time>2026-04-05T15:28:27Z</time></trkpt><trkpt lat="44.19989665285204" lon="9.633756261253096"><ele>507.0</ele><time>2026-04-05T15:28:28Z</time></trkpt><trkpt lat="44.19998187330168" lon="9.633677201111627"><ele>507.0</ele><time>2026-04-05T15:28:29Z</time></trkpt><trkpt lat="44.20006085436901" lon="9.633577818586271"><ele>501.25</ele><time>2026-04-05T15:28:30Z</time></trkpt><trkpt lat="44.20013849643524" lon="9.633459182680097"><ele>495.5</ele><time>2026-04-05T15:28:31Z</time></trkpt><trkpt lat="44.20020628750884" lon="9.633342462055873"><ele>489.75</ele><time>2026-04-05T15:28:32Z</time></trkpt><trkpt lat="44.20027652706218" lon="9.63320672445196"><ele>484.0</ele><time>2026-04-05T15:28:33Z</time></trkpt><trkpt lat="44.200339665445256" lon="9.633057986281738"><ele>484.0</ele><time>2026-04-05T15:28:34Z</time></trkpt><trkpt lat="44.20041667876491" lon="9.632926884566924"><ele>484.0</ele><time>2026-04-05T15:28:35Z</time></trkpt><trkpt lat="44.20051183011508" lon="9.632822805015726"><ele>484.0</ele><time>2026-04-05T15:28:36Z</time></trkpt><trkpt lat="44.200618766249285" lon="9.632736730365163"><ele>484.0</ele><time>2026-04-05T15:28:37Z</time></trkpt><trkpt lat="44.200680335564314" lon="9.632600188791491"><ele>483.4</ele><time>2026-04-05T15:28:38Z</time></trkpt><trkpt lat="44.200712001831945" lon="9.632451062165403"><ele>482.79999999999995</ele><time>2026-04-05T15:28:39Z</time></trkpt><trkpt lat="44.20072092961513" lon="9.632300316446694"><ele>482.20000000000005</ele><time>2026-04-05T15:28:40Z</time></trkpt><trkpt lat="44.20075457366977" lon="9.63221779730593"><ele>481.6</ele><time>2026-04-05T15:28:41Z</time></trkpt><trkpt lat="44.20081451947243" lon="9.632149520656556"><ele>481.0</ele><time>2026-04-05T15:28:42Z</time></trkpt><trkpt lat="44.20089424316839" lon="9.632107749480475"><ele>481.0</ele><time>2026-04-05T15:28:43Z</time></trkpt><trkpt lat="44.200992629875614" lon="9.63206481295492"><ele>481.0</ele><time>2026-04-05T15:28:44Z</time></trkpt><trkpt lat="44.20109891341528" lon="9.63202489830376"><ele>481.0</ele><time>2026-04-05T15:28:45Z</time></trkpt><trkpt lat="44.20121816613185" lon="9.631993466950014"><ele>481.0</ele><time>2026-04-05T15:28:46Z</time></trkpt><trkpt lat="44.201344214502136" lon="9.63196181937545"><ele>476.75</ele><time>2026-04-05T15:28:47Z</time></trkpt><trkpt lat="44.20147908132938" lon="9.63193447638463"><ele>472.5</ele><time>2026-04-05T15:28:48Z</time></trkpt><trkpt lat="44.20160340450658" lon="9.631924685540147"><ele>468.25</ele><time>2026-04-05T15:28:49Z</time></trkpt><trkpt lat="44.20172593718939" lon="9.631899823283943"><ele>464.0</ele><time>2026-04-05T15:28:50Z</time></trkpt><trkpt lat="44.2018557292278" lon="9.63184365015721"><ele>464.0</ele><time>2026-04-05T15:28:51Z</time></trkpt><trkpt lat="44.20196744836798" lon="9.631788592426963"><ele>464.0</ele><time>2026-04-05T15:28:52Z</time></trkpt><trkpt lat="44.20205407446038" lon="9.631681511163222"><ele>464.0</ele><time>2026-04-05T15:28:53Z</time></trkpt><trkpt lat="44.202112578622284" lon="9.631567466604343"><ele>464.0</ele><time>2026-04-05T15:28:54Z</time></trkpt><trkpt lat="44.202140538752744" lon="9.63140656158249"><ele>464.0</ele><time>2026-04-05T15:28:55Z</time></trkpt><trkpt lat="44.20213616975618" lon="9.631240284776872"><ele>464.0</ele><time>2026-04-05T15:28:56Z</time></trkpt><trkpt lat="44.20211010409263" lon="9.63106945183881"><ele>464.0</ele><time>2026-04-05T15:28:57Z</time></trkpt><trkpt lat="44.20204852969655" lon="9.63090146537344"><ele>464.0</ele><time>2026-04-05T15:28:58Z</time></trkpt><trkpt lat="44.2019620779667" lon="9.630758503461657"><ele>464.2</ele><time>2026-04-05T15:28:59Z</time></trkpt><trkpt lat="44.20190255804476" lon="9.630606915298422"><ele>464.4</ele><time>2026-04-05T15:29:00Z</time></trkpt><trkpt lat="44.2018411163042" lon="9.630472781066317"><ele>464.6</ele><time>2026-04-05T15:29:00.999Z</time></trkpt><trkpt lat="44.201791442021396" lon="9.6303345783096"><ele>464.8</ele><time>2026-04-05T15:29:01.999Z</time></trkpt><trkpt lat="44.20175647342462" lon="9.630211920053688"><ele>465.0</ele><time>2026-04-05T15:29:02.999Z</time></trkpt><trkpt lat="44.201740574596045" lon="9.630115544368225"><ele>465.0</ele><time>2026-04-05T15:29:03.999Z</time></trkpt><trkpt lat="44.20182880577851" lon="9.629986575490978"><ele>465.0</ele><time>2026-04-05T15:29:05.999Z</time></trkpt><trkpt lat="44.20190975040232" lon="9.629932991863601"><ele>465.0</ele><time>2026-04-05T15:29:06.999Z</time></trkpt><trkpt lat="44.202003724021445" lon="9.629854289086209"><ele>465.0</ele><time>2026-04-05T15:29:07.999Z</time></trkpt><trkpt lat="44.202095695377615" lon="9.629709797473506"><ele>465.0</ele><time>2026-04-05T15:29:08.999Z</time></trkpt><trkpt lat="44.202183354910844" lon="9.629584641277278"><ele>465.0</ele><time>2026-04-05T15:29:09.999Z</time></trkpt><trkpt lat="44.2022622689221" lon="9.629501794103126"><ele>465.0</ele><time>2026-04-05T15:29:10.999Z</time></trkpt><trkpt lat="44.20237480145486" lon="9.629419142485768"><ele>465.0</ele><time>2026-04-05T15:29:11.999Z</time></trkpt><trkpt lat="44.202473680620415" lon="9.629325832899644"><ele>466.6</ele><time>2026-04-05T15:29:12.999Z</time></trkpt><trkpt lat="44.202534395771046" lon="9.629221278047961"><ele>468.2</ele><time>2026-04-05T15:29:13.999Z</time></trkpt><trkpt lat="44.20257555014719" lon="9.629092091096492"><ele>469.79999999999995</ele><time>2026-04-05T15:29:14.999Z</time></trkpt><trkpt lat="44.202579158471366" lon="9.62893132597038"><ele>471.4</ele><time>2026-04-05T15:29:15.999Z</time></trkpt><trkpt lat="44.202552192507525" lon="9.628781940192761"><ele>473.0</ele><time>2026-04-05T15:29:16.999Z</time></trkpt><trkpt lat="44.202538687614044" lon="9.628682946762357"><ele>469.59999999999997</ele><time>2026-04-05T15:29:17.999Z</time></trkpt><trkpt lat="44.20255422998022" lon="9.628585860107155"><ele>466.19999999999993</ele><time>2026-04-05T15:29:18.999Z</time></trkpt><trkpt lat="44.20262390782139" lon="9.628521111169757"><ele>462.8</ele><time>2026-04-05T15:29:19.999Z</time></trkpt><trkpt lat="44.20269804159531" lon="9.628436082620267"><ele>459.4</ele><time>2026-04-05T15:29:20.999Z</time></trkpt><trkpt lat="44.20278778162935" lon="9.62833735609168"><ele>456.0</ele><time>2026-04-05T15:29:21.999Z</time></trkpt><trkpt lat="44.202877438598" lon="9.628200732409457"><ele>456.0</ele><time>2026-04-05T15:29:22.999Z</time></trkpt><trkpt lat="44.20296337000997" lon="9.6280528530199"><ele>456.0</ele><time>2026-04-05T15:29:23.999Z</time></trkpt><trkpt lat="44.20304996273393" lon="9.627915416135595"><ele>456.0</ele><time>2026-04-05T15:29:24.999Z</time></trkpt><trkpt lat="44.20313064890855" lon="9.627790619894672"><ele>456.0</ele><time>2026-04-05T15:29:25.999Z</time></trkpt><trkpt lat="44.203185875021276" lon="9.627619080648694"><ele>456.5</ele><time>2026-04-05T15:29:26.999Z</time></trkpt><trkpt lat="44.20320678710578" lon="9.62742837337722"><ele>457.0</ele><time>2026-04-05T15:29:27.999Z</time></trkpt><trkpt lat="44.20322443038922" lon="9.627238033250343"><ele>457.5</ele><time>2026-04-05T15:29:28.999Z</time></trkpt><trkpt lat="44.20327512781673" lon="9.627070767223929"><ele>458.0</ele><time>2026-04-05T15:29:29.999Z</time></trkpt><trkpt lat="44.20328098121798" lon="9.62691839706348"><ele>458.0</ele><time>2026-04-05T15:29:30.999Z</time></trkpt><trkpt lat="44.203267348004275" lon="9.62676219873852"><ele>457.99999999999994</ele><time>2026-04-05T15:29:31.999Z</time></trkpt><trkpt lat="44.20326308434555" lon="9.62663581158387"><ele>457.99999999999994</ele><time>2026-04-05T15:29:32.999Z</time></trkpt><trkpt lat="44.20328785986535" lon="9.626510977975677"><ele>458.0</ele><time>2026-04-05T15:29:33.999Z</time></trkpt><trkpt lat="44.20334017836554" lon="9.626382859731837"><ele>458.0</ele><time>2026-04-05T15:29:34.999Z</time></trkpt><trkpt lat="44.20341459526306" lon="9.626274667107223"><ele>458.0</ele><time>2026-04-05T15:29:35.999Z</time></trkpt><trkpt lat="44.20349506719369" lon="9.626184448314307"><ele>457.99999999999994</ele><time>2026-04-05T15:29:36.999Z</time></trkpt><trkpt lat="44.20357135400079" lon="9.626085217510122"><ele>457.99999999999994</ele><time>2026-04-05T15:29:37.999Z</time></trkpt><trkpt lat="44.20362487362066" lon="9.625970035848614"><ele>458.0</ele><time>2026-04-05T15:29:38.999Z</time></trkpt><trkpt lat="44.203662664154585" lon="9.625839651678525"><ele>458.0</ele><time>2026-04-05T15:29:39.999Z</time></trkpt><trkpt lat="44.20373176542138" lon="9.625744740447269"><ele>457.57142857142856</ele><time>2026-04-05T15:29:40.999Z</time></trkpt><trkpt lat="44.203821712541966" lon="9.62571788641026"><ele>457.14285714285717</ele><time>2026-04-05T15:29:41.999Z</time></trkpt><trkpt lat="44.20388283271618" lon="9.62564576188207"><ele>456.7142857142857</ele><time>2026-04-05T15:29:42.999Z</time></trkpt><trkpt lat="44.203930195689665" lon="9.6255741636119"><ele>456.2857142857143</ele><time>2026-04-05T15:29:43.999Z</time></trkpt><trkpt lat="44.20395680631776" lon="9.625481402336918"><ele>455.8571428571429</ele><time>2026-04-05T15:29:44.999Z</time></trkpt><trkpt lat="44.20395791842172" lon="9.625383099693025"><ele>455.42857142857144</ele><time>2026-04-05T15:29:45.999Z</time></trkpt><trkpt lat="44.203977130758126" lon="9.625297585236249"><ele>455.0</ele><time>2026-04-05T15:29:46.999Z</time></trkpt><trkpt lat="44.204002865915925" lon="9.625202837292981"><ele>454.99999999999994</ele><time>2026-04-05T15:29:47.999Z</time></trkpt><trkpt lat="44.20403563441718" lon="9.625108878458658"><ele>455.0</ele><time>2026-04-05T15:29:48.999Z</time></trkpt><trkpt lat="44.20409995788011" lon="9.62502289667454"><ele>455.0</ele><time>2026-04-05T15:29:49.999Z</time></trkpt><trkpt lat="44.20417749385417" lon="9.624945153689486"><ele>455.0</ele><time>2026-04-05T15:29:50.999Z</time></trkpt><trkpt lat="44.20423890131397" lon="9.624850836880876"><ele>454.99999999999994</ele><time>2026-04-05T15:29:51.999Z</time></trkpt><trkpt lat="44.204298581193875" lon="9.624751698983816"><ele>455.0</ele><time>2026-04-05T15:29:52.999Z</time></trkpt><trkpt lat="44.20432562998536" lon="9.624624961698926"><ele>454.99999999999994</ele><time>2026-04-05T15:29:53.999Z</time></trkpt><trkpt lat="44.20434748025896" lon="9.624506229860271"><ele>455.0</ele><time>2026-04-05T15:29:54.999Z</time></trkpt><trkpt lat="44.20435327527502" lon="9.624377663526388"><ele>455.0</ele><time>2026-04-05T15:29:55.999Z</time></trkpt><trkpt lat="44.20436384304451" lon="9.624255829513064"><ele>455.0</ele><time>2026-04-05T15:29:56.999Z</time></trkpt><trkpt lat="44.20438629234606" lon="9.624161781843343"><ele>454.99999999999994</ele><time>2026-04-05T15:29:57.999Z</time></trkpt><trkpt lat="44.20441676685146" lon="9.624073153496221"><ele>455.0</ele><time>2026-04-05T15:29:58.999Z</time></trkpt><trkpt lat="44.20448219565682" lon="9.624008537419142"><ele>451.4</ele><time>2026-04-05T15:29:59.999Z</time></trkpt><trkpt lat="44.20456192952916" lon="9.623960803643271"><ele>447.8</ele><time>2026-04-05T15:30:00.999Z</time></trkpt><trkpt lat="44.20465379002411" lon="9.623953515349749"><ele>444.20000000000005</ele><time>2026-04-05T15:30:01.999Z</time></trkpt><trkpt lat="44.20472845830382" lon="9.623908454113346"><ele>440.6</ele><time>2026-04-05T15:30:02.999Z</time></trkpt><trkpt lat="44.204792037567046" lon="9.623801315105707"><ele>437.0</ele><time>2026-04-05T15:30:03.999Z</time></trkpt><trkpt lat="44.2048208512156" lon="9.62366373780369"><ele>439.40000000000003</ele><time>2026-04-05T15:30:04.999Z</time></trkpt><trkpt lat="44.2048648877947" lon="9.623536506974117"><ele>441.80000000000007</ele><time>2026-04-05T15:30:05.999Z</time></trkpt><trkpt lat="44.204893833573585" lon="9.623409022582216"><ele>444.2</ele><time>2026-04-05T15:30:06.999Z</time></trkpt><trkpt lat="44.20493665200214" lon="9.623324119043717"><ele>446.6</ele><time>2026-04-05T15:30:08Z</time></trkpt><trkpt lat="44.20496729281663" lon="9.623245996086661"><ele>449.0</ele><time>2026-04-05T15:30:09Z</time></trkpt><trkpt lat="44.205071897220556" lon="9.623160492460267"><ele>448.99999999999994</ele><time>2026-04-05T15:30:11Z</time></trkpt><trkpt lat="44.205169157774996" lon="9.62306380846048"><ele>449.0</ele><time>2026-04-05T15:30:13Z</time></trkpt><trkpt lat="44.20521360379437" lon="9.622981198125604"><ele>449.0</ele><time>2026-04-05T15:30:14Z</time></trkpt><trkpt lat="44.20521219666246" lon="9.622868860042207"><ele>449.0</ele><time>2026-04-05T15:30:15Z</time></trkpt><trkpt lat="44.20520989428005" lon="9.622763142529946"><ele>448.99999999999994</ele><time>2026-04-05T15:30:16Z</time></trkpt><trkpt lat="44.2052035584222" lon="9.622653554129872"><ele>449.0</ele><time>2026-04-05T15:30:17Z</time></trkpt><trkpt lat="44.20522126621942" lon="9.622540997403235"><ele>446.99999999999994</ele><time>2026-04-05T15:30:18Z</time></trkpt><trkpt lat="44.20523294263976" lon="9.62243987507584"><ele>445.0</ele><time>2026-04-05T15:30:19Z</time></trkpt><trkpt lat="44.20526422954166" lon="9.62234119289127"><ele>443.0</ele><time>2026-04-05T15:30:20Z</time></trkpt><trkpt lat="44.20527642351048" lon="9.622227636963208"><ele>441.0</ele><time>2026-04-05T15:30:21Z</time></trkpt><trkpt lat="44.20527487639295" lon="9.622128401946817"><ele>438.99999999999994</ele><time>2026-04-05T15:30:22Z</time></trkpt><trkpt lat="44.205318681634765" lon="9.62196311503308"><ele>437.0</ele><time>2026-04-05T15:30:24Z</time></trkpt><trkpt lat="44.20536484094749" lon="9.621897616237273"><ele>436.99999999999994</ele><time>2026-04-05T15:30:25Z</time></trkpt><trkpt lat="44.205423001505324" lon="9.621835240777134"><ele>437.0</ele><time>2026-04-05T15:30:26Z</time></trkpt><trkpt lat="44.20543026558181" lon="9.621709587800945"><ele>437.0</ele><time>2026-04-05T15:30:27Z</time></trkpt><trkpt lat="44.20544028601727" lon="9.621599506832288"><ele>437.0</ele><time>2026-04-05T15:30:28Z</time></trkpt><trkpt lat="44.2054508038616" lon="9.621492326503933"><ele>436.99999999999994</ele><time>2026-04-05T15:30:29Z</time></trkpt><trkpt lat="44.2054547220059" lon="9.621388276592272"><ele>437.0</ele><time>2026-04-05T15:30:30Z</time></trkpt><trkpt lat="44.20545791582018" lon="9.621294769680096"><ele>436.99999999999994</ele><time>2026-04-05T15:30:31Z</time></trkpt><trkpt lat="44.20544442244375" lon="9.621202202604822"><ele>437.0</ele><time>2026-04-05T15:30:32Z</time></trkpt><trkpt lat="44.20540328246817" lon="9.62111448159064"><ele>437.0</ele><time>2026-04-05T15:30:33Z</time></trkpt><trkpt lat="44.20535601283726" lon="9.621043760280063"><ele>437.0</ele><time>2026-04-05T15:30:34Z</time></trkpt><trkpt lat="44.20529155268944" lon="9.620987002371738"><ele>436.99999999999994</ele><time>2026-04-05T15:30:35Z</time></trkpt><trkpt lat="44.205213231181865" lon="9.62084972248246"><ele>437.0</ele><time>2026-04-05T15:30:37Z</time></trkpt><trkpt lat="44.205200654762294" lon="9.620692148774896"><ele>437.20000000000005</ele><time>2026-04-05T15:30:39Z</time></trkpt><trkpt lat="44.20523990818639" lon="9.620547276985087"><ele>437.40000000000003</ele><time>2026-04-05T15:30:41Z</time></trkpt><trkpt lat="44.20526947192585" lon="9.620407277625382"><ele>437.59999999999997</ele><time>2026-04-05T15:30:43Z</time></trkpt><trkpt lat="44.20519676572356" lon="9.620325613352424"><ele>437.79999999999995</ele><time>2026-04-05T15:30:44Z</time></trkpt><trkpt lat="44.20511154238445" lon="9.620317825047547"><ele>438.0</ele><time>2026-04-05T15:30:45Z</time></trkpt><trkpt lat="44.205033563480306" lon="9.620313485837018"><ele>438.0</ele><time>2026-04-05T15:30:46Z</time></trkpt><trkpt lat="44.20494385913995" lon="9.62031819974944"><ele>438.0</ele><time>2026-04-05T15:30:47Z</time></trkpt><trkpt lat="44.204866036135435" lon="9.620330201174946"><ele>438.0</ele><time>2026-04-05T15:30:48Z</time></trkpt><trkpt lat="44.20479994322039" lon="9.620333186373655"><ele>438.0</ele><time>2026-04-05T15:30:49Z</time></trkpt><trkpt lat="44.20473088453571" lon="9.62033112667147"><ele>438.0</ele><time>2026-04-05T15:30:50Z</time></trkpt><trkpt lat="44.20464350746792" lon="9.620274601627887"><ele>438.0</ele><time>2026-04-05T15:30:51Z</time></trkpt><trkpt lat="44.20458286609602" lon="9.620153056843645"><ele>433.4</ele><time>2026-04-05T15:30:52Z</time></trkpt><trkpt lat="44.20449910034918" lon="9.620061743082022"><ele>428.79999999999995</ele><time>2026-04-05T15:30:53Z</time></trkpt><trkpt lat="44.2044258215194" lon="9.61997666984389"><ele>424.2</ele><time>2026-04-05T15:30:54Z</time></trkpt><trkpt lat="44.20434340111197" lon="9.619891189924417"><ele>419.6</ele><time>2026-04-05T15:30:55Z</time></trkpt><trkpt lat="44.20425984807425" lon="9.619814653251145"><ele>415.0</ele><time>2026-04-05T15:30:56Z</time></trkpt><trkpt lat="44.204177492626336" lon="9.61976144258812"><ele>415.00000000000006</ele><time>2026-04-05T15:30:57Z</time></trkpt><trkpt lat="44.20410008826088" lon="9.619719420219923"><ele>415.0</ele><time>2026-04-05T15:30:58Z</time></trkpt><trkpt lat="44.204023613412986" lon="9.619679415548612"><ele>415.0</ele><time>2026-04-05T15:30:59Z</time></trkpt><trkpt lat="44.203940803404876" lon="9.619640264785176"><ele>415.0</ele><time>2026-04-05T15:31:00Z</time></trkpt><trkpt lat="44.20386817465803" lon="9.61958524391896"><ele>415.00000000000006</ele><time>2026-04-05T15:31:01Z</time></trkpt><trkpt lat="44.203790532969286" lon="9.619515251803119"><ele>415.0</ele><time>2026-04-05T15:31:02Z</time></trkpt><trkpt lat="44.203730149554595" lon="9.619410855297842"><ele>414.6</ele><time>2026-04-05T15:31:02.999Z</time></trkpt><trkpt lat="44.2036801729938" lon="9.61930068188125"><ele>414.2</ele><time>2026-04-05T15:31:03.999Z</time></trkpt><trkpt lat="44.20362455555899" lon="9.619189552779487"><ele>413.79999999999995</ele><time>2026-04-05T15:31:04.999Z</time></trkpt><trkpt lat="44.203557136264145" lon="9.619081396931609"><ele>413.4</ele><time>2026-04-05T15:31:05.999Z</time></trkpt><trkpt lat="44.20346711676566" lon="9.619001555357594"><ele>413.0</ele><time>2026-04-05T15:31:06.999Z</time></trkpt><trkpt lat="44.20337297095363" lon="9.618961918526168"><ele>412.99999999999994</ele><time>2026-04-05T15:31:07.999Z</time></trkpt><trkpt lat="44.203280260439584" lon="9.618931318222026"><ele>413.0</ele><time>2026-04-05T15:31:08.999Z</time></trkpt><trkpt lat="44.20319265429817" lon="9.618908756525883"><ele>413.0</ele><time>2026-04-05T15:31:09.999Z</time></trkpt><trkpt lat="44.203118261354334" lon="9.61885164639347"><ele>413.0</ele><time>2026-04-05T15:31:10.999Z</time></trkpt><trkpt lat="44.20305670681153" lon="9.618783133376299"><ele>412.99999999999994</ele><time>2026-04-05T15:31:11.999Z</time></trkpt><trkpt lat="44.20300600461071" lon="9.61869377852965"><ele>413.0</ele><time>2026-04-05T15:31:12.999Z</time></trkpt><trkpt lat="44.202959219603756" lon="9.618585758117797"><ele>412.79999999999995</ele><time>2026-04-05T15:31:13.999Z</time></trkpt><trkpt lat="44.20289017037535" lon="9.618513935780522"><ele>412.6</ele><time>2026-04-05T15:31:14.999Z</time></trkpt><trkpt lat="44.20280114980819" lon="9.618462705723028"><ele>412.4</ele><time>2026-04-05T15:31:15.999Z</time></trkpt><trkpt lat="44.20270665591112" lon="9.618433672637552"><ele>412.20000000000005</ele><time>2026-04-05T15:31:16.999Z</time></trkpt><trkpt lat="44.202610957220855" lon="9.618425139101465"><ele>412.0</ele><time>2026-04-05T15:31:17.999Z</time></trkpt><trkpt lat="44.20251530228245" lon="9.618408789128603"><ele>412.00000000000006</ele><time>2026-04-05T15:31:18.999Z</time></trkpt><trkpt lat="44.20242341854598" lon="9.618397684188688"><ele>412.0</ele><time>2026-04-05T15:31:19.999Z</time></trkpt><trkpt lat="44.202344795485324" lon="9.61838497242799"><ele>412.0</ele><time>2026-04-05T15:31:20.999Z</time></trkpt><trkpt lat="44.20227759245149" lon="9.618362531496008"><ele>412.0</ele><time>2026-04-05T15:31:21.999Z</time></trkpt><trkpt lat="44.20221338807059" lon="9.618314272501149"><ele>412.00000000000006</ele><time>2026-04-05T15:31:22.999Z</time></trkpt><trkpt lat="44.202167244652024" lon="9.618243506948769"><ele>412.0</ele><time>2026-04-05T15:31:23.999Z</time></trkpt><trkpt lat="44.20213822509435" lon="9.618148991474307"><ele>409.83333333333337</ele><time>2026-04-05T15:31:24.999Z</time></trkpt><trkpt lat="44.20212297744677" lon="9.618035089786284"><ele>407.6666666666667</ele><time>2026-04-05T15:31:25.999Z</time></trkpt><trkpt lat="44.20211150140631" lon="9.617916630623156"><ele>405.5</ele><time>2026-04-05T15:31:26.999Z</time></trkpt><trkpt lat="44.202092167828944" lon="9.617806564802155"><ele>403.33333333333337</ele><time>2026-04-05T15:31:27.999Z</time></trkpt><trkpt lat="44.2020694814453" lon="9.617711849630687"><ele>401.1666666666667</ele><time>2026-04-05T15:31:28.999Z</time></trkpt><trkpt lat="44.20204654426334" lon="9.617629048070587"><ele>399.0</ele><time>2026-04-05T15:31:29.999Z</time></trkpt><trkpt lat="44.20200555781677" lon="9.617558802298015"><ele>399.0</ele><time>2026-04-05T15:31:30.999Z</time></trkpt><trkpt lat="44.20194335350754" lon="9.617515385988629"><ele>399.0</ele><time>2026-04-05T15:31:31.999Z</time></trkpt><trkpt lat="44.201866470705376" lon="9.617495116852677"><ele>399.0</ele><time>2026-04-05T15:31:32.999Z</time></trkpt><trkpt lat="44.20177041695704" lon="9.617466734866808"><ele>399.0</ele><time>2026-04-05T15:31:33.999Z</time></trkpt><trkpt lat="44.20166733299026" lon="9.617447558978812"><ele>399.0</ele><time>2026-04-05T15:31:34.999Z</time></trkpt><trkpt lat="44.201563217492534" lon="9.617430489742217"><ele>395.2</ele><time>2026-04-05T15:31:35.999Z</time></trkpt><trkpt lat="44.20146792180361" lon="9.617418142884494"><ele>391.4</ele><time>2026-04-05T15:31:36.999Z</time></trkpt><trkpt lat="44.20137726349641" lon="9.617390822497635"><ele>387.6</ele><time>2026-04-05T15:31:37.999Z</time></trkpt><trkpt lat="44.20128151257588" lon="9.617372209058493"><ele>383.8</ele><time>2026-04-05T15:31:38.999Z</time></trkpt><trkpt lat="44.201188922200096" lon="9.617362077568512"><ele>380.0</ele><time>2026-04-05T15:31:39.999Z</time></trkpt><trkpt lat="44.2010948502163" lon="9.617351062402433"><ele>380.0</ele><time>2026-04-05T15:31:40.999Z</time></trkpt><trkpt lat="44.201000818823296" lon="9.61733574398844"><ele>380.0</ele><time>2026-04-05T15:31:41.999Z</time></trkpt><trkpt lat="44.20091219552651" lon="9.617272369687823"><ele>380.0</ele><time>2026-04-05T15:31:42.999Z</time></trkpt><trkpt lat="44.20082394997467" lon="9.617253105631871"><ele>380.0</ele><time>2026-04-05T15:31:43.999Z</time></trkpt><trkpt lat="44.200734468807894" lon="9.61719484223174"><ele>380.0</ele><time>2026-04-05T15:31:44.999Z</time></trkpt><trkpt lat="44.20065011291035" lon="9.617121340577091"><ele>380.8</ele><time>2026-04-05T15:31:45.999Z</time></trkpt><trkpt lat="44.20057240726147" lon="9.61704459235999"><ele>381.6</ele><time>2026-04-05T15:31:46.999Z</time></trkpt><trkpt lat="44.20050260531894" lon="9.616976857502653"><ele>382.4</ele><time>2026-04-05T15:31:47.999Z</time></trkpt><trkpt lat="44.200443389774705" lon="9.616917143162258"><ele>383.2</ele><time>2026-04-05T15:31:48.999Z</time></trkpt><trkpt lat="44.200336929904346" lon="9.61685811597915"><ele>384.0</ele><time>2026-04-05T15:31:50.999Z</time></trkpt><trkpt lat="44.20024909802395" lon="9.616896009618742"><ele>384.0</ele><time>2026-04-05T15:31:52.999Z</time></trkpt><trkpt lat="44.20021178800971" lon="9.616983033491353"><ele>384.0</ele><time>2026-04-05T15:31:53.999Z</time></trkpt><trkpt lat="44.20018947252995" lon="9.61709242949527"><ele>384.0</ele><time>2026-04-05T15:31:54.999Z</time></trkpt><trkpt lat="44.20017891502845" lon="9.61721241413608"><ele>384.0</ele><time>2026-04-05T15:31:55.999Z</time></trkpt><trkpt lat="44.20017091869937" lon="9.61732921974824"><ele>384.0</ele><time>2026-04-05T15:31:56.999Z</time></trkpt><trkpt lat="44.20015570070821" lon="9.617443181110195"><ele>384.0</ele><time>2026-04-05T15:31:57.999Z</time></trkpt><trkpt lat="44.20013266846311" lon="9.61756167943476"><ele>384.0</ele><time>2026-04-05T15:31:58.999Z</time></trkpt><trkpt lat="44.20010999066647" lon="9.61767302373785"><ele>384.0</ele><time>2026-04-05T15:31:59.999Z</time></trkpt><trkpt lat="44.200089529982094" lon="9.617785856152773"><ele>384.0</ele><time>2026-04-05T15:32:00.999Z</time></trkpt><trkpt lat="44.20007007518189" lon="9.617891994660194"><ele>384.0</ele><time>2026-04-05T15:32:01.999Z</time></trkpt><trkpt lat="44.20004908575299" lon="9.617993134266754"><ele>384.0</ele><time>2026-04-05T15:32:02.999Z</time></trkpt><trkpt lat="44.200025604839986" lon="9.618131521454972"><ele>384.0</ele><time>2026-04-05T15:32:04.999Z</time></trkpt><trkpt lat="44.199989408819285" lon="9.618251350481854"><ele>384.0</ele><time>2026-04-05T15:32:06.999Z</time></trkpt><trkpt lat="44.20006764989878" lon="9.618298356080297"><ele>384.0</ele><time>2026-04-05T15:32:08.999Z</time></trkpt><trkpt lat="44.20012796422418" lon="9.618173666469545"><ele>384.0</ele><time>2026-04-05T15:32:10.998Z</time></trkpt><trkpt lat="44.200142607939156" lon="9.618071826403233"><ele>384.0</ele><time>2026-04-05T15:32:11.998Z</time></trkpt><trkpt lat="44.20017386408833" lon="9.6179631689649"><ele>384.0</ele><time>2026-04-05T15:32:12.998Z</time></trkpt><trkpt lat="44.20022935682465" lon="9.617864508269028"><ele>384.0</ele><time>2026-04-05T15:32:14Z</time></trkpt><trkpt lat="44.200268775846716" lon="9.617774824968372"><ele>384.0</ele><time>2026-04-05T15:32:15Z</time></trkpt><trkpt lat="44.20030479014124" lon="9.617692657733166"><ele>384.0</ele><time>2026-04-05T15:32:16Z</time></trkpt><trkpt lat="44.20034110783573" lon="9.617616607989413"><ele>384.0</ele><time>2026-04-05T15:32:17Z</time></trkpt><trkpt lat="44.20041415305036" lon="9.61750269438328"><ele>384.0</ele><time>2026-04-05T15:32:19Z</time></trkpt><trkpt lat="44.200528903606184" lon="9.617525441351443"><ele>384.0</ele><time>2026-04-05T15:32:21Z</time></trkpt><trkpt lat="44.20057933318187" lon="9.617580698356981"><ele>384.0</ele><time>2026-04-05T15:32:22Z</time></trkpt><trkpt lat="44.20062665138089" lon="9.617653048207512"><ele>383.3333333333333</ele><time>2026-04-05T15:32:23Z</time></trkpt><trkpt lat="44.200675036855245" lon="9.61774016391764"><ele>382.6666666666667</ele><time>2026-04-05T15:32:24Z</time></trkpt><trkpt lat="44.20072258755202" lon="9.61782934153484"><ele>382.0</ele><time>2026-04-05T15:32:25Z</time></trkpt><trkpt lat="44.20077290892649" lon="9.617918289066703"><ele>381.33333333333337</ele><time>2026-04-05T15:32:26Z</time></trkpt><trkpt lat="44.20081730305385" lon="9.618007904265838"><ele>380.6666666666667</ele><time>2026-04-05T15:32:27Z</time></trkpt><trkpt lat="44.20085633930569" lon="9.618086604871444"><ele>380.0</ele><time>2026-04-05T15:32:28Z</time></trkpt><trkpt lat="44.20089864244076" lon="9.61816294187924"><ele>376.0</ele><time>2026-04-05T15:32:29Z</time></trkpt><trkpt lat="44.20093892136815" lon="9.618231710948287"><ele>372.0</ele><time>2026-04-05T15:32:30Z</time></trkpt><trkpt lat="44.20099219770797" lon="9.618286025273418"><ele>368.0</ele><time>2026-04-05T15:32:31Z</time></trkpt><trkpt lat="44.201064179304204" lon="9.61831650411402"><ele>364.0</ele><time>2026-04-05T15:32:32Z</time></trkpt><trkpt lat="44.201135658449346" lon="9.618316771246198"><ele>360.0</ele><time>2026-04-05T15:32:33Z</time></trkpt><trkpt lat="44.201209923976094" lon="9.618309510157113"><ele>356.0</ele><time>2026-04-05T15:32:34Z</time></trkpt><trkpt lat="44.201290421211276" lon="9.618316065362174"><ele>352.0</ele><time>2026-04-05T15:32:35Z</time></trkpt><trkpt lat="44.20136285926795" lon="9.618348499124211"><ele>352.0</ele><time>2026-04-05T15:32:36Z</time></trkpt><trkpt lat="44.20142718315153" lon="9.618388598259163"><ele>352.0</ele><time>2026-04-05T15:32:37Z</time></trkpt><trkpt lat="44.20148361349472" lon="9.618435215461757"><ele>352.0</ele><time>2026-04-05T15:32:38Z</time></trkpt><trkpt lat="44.20154463437143" lon="9.618543964188673"><ele>352.0</ele><time>2026-04-05T15:32:40Z</time></trkpt><trkpt lat="44.20151557738307" lon="9.618697351289756"><ele>352.0</ele><time>2026-04-05T15:32:42Z</time></trkpt><trkpt lat="44.20148942635356" lon="9.618784771260874"><ele>352.0</ele><time>2026-04-05T15:32:43Z</time></trkpt><trkpt lat="44.201474173010666" lon="9.618956785142156"><ele>351.20000000000005</ele><time>2026-04-05T15:32:45Z</time></trkpt><trkpt lat="44.20154258699761" lon="9.61909098701143"><ele>350.4</ele><time>2026-04-05T15:32:47Z</time></trkpt><trkpt lat="44.201608932454576" lon="9.619123246286449"><ele>349.6</ele><time>2026-04-05T15:32:48Z</time></trkpt><trkpt lat="44.201684157781926" lon="9.619163001303114"><ele>348.79999999999995</ele><time>2026-04-05T15:32:49Z</time></trkpt><trkpt lat="44.20176722128525" lon="9.619204023465901"><ele>348.0</ele><time>2026-04-05T15:32:50Z</time></trkpt><trkpt lat="44.20185322910209" lon="9.619303864839775"><ele>348.0</ele><time>2026-04-05T15:32:51Z</time></trkpt><trkpt lat="44.20193378215232" lon="9.619391977610812"><ele>348.0</ele><time>2026-04-05T15:32:52Z</time></trkpt><trkpt lat="44.201998807763175" lon="9.619462008968627"><ele>348.0</ele><time>2026-04-05T15:32:53Z</time></trkpt><trkpt lat="44.2020557770076" lon="9.619529496312992"><ele>348.0</ele><time>2026-04-05T15:32:54Z</time></trkpt><trkpt lat="44.202111603548545" lon="9.619589141628746"><ele>348.0</ele><time>2026-04-05T15:32:55Z</time></trkpt><trkpt lat="44.20212707764866" lon="9.619687486775682"><ele>348.0</ele><time>2026-04-05T15:32:56Z</time></trkpt><trkpt lat="44.2020956754777" lon="9.61978957650521"><ele>343.0</ele><time>2026-04-05T15:32:57Z</time></trkpt><trkpt lat="44.202059204332706" lon="9.619869433134495"><ele>338.0</ele><time>2026-04-05T15:32:58Z</time></trkpt><trkpt lat="44.202027236362554" lon="9.619966783296318"><ele>333.0</ele><time>2026-04-05T15:32:59Z</time></trkpt><trkpt lat="44.201987816763996" lon="9.62005277537164"><ele>328.0</ele><time>2026-04-05T15:33:00Z</time></trkpt><trkpt lat="44.201966104799794" lon="9.620211180409925"><ele>323.0</ele><time>2026-04-05T15:33:02Z</time></trkpt><trkpt lat="44.20204056487455" lon="9.620338558805129"><ele>324.28571428571433</ele><time>2026-04-05T15:33:04Z</time></trkpt><trkpt lat="44.202106487693946" lon="9.620378697607002"><ele>325.57142857142856</ele><time>2026-04-05T15:33:04.999Z</time></trkpt><trkpt lat="44.20218121572516" lon="9.620408349241155"><ele>326.8571428571429</ele><time>2026-04-05T15:33:05.999Z</time></trkpt><trkpt lat="44.20225603204865" lon="9.620470506810554"><ele>328.14285714285717</ele><time>2026-04-05T15:33:06.999Z</time></trkpt><trkpt lat="44.202327242247215" lon="9.62051225185853"><ele>329.42857142857144</ele><time>2026-04-05T15:33:07.999Z</time></trkpt><trkpt lat="44.20238586301942" lon="9.620552512064336"><ele>330.7142857142857</ele><time>2026-04-05T15:33:08.999Z</time></trkpt><trkpt lat="44.2024423980152" lon="9.620608670134558"><ele>332.0</ele><time>2026-04-05T15:33:09.999Z</time></trkpt><trkpt lat="44.20246376383467" lon="9.6207158053888"><ele>332.0</ele><time>2026-04-05T15:33:10.999Z</time></trkpt><trkpt lat="44.20251375700306" lon="9.620816456371795"><ele>332.0</ele><time>2026-04-05T15:33:11.999Z</time></trkpt><trkpt lat="44.202551667907514" lon="9.620922502067515"><ele>332.0</ele><time>2026-04-05T15:33:12.999Z</time></trkpt><trkpt lat="44.20262589994835" lon="9.621005613664051"><ele>332.0</ele><time>2026-04-05T15:33:13.999Z</time></trkpt><trkpt lat="44.202696500535744" lon="9.621102299802022"><ele>332.0</ele><time>2026-04-05T15:33:14.999Z</time></trkpt><trkpt lat="44.20275469362" lon="9.621207904601905"><ele>328.0</ele><time>2026-04-05T15:33:15.999Z</time></trkpt><trkpt lat="44.20282588348031" lon="9.621303365562708"><ele>324.0</ele><time>2026-04-05T15:33:16.999Z</time></trkpt><trkpt lat="44.20291066098568" lon="9.621378538848877"><ele>320.0</ele><time>2026-04-05T15:33:17.999Z</time></trkpt><trkpt lat="44.20299438659671" lon="9.62143507443216"><ele>316.0</ele><time>2026-04-05T15:33:18.999Z</time></trkpt><trkpt lat="44.20307317121588" lon="9.621497070647107"><ele>312.0</ele><time>2026-04-05T15:33:19.999Z</time></trkpt><trkpt lat="44.203137765088044" lon="9.621573738473364"><ele>313.3333333333333</ele><time>2026-04-05T15:33:20.999Z</time></trkpt><trkpt lat="44.203194179008335" lon="9.621647220248123"><ele>314.6666666666667</ele><time>2026-04-05T15:33:21.999Z</time></trkpt><trkpt lat="44.20324260170374" lon="9.621710921742665"><ele>316.0</ele><time>2026-04-05T15:33:22.999Z</time></trkpt><trkpt lat="44.20326832891581" lon="9.621793780096057"><ele>317.33333333333337</ele><time>2026-04-05T15:33:23.999Z</time></trkpt><trkpt lat="44.20323194451428" lon="9.621953839274852"><ele>318.6666666666667</ele><time>2026-04-05T15:33:25.999Z</time></trkpt><trkpt lat="44.20318527003298" lon="9.622043388675985"><ele>320.0</ele><time>2026-04-05T15:33:26.999Z</time></trkpt><trkpt lat="44.20307538596859" lon="9.62205981656017"><ele>320.0</ele><time>2026-04-05T15:33:28.999Z</time></trkpt><trkpt lat="44.20300749501044" lon="9.622062765035693"><ele>320.0</ele><time>2026-04-05T15:33:29.999Z</time></trkpt><trkpt lat="44.20293941571993" lon="9.622051244222844"><ele>320.0</ele><time>2026-04-05T15:33:30.999Z</time></trkpt><trkpt lat="44.202870133849785" lon="9.62205564897019"><ele>320.0</ele><time>2026-04-05T15:33:31.999Z</time></trkpt><trkpt lat="44.20279212155277" lon="9.622085061734916"><ele>320.0</ele><time>2026-04-05T15:33:32.999Z</time></trkpt><trkpt lat="44.20271034463972" lon="9.622107727232184"><ele>320.0</ele><time>2026-04-05T15:33:33.999Z</time></trkpt><trkpt lat="44.20262751220557" lon="9.622130963295794"><ele>320.0</ele><time>2026-04-05T15:33:34.999Z</time></trkpt><trkpt lat="44.20254176960651" lon="9.622155112366425"><ele>320.0</ele><time>2026-04-05T15:33:35.999Z</time></trkpt><trkpt lat="44.202455879705695" lon="9.622181028335962"><ele>320.0</ele><time>2026-04-05T15:33:36.999Z</time></trkpt><trkpt lat="44.20237553200864" lon="9.622203976469809"><ele>320.0</ele><time>2026-04-05T15:33:37.999Z</time></trkpt><trkpt lat="44.202298511996396" lon="9.622248959910587"><ele>320.0</ele><time>2026-04-05T15:33:38.999Z</time></trkpt><trkpt lat="44.2022292356167" lon="9.62229087955627"><ele>320.0</ele><time>2026-04-05T15:33:39.999Z</time></trkpt><trkpt lat="44.2021835575437" lon="9.622354197251639"><ele>316.2</ele><time>2026-04-05T15:33:40.999Z</time></trkpt><trkpt lat="44.20215409632008" lon="9.622438415368459"><ele>312.4</ele><time>2026-04-05T15:33:41.999Z</time></trkpt><trkpt lat="44.202167076398496" lon="9.622600903165798"><ele>308.6</ele><time>2026-04-05T15:33:43.999Z</time></trkpt><trkpt lat="44.20223973690147" lon="9.622742026677157"><ele>304.8</ele><time>2026-04-05T15:33:45.999Z</time></trkpt><trkpt lat="44.20228244920036" lon="9.622823024343454"><ele>301.0</ele><time>2026-04-05T15:33:46.999Z</time></trkpt><trkpt lat="44.202326388786425" lon="9.622907428769455"><ele>301.0</ele><time>2026-04-05T15:33:47.999Z</time></trkpt><trkpt lat="44.20233994188474" lon="9.623008900750387"><ele>301.0</ele><time>2026-04-05T15:33:48.999Z</time></trkpt><trkpt lat="44.20230268624259" lon="9.623161133243208"><ele>301.0</ele><time>2026-04-05T15:33:50.999Z</time></trkpt><trkpt lat="44.20224351650126" lon="9.623196051541699"><ele>301.0</ele><time>2026-04-05T15:33:51.999Z</time></trkpt><trkpt lat="44.20216716545639" lon="9.623180806132751"><ele>301.0</ele><time>2026-04-05T15:33:52.999Z</time></trkpt><trkpt lat="44.20208974068596" lon="9.62311443899317"><ele>301.0</ele><time>2026-04-05T15:33:53.999Z</time></trkpt><trkpt lat="44.202022815359584" lon="9.62309296198697"><ele>301.0</ele><time>2026-04-05T15:33:54.999Z</time></trkpt><trkpt lat="44.201901519228436" lon="9.623144048080672"><ele>301.0</ele><time>2026-04-05T15:33:56.999Z</time></trkpt><trkpt lat="44.20186725885588" lon="9.62322878780302"><ele>301.0</ele><time>2026-04-05T15:33:57.999Z</time></trkpt><trkpt lat="44.20185000785104" lon="9.623351888327104"><ele>301.0</ele><time>2026-04-05T15:33:58.999Z</time></trkpt><trkpt lat="44.201846950670735" lon="9.623469588388728"><ele>301.0</ele><time>2026-04-05T15:33:59.999Z</time></trkpt><trkpt lat="44.201836478759624" lon="9.623574578431864"><ele>301.0</ele><time>2026-04-05T15:34:00.999Z</time></trkpt><trkpt lat="44.20181527175352" lon="9.623658214920217"><ele>301.0</ele><time>2026-04-05T15:34:01.999Z</time></trkpt><trkpt lat="44.20171205078466" lon="9.623692364663723"><ele>301.0</ele><time>2026-04-05T15:34:03.999Z</time></trkpt><trkpt lat="44.201658247769075" lon="9.623645894047865"><ele>301.0</ele><time>2026-04-05T15:34:04.999Z</time></trkpt><trkpt lat="44.201590281375125" lon="9.62355554938904"><ele>301.0</ele><time>2026-04-05T15:34:05.999Z</time></trkpt><trkpt lat="44.201501395757674" lon="9.62346848350248"><ele>301.0</ele><time>2026-04-05T15:34:06.999Z</time></trkpt><trkpt lat="44.20142450782055" lon="9.623408748316471"><ele>296.2</ele><time>2026-04-05T15:34:07.999Z</time></trkpt><trkpt lat="44.201342691949876" lon="9.623370775645718"><ele>291.40000000000003</ele><time>2026-04-05T15:34:08.999Z</time></trkpt><trkpt lat="44.20124675546391" lon="9.623378583899079"><ele>286.6</ele><time>2026-04-05T15:34:09.998Z</time></trkpt><trkpt lat="44.2011519931416" lon="9.62341906352092"><ele>281.8</ele><time>2026-04-05T15:34:10.998Z</time></trkpt><trkpt lat="44.20106557259602" lon="9.62345870102309"><ele>277.0</ele><time>2026-04-05T15:34:11.998Z</time></trkpt><trkpt lat="44.20098784327934" lon="9.623489221976468"><ele>277.0</ele><time>2026-04-05T15:34:12.998Z</time></trkpt><trkpt lat="44.20087801399234" lon="9.623527545693882"><ele>277.0</ele><time>2026-04-05T15:34:14.998Z</time></trkpt><trkpt lat="44.200805743122146" lon="9.623560532571494"><ele>277.0</ele><time>2026-04-05T15:34:16.998Z</time></trkpt><trkpt lat="44.20088995975287" lon="9.62343682889064"><ele>277.0</ele><time>2026-04-05T15:34:25Z</time></trkpt><trkpt lat="44.200965060083234" lon="9.623396908097439"><ele>277.0</ele><time>2026-04-05T15:34:26Z</time></trkpt><trkpt lat="44.20103567403077" lon="9.62334365972946"><ele>277.0</ele><time>2026-04-05T15:34:27Z</time></trkpt><trkpt lat="44.20112208596739" lon="9.623292372294495"><ele>277.0</ele><time>2026-04-05T15:34:28Z</time></trkpt><trkpt lat="44.201209582935775" lon="9.623226837401592"><ele>277.0</ele><time>2026-04-05T15:34:29Z</time></trkpt><trkpt lat="44.20130074972745" lon="9.623174828535593"><ele>277.0</ele><time>2026-04-05T15:34:30Z</time></trkpt><trkpt lat="44.20140125328999" lon="9.623139789169299"><ele>277.0</ele><time>2026-04-05T15:34:31Z</time></trkpt><trkpt lat="44.201501365876624" lon="9.62311128343226"><ele>278.8</ele><time>2026-04-05T15:34:32Z</time></trkpt><trkpt lat="44.201587590062964" lon="9.623035008531755"><ele>280.6</ele><time>2026-04-05T15:34:33Z</time></trkpt><trkpt lat="44.20165596871739" lon="9.622928357227417"><ele>282.40000000000003</ele><time>2026-04-05T15:34:34Z</time></trkpt><trkpt lat="44.201698484161426" lon="9.622792693669863"><ele>284.2</ele><time>2026-04-05T15:34:35Z</time></trkpt><trkpt lat="44.20170658912371" lon="9.622638811292456"><ele>286.0</ele><time>2026-04-05T15:34:36Z</time></trkpt><trkpt lat="44.20168379024815" lon="9.622474758751785"><ele>286.0</ele><time>2026-04-05T15:34:37Z</time></trkpt><trkpt lat="44.201647854861584" lon="9.622320992753666"><ele>286.0</ele><time>2026-04-05T15:34:38Z</time></trkpt><trkpt lat="44.201615045194494" lon="9.622169735772804"><ele>286.0</ele><time>2026-04-05T15:34:39Z</time></trkpt><trkpt lat="44.201575422762275" lon="9.622008107462426"><ele>286.0</ele><time>2026-04-05T15:34:40Z</time></trkpt><trkpt lat="44.20150588614051" lon="9.621869646543804"><ele>280.6</ele><time>2026-04-05T15:34:41Z</time></trkpt><trkpt lat="44.201398994492706" lon="9.621769416411887"><ele>275.20000000000005</ele><time>2026-04-05T15:34:42Z</time></trkpt><trkpt lat="44.201299019681024" lon="9.621666378756737"><ele>269.79999999999995</ele><time>2026-04-05T15:34:43Z</time></trkpt><trkpt lat="44.20122724521733" lon="9.621602083575436"><ele>264.4</ele><time>2026-04-05T15:34:44Z</time></trkpt><trkpt lat="44.201165048373696" lon="9.621504345077144"><ele>259.0</ele><time>2026-04-05T15:34:45Z</time></trkpt><trkpt lat="44.201119288580685" lon="9.621378522346376"><ele>259.0</ele><time>2026-04-05T15:34:46Z</time></trkpt><trkpt lat="44.201104399790424" lon="9.621234824196936"><ele>259.0</ele><time>2026-04-05T15:34:47Z</time></trkpt><trkpt lat="44.201097733680356" lon="9.621092091650297"><ele>259.0</ele><time>2026-04-05T15:34:48Z</time></trkpt><trkpt lat="44.20105653334466" lon="9.620967701037348"><ele>259.0</ele><time>2026-04-05T15:34:49Z</time></trkpt><trkpt lat="44.2009966815336" lon="9.620844285973028"><ele>259.0</ele><time>2026-04-05T15:34:50Z</time></trkpt><trkpt lat="44.20091152008064" lon="9.620729375235223"><ele>263.25</ele><time>2026-04-05T15:34:51Z</time></trkpt><trkpt lat="44.20079873014678" lon="9.620643847562084"><ele>267.5</ele><time>2026-04-05T15:34:52Z</time></trkpt><trkpt lat="44.20066694602108" lon="9.62059707728077"><ele>271.75</ele><time>2026-04-05T15:34:53Z</time></trkpt><trkpt lat="44.20052226236745" lon="9.620616775424377"><ele>276.0</ele><time>2026-04-05T15:34:54Z</time></trkpt><trkpt lat="44.20038490200248" lon="9.620705051464885"><ele>277.5</ele><time>2026-04-05T15:34:55Z</time></trkpt><trkpt lat="44.20027885751661" lon="9.620848870732269"><ele>279.0</ele><time>2026-04-05T15:34:56Z</time></trkpt><trkpt lat="44.20019655920535" lon="9.620968033738823"><ele>280.5</ele><time>2026-04-05T15:34:57Z</time></trkpt><trkpt lat="44.20011774064672" lon="9.621063699463187"><ele>282.0</ele><time>2026-04-05T15:34:58Z</time></trkpt><trkpt lat="44.20001758936148" lon="9.62111985727604"><ele>282.0</ele><time>2026-04-05T15:34:59Z</time></trkpt><trkpt lat="44.19990218547946" lon="9.621135981715673"><ele>282.0</ele><time>2026-04-05T15:35:00Z</time></trkpt><trkpt lat="44.19978518277082" lon="9.62113968469875"><ele>282.0</ele><time>2026-04-05T15:35:01Z</time></trkpt><trkpt lat="44.19965370025701" lon="9.621140551892001"><ele>282.0</ele><time>2026-04-05T15:35:02Z</time></trkpt><trkpt lat="44.199528311302885" lon="9.621177811557063"><ele>281.2</ele><time>2026-04-05T15:35:03Z</time></trkpt><trkpt lat="44.19941362977159" lon="9.621230614370534"><ele>280.4</ele><time>2026-04-05T15:35:04Z</time></trkpt><trkpt lat="44.199316086827054" lon="9.621257706053383"><ele>279.6</ele><time>2026-04-05T15:35:05Z</time></trkpt><trkpt lat="44.19922433849346" lon="9.621241343590176"><ele>278.8</ele><time>2026-04-05T15:35:06Z</time></trkpt><trkpt lat="44.19913300118889" lon="9.621192035105269"><ele>278.0</ele><time>2026-04-05T15:35:07Z</time></trkpt><trkpt lat="44.199061214173994" lon="9.621082340037079"><ele>278.0</ele><time>2026-04-05T15:35:08Z</time></trkpt><trkpt lat="44.199007412288466" lon="9.620977675349707"><ele>278.0</ele><time>2026-04-05T15:35:09Z</time></trkpt><trkpt lat="44.19895055759623" lon="9.620839130201796"><ele>278.0</ele><time>2026-04-05T15:35:10Z</time></trkpt><trkpt lat="44.19887083100576" lon="9.62072391448247"><ele>278.0</ele><time>2026-04-05T15:35:10.999Z</time></trkpt><trkpt lat="44.1987856594171" lon="9.62061524085541"><ele>278.0</ele><time>2026-04-05T15:35:11.999Z</time></trkpt><trkpt lat="44.198680127835594" lon="9.620532843637111"><ele>275.25</ele><time>2026-04-05T15:35:12.999Z</time></trkpt><trkpt lat="44.1985691517466" lon="9.620489891336376"><ele>272.5</ele><time>2026-04-05T15:35:13.999Z</time></trkpt><trkpt lat="44.19843248546904" lon="9.62048182165531"><ele>269.75</ele><time>2026-04-05T15:35:14.999Z</time></trkpt><trkpt lat="44.198293478233964" lon="9.620507433450337"><ele>267.0</ele><time>2026-04-05T15:35:15.999Z</time></trkpt><trkpt lat="44.19815583863556" lon="9.620525603553704"><ele>267.0</ele><time>2026-04-05T15:35:16.999Z</time></trkpt><trkpt lat="44.198015676273286" lon="9.620552417033943"><ele>267.0</ele><time>2026-04-05T15:35:17.999Z</time></trkpt><trkpt lat="44.197878338534494" lon="9.62057456682218"><ele>267.0</ele><time>2026-04-05T15:35:18.999Z</time></trkpt><trkpt lat="44.197763454788515" lon="9.620596570727592"><ele>267.0</ele><time>2026-04-05T15:35:19.999Z</time></trkpt><trkpt lat="44.19766448755108" lon="9.620617153958221"><ele>267.0</ele><time>2026-04-05T15:35:20.999Z</time></trkpt><trkpt lat="44.197558457543714" lon="9.620667601199813"><ele>267.0</ele><time>2026-04-05T15:35:21.999Z</time></trkpt><trkpt lat="44.197476092389074" lon="9.620762749908684"><ele>267.0</ele><time>2026-04-05T15:35:22.999Z</time></trkpt><trkpt lat="44.197436404633564" lon="9.62088305628268"><ele>267.0</ele><time>2026-04-05T15:35:23.999Z</time></trkpt><trkpt lat="44.19743608782537" lon="9.621006688548366"><ele>267.0</ele><time>2026-04-05T15:35:24.999Z</time></trkpt><trkpt lat="44.1974477551515" lon="9.621125840879293"><ele>266.4</ele><time>2026-04-05T15:35:25.999Z</time></trkpt><trkpt lat="44.19744030230061" lon="9.621252951397585"><ele>265.79999999999995</ele><time>2026-04-05T15:35:26.999Z</time></trkpt><trkpt lat="44.19741469474889" lon="9.621383078884689"><ele>265.2</ele><time>2026-04-05T15:35:27.999Z</time></trkpt><trkpt lat="44.197371437742795" lon="9.621501891323069"><ele>264.59999999999997</ele><time>2026-04-05T15:35:28.999Z</time></trkpt><trkpt lat="44.19731435018221" lon="9.621626540814109"><ele>264.0</ele><time>2026-04-05T15:35:29.999Z</time></trkpt><trkpt lat="44.19723867782739" lon="9.621725637736134"><ele>264.0</ele><time>2026-04-05T15:35:30.999Z</time></trkpt><trkpt lat="44.1971600983332" lon="9.621823506157419"><ele>264.0</ele><time>2026-04-05T15:35:31.999Z</time></trkpt><trkpt lat="44.197062985535204" lon="9.621893910272265"><ele>264.0</ele><time>2026-04-05T15:35:32.999Z</time></trkpt><trkpt lat="44.19697941031288" lon="9.62192446495143"><ele>264.0</ele><time>2026-04-05T15:35:33.999Z</time></trkpt><trkpt lat="44.196902917528035" lon="9.621941410464467"><ele>264.0</ele><time>2026-04-05T15:35:34.999Z</time></trkpt><trkpt lat="44.19682049800646" lon="9.62191782140486"><ele>264.0</ele><time>2026-04-05T15:35:35.999Z</time></trkpt><trkpt lat="44.19673543107771" lon="9.621863752580682"><ele>264.0</ele><time>2026-04-05T15:35:36.999Z</time></trkpt><trkpt lat="44.19667720465881" lon="9.621747140934643"><ele>264.0</ele><time>2026-04-05T15:35:37.999Z</time></trkpt><trkpt lat="44.1966164351959" lon="9.621619770209108"><ele>264.0</ele><time>2026-04-05T15:35:38.999Z</time></trkpt><trkpt lat="44.196547411794846" lon="9.621481614345347"><ele>264.0</ele><time>2026-04-05T15:35:39.999Z</time></trkpt><trkpt lat="44.19645893254002" lon="9.62135754308202"><ele>259.5</ele><time>2026-04-05T15:35:40.999Z</time></trkpt><trkpt lat="44.19634794521943" lon="9.621264584289358"><ele>255.0</ele><time>2026-04-05T15:35:42.999Z</time></trkpt><trkpt lat="44.19624034077033" lon="9.621246932110449"><ele>250.5</ele><time>2026-04-05T15:35:43.999Z</time></trkpt><trkpt lat="44.19613287049092" lon="9.621280634477378"><ele>246.0</ele><time>2026-04-05T15:35:44.999Z</time></trkpt><trkpt lat="44.19602495949558" lon="9.62131683109955"><ele>246.0</ele><time>2026-04-05T15:35:45.999Z</time></trkpt><trkpt lat="44.19592559531015" lon="9.621342988128367"><ele>246.00000000000003</ele><time>2026-04-05T15:35:46.999Z</time></trkpt><trkpt lat="44.195832654337565" lon="9.621347927369738"><ele>246.00000000000003</ele><time>2026-04-05T15:35:47.999Z</time></trkpt><trkpt lat="44.195739937246884" lon="9.621324915516231"><ele>246.0</ele><time>2026-04-05T15:35:48.999Z</time></trkpt><trkpt lat="44.19566106822447" lon="9.621247314421732"><ele>246.0</ele><time>2026-04-05T15:35:49.999Z</time></trkpt><trkpt lat="44.19558198308709" lon="9.621171248283888"><ele>248.60000000000002</ele><time>2026-04-05T15:35:50.999Z</time></trkpt><trkpt lat="44.19552650795072" lon="9.621067440112997"><ele>251.20000000000002</ele><time>2026-04-05T15:35:51.999Z</time></trkpt><trkpt lat="44.19547188381281" lon="9.620941139699786"><ele>253.79999999999998</ele><time>2026-04-05T15:35:52.999Z</time></trkpt><trkpt lat="44.195411920354125" lon="9.620814108025735"><ele>256.4</ele><time>2026-04-05T15:35:53.999Z</time></trkpt><trkpt lat="44.195332801824996" lon="9.620712123556299"><ele>259.0</ele><time>2026-04-05T15:35:54.999Z</time></trkpt><trkpt lat="44.19526137716465" lon="9.620611706934024"><ele>259.0</ele><time>2026-04-05T15:35:55.999Z</time></trkpt><trkpt lat="44.19517384411629" lon="9.620557603493793"><ele>259.0</ele><time>2026-04-05T15:35:56.999Z</time></trkpt><trkpt lat="44.19506729106913" lon="9.620569716779464"><ele>259.0</ele><time>2026-04-05T15:35:57.999Z</time></trkpt><trkpt lat="44.19496404743869" lon="9.620645077742756"><ele>259.0</ele><time>2026-04-05T15:35:58.999Z</time></trkpt><trkpt lat="44.19487494983003" lon="9.620735700093567"><ele>259.0</ele><time>2026-04-05T15:35:59.999Z</time></trkpt><trkpt lat="44.19478124820338" lon="9.62081481742189"><ele>258.0</ele><time>2026-04-05T15:36:00.999Z</time></trkpt><trkpt lat="44.194689064972906" lon="9.620893572692712"><ele>257.0</ele><time>2026-04-05T15:36:01.999Z</time></trkpt><trkpt lat="44.19460458647159" lon="9.620996229432986"><ele>256.0</ele><time>2026-04-05T15:36:02.999Z</time></trkpt><trkpt lat="44.19452946615793" lon="9.621146371247725"><ele>255.0</ele><time>2026-04-05T15:36:03.999Z</time></trkpt><trkpt lat="44.19446263687546" lon="9.621292361446542"><ele>255.0</ele><time>2026-04-05T15:36:04.999Z</time></trkpt><trkpt lat="44.19441229042627" lon="9.621446223848013"><ele>255.0</ele><time>2026-04-05T15:36:05.999Z</time></trkpt><trkpt lat="44.19436032827371" lon="9.62159984489763"><ele>255.0</ele><time>2026-04-05T15:36:06.999Z</time></trkpt><trkpt lat="44.19431032126311" lon="9.621735535102555"><ele>255.0</ele><time>2026-04-05T15:36:07.999Z</time></trkpt><trkpt lat="44.194263014399134" lon="9.621872388198872"><ele>255.0</ele><time>2026-04-05T15:36:08.999Z</time></trkpt><trkpt lat="44.194217658389626" lon="9.621974602321151"><ele>255.0</ele><time>2026-04-05T15:36:09.999Z</time></trkpt><trkpt lat="44.194176431586186" lon="9.622070926871077"><ele>255.0</ele><time>2026-04-05T15:36:10.999Z</time></trkpt><trkpt lat="44.19410643330339" lon="9.622148147483681"><ele>255.0</ele><time>2026-04-05T15:36:11.999Z</time></trkpt><trkpt lat="44.19401069603502" lon="9.622186077737732"><ele>255.0</ele><time>2026-04-05T15:36:12.999Z</time></trkpt><trkpt lat="44.19390678055485" lon="9.62215987379286"><ele>250.4</ele><time>2026-04-05T15:36:13.999Z</time></trkpt><trkpt lat="44.19380038343436" lon="9.622158404845637"><ele>245.8</ele><time>2026-04-05T15:36:14.998Z</time></trkpt><trkpt lat="44.19369722158473" lon="9.622116112466967"><ele>241.2</ele><time>2026-04-05T15:36:15.998Z</time></trkpt><trkpt lat="44.19359810903625" lon="9.622098820587386"><ele>236.6</ele><time>2026-04-05T15:36:16.998Z</time></trkpt><trkpt lat="44.19351482047434" lon="9.622081230872638"><ele>232.0</ele><time>2026-04-05T15:36:17.998Z</time></trkpt><trkpt lat="44.19344995152541" lon="9.622074839907588"><ele>232.0</ele><time>2026-04-05T15:36:18.998Z</time></trkpt><trkpt lat="44.1933658246812" lon="9.622056040835451"><ele>232.0</ele><time>2026-04-05T15:36:20.998Z</time></trkpt><trkpt lat="44.19326993967433" lon="9.622009181411372"><ele>232.0</ele><time>2026-04-05T15:36:23.998Z</time></trkpt><trkpt lat="44.19317087175882" lon="9.621939349787867"><ele>232.0</ele><time>2026-04-05T15:36:26Z</time></trkpt><trkpt lat="44.19311091796071" lon="9.621817138622504"><ele>232.0</ele><time>2026-04-05T15:36:28Z</time></trkpt><trkpt lat="44.19304439244247" lon="9.621733280224412"><ele>230.83333333333331</ele><time>2026-04-05T15:36:30Z</time></trkpt><trkpt lat="44.19300245812474" lon="9.621607561103861"><ele>229.66666666666666</ele><time>2026-04-05T15:36:32Z</time></trkpt><trkpt lat="44.193037870243806" lon="9.621484342259865"><ele>228.5</ele><time>2026-04-05T15:36:34Z</time></trkpt><trkpt lat="44.193085173973444" lon="9.621408236408337"><ele>227.33333333333331</ele><time>2026-04-05T15:36:36Z</time></trkpt><trkpt lat="44.193167501448876" lon="9.621326962071691"><ele>226.16666666666666</ele><time>2026-04-05T15:36:38Z</time></trkpt><trkpt lat="44.19321925165337" lon="9.621259826922053"><ele>225.0</ele><time>2026-04-05T15:36:39Z</time></trkpt><trkpt lat="44.19327579175552" lon="9.621167906971978"><ele>230.4</ele><time>2026-04-05T15:36:40Z</time></trkpt><trkpt lat="44.19334448870533" lon="9.62107673489454"><ele>235.8</ele><time>2026-04-05T15:36:41Z</time></trkpt><trkpt lat="44.19337002310215" lon="9.620932036240008"><ele>241.2</ele><time>2026-04-05T15:36:42Z</time></trkpt><trkpt lat="44.19340505044289" lon="9.620805780306059"><ele>246.6</ele><time>2026-04-05T15:36:43Z</time></trkpt><trkpt lat="44.19341291956445" lon="9.620683048555229"><ele>252.0</ele><time>2026-04-05T15:36:44Z</time></trkpt><trkpt lat="44.19340915173738" lon="9.620594448887704"><ele>252.0</ele><time>2026-04-05T15:36:45Z</time></trkpt><trkpt lat="44.19337851233524" lon="9.620446953456693"><ele>252.0</ele><time>2026-04-05T15:36:47Z</time></trkpt><trkpt lat="44.193247332766354" lon="9.620422412053188"><ele>252.0</ele><time>2026-04-05T15:36:49Z</time></trkpt><trkpt lat="44.1931617266213" lon="9.620467014727932"><ele>252.0</ele><time>2026-04-05T15:36:50Z</time></trkpt><trkpt lat="44.19307891377671" lon="9.620482349492455"><ele>252.0</ele><time>2026-04-05T15:36:51Z</time></trkpt><trkpt lat="44.1929824641986" lon="9.62048022097151"><ele>253.6</ele><time>2026-04-05T15:36:52Z</time></trkpt><trkpt lat="44.19288701226483" lon="9.620454948655885"><ele>255.2</ele><time>2026-04-05T15:36:53Z</time></trkpt><trkpt lat="44.19278955338208" lon="9.620424073493544"><ele>256.8</ele><time>2026-04-05T15:36:54Z</time></trkpt><trkpt lat="44.19270311738681" lon="9.620352481110062"><ele>258.4</ele><time>2026-04-05T15:36:55Z</time></trkpt><trkpt lat="44.19262195229154" lon="9.620275168876596"><ele>260.0</ele><time>2026-04-05T15:36:56Z</time></trkpt><trkpt lat="44.19253652309354" lon="9.620224275682647"><ele>260.0</ele><time>2026-04-05T15:36:57Z</time></trkpt><trkpt lat="44.19244029505599" lon="9.620218396199682"><ele>260.0</ele><time>2026-04-05T15:36:58Z</time></trkpt><trkpt lat="44.19233977641486" lon="9.62022536902598"><ele>260.0</ele><time>2026-04-05T15:36:59Z</time></trkpt><trkpt lat="44.19223932446637" lon="9.620204844466722"><ele>260.0</ele><time>2026-04-05T15:37:00Z</time></trkpt><trkpt lat="44.192133556534586" lon="9.620173444330387"><ele>260.0</ele><time>2026-04-05T15:37:01Z</time></trkpt><trkpt lat="44.192032210219345" lon="9.620121127473773"><ele>255.8</ele><time>2026-04-05T15:37:02Z</time></trkpt><trkpt lat="44.191929572599776" lon="9.620087088107313"><ele>251.6</ele><time>2026-04-05T15:37:03Z</time></trkpt><trkpt lat="44.191831248827846" lon="9.620045104608204"><ele>247.39999999999998</ele><time>2026-04-05T15:37:04Z</time></trkpt><trkpt lat="44.19173387553293" lon="9.620015709151897"><ele>243.2</ele><time>2026-04-05T15:37:05Z</time></trkpt><trkpt lat="44.191636925653334" lon="9.619994859620236"><ele>239.0</ele><time>2026-04-05T15:37:06Z</time></trkpt><trkpt lat="44.191553376094845" lon="9.619969560553807"><ele>235.39999999999998</ele><time>2026-04-05T15:37:07Z</time></trkpt><trkpt lat="44.191480152001986" lon="9.619942003025814"><ele>231.79999999999998</ele><time>2026-04-05T15:37:08Z</time></trkpt><trkpt lat="44.19141240701066" lon="9.619913928730526"><ele>228.20000000000002</ele><time>2026-04-05T15:37:09Z</time></trkpt><trkpt lat="44.1912912126147" lon="9.619872046893198"><ele>224.60000000000002</ele><time>2026-04-05T15:37:11Z</time></trkpt><trkpt lat="44.1911965054547" lon="9.619870798321314"><ele>221.0</ele><time>2026-04-05T15:37:12.999Z</time></trkpt><trkpt lat="44.191090149476146" lon="9.61986885920495"><ele>221.00000000000003</ele><time>2026-04-05T15:37:15.999Z</time></trkpt><trkpt lat="44.190992855729064" lon="9.619808145800858"><ele>221.0</ele><time>2026-04-05T15:37:17.999Z</time></trkpt><trkpt lat="44.1909117184829" lon="9.619725552099904"><ele>221.0</ele><time>2026-04-05T15:37:19.999Z</time></trkpt><trkpt lat="44.190880874986924" lon="9.61964775255347"><ele>221.0</ele><time>2026-04-05T15:37:20.999Z</time></trkpt><trkpt lat="44.19088082221757" lon="9.619549992531509"><ele>221.00000000000003</ele><time>2026-04-05T15:37:21.999Z</time></trkpt><trkpt lat="44.190902423047554" lon="9.619452681184551"><ele>221.0</ele><time>2026-04-05T15:37:22.999Z</time></trkpt><trkpt lat="44.190944862907884" lon="9.619370931465156"><ele>220.20000000000002</ele><time>2026-04-05T15:37:23.999Z</time></trkpt><trkpt lat="44.19101535897965" lon="9.61926340183914"><ele>219.40000000000003</ele><time>2026-04-05T15:37:25.999Z</time></trkpt><trkpt lat="44.19106021384547" lon="9.619163094593901"><ele>218.6</ele><time>2026-04-05T15:37:27.999Z</time></trkpt><trkpt lat="44.19113116078796" lon="9.619112850007177"><ele>217.8</ele><time>2026-04-05T15:37:29.999Z</time></trkpt><trkpt lat="44.19121418299163" lon="9.619028374962715"><ele>217.0</ele><time>2026-04-05T15:37:31.999Z</time></trkpt><trkpt lat="44.19130843157825" lon="9.618936865704331"><ele>217.0</ele><time>2026-04-05T15:37:33.999Z</time></trkpt><trkpt lat="44.19139104319439" lon="9.61886256304064"><ele>217.0</ele><time>2026-04-05T15:37:35.999Z</time></trkpt><trkpt lat="44.19147917110971" lon="9.618797834631174"><ele>217.0</ele><time>2026-04-05T15:37:37.999Z</time></trkpt><trkpt lat="44.19157444513001" lon="9.618782928394513"><ele>217.0</ele><time>2026-04-05T15:37:39.999Z</time></trkpt><trkpt lat="44.191641899325056" lon="9.618770608659009"><ele>217.0</ele><time>2026-04-05T15:37:41.999Z</time></trkpt><trkpt lat="44.191746174594165" lon="9.618729971189325"><ele>217.66666666666666</ele><time>2026-04-05T15:37:43.999Z</time></trkpt><trkpt lat="44.191867401301835" lon="9.618667745664514"><ele>218.33333333333331</ele><time>2026-04-05T15:37:45.999Z</time></trkpt><trkpt lat="44.191937581627414" lon="9.618616683749229"><ele>219.0</ele><time>2026-04-05T15:37:46.999Z</time></trkpt><trkpt lat="44.19200431312529" lon="9.618592029945656"><ele>219.66666666666669</ele><time>2026-04-05T15:37:47.999Z</time></trkpt><trkpt lat="44.1920343028919" lon="9.618514301443101"><ele>220.33333333333334</ele><time>2026-04-05T15:37:48.999Z</time></trkpt><trkpt lat="44.19209561874058" lon="9.61843327793282"><ele>221.0</ele><time>2026-04-05T15:37:49.999Z</time></trkpt><trkpt lat="44.19214314303047" lon="9.61836430774463"><ele>221.00000000000003</ele><time>2026-04-05T15:37:50.999Z</time></trkpt><trkpt lat="44.19217484004025" lon="9.61827779157233"><ele>221.0</ele><time>2026-04-05T15:37:51.999Z</time></trkpt><trkpt lat="44.19221125554894" lon="9.618191291572378"><ele>221.0</ele><time>2026-04-05T15:37:52.999Z</time></trkpt><trkpt lat="44.19223029551558" lon="9.618089177441652"><ele>221.0</ele><time>2026-04-05T15:37:53.999Z</time></trkpt><trkpt lat="44.19226398559561" lon="9.617976858460398"><ele>221.00000000000003</ele><time>2026-04-05T15:37:54.999Z</time></trkpt><trkpt lat="44.1922689127804" lon="9.617861689338286"><ele>221.0</ele><time>2026-04-05T15:37:55.999Z</time></trkpt><trkpt lat="44.192259048719436" lon="9.617742460945458"><ele>217.00000000000003</ele><time>2026-04-05T15:37:56.999Z</time></trkpt><trkpt lat="44.19224564554451" lon="9.617624672044169"><ele>213.0</ele><time>2026-04-05T15:37:57.999Z</time></trkpt><trkpt lat="44.192237601918826" lon="9.617508957780537"><ele>209.0</ele><time>2026-04-05T15:37:58.999Z</time></trkpt><trkpt lat="44.1922271662445" lon="9.617401018076306"><ele>205.0</ele><time>2026-04-05T15:37:59.999Z</time></trkpt><trkpt lat="44.19223669474674" lon="9.617310501920347"><ele>201.00000000000003</ele><time>2026-04-05T15:38:00.999Z</time></trkpt><trkpt lat="44.19226336653356" lon="9.617219835160368"><ele>197.0</ele><time>2026-04-05T15:38:01.999Z</time></trkpt><trkpt lat="44.19232603907239" lon="9.617147146614272"><ele>201.0</ele><time>2026-04-05T15:38:02.999Z</time></trkpt><trkpt lat="44.192406307879715" lon="9.617094560820846"><ele>205.0</ele><time>2026-04-05T15:38:03.999Z</time></trkpt><trkpt lat="44.192491892725634" lon="9.617053150004379"><ele>209.0</ele><time>2026-04-05T15:38:04.999Z</time></trkpt><trkpt lat="44.19257860450365" lon="9.61699315875008"><ele>213.0</ele><time>2026-04-05T15:38:05.999Z</time></trkpt><trkpt lat="44.192668355752666" lon="9.616921437206303"><ele>217.0</ele><time>2026-04-05T15:38:06.999Z</time></trkpt><trkpt lat="44.19274013920901" lon="9.616857065799739"><ele>217.0</ele><time>2026-04-05T15:38:07.999Z</time></trkpt><trkpt lat="44.19279804427511" lon="9.616762524565393"><ele>217.0</ele><time>2026-04-05T15:38:08.999Z</time></trkpt><trkpt lat="44.192838489956856" lon="9.616633176270017"><ele>217.0</ele><time>2026-04-05T15:38:09.999Z</time></trkpt><trkpt lat="44.19284251520384" lon="9.616489540066326"><ele>217.0</ele><time>2026-04-05T15:38:10.999Z</time></trkpt><trkpt lat="44.19283513810608" lon="9.616348902138688"><ele>217.0</ele><time>2026-04-05T15:38:11.999Z</time></trkpt><trkpt lat="44.19285052588005" lon="9.616204252563156"><ele>214.39999999999998</ele><time>2026-04-05T15:38:12.999Z</time></trkpt><trkpt lat="44.192882444257094" lon="9.616064021788828"><ele>211.79999999999998</ele><time>2026-04-05T15:38:13.999Z</time></trkpt><trkpt lat="44.192942041230026" lon="9.615939702641935"><ele>209.2</ele><time>2026-04-05T15:38:14.999Z</time></trkpt><trkpt lat="44.19300427897748" lon="9.61581660253431"><ele>206.6</ele><time>2026-04-05T15:38:15.998Z</time></trkpt><trkpt lat="44.19308631980917" lon="9.615723939134929"><ele>204.0</ele><time>2026-04-05T15:38:16.998Z</time></trkpt><trkpt lat="44.193154231777605" lon="9.615598271309818"><ele>207.6</ele><time>2026-04-05T15:38:17.998Z</time></trkpt><trkpt lat="44.19322692520297" lon="9.61548173754554"><ele>211.2</ele><time>2026-04-05T15:38:18.998Z</time></trkpt><trkpt lat="44.1933101592475" lon="9.61535653199149"><ele>214.79999999999998</ele><time>2026-04-05T15:38:19.998Z</time></trkpt><trkpt lat="44.19339627547905" lon="9.615271613781818"><ele>218.39999999999998</ele><time>2026-04-05T15:38:20.998Z</time></trkpt><trkpt lat="44.19348613236286" lon="9.615204346929518"><ele>222.0</ele><time>2026-04-05T15:38:21.998Z</time></trkpt><trkpt lat="44.19356098003202" lon="9.615118645541841"><ele>222.0</ele><time>2026-04-05T15:38:22.998Z</time></trkpt><trkpt lat="44.19360021789438" lon="9.614912459605533"><ele>222.0</ele><time>2026-04-05T15:38:23.998Z</time></trkpt><trkpt lat="44.19357461590337" lon="9.614748953751635"><ele>222.0</ele><time>2026-04-05T15:38:24.998Z</time></trkpt><trkpt lat="44.19358523723954" lon="9.614593416534987"><ele>222.0</ele><time>2026-04-05T15:38:26.998Z</time></trkpt><trkpt lat="44.193634335069014" lon="9.614474342853276"><ele>223.39999999999998</ele><time>2026-04-05T15:38:27.998Z</time></trkpt><trkpt lat="44.19370449886908" lon="9.614367353626436"><ele>224.79999999999998</ele><time>2026-04-05T15:38:28.998Z</time></trkpt><trkpt lat="44.19375919752659" lon="9.614301338793046"><ele>226.2</ele><time>2026-04-05T15:38:29.998Z</time></trkpt><trkpt lat="44.19383801535722" lon="9.614198097090258"><ele>227.6</ele><time>2026-04-05T15:38:30.998Z</time></trkpt><trkpt lat="44.193920527597626" lon="9.614098481890196"><ele>229.0</ele><time>2026-04-05T15:38:32Z</time></trkpt><trkpt lat="44.19400727728811" lon="9.61402083858114"><ele>229.0</ele><time>2026-04-05T15:38:33Z</time></trkpt><trkpt lat="44.19409936953692" lon="9.614027885774872"><ele>228.99999999999997</ele><time>2026-04-05T15:38:34Z</time></trkpt><trkpt lat="44.19420248671982" lon="9.614005482980971"><ele>228.99999999999997</ele><time>2026-04-05T15:38:35Z</time></trkpt><trkpt lat="44.19431495083602" lon="9.61397858477482"><ele>229.0</ele><time>2026-04-05T15:38:36Z</time></trkpt><trkpt lat="44.19442154136459" lon="9.613948138370885"><ele>229.0</ele><time>2026-04-05T15:38:37Z</time></trkpt><trkpt lat="44.19450275360604" lon="9.61391864901225"><ele>228.99999999999997</ele><time>2026-04-05T15:38:38Z</time></trkpt><trkpt lat="44.19460273797386" lon="9.613891918028191"><ele>229.0</ele><time>2026-04-05T15:38:39Z</time></trkpt><trkpt lat="44.194683957206365" lon="9.613857819255482"><ele>229.0</ele><time>2026-04-05T15:38:40Z</time></trkpt><trkpt lat="44.19474759675019" lon="9.61379133497185"><ele>229.0</ele><time>2026-04-05T15:38:41Z</time></trkpt><trkpt lat="44.194782103360595" lon="9.613680014767414"><ele>228.99999999999997</ele><time>2026-04-05T15:38:42Z</time></trkpt><trkpt lat="44.1947992697778" lon="9.613560808397743"><ele>229.0</ele><time>2026-04-05T15:38:43Z</time></trkpt><trkpt lat="44.19483311602166" lon="9.613451081759582"><ele>225.99999999999997</ele><time>2026-04-05T15:38:44Z</time></trkpt><trkpt lat="44.19480288625737" lon="9.613338861007115"><ele>223.0</ele><time>2026-04-05T15:38:45Z</time></trkpt><trkpt lat="44.19479770568814" lon="9.613238336677206"><ele>220.0</ele><time>2026-04-05T15:38:46Z</time></trkpt><trkpt lat="44.19473936844825" lon="9.613141771154584"><ele>217.0</ele><time>2026-04-05T15:38:47Z</time></trkpt><trkpt lat="44.19465833248394" lon="9.613077889970429"><ele>213.99999999999997</ele><time>2026-04-05T15:38:48Z</time></trkpt><trkpt lat="44.19456372264821" lon="9.61307171427109"><ele>211.0</ele><time>2026-04-05T15:38:49Z</time></trkpt><trkpt lat="44.19448488106642" lon="9.6130517248313"><ele>211.0</ele><time>2026-04-05T15:38:50Z</time></trkpt><trkpt lat="44.194406673702595" lon="9.613059880929482"><ele>211.0</ele><time>2026-04-05T15:38:51Z</time></trkpt><trkpt lat="44.19430348042108" lon="9.613027515200859"><ele>211.0</ele><time>2026-04-05T15:38:52Z</time></trkpt><trkpt lat="44.194193342819815" lon="9.612931485876524"><ele>211.0</ele><time>2026-04-05T15:38:53Z</time></trkpt><trkpt lat="44.19410698204551" lon="9.612838327609142"><ele>211.0</ele><time>2026-04-05T15:38:54Z</time></trkpt><trkpt lat="44.194021473170054" lon="9.612747276382485"><ele>214.8</ele><time>2026-04-05T15:38:55Z</time></trkpt><trkpt lat="44.19393626348356" lon="9.612678989778425"><ele>218.60000000000002</ele><time>2026-04-05T15:38:56Z</time></trkpt><trkpt lat="44.193850558508416" lon="9.612613445261298"><ele>222.4</ele><time>2026-04-05T15:38:57Z</time></trkpt><trkpt lat="44.19376088904567" lon="9.612549239166766"><ele>226.2</ele><time>2026-04-05T15:38:58Z</time></trkpt><trkpt lat="44.1936474070749" lon="9.612575074625672"><ele>230.0</ele><time>2026-04-05T15:38:59Z</time></trkpt><trkpt lat="44.193543082681195" lon="9.612588826317142"><ele>230.0</ele><time>2026-04-05T15:39:00Z</time></trkpt><trkpt lat="44.19342752157668" lon="9.612607241259493"><ele>230.0</ele><time>2026-04-05T15:39:01Z</time></trkpt><trkpt lat="44.193316555380335" lon="9.61262492401763"><ele>230.0</ele><time>2026-04-05T15:39:02Z</time></trkpt><trkpt lat="44.193213287643445" lon="9.612631711230234"><ele>230.0</ele><time>2026-04-05T15:39:03Z</time></trkpt><trkpt lat="44.193119201251655" lon="9.612621802211502"><ele>230.0</ele><time>2026-04-05T15:39:04Z</time></trkpt><trkpt lat="44.19303637863938" lon="9.612593817424303"><ele>227.8</ele><time>2026-04-05T15:39:05Z</time></trkpt><trkpt lat="44.19295352019901" lon="9.612626297562365"><ele>225.6</ele><time>2026-04-05T15:39:06Z</time></trkpt><trkpt lat="44.19284950027432" lon="9.612714437253084"><ele>223.39999999999998</ele><time>2026-04-05T15:39:07Z</time></trkpt><trkpt lat="44.19278818056541" lon="9.61283195821649"><ele>221.2</ele><time>2026-04-05T15:39:08Z</time></trkpt><trkpt lat="44.19271839775613" lon="9.612928127321378"><ele>219.0</ele><time>2026-04-05T15:39:09Z</time></trkpt><trkpt lat="44.19263057194732" lon="9.613017733829915"><ele>215.6</ele><time>2026-04-05T15:39:10Z</time></trkpt><trkpt lat="44.19253783932123" lon="9.613101255916023"><ele>212.2</ele><time>2026-04-05T15:39:11Z</time></trkpt><trkpt lat="44.19245658320307" lon="9.61317622359551"><ele>208.79999999999998</ele><time>2026-04-05T15:39:12Z</time></trkpt><trkpt lat="44.1923869203614" lon="9.613239600242698"><ele>205.39999999999998</ele><time>2026-04-05T15:39:13Z</time></trkpt><trkpt lat="44.19232744594457" lon="9.613280561825965"><ele>202.0</ele><time>2026-04-05T15:39:14Z</time></trkpt><trkpt lat="44.19223365970023" lon="9.613241851576559"><ele>195.6</ele><time>2026-04-05T15:39:16Z</time></trkpt><trkpt lat="44.19223332930393" lon="9.613065354093537"><ele>189.2</ele><time>2026-04-05T15:39:18Z</time></trkpt><trkpt lat="44.192232284007794" lon="9.612970950755354"><ele>182.8</ele><time>2026-04-05T15:39:18.999Z</time></trkpt><trkpt lat="44.19222809123845" lon="9.612850860644153"><ele>176.4</ele><time>2026-04-05T15:39:19.999Z</time></trkpt><trkpt lat="44.192213037328656" lon="9.612726634251898"><ele>170.0</ele><time>2026-04-05T15:39:20.999Z</time></trkpt><trkpt lat="44.19221749153684" lon="9.612585550517542"><ele>169.2</ele><time>2026-04-05T15:39:21.999Z</time></trkpt><trkpt lat="44.192230313654214" lon="9.612470080567668"><ele>168.4</ele><time>2026-04-05T15:39:22.999Z</time></trkpt><trkpt lat="44.192238740148575" lon="9.612319163066811"><ele>167.60000000000002</ele><time>2026-04-05T15:39:23.999Z</time></trkpt><trkpt lat="44.19226111070331" lon="9.612174039100852"><ele>166.8</ele><time>2026-04-05T15:39:24.999Z</time></trkpt><trkpt lat="44.1922820364752" lon="9.612022608063427"><ele>166.0</ele><time>2026-04-05T15:39:25.999Z</time></trkpt><trkpt lat="44.19229905135065" lon="9.61187576176365"><ele>166.0</ele><time>2026-04-05T15:39:26.999Z</time></trkpt><trkpt lat="44.19230812625305" lon="9.611730389116824"><ele>166.0</ele><time>2026-04-05T15:39:27.999Z</time></trkpt><trkpt lat="44.192334812567694" lon="9.61155284972995"><ele>166.0</ele><time>2026-04-05T15:39:28.999Z</time></trkpt><trkpt lat="44.19235893042877" lon="9.61138392859634"><ele>166.0</ele><time>2026-04-05T15:39:29.999Z</time></trkpt><trkpt lat="44.19239004966558" lon="9.611222193667423"><ele>177.25</ele><time>2026-04-05T15:39:30.999Z</time></trkpt><trkpt lat="44.19241631294075" lon="9.611059988208291"><ele>188.5</ele><time>2026-04-05T15:39:31.999Z</time></trkpt><trkpt lat="44.192439857287816" lon="9.610896089327401"><ele>199.75</ele><time>2026-04-05T15:39:32.999Z</time></trkpt><trkpt lat="44.192471143090735" lon="9.610746617886921"><ele>211.0</ele><time>2026-04-05T15:39:33.999Z</time></trkpt><trkpt lat="44.192507238262756" lon="9.610590067652158"><ele>211.0</ele><time>2026-04-05T15:39:34.999Z</time></trkpt><trkpt lat="44.19255580657949" lon="9.610447789138117"><ele>211.0</ele><time>2026-04-05T15:39:35.999Z</time></trkpt><trkpt lat="44.19258056211861" lon="9.610286588305772"><ele>211.0</ele><time>2026-04-05T15:39:36.999Z</time></trkpt><trkpt lat="44.19255867096486" lon="9.610098049765908"><ele>211.0</ele><time>2026-04-05T15:39:37.999Z</time></trkpt><trkpt lat="44.19259551887583" lon="9.609969143919109"><ele>210.4</ele><time>2026-04-05T15:39:38.999Z</time></trkpt><trkpt lat="44.192604624671745" lon="9.609833034231126"><ele>209.8</ele><time>2026-04-05T15:39:39.999Z</time></trkpt><trkpt lat="44.19262664360437" lon="9.609713640556494"><ele>209.20000000000002</ele><time>2026-04-05T15:39:40.999Z</time></trkpt><trkpt lat="44.19260780392364" lon="9.609585078830685"><ele>208.60000000000002</ele><time>2026-04-05T15:39:41.999Z</time></trkpt><trkpt lat="44.192562227756504" lon="9.609452110995004"><ele>208.0</ele><time>2026-04-05T15:39:42.999Z</time></trkpt><trkpt lat="44.19251136192571" lon="9.609325099863264"><ele>207.99999999999997</ele><time>2026-04-05T15:39:43.999Z</time></trkpt><trkpt lat="44.19246966497377" lon="9.609207178987289"><ele>208.0</ele><time>2026-04-05T15:39:44.999Z</time></trkpt><trkpt lat="44.19244146929434" lon="9.609098081640598"><ele>208.0</ele><time>2026-04-05T15:39:45.999Z</time></trkpt><trkpt lat="44.19241515863982" lon="9.609006560910643"><ele>208.0</ele><time>2026-04-05T15:39:46.999Z</time></trkpt><trkpt lat="44.19236647932499" lon="9.608852787554818"><ele>207.99999999999997</ele><time>2026-04-05T15:39:48.999Z</time></trkpt><trkpt lat="44.19230294596244" lon="9.608810012870801"><ele>208.0</ele><time>2026-04-05T15:39:49.999Z</time></trkpt><trkpt lat="44.19222138634035" lon="9.608811044205929"><ele>210.16666666666666</ele><time>2026-04-05T15:39:50.999Z</time></trkpt><trkpt lat="44.192150066775675" lon="9.60885358519358"><ele>212.33333333333331</ele><time>2026-04-05T15:39:51.999Z</time></trkpt><trkpt lat="44.19209020301826" lon="9.608935375626825"><ele>214.5</ele><time>2026-04-05T15:39:52.999Z</time></trkpt><trkpt lat="44.19207143320361" lon="9.60902868072872"><ele>216.66666666666669</ele><time>2026-04-05T15:39:53.999Z</time></trkpt><trkpt lat="44.192043843284004" lon="9.609162404741316"><ele>218.83333333333334</ele><time>2026-04-05T15:39:54.999Z</time></trkpt><trkpt lat="44.192025542244" lon="9.609299685142163"><ele>221.0</ele><time>2026-04-05T15:39:55.999Z</time></trkpt><trkpt lat="44.19202196216534" lon="9.60942726450814"><ele>217.16666666666669</ele><time>2026-04-05T15:39:56.999Z</time></trkpt><trkpt lat="44.19199394879033" lon="9.609550924332119"><ele>213.33333333333334</ele><time>2026-04-05T15:39:57.999Z</time></trkpt><trkpt lat="44.19198549390567" lon="9.60969048104436"><ele>209.5</ele><time>2026-04-05T15:39:58.999Z</time></trkpt><trkpt lat="44.191945230124645" lon="9.609790146958797"><ele>205.66666666666669</ele><time>2026-04-05T15:39:59.999Z</time></trkpt><trkpt lat="44.191912810384935" lon="9.609891144865733"><ele>201.83333333333334</ele><time>2026-04-05T15:40:00.999Z</time></trkpt><trkpt lat="44.191844945846384" lon="9.60996729027641"><ele>198.0</ele><time>2026-04-05T15:40:01.999Z</time></trkpt><trkpt lat="44.191772364774494" lon="9.610058596567109"><ele>198.0</ele><time>2026-04-05T15:40:02.999Z</time></trkpt><trkpt lat="44.1916914473006" lon="9.610085106856733"><ele>198.0</ele><time>2026-04-05T15:40:03.999Z</time></trkpt><trkpt lat="44.19161914919893" lon="9.610081804415792"><ele>198.0</ele><time>2026-04-05T15:40:04.999Z</time></trkpt><trkpt lat="44.19155363575737" lon="9.61005036565948"><ele>198.0</ele><time>2026-04-05T15:40:05.999Z</time></trkpt><trkpt lat="44.19147157335431" lon="9.609995802229351"><ele>198.0</ele><time>2026-04-05T15:40:06.999Z</time></trkpt><trkpt lat="44.19140573916253" lon="9.609992115367737"><ele>198.0</ele><time>2026-04-05T15:40:07.999Z</time></trkpt><trkpt lat="44.19132164618414" lon="9.610010166992694"><ele>199.2</ele><time>2026-04-05T15:40:08.999Z</time></trkpt><trkpt lat="44.19124264359823" lon="9.6100703264015"><ele>200.4</ele><time>2026-04-05T15:40:09.999Z</time></trkpt><trkpt lat="44.19120109225202" lon="9.61019903434518"><ele>201.6</ele><time>2026-04-05T15:40:10.999Z</time></trkpt><trkpt lat="44.1912091798629" lon="9.61037132556644"><ele>202.79999999999998</ele><time>2026-04-05T15:40:11.999Z</time></trkpt><trkpt lat="44.19119669706533" lon="9.610515468402491"><ele>204.0</ele><time>2026-04-05T15:40:12.999Z</time></trkpt><trkpt lat="44.1911708543365" lon="9.61064001430823"><ele>204.0</ele><time>2026-04-05T15:40:13.999Z</time></trkpt><trkpt lat="44.19113528579609" lon="9.610732287170853"><ele>204.0</ele><time>2026-04-05T15:40:14.999Z</time></trkpt><trkpt lat="44.19102064497469" lon="9.610804707643792"><ele>204.0</ele><time>2026-04-05T15:40:16.999Z</time></trkpt><trkpt lat="44.19095106567181" lon="9.61084141788167"><ele>204.0</ele><time>2026-04-05T15:40:19.999Z</time></trkpt><trkpt lat="44.19088250208044" lon="9.610896662465246"><ele>204.0</ele><time>2026-04-05T15:40:23.998Z</time></trkpt><trkpt lat="44.19082490253578" lon="9.610950863830354"><ele>204.0</ele><time>2026-04-05T15:40:25.998Z</time></trkpt><trkpt lat="44.1907703306181" lon="9.611025005584342"><ele>204.0</ele><time>2026-04-05T15:40:26.998Z</time></trkpt><trkpt lat="44.19072475157806" lon="9.61114459399393"><ele>204.0</ele><time>2026-04-05T15:40:27.998Z</time></trkpt><trkpt lat="44.190689509903955" lon="9.611294461898197"><ele>204.0</ele><time>2026-04-05T15:40:28.998Z</time></trkpt><trkpt lat="44.19065982326106" lon="9.611453249938148"><ele>204.0</ele><time>2026-04-05T15:40:29.998Z</time></trkpt><trkpt lat="44.19063506529097" lon="9.611613189942009"><ele>204.0</ele><time>2026-04-05T15:40:30.998Z</time></trkpt><trkpt lat="44.190621910104184" lon="9.611742199827408"><ele>202.33333333333334</ele><time>2026-04-05T15:40:31.998Z</time></trkpt><trkpt lat="44.19060678247273" lon="9.61183986199729"><ele>200.66666666666669</ele><time>2026-04-05T15:40:32.998Z</time></trkpt><trkpt lat="44.190534474117726" lon="9.611967153280744"><ele>199.0</ele><time>2026-04-05T15:40:34.998Z</time></trkpt><trkpt lat="44.190475216997555" lon="9.612009334108338"><ele>197.33333333333334</ele><time>2026-04-05T15:40:35.998Z</time></trkpt><trkpt lat="44.19039510713799" lon="9.612049873178346"><ele>195.66666666666669</ele><time>2026-04-05T15:40:36.998Z</time></trkpt><trkpt lat="44.1902905311636" lon="9.612094779242442"><ele>194.0</ele><time>2026-04-05T15:40:38Z</time></trkpt><trkpt lat="44.1902033361379" lon="9.61215288351659"><ele>194.00000000000003</ele><time>2026-04-05T15:40:39Z</time></trkpt><trkpt lat="44.190136273705804" lon="9.612200623401991"><ele>194.0</ele><time>2026-04-05T15:40:40Z</time></trkpt><trkpt lat="44.19006309938748" lon="9.612206675393658"><ele>194.0</ele><time>2026-04-05T15:40:41Z</time></trkpt><trkpt lat="44.189994710642694" lon="9.612179878712203"><ele>194.0</ele><time>2026-04-05T15:40:42Z</time></trkpt><trkpt lat="44.189934887883005" lon="9.612111827415967"><ele>194.00000000000003</ele><time>2026-04-05T15:40:43Z</time></trkpt><trkpt lat="44.18990751768464" lon="9.61197831992613"><ele>194.0</ele><time>2026-04-05T15:40:44Z</time></trkpt><trkpt lat="44.189842577941945" lon="9.611856174752424"><ele>195.6</ele><time>2026-04-05T15:40:45Z</time></trkpt><trkpt lat="44.1897921461457" lon="9.611706001713506"><ele>197.2</ele><time>2026-04-05T15:40:46Z</time></trkpt><trkpt lat="44.189743005174705" lon="9.611585159002868"><ele>198.79999999999998</ele><time>2026-04-05T15:40:47Z</time></trkpt><trkpt lat="44.18969656793513" lon="9.611507250021557"><ele>200.39999999999998</ele><time>2026-04-05T15:40:48Z</time></trkpt><trkpt lat="44.189615531916125" lon="9.611469222786834"><ele>202.0</ele><time>2026-04-05T15:40:49Z</time></trkpt><trkpt lat="44.18951131972163" lon="9.611484934639426"><ele>201.99999999999997</ele><time>2026-04-05T15:40:50Z</time></trkpt><trkpt lat="44.18941648946421" lon="9.611515125038887"><ele>202.0</ele><time>2026-04-05T15:40:51Z</time></trkpt><trkpt lat="44.18935035047739" lon="9.611544451136053"><ele>202.0</ele><time>2026-04-05T15:40:52Z</time></trkpt><trkpt lat="44.18929531300616" lon="9.611605897522068"><ele>202.0</ele><time>2026-04-05T15:40:53Z</time></trkpt><trkpt lat="44.18925420958089" lon="9.611715562888953"><ele>201.99999999999997</ele><time>2026-04-05T15:40:54Z</time></trkpt><trkpt lat="44.18924638518551" lon="9.611844394818855"><ele>202.0</ele><time>2026-04-05T15:40:55Z</time></trkpt><trkpt lat="44.18922460565854" lon="9.611956788809428"><ele>199.6</ele><time>2026-04-05T15:40:56Z</time></trkpt><trkpt lat="44.189179506627696" lon="9.612061673409169"><ele>197.2</ele><time>2026-04-05T15:40:57Z</time></trkpt><trkpt lat="44.1891301271955" lon="9.61216038972307"><ele>194.8</ele><time>2026-04-05T15:40:58Z</time></trkpt><trkpt lat="44.189068378141634" lon="9.612266416433656"><ele>192.4</ele><time>2026-04-05T15:40:59Z</time></trkpt><trkpt lat="44.18899598333304" lon="9.612369978869962"><ele>190.0</ele><time>2026-04-05T15:41:00Z</time></trkpt><trkpt lat="44.188930278028806" lon="9.612473384463723"><ele>190.0</ele><time>2026-04-05T15:41:01Z</time></trkpt><trkpt lat="44.18886931126323" lon="9.612566750534041"><ele>190.0</ele><time>2026-04-05T15:41:02Z</time></trkpt><trkpt lat="44.188815951071774" lon="9.612646465907822"><ele>190.0</ele><time>2026-04-05T15:41:03Z</time></trkpt><trkpt lat="44.18872470220874" lon="9.612705098777335"><ele>190.0</ele><time>2026-04-05T15:41:05Z</time></trkpt><trkpt lat="44.18861920262559" lon="9.612633468763857"><ele>190.0</ele><time>2026-04-05T15:41:07Z</time></trkpt><trkpt lat="44.18857388971612" lon="9.612544505394654"><ele>190.0</ele><time>2026-04-05T15:41:08Z</time></trkpt><trkpt lat="44.188519927071404" lon="9.612473109013301"><ele>190.0</ele><time>2026-04-05T15:41:09Z</time></trkpt><trkpt lat="44.188463715852286" lon="9.612394668435998"><ele>190.0</ele><time>2026-04-05T15:41:10Z</time></trkpt><trkpt lat="44.18841461502195" lon="9.612310811276274"><ele>190.0</ele><time>2026-04-05T15:41:11Z</time></trkpt><trkpt lat="44.188356680620316" lon="9.61226793564039"><ele>190.0</ele><time>2026-04-05T15:41:12Z</time></trkpt><trkpt lat="44.1882656183127" lon="9.612326137393126"><ele>190.0</ele><time>2026-04-05T15:41:14Z</time></trkpt><trkpt lat="44.188216041248175" lon="9.61241595187272"><ele>190.0</ele><time>2026-04-05T15:41:15Z</time></trkpt><trkpt lat="44.18818933251818" lon="9.612511529777228"><ele>190.0</ele><time>2026-04-05T15:41:16Z</time></trkpt><trkpt lat="44.18816191770967" lon="9.61261066601009"><ele>190.0</ele><time>2026-04-05T15:41:17Z</time></trkpt><trkpt lat="44.18813007310465" lon="9.612722583885615"><ele>190.0</ele><time>2026-04-05T15:41:18Z</time></trkpt><trkpt lat="44.1880946386514" lon="9.612833090506703"><ele>190.0</ele><time>2026-04-05T15:41:18.999Z</time></trkpt><trkpt lat="44.1880497875505" lon="9.612957540808951"><ele>190.0</ele><time>2026-04-05T15:41:19.999Z</time></trkpt><trkpt lat="44.1880138498748" lon="9.613083668537728"><ele>190.4</ele><time>2026-04-05T15:41:20.999Z</time></trkpt><trkpt lat="44.187960580830804" lon="9.613195756182902"><ele>190.8</ele><time>2026-04-05T15:41:21.999Z</time></trkpt><trkpt lat="44.18789338338374" lon="9.613304626325839"><ele>191.2</ele><time>2026-04-05T15:41:22.999Z</time></trkpt><trkpt lat="44.18782482988955" lon="9.613454109173954"><ele>191.6</ele><time>2026-04-05T15:41:23.999Z</time></trkpt><trkpt lat="44.18778184793499" lon="9.613612222129271"><ele>192.0</ele><time>2026-04-05T15:41:24.999Z</time></trkpt><trkpt lat="44.18773014449765" lon="9.6138149967472"><ele>192.0</ele><time>2026-04-05T15:41:25.999Z</time></trkpt><trkpt lat="44.18769845338618" lon="9.613984060617408"><ele>192.0</ele><time>2026-04-05T15:41:26.999Z</time></trkpt><trkpt lat="44.187671953750275" lon="9.614153038199337"><ele>192.0</ele><time>2026-04-05T15:41:27.999Z</time></trkpt><trkpt lat="44.18765340157427" lon="9.614311057496325"><ele>192.0</ele><time>2026-04-05T15:41:28.999Z</time></trkpt><trkpt lat="44.18761213855743" lon="9.61444245179623"><ele>191.33333333333334</ele><time>2026-04-05T15:41:29.999Z</time></trkpt><trkpt lat="44.18756750151714" lon="9.614555402328534"><ele>190.66666666666666</ele><time>2026-04-05T15:41:31.999Z</time></trkpt><trkpt lat="44.187515306708306" lon="9.614647909394032"><ele>190.0</ele><time>2026-04-05T15:41:32.999Z</time></trkpt><trkpt lat="44.18745447287243" lon="9.614719845645583"><ele>189.33333333333331</ele><time>2026-04-05T15:41:33.999Z</time></trkpt><trkpt lat="44.187370571875434" lon="9.614787901373564"><ele>188.66666666666666</ele><time>2026-04-05T15:41:34.999Z</time></trkpt><trkpt lat="44.18729073570337" lon="9.614840688777903"><ele>188.0</ele><time>2026-04-05T15:41:35.999Z</time></trkpt><trkpt lat="44.187204974840725" lon="9.61485238512053"><ele>188.0</ele><time>2026-04-05T15:41:36.999Z</time></trkpt><trkpt lat="44.18710191587465" lon="9.614863297338859"><ele>188.0</ele><time>2026-04-05T15:41:37.999Z</time></trkpt><trkpt lat="44.18699565397039" lon="9.614898081375797"><ele>188.0</ele><time>2026-04-05T15:41:38.999Z</time></trkpt><trkpt lat="44.18688884155418" lon="9.614916767060606"><ele>188.0</ele><time>2026-04-05T15:41:39.999Z</time></trkpt><trkpt lat="44.186790022235094" lon="9.614959823079229"><ele>188.0</ele><time>2026-04-05T15:41:40.999Z</time></trkpt><trkpt lat="44.18670135828237" lon="9.615047116967723"><ele>188.0</ele><time>2026-04-05T15:41:41.999Z</time></trkpt><trkpt lat="44.18664172993782" lon="9.615185285507803"><ele>188.0</ele><time>2026-04-05T15:41:42.999Z</time></trkpt><trkpt lat="44.18660714655247" lon="9.615318880579308"><ele>188.0</ele><time>2026-04-05T15:41:43.999Z</time></trkpt><trkpt lat="44.18657284906987" lon="9.615423761251721"><ele>188.0</ele><time>2026-04-05T15:41:44.999Z</time></trkpt><trkpt lat="44.186530797306105" lon="9.615489970107927"><ele>188.0</ele><time>2026-04-05T15:41:45.999Z</time></trkpt><trkpt lat="44.18646455229484" lon="9.615530385281945"><ele>188.0</ele><time>2026-04-05T15:41:46.999Z</time></trkpt><trkpt lat="44.186387395526374" lon="9.615489705988237"><ele>182.60000000000002</ele><time>2026-04-05T15:41:47.999Z</time></trkpt><trkpt lat="44.18632194038756" lon="9.61543160349536"><ele>177.20000000000002</ele><time>2026-04-05T15:41:48.999Z</time></trkpt><trkpt lat="44.186231755478126" lon="9.61538915150733"><ele>171.8</ele><time>2026-04-05T15:41:49.999Z</time></trkpt><trkpt lat="44.186129450171244" lon="9.615376564955199"><ele>166.4</ele><time>2026-04-05T15:41:50.999Z</time></trkpt><trkpt lat="44.186027147219555" lon="9.615394845521768"><ele>161.0</ele><time>2026-04-05T15:41:51.999Z</time></trkpt><trkpt lat="44.185931962101705" lon="9.615468640935362"><ele>161.0</ele><time>2026-04-05T15:41:52.999Z</time></trkpt><trkpt lat="44.18586397549169" lon="9.615607805505924"><ele>161.0</ele><time>2026-04-05T15:41:53.999Z</time></trkpt><trkpt lat="44.18580536771119" lon="9.615690947751128"><ele>161.0</ele><time>2026-04-05T15:41:54.999Z</time></trkpt><trkpt lat="44.185701459190916" lon="9.615764159611574"><ele>161.0</ele><time>2026-04-05T15:41:56.999Z</time></trkpt><trkpt lat="44.18561529807658" lon="9.615735154805483"><ele>161.0</ele><time>2026-04-05T15:41:58.999Z</time></trkpt><trkpt lat="44.185574697153065" lon="9.61563685465616"><ele>160.8</ele><time>2026-04-05T15:41:59.999Z</time></trkpt><trkpt lat="44.18555971213637" lon="9.615545744143189"><ele>160.60000000000002</ele><time>2026-04-05T15:42:00.999Z</time></trkpt><trkpt lat="44.18553082646677" lon="9.615437403574324"><ele>160.4</ele><time>2026-04-05T15:42:01.999Z</time></trkpt><trkpt lat="44.185484492164385" lon="9.615326648651914"><ele>160.2</ele><time>2026-04-05T15:42:02.999Z</time></trkpt><trkpt lat="44.18541006370969" lon="9.615214419615457"><ele>160.0</ele><time>2026-04-05T15:42:03.999Z</time></trkpt><trkpt lat="44.18531907696891" lon="9.615128246722056"><ele>160.0</ele><time>2026-04-05T15:42:04.999Z</time></trkpt><trkpt lat="44.1852449387513" lon="9.615028908403927"><ele>160.0</ele><time>2026-04-05T15:42:05.999Z</time></trkpt><trkpt lat="44.18517088461147" lon="9.614947111331574"><ele>160.0</ele><time>2026-04-05T15:42:06.999Z</time></trkpt><trkpt lat="44.18508329928376" lon="9.61488050198671"><ele>160.0</ele><time>2026-04-05T15:42:07.999Z</time></trkpt><trkpt lat="44.184978135411505" lon="9.614866904110402"><ele>160.0</ele><time>2026-04-05T15:42:08.999Z</time></trkpt><trkpt lat="44.18488686981023" lon="9.614873306769574"><ele>158.2</ele><time>2026-04-05T15:42:09.999Z</time></trkpt><trkpt lat="44.18482405498122" lon="9.614840267980718"><ele>156.4</ele><time>2026-04-05T15:42:10.999Z</time></trkpt><trkpt lat="44.184758387190364" lon="9.61470661362731"><ele>154.6</ele><time>2026-04-05T15:42:11.999Z</time></trkpt><trkpt lat="44.184687684885155" lon="9.614602454016994"><ele>152.8</ele><time>2026-04-05T15:42:12.999Z</time></trkpt><trkpt lat="44.18458912183687" lon="9.614535665930793"><ele>151.0</ele><time>2026-04-05T15:42:13.999Z</time></trkpt><trkpt lat="44.18448831143389" lon="9.614472868220153"><ele>151.0</ele><time>2026-04-05T15:42:14.999Z</time></trkpt><trkpt lat="44.18438445409785" lon="9.614422070422624"><ele>151.0</ele><time>2026-04-05T15:42:15.999Z</time></trkpt><trkpt lat="44.18429305426057" lon="9.614348907708527"><ele>151.0</ele><time>2026-04-05T15:42:16.999Z</time></trkpt><trkpt lat="44.18420437800554" lon="9.614257930851226"><ele>151.0</ele><time>2026-04-05T15:42:17.999Z</time></trkpt><trkpt lat="44.18412152643339" lon="9.61414713815576"><ele>151.0</ele><time>2026-04-05T15:42:18.999Z</time></trkpt><trkpt lat="44.18402705799001" lon="9.614052015976833"><ele>146.8</ele><time>2026-04-05T15:42:19.999Z</time></trkpt><trkpt lat="44.18393694635246" lon="9.613962667951302"><ele>142.6</ele><time>2026-04-05T15:42:20.999Z</time></trkpt><trkpt lat="44.18384275676938" lon="9.613880776066265"><ele>138.4</ele><time>2026-04-05T15:42:21.998Z</time></trkpt><trkpt lat="44.183737789966635" lon="9.613814034598777"><ele>134.2</ele><time>2026-04-05T15:42:22.998Z</time></trkpt><trkpt lat="44.18363044865733" lon="9.613770173911604"><ele>130.0</ele><time>2026-04-05T15:42:23.998Z</time></trkpt><trkpt lat="44.183520184697855" lon="9.613712779781936"><ele>128.8</ele><time>2026-04-05T15:42:24.998Z</time></trkpt><trkpt lat="44.18341330653252" lon="9.613649605950608"><ele>127.6</ele><time>2026-04-05T15:42:25.998Z</time></trkpt><trkpt lat="44.18331320058458" lon="9.613581715318816"><ele>126.4</ele><time>2026-04-05T15:42:26.998Z</time></trkpt><trkpt lat="44.18322216316686" lon="9.613516002115995"><ele>125.2</ele><time>2026-04-05T15:42:27.998Z</time></trkpt><trkpt lat="44.18314056219806" lon="9.613444032052298"><ele>124.0</ele><time>2026-04-05T15:42:28.998Z</time></trkpt><trkpt lat="44.18306656043141" lon="9.613351401468373"><ele>124.0</ele><time>2026-04-05T15:42:29.998Z</time></trkpt><trkpt lat="44.182996469228065" lon="9.613241801580683"><ele>124.0</ele><time>2026-04-05T15:42:30.998Z</time></trkpt><trkpt lat="44.18293493042485" lon="9.61312145912197"><ele>124.0</ele><time>2026-04-05T15:42:31.998Z</time></trkpt><trkpt lat="44.18288058495081" lon="9.61301247159376"><ele>124.0</ele><time>2026-04-05T15:42:32.998Z</time></trkpt><trkpt lat="44.1828305358508" lon="9.61290438865025"><ele>124.0</ele><time>2026-04-05T15:42:33.998Z</time></trkpt><trkpt lat="44.18277774485453" lon="9.612802169109278"><ele>126.16666666666667</ele><time>2026-04-05T15:42:34.998Z</time></trkpt><trkpt lat="44.18273153808211" lon="9.612697503185391"><ele>128.33333333333334</ele><time>2026-04-05T15:42:35.998Z</time></trkpt><trkpt lat="44.182682532465506" lon="9.61260142451539"><ele>130.5</ele><time>2026-04-05T15:42:36.998Z</time></trkpt><trkpt lat="44.18262788236924" lon="9.612532033786435"><ele>132.66666666666666</ele><time>2026-04-05T15:42:37.998Z</time></trkpt><trkpt lat="44.182553428065106" lon="9.612476776417703"><ele>134.83333333333331</ele><time>2026-04-05T15:42:38.998Z</time></trkpt><trkpt lat="44.18248271757848" lon="9.612444859613467"><ele>137.0</ele><time>2026-04-05T15:42:39.998Z</time></trkpt><trkpt lat="44.182399915597465" lon="9.612464136070027"><ele>138.2</ele><time>2026-04-05T15:42:40.998Z</time></trkpt><trkpt lat="44.18230904138702" lon="9.612523582895829"><ele>139.39999999999998</ele><time>2026-04-05T15:42:41.998Z</time></trkpt><trkpt lat="44.1822626449582" lon="9.612634710407223"><ele>140.60000000000002</ele><time>2026-04-05T15:42:42.998Z</time></trkpt><trkpt lat="44.18224643739145" lon="9.612748346382212"><ele>141.8</ele><time>2026-04-05T15:42:44Z</time></trkpt><trkpt lat="44.182234569976174" lon="9.612890487909898"><ele>143.0</ele><time>2026-04-05T15:42:45Z</time></trkpt><trkpt lat="44.1821889486421" lon="9.613007110233523"><ele>143.0</ele><time>2026-04-05T15:42:46Z</time></trkpt><trkpt lat="44.182138696384214" lon="9.61313559626118"><ele>143.0</ele><time>2026-04-05T15:42:47Z</time></trkpt><trkpt lat="44.18207568372166" lon="9.613267392707286"><ele>143.0</ele><time>2026-04-05T15:42:48Z</time></trkpt><trkpt lat="44.18203592020586" lon="9.613424472255241"><ele>143.0</ele><time>2026-04-05T15:42:49Z</time></trkpt><trkpt lat="44.18200114124857" lon="9.61357584821248"><ele>138.8</ele><time>2026-04-05T15:42:50Z</time></trkpt><trkpt lat="44.181956395044246" lon="9.61371926974105"><ele>134.60000000000002</ele><time>2026-04-05T15:42:51Z</time></trkpt><trkpt lat="44.18190955790511" lon="9.61385067490772"><ele>130.39999999999998</ele><time>2026-04-05T15:42:52Z</time></trkpt><trkpt lat="44.181872912391086" lon="9.613956050881853"><ele>126.19999999999999</ele><time>2026-04-05T15:42:53Z</time></trkpt><trkpt lat="44.18183112492834" lon="9.614049473431601"><ele>122.0</ele><time>2026-04-05T15:42:54Z</time></trkpt><trkpt lat="44.18178547494675" lon="9.614137066980378"><ele>122.0</ele><time>2026-04-05T15:42:55Z</time></trkpt><trkpt lat="44.181697094189275" lon="9.614201313809893"><ele>121.99999999999999</ele><time>2026-04-05T15:42:56Z</time></trkpt><trkpt lat="44.1816034108535" lon="9.614272966098534"><ele>121.99999999999999</ele><time>2026-04-05T15:42:57Z</time></trkpt><trkpt lat="44.1815298237831" lon="9.61439296793846"><ele>122.0</ele><time>2026-04-05T15:42:58Z</time></trkpt><trkpt lat="44.18147234008929" lon="9.614516709098726"><ele>122.0</ele><time>2026-04-05T15:42:59Z</time></trkpt><trkpt lat="44.18142128893571" lon="9.61462748459971"><ele>119.49999999999999</ele><time>2026-04-05T15:43:00Z</time></trkpt><trkpt lat="44.18134988833018" lon="9.614732873918117"><ele>117.0</ele><time>2026-04-05T15:43:01Z</time></trkpt><trkpt lat="44.18127941789212" lon="9.614815285228406"><ele>114.5</ele><time>2026-04-05T15:43:02Z</time></trkpt><trkpt lat="44.18121279613192" lon="9.614869250773461"><ele>112.0</ele><time>2026-04-05T15:43:03Z</time></trkpt><trkpt lat="44.18114148539701" lon="9.614878974520805"><ele>109.49999999999999</ele><time>2026-04-05T15:43:04Z</time></trkpt><trkpt lat="44.18106576300839" lon="9.614860473058238"><ele>107.0</ele><time>2026-04-05T15:43:05Z</time></trkpt><trkpt lat="44.180989368959274" lon="9.614805713884454"><ele>106.99999999999999</ele><time>2026-04-05T15:43:06Z</time></trkpt><trkpt lat="44.180917966006454" lon="9.614726092801547"><ele>107.0</ele><time>2026-04-05T15:43:07Z</time></trkpt><trkpt lat="44.18083401424682" lon="9.61469646222102"><ele>107.0</ele><time>2026-04-05T15:43:08Z</time></trkpt><trkpt lat="44.18073573600498" lon="9.614718852773386"><ele>107.0</ele><time>2026-04-05T15:43:09Z</time></trkpt><trkpt lat="44.18064874972727" lon="9.61475429163156"><ele>106.99999999999999</ele><time>2026-04-05T15:43:10Z</time></trkpt><trkpt lat="44.18057818967307" lon="9.614745728457386"><ele>107.0</ele><time>2026-04-05T15:43:11Z</time></trkpt><trkpt lat="44.18051683316755" lon="9.61471207602127"><ele>105.19999999999999</ele><time>2026-04-05T15:43:12Z</time></trkpt><trkpt lat="44.18046147868546" lon="9.614631844261467"><ele>103.39999999999999</ele><time>2026-04-05T15:43:13Z</time></trkpt><trkpt lat="44.18037526927661" lon="9.614538444791629"><ele>101.6</ele><time>2026-04-05T15:43:14Z</time></trkpt><trkpt lat="44.18030004394584" lon="9.61443122619876"><ele>99.80000000000001</ele><time>2026-04-05T15:43:15Z</time></trkpt><trkpt lat="44.18021094589926" lon="9.614379033822367"><ele>98.0</ele><time>2026-04-05T15:43:16Z</time></trkpt><trkpt lat="44.18010444837828" lon="9.614368194285628"><ele>96.80000000000001</ele><time>2026-04-05T15:43:17Z</time></trkpt><trkpt lat="44.17999607410299" lon="9.61438975806454"><ele>95.6</ele><time>2026-04-05T15:43:18Z</time></trkpt><trkpt lat="44.17989897353987" lon="9.614451882042685"><ele>94.4</ele><time>2026-04-05T15:43:19Z</time></trkpt><trkpt lat="44.179822709193054" lon="9.6145167911453"><ele>93.19999999999999</ele><time>2026-04-05T15:43:20Z</time></trkpt><trkpt lat="44.179752704179506" lon="9.614531639341779"><ele>92.0</ele><time>2026-04-05T15:43:21Z</time></trkpt><trkpt lat="44.17968050561534" lon="9.61455440727094"><ele>92.0</ele><time>2026-04-05T15:43:22Z</time></trkpt><trkpt lat="44.17959624955295" lon="9.614503410426314"><ele>92.0</ele><time>2026-04-05T15:43:23Z</time></trkpt><trkpt lat="44.17951158546218" lon="9.614444686005672"><ele>92.0</ele><time>2026-04-05T15:43:24Z</time></trkpt><trkpt lat="44.179408422106675" lon="9.614400649543658"><ele>92.0</ele><time>2026-04-05T15:43:25Z</time></trkpt><trkpt lat="44.179306114964376" lon="9.61439135134787"><ele>92.0</ele><time>2026-04-05T15:43:26Z</time></trkpt><trkpt lat="44.17920844240966" lon="9.61437792434512"><ele>92.19999999999999</ele><time>2026-04-05T15:43:26.999Z</time></trkpt><trkpt lat="44.17911825496338" lon="9.61435030114893"><ele>92.4</ele><time>2026-04-05T15:43:27.999Z</time></trkpt><trkpt lat="44.17903005603196" lon="9.614305218218995"><ele>92.6</ele><time>2026-04-05T15:43:28.999Z</time></trkpt><trkpt lat="44.17895363445703" lon="9.614225435657124"><ele>92.80000000000001</ele><time>2026-04-05T15:43:29.999Z</time></trkpt><trkpt lat="44.1788573832643" lon="9.614165894119415"><ele>93.0</ele><time>2026-04-05T15:43:30.999Z</time></trkpt><trkpt lat="44.178769474381326" lon="9.614080261909415"><ele>93.0</ele><time>2026-04-05T15:43:31.999Z</time></trkpt><trkpt lat="44.17868817276695" lon="9.614000161016014"><ele>93.0</ele><time>2026-04-05T15:43:32.999Z</time></trkpt><trkpt lat="44.1786165479339" lon="9.613922033412344"><ele>93.0</ele><time>2026-04-05T15:43:33.999Z</time></trkpt><trkpt lat="44.178545793455314" lon="9.61382521863644"><ele>93.0</ele><time>2026-04-05T15:43:34.999Z</time></trkpt><trkpt lat="44.178464117026856" lon="9.613770261386959"><ele>93.0</ele><time>2026-04-05T15:43:35.999Z</time></trkpt><trkpt lat="44.178385072411146" lon="9.613734485904295"><ele>93.0</ele><time>2026-04-05T15:43:36.999Z</time></trkpt><trkpt lat="44.17828444944581" lon="9.613752213845672"><ele>93.0</ele><time>2026-04-05T15:43:37.999Z</time></trkpt><trkpt lat="44.178192592919345" lon="9.613802625587107"><ele>93.0</ele><time>2026-04-05T15:43:38.999Z</time></trkpt><trkpt lat="44.1780956029631" lon="9.613866591700573"><ele>93.0</ele><time>2026-04-05T15:43:39.999Z</time></trkpt><trkpt lat="44.17800212264115" lon="9.613893016348213"><ele>93.0</ele><time>2026-04-05T15:43:40.999Z</time></trkpt><trkpt lat="44.17791501375193" lon="9.613894275670283"><ele>92.5</ele><time>2026-04-05T15:43:41.999Z</time></trkpt><trkpt lat="44.17783546256885" lon="9.613851830642679"><ele>92.0</ele><time>2026-04-05T15:43:42.999Z</time></trkpt><trkpt lat="44.17776037259463" lon="9.613828017621719"><ele>91.5</ele><time>2026-04-05T15:43:43.999Z</time></trkpt><trkpt lat="44.17769920291331" lon="9.613743880058625"><ele>91.0</ele><time>2026-04-05T15:43:44.999Z</time></trkpt><trkpt lat="44.17762917800475" lon="9.61366191144822"><ele>90.5</ele><time>2026-04-05T15:43:45.999Z</time></trkpt><trkpt lat="44.17756487116842" lon="9.613565062939639"><ele>90.0</ele><time>2026-04-05T15:43:46.999Z</time></trkpt><trkpt lat="44.17750353875445" lon="9.61346016104479"><ele>90.0</ele><time>2026-04-05T15:43:47.999Z</time></trkpt><trkpt lat="44.17742834932137" lon="9.61339401365622"><ele>90.0</ele><time>2026-04-05T15:43:48.999Z</time></trkpt><trkpt lat="44.177344393295506" lon="9.613333772327614"><ele>90.0</ele><time>2026-04-05T15:43:49.999Z</time></trkpt><trkpt lat="44.17724896360729" lon="9.613315968325983"><ele>90.0</ele><time>2026-04-05T15:43:50.999Z</time></trkpt><trkpt lat="44.17714374497175" lon="9.61329507194972"><ele>90.0</ele><time>2026-04-05T15:43:51.999Z</time></trkpt><trkpt lat="44.177041865054186" lon="9.613237451551718"><ele>86.6</ele><time>2026-04-05T15:43:52.999Z</time></trkpt><trkpt lat="44.17692260448063" lon="9.613215078132145"><ele>83.2</ele><time>2026-04-05T15:43:53.999Z</time></trkpt><trkpt lat="44.176820778520984" lon="9.613166611790696"><ele>79.8</ele><time>2026-04-05T15:43:54.999Z</time></trkpt><trkpt lat="44.176723171122894" lon="9.613105840868917"><ele>76.4</ele><time>2026-04-05T15:43:55.999Z</time></trkpt><trkpt lat="44.17663908663482" lon="9.61302976527732"><ele>73.0</ele><time>2026-04-05T15:43:56.999Z</time></trkpt><trkpt lat="44.17657329297266" lon="9.61291869420143"><ele>73.5</ele><time>2026-04-05T15:43:57.999Z</time></trkpt><trkpt lat="44.17649451027753" lon="9.61280312774324"><ele>74.0</ele><time>2026-04-05T15:43:58.999Z</time></trkpt><trkpt lat="44.17641613184289" lon="9.612692319415356"><ele>74.5</ele><time>2026-04-05T15:43:59.999Z</time></trkpt><trkpt lat="44.17630774306428" lon="9.612616518627199"><ele>75.0</ele><time>2026-04-05T15:44:00.999Z</time></trkpt><trkpt lat="44.176178735630636" lon="9.61260044989873"><ele>75.0</ele><time>2026-04-05T15:44:01.999Z</time></trkpt><trkpt lat="44.17604204123484" lon="9.612598736218624"><ele>75.0</ele><time>2026-04-05T15:44:02.999Z</time></trkpt><trkpt lat="44.17593649064954" lon="9.612595925407902"><ele>75.0</ele><time>2026-04-05T15:44:03.999Z</time></trkpt><trkpt lat="44.17584020515596" lon="9.612569049708375"><ele>75.0</ele><time>2026-04-05T15:44:04.999Z</time></trkpt><trkpt lat="44.17573614204275" lon="9.612571532341388"><ele>75.0</ele><time>2026-04-05T15:44:05.999Z</time></trkpt><trkpt lat="44.175638698771664" lon="9.612569872360213"><ele>71.8</ele><time>2026-04-05T15:44:06.999Z</time></trkpt><trkpt lat="44.17553193998781" lon="9.612537167752649"><ele>68.6</ele><time>2026-04-05T15:44:07.999Z</time></trkpt><trkpt lat="44.17544292114381" lon="9.612507409787256"><ele>65.4</ele><time>2026-04-05T15:44:08.999Z</time></trkpt><trkpt lat="44.17534456967248" lon="9.612474694197576"><ele>62.2</ele><time>2026-04-05T15:44:09.999Z</time></trkpt><trkpt lat="44.175253268368" lon="9.612443012606276"><ele>59.0</ele><time>2026-04-05T15:44:10.999Z</time></trkpt><trkpt lat="44.17516177960875" lon="9.612411055168623"><ele>59.0</ele><time>2026-04-05T15:44:11.999Z</time></trkpt><trkpt lat="44.17506763688354" lon="9.61237348868876"><ele>59.00000000000001</ele><time>2026-04-05T15:44:12.999Z</time></trkpt><trkpt lat="44.17497465115736" lon="9.612344037759646"><ele>59.00000000000001</ele><time>2026-04-05T15:44:13.999Z</time></trkpt><trkpt lat="44.17488747181082" lon="9.612313456695619"><ele>59.0</ele><time>2026-04-05T15:44:14.999Z</time></trkpt><trkpt lat="44.1748033280169" lon="9.612277609471084"><ele>59.0</ele><time>2026-04-05T15:44:15.999Z</time></trkpt><trkpt lat="44.17471460419017" lon="9.612240513788684"><ele>56.16666666666667</ele><time>2026-04-05T15:44:16.999Z</time></trkpt><trkpt lat="44.17462126430861" lon="9.612215449194407"><ele>53.333333333333336</ele><time>2026-04-05T15:44:17.999Z</time></trkpt><trkpt lat="44.17453908169166" lon="9.612180529910233"><ele>50.5</ele><time>2026-04-05T15:44:18.999Z</time></trkpt><trkpt lat="44.17445016024402" lon="9.612171462116232"><ele>47.66666666666667</ele><time>2026-04-05T15:44:19.999Z</time></trkpt><trkpt lat="44.17436851778866" lon="9.612162171588794"><ele>44.833333333333336</ele><time>2026-04-05T15:44:20.999Z</time></trkpt><trkpt lat="44.174285042236555" lon="9.612152811502957"><ele>42.0</ele><time>2026-04-05T15:44:21.999Z</time></trkpt><trkpt lat="44.17420668077863" lon="9.612124026638323"><ele>42.0</ele><time>2026-04-05T15:44:22.999Z</time></trkpt><trkpt lat="44.17413829124237" lon="9.612108965132814"><ele>42.0</ele><time>2026-04-05T15:44:23.999Z</time></trkpt><trkpt lat="44.17406832143281" lon="9.612093448301021"><ele>42.0</ele><time>2026-04-05T15:44:24.999Z</time></trkpt><trkpt lat="44.173998380979626" lon="9.612081238463848"><ele>42.0</ele><time>2026-04-05T15:44:25.999Z</time></trkpt><trkpt lat="44.17388032772057" lon="9.612051064141294"><ele>42.0</ele><time>2026-04-05T15:44:27.999Z</time></trkpt><trkpt lat="44.17377728472783" lon="9.61197479377337"><ele>42.0</ele><time>2026-04-05T15:44:29.999Z</time></trkpt><trkpt lat="44.173675441383374" lon="9.611817660594228"><ele>40.4</ele><time>2026-04-05T15:44:31.998Z</time></trkpt><trkpt lat="44.17361909385665" lon="9.611724237673279"><ele>38.800000000000004</ele><time>2026-04-05T15:44:32.998Z</time></trkpt><trkpt lat="44.17355973953497" lon="9.6116223056979"><ele>37.2</ele><time>2026-04-05T15:44:33.998Z</time></trkpt><trkpt lat="44.17349756182618" lon="9.61151939875788"><ele>35.6</ele><time>2026-04-05T15:44:34.998Z</time></trkpt><trkpt lat="44.17343729557906" lon="9.61140576626096"><ele>34.0</ele><time>2026-04-05T15:44:35.998Z</time></trkpt><trkpt lat="44.17337106893176" lon="9.611303244181668"><ele>34.0</ele><time>2026-04-05T15:44:36.998Z</time></trkpt><trkpt lat="44.17330789147695" lon="9.611196001882425"><ele>34.0</ele><time>2026-04-05T15:44:37.998Z</time></trkpt><trkpt lat="44.1732614946397" lon="9.611086370938807"><ele>34.0</ele><time>2026-04-05T15:44:38.998Z</time></trkpt><trkpt lat="44.1732336247667" lon="9.610991486666205"><ele>34.0</ele><time>2026-04-05T15:44:39.998Z</time></trkpt><trkpt lat="44.1732226350068" lon="9.610877129380068"><ele>34.0</ele><time>2026-04-05T15:44:40.998Z</time></trkpt><trkpt lat="44.17323108023878" lon="9.610775866316015"><ele>34.0</ele><time>2026-04-05T15:44:41.998Z</time></trkpt><trkpt lat="44.17324744044266" lon="9.610682770943997"><ele>36.14285714285714</ele><time>2026-04-05T15:44:42.998Z</time></trkpt><trkpt lat="44.17325785221872" lon="9.610585539767946"><ele>38.285714285714285</ele><time>2026-04-05T15:44:43.998Z</time></trkpt><trkpt lat="44.1732746020972" lon="9.61049495763955"><ele>40.42857142857143</ele><time>2026-04-05T15:44:44.998Z</time></trkpt><trkpt lat="44.173290573793075" lon="9.610397347572174"><ele>42.57142857142857</ele><time>2026-04-05T15:44:45.998Z</time></trkpt><trkpt lat="44.17330447534714" lon="9.610305948606245"><ele>44.714285714285715</ele><time>2026-04-05T15:44:46.998Z</time></trkpt><trkpt lat="44.17331291850908" lon="9.610202109089167"><ele>46.857142857142854</ele><time>2026-04-05T15:44:47.998Z</time></trkpt><trkpt lat="44.1733126993926" lon="9.610090693823746"><ele>49.0</ele><time>2026-04-05T15:44:49Z</time></trkpt><trkpt lat="44.17332727979522" lon="9.609975395928304"><ele>50.2</ele><time>2026-04-05T15:44:50Z</time></trkpt><trkpt lat="44.17333499907193" lon="9.609856040693332"><ele>51.400000000000006</ele><time>2026-04-05T15:44:51Z</time></trkpt><trkpt lat="44.17333460002257" lon="9.609729140012094"><ele>52.6</ele><time>2026-04-05T15:44:52Z</time></trkpt><trkpt lat="44.17331302980299" lon="9.6096023620505"><ele>53.8</ele><time>2026-04-05T15:44:53Z</time></trkpt><trkpt lat="44.173279257797425" lon="9.609480015906326"><ele>55.0</ele><time>2026-04-05T15:44:54Z</time></trkpt><trkpt lat="44.17324201567622" lon="9.609353244341218"><ele>56.99999999999999</ele><time>2026-04-05T15:44:55Z</time></trkpt><trkpt lat="44.173209044525045" lon="9.609236161750099"><ele>59.0</ele><time>2026-04-05T15:44:56Z</time></trkpt><trkpt lat="44.1731731363801" lon="9.609122775600582"><ele>61.0</ele><time>2026-04-05T15:44:57Z</time></trkpt><trkpt lat="44.17313348953268" lon="9.609012691294241"><ele>63.0</ele><time>2026-04-05T15:44:58Z</time></trkpt><trkpt lat="44.173099909578674" lon="9.608896205321996"><ele>65.0</ele><time>2026-04-05T15:44:59Z</time></trkpt><trkpt lat="44.17306135492802" lon="9.60878740841496"><ele>67.0</ele><time>2026-04-05T15:45:00Z</time></trkpt><trkpt lat="44.1730289860539" lon="9.608674421197769"><ele>59.2</ele><time>2026-04-05T15:45:01Z</time></trkpt><trkpt lat="44.17299054555324" lon="9.608570456551508"><ele>51.400000000000006</ele><time>2026-04-05T15:45:02Z</time></trkpt><trkpt lat="44.172957573728084" lon="9.608456396588496"><ele>43.599999999999994</ele><time>2026-04-05T15:45:03Z</time></trkpt><trkpt lat="44.17292704437065" lon="9.608332865115804"><ele>35.8</ele><time>2026-04-05T15:45:04Z</time></trkpt><trkpt lat="44.172892455374786" lon="9.608211141213014"><ele>28.0</ele><time>2026-04-05T15:45:05Z</time></trkpt><trkpt lat="44.172875501384375" lon="9.608072057351446"><ele>28.0</ele><time>2026-04-05T15:45:06Z</time></trkpt><trkpt lat="44.17288010628028" lon="9.607931129914538"><ele>27.999999999999996</ele><time>2026-04-05T15:45:07Z</time></trkpt><trkpt lat="44.17287726353406" lon="9.607793930046345"><ele>27.999999999999996</ele><time>2026-04-05T15:45:08Z</time></trkpt><trkpt lat="44.17287141251025" lon="9.60765348741795"><ele>28.0</ele><time>2026-04-05T15:45:09Z</time></trkpt><trkpt lat="44.17286809551501" lon="9.607505792051297"><ele>28.0</ele><time>2026-04-05T15:45:10Z</time></trkpt><trkpt lat="44.17286361815071" lon="9.60736161659912"><ele>28.4</ele><time>2026-04-05T15:45:11Z</time></trkpt><trkpt lat="44.17285412622203" lon="9.607213006479888"><ele>28.799999999999997</ele><time>2026-04-05T15:45:12Z</time></trkpt><trkpt lat="44.17285202567299" lon="9.607061885878462"><ele>29.2</ele><time>2026-04-05T15:45:13Z</time></trkpt><trkpt lat="44.17285971443226" lon="9.60692107732171"><ele>29.6</ele><time>2026-04-05T15:45:14Z</time></trkpt><trkpt lat="44.17288279633562" lon="9.606787694302312"><ele>30.0</ele><time>2026-04-05T15:45:15Z</time></trkpt><trkpt lat="44.172915691535046" lon="9.606653925983167"><ele>30.0</ele><time>2026-04-05T15:45:16Z</time></trkpt><trkpt lat="44.17298004455306" lon="9.606540011977089"><ele>30.0</ele><time>2026-04-05T15:45:17Z</time></trkpt><trkpt lat="44.173015844070754" lon="9.606420175321258"><ele>30.0</ele><time>2026-04-05T15:45:18Z</time></trkpt><trkpt lat="44.17306579537832" lon="9.606306496745205"><ele>30.0</ele><time>2026-04-05T15:45:19Z</time></trkpt><trkpt lat="44.17311598333942" lon="9.606199442828347"><ele>30.0</ele><time>2026-04-05T15:45:20Z</time></trkpt><trkpt lat="44.1731643118179" lon="9.606089836426172"><ele>35.333333333333336</ele><time>2026-04-05T15:45:21Z</time></trkpt><trkpt lat="44.17320113174657" lon="9.60597271936003"><ele>40.66666666666667</ele><time>2026-04-05T15:45:22Z</time></trkpt><trkpt lat="44.17324628110459" lon="9.605860668672394"><ele>46.0</ele><time>2026-04-05T15:45:23Z</time></trkpt><trkpt lat="44.1733029122227" lon="9.605760424982494"><ele>51.333333333333336</ele><time>2026-04-05T15:45:24Z</time></trkpt><trkpt lat="44.17337673074871" lon="9.605679303722388"><ele>56.66666666666667</ele><time>2026-04-05T15:45:25Z</time></trkpt><trkpt lat="44.17345342784851" lon="9.605663115985893"><ele>62.0</ele><time>2026-04-05T15:45:26Z</time></trkpt><trkpt lat="44.17353928916765" lon="9.60561785696942"><ele>62.0</ele><time>2026-04-05T15:45:27Z</time></trkpt><trkpt lat="44.1736328150151" lon="9.605590156479588"><ele>62.0</ele><time>2026-04-05T15:45:28Z</time></trkpt><trkpt lat="44.1737304651224" lon="9.605566608202864"><ele>62.0</ele><time>2026-04-05T15:45:29Z</time></trkpt><trkpt lat="44.173825371470976" lon="9.605549567933862"><ele>62.0</ele><time>2026-04-05T15:45:30Z</time></trkpt><trkpt lat="44.17392302339198" lon="9.605547578106359"><ele>62.0</ele><time>2026-04-05T15:45:31Z</time></trkpt><trkpt lat="44.17402300374698" lon="9.605544794804379"><ele>66.2</ele><time>2026-04-05T15:45:32Z</time></trkpt><trkpt lat="44.17412316627133" lon="9.605546017777746"><ele>70.4</ele><time>2026-04-05T15:45:33Z</time></trkpt><trkpt lat="44.17423205416673" lon="9.605552457632566"><ele>74.60000000000001</ele><time>2026-04-05T15:45:34Z</time></trkpt><trkpt lat="44.17433950862201" lon="9.6055359268136"><ele>78.80000000000001</ele><time>2026-04-05T15:45:34.999Z</time></trkpt><trkpt lat="44.17445087379359" lon="9.60551358501625"><ele>83.0</ele><time>2026-04-05T15:45:35.999Z</time></trkpt><trkpt lat="44.17456160365696" lon="9.605481352678362"><ele>83.0</ele><time>2026-04-05T15:45:36.999Z</time></trkpt><trkpt lat="44.17467469502603" lon="9.605443993344748"><ele>83.0</ele><time>2026-04-05T15:45:37.999Z</time></trkpt><trkpt lat="44.17477952876716" lon="9.605392508429698"><ele>83.0</ele><time>2026-04-05T15:45:38.999Z</time></trkpt><trkpt lat="44.174874458177314" lon="9.605337501613123"><ele>83.0</ele><time>2026-04-05T15:45:39.999Z</time></trkpt><trkpt lat="44.17496893121936" lon="9.605273111958786"><ele>83.0</ele><time>2026-04-05T15:45:40.999Z</time></trkpt><trkpt lat="44.175061393474614" lon="9.605209468939451"><ele>81.60000000000001</ele><time>2026-04-05T15:45:41.999Z</time></trkpt><trkpt lat="44.17515535446769" lon="9.605148427092441"><ele>80.2</ele><time>2026-04-05T15:45:42.999Z</time></trkpt><trkpt lat="44.175249811276196" lon="9.605095871283385"><ele>78.8</ele><time>2026-04-05T15:45:43.999Z</time></trkpt><trkpt lat="44.17534492283445" lon="9.60505675843006"><ele>77.4</ele><time>2026-04-05T15:45:44.999Z</time></trkpt><trkpt lat="44.17544098278175" lon="9.605017503320369"><ele>76.0</ele><time>2026-04-05T15:45:45.999Z</time></trkpt><trkpt lat="44.17553718389964" lon="9.604982829869245"><ele>76.0</ele><time>2026-04-05T15:45:46.999Z</time></trkpt><trkpt lat="44.17563533662335" lon="9.604952726213094"><ele>76.0</ele><time>2026-04-05T15:45:47.999Z</time></trkpt><trkpt lat="44.17573353621963" lon="9.604920252528478"><ele>76.0</ele><time>2026-04-05T15:45:48.999Z</time></trkpt><trkpt lat="44.175831868419024" lon="9.604896390903978"><ele>76.0</ele><time>2026-04-05T15:45:49.999Z</time></trkpt><trkpt lat="44.1759297409912" lon="9.604867734165804"><ele>76.0</ele><time>2026-04-05T15:45:50.999Z</time></trkpt><trkpt lat="44.176029620110285" lon="9.604847828902045"><ele>78.8</ele><time>2026-04-05T15:45:51.999Z</time></trkpt><trkpt lat="44.17612928776774" lon="9.604829717264716"><ele>81.6</ele><time>2026-04-05T15:45:52.999Z</time></trkpt><trkpt lat="44.17623134798751" lon="9.604811106784174"><ele>84.4</ele><time>2026-04-05T15:45:53.999Z</time></trkpt><trkpt lat="44.17633622408144" lon="9.604797259704675"><ele>87.2</ele><time>2026-04-05T15:45:54.999Z</time></trkpt><trkpt lat="44.17644704882787" lon="9.60479301585203"><ele>90.0</ele><time>2026-04-05T15:45:55.999Z</time></trkpt><trkpt lat="44.17656221093796" lon="9.604813332492553"><ele>92.75</ele><time>2026-04-05T15:45:56.999Z</time></trkpt><trkpt lat="44.17668019743446" lon="9.604842606040913"><ele>95.5</ele><time>2026-04-05T15:45:57.999Z</time></trkpt><trkpt lat="44.17680154907855" lon="9.604868615292558"><ele>98.25</ele><time>2026-04-05T15:45:58.999Z</time></trkpt><trkpt lat="44.17692050559989" lon="9.604890877311714"><ele>101.0</ele><time>2026-04-05T15:45:59.999Z</time></trkpt><trkpt lat="44.17704259705695" lon="9.604929601979805"><ele>101.0</ele><time>2026-04-05T15:46:00.999Z</time></trkpt><trkpt lat="44.17716006082062" lon="9.604997511535851"><ele>101.0</ele><time>2026-04-05T15:46:01.999Z</time></trkpt><trkpt lat="44.17726834074769" lon="9.605094354673948"><ele>101.0</ele><time>2026-04-05T15:46:02.999Z</time></trkpt><trkpt lat="44.177375846292485" lon="9.605200272635086"><ele>101.0</ele><time>2026-04-05T15:46:03.999Z</time></trkpt><trkpt lat="44.17748284736012" lon="9.605306176215182"><ele>108.0</ele><time>2026-04-05T15:46:04.999Z</time></trkpt><trkpt lat="44.17759479107181" lon="9.605409335889128"><ele>115.0</ele><time>2026-04-05T15:46:05.999Z</time></trkpt><trkpt lat="44.17771491953133" lon="9.605494993342168"><ele>122.0</ele><time>2026-04-05T15:46:06.999Z</time></trkpt><trkpt lat="44.17783569138661" lon="9.605578023414166"><ele>129.0</ele><time>2026-04-05T15:46:07.999Z</time></trkpt><trkpt lat="44.177953133561715" lon="9.605636586490522"><ele>129.0</ele><time>2026-04-05T15:46:08.999Z</time></trkpt><trkpt lat="44.178061275685856" lon="9.605682576916593"><ele>129.0</ele><time>2026-04-05T15:46:09.999Z</time></trkpt><trkpt lat="44.1781608731538" lon="9.605711107996568"><ele>129.0</ele><time>2026-04-05T15:46:10.999Z</time></trkpt><trkpt lat="44.178265566256826" lon="9.605707838625646"><ele>129.0</ele><time>2026-04-05T15:46:11.999Z</time></trkpt><trkpt lat="44.17835789738631" lon="9.605651709255186"><ele>129.0</ele><time>2026-04-05T15:46:12.999Z</time></trkpt><trkpt lat="44.17844125549856" lon="9.605616232636184"><ele>128.57142857142856</ele><time>2026-04-05T15:46:13.999Z</time></trkpt><trkpt lat="44.17851010004585" lon="9.605567149199048"><ele>128.14285714285714</ele><time>2026-04-05T15:46:14.999Z</time></trkpt><trkpt lat="44.17856042866573" lon="9.605506050530051"><ele>127.71428571428571</ele><time>2026-04-05T15:46:15.999Z</time></trkpt><trkpt lat="44.178576576878015" lon="9.605412365981353"><ele>127.28571428571428</ele><time>2026-04-05T15:46:16.999Z</time></trkpt><trkpt lat="44.178549306465776" lon="9.605315356151403"><ele>126.85714285714286</ele><time>2026-04-05T15:46:17.999Z</time></trkpt><trkpt lat="44.17849329540046" lon="9.605242092258772"><ele>126.42857142857143</ele><time>2026-04-05T15:46:18.999Z</time></trkpt><trkpt lat="44.178414027396485" lon="9.605203226646232"><ele>126.0</ele><time>2026-04-05T15:46:19.999Z</time></trkpt><trkpt lat="44.17834437898592" lon="9.605139811067446"><ele>124.8</ele><time>2026-04-05T15:46:20.999Z</time></trkpt><trkpt lat="44.17828331111068" lon="9.605048414976356"><ele>123.6</ele><time>2026-04-05T15:46:21.999Z</time></trkpt><trkpt lat="44.17824540196806" lon="9.604936246167018"><ele>122.4</ele><time>2026-04-05T15:46:22.999Z</time></trkpt><trkpt lat="44.17823148000254" lon="9.604810260717981"><ele>121.2</ele><time>2026-04-05T15:46:23.999Z</time></trkpt><trkpt lat="44.178209683817514" lon="9.60469121925758"><ele>120.0</ele><time>2026-04-05T15:46:24.999Z</time></trkpt><trkpt lat="44.178201713060915" lon="9.604563334598401"><ele>121.0</ele><time>2026-04-05T15:46:25.999Z</time></trkpt><trkpt lat="44.1781914840802" lon="9.604434702491243"><ele>122.0</ele><time>2026-04-05T15:46:26.999Z</time></trkpt><trkpt lat="44.17817699777977" lon="9.604299130745561"><ele>123.0</ele><time>2026-04-05T15:46:27.999Z</time></trkpt><trkpt lat="44.178169048282086" lon="9.604167196118391"><ele>124.0</ele><time>2026-04-05T15:46:28.999Z</time></trkpt><trkpt lat="44.178157439794646" lon="9.604027857415687"><ele>125.0</ele><time>2026-04-05T15:46:29.999Z</time></trkpt><trkpt lat="44.178155617828004" lon="9.603886508591309"><ele>126.2</ele><time>2026-04-05T15:46:30.999Z</time></trkpt><trkpt lat="44.17816139915338" lon="9.603743309503223"><ele>127.4</ele><time>2026-04-05T15:46:31.999Z</time></trkpt><trkpt lat="44.178183478658525" lon="9.603602426597847"><ele>128.6</ele><time>2026-04-05T15:46:32.999Z</time></trkpt><trkpt lat="44.178207342003944" lon="9.603455399699902"><ele>129.8</ele><time>2026-04-05T15:46:33.999Z</time></trkpt><trkpt lat="44.178231232977026" lon="9.603307284243428"><ele>131.0</ele><time>2026-04-05T15:46:34.999Z</time></trkpt><trkpt lat="44.17826032882917" lon="9.603156025852247"><ele>131.0</ele><time>2026-04-05T15:46:35.999Z</time></trkpt><trkpt lat="44.17829972921415" lon="9.60300624117984"><ele>131.0</ele><time>2026-04-05T15:46:36.999Z</time></trkpt><trkpt lat="44.17833270633199" lon="9.602851315869906"><ele>131.0</ele><time>2026-04-05T15:46:37.999Z</time></trkpt><trkpt lat="44.178342885521694" lon="9.602693246399804"><ele>131.0</ele><time>2026-04-05T15:46:38.999Z</time></trkpt><trkpt lat="44.17835524646887" lon="9.602538321492784"><ele>131.6</ele><time>2026-04-05T15:46:39.998Z</time></trkpt><trkpt lat="44.178383435129405" lon="9.602394084582018"><ele>132.2</ele><time>2026-04-05T15:46:40.998Z</time></trkpt><trkpt lat="44.1784271024976" lon="9.602263857819656"><ele>132.8</ele><time>2026-04-05T15:46:41.998Z</time></trkpt><trkpt lat="44.1784496318445" lon="9.60212210554218"><ele>133.4</ele><time>2026-04-05T15:46:42.998Z</time></trkpt><trkpt lat="44.17843559817879" lon="9.601977301908637"><ele>134.0</ele><time>2026-04-05T15:46:43.998Z</time></trkpt><trkpt lat="44.178403157125814" lon="9.601846769368906"><ele>134.0</ele><time>2026-04-05T15:46:44.998Z</time></trkpt><trkpt lat="44.17837417506014" lon="9.601728419143393"><ele>134.0</ele><time>2026-04-05T15:46:45.998Z</time></trkpt><trkpt lat="44.17838415099191" lon="9.601599479068096"><ele>134.0</ele><time>2026-04-05T15:46:46.998Z</time></trkpt><trkpt lat="44.178424918354" lon="9.601505506880432"><ele>134.0</ele><time>2026-04-05T15:46:47.998Z</time></trkpt><trkpt lat="44.17847359144541" lon="9.601411614469285"><ele>134.0</ele><time>2026-04-05T15:46:48.998Z</time></trkpt><trkpt lat="44.178509925774165" lon="9.601307842316809"><ele>134.0</ele><time>2026-04-05T15:46:49.998Z</time></trkpt><trkpt lat="44.17851824265589" lon="9.601190867016449"><ele>134.0</ele><time>2026-04-05T15:46:50.998Z</time></trkpt><trkpt lat="44.17850069701402" lon="9.601068914805026"><ele>134.0</ele><time>2026-04-05T15:46:51.998Z</time></trkpt><trkpt lat="44.17845210225214" lon="9.600957719672524"><ele>134.0</ele><time>2026-04-05T15:46:52.998Z</time></trkpt><trkpt lat="44.178400393758075" lon="9.600855300791745"><ele>134.0</ele><time>2026-04-05T15:46:53.998Z</time></trkpt><trkpt lat="44.17839525001213" lon="9.600734825102197"><ele>134.0</ele><time>2026-04-05T15:46:55Z</time></trkpt><trkpt lat="44.17841526083663" lon="9.600600183168412"><ele>134.0</ele><time>2026-04-05T15:46:56Z</time></trkpt><trkpt lat="44.178446186752296" lon="9.600465067366832"><ele>134.0</ele><time>2026-04-05T15:46:57Z</time></trkpt><trkpt lat="44.17848282662053" lon="9.600332185871462"><ele>134.0</ele><time>2026-04-05T15:46:58Z</time></trkpt><trkpt lat="44.17852889578521" lon="9.600213364831657"><ele>134.0</ele><time>2026-04-05T15:46:59Z</time></trkpt><trkpt lat="44.17859136616046" lon="9.600121611862452"><ele>134.0</ele><time>2026-04-05T15:47:00Z</time></trkpt><trkpt lat="44.178671828551295" lon="9.600049820842688"><ele>133.8</ele><time>2026-04-05T15:47:01Z</time></trkpt><trkpt lat="44.178743474626565" lon="9.599969891249124"><ele>133.60000000000002</ele><time>2026-04-05T15:47:02Z</time></trkpt><trkpt lat="44.178820280103686" lon="9.599884206020798"><ele>133.4</ele><time>2026-04-05T15:47:03Z</time></trkpt><trkpt lat="44.178899047886034" lon="9.59979653354757"><ele>133.20000000000002</ele><time>2026-04-05T15:47:04Z</time></trkpt><trkpt lat="44.17897290779104" lon="9.599710885782875"><ele>133.0</ele><time>2026-04-05T15:47:05Z</time></trkpt><trkpt lat="44.17905218461631" lon="9.599609482614651"><ele>139.0</ele><time>2026-04-05T15:47:06Z</time></trkpt><trkpt lat="44.179096235609286" lon="9.599542950511095"><ele>145.0</ele><time>2026-04-05T15:47:08Z</time></trkpt><trkpt lat="44.17911065350212" lon="9.59938454889357"><ele>151.0</ele><time>2026-04-05T15:47:10Z</time></trkpt><trkpt lat="44.17907402998793" lon="9.599215065019939"><ele>157.0</ele><time>2026-04-05T15:47:12Z</time></trkpt><trkpt lat="44.179041575878" lon="9.599119106453182"><ele>163.0</ele><time>2026-04-05T15:47:13Z</time></trkpt><trkpt lat="44.17903846900503" lon="9.599019754723303"><ele>160.0</ele><time>2026-04-05T15:47:14Z</time></trkpt><trkpt lat="44.1789945720588" lon="9.598907429255872"><ele>157.0</ele><time>2026-04-05T15:47:16Z</time></trkpt><trkpt lat="44.178910954421895" lon="9.598797846261165"><ele>154.0</ele><time>2026-04-05T15:47:18Z</time></trkpt><trkpt lat="44.178784559930804" lon="9.598724778349911"><ele>151.0</ele><time>2026-04-05T15:47:20Z</time></trkpt><trkpt lat="44.17871624519818" lon="9.598685987623806"><ele>148.0</ele><time>2026-04-05T15:47:21Z</time></trkpt><trkpt lat="44.17864593878687" lon="9.598672177783648"><ele>148.0</ele><time>2026-04-05T15:47:22Z</time></trkpt><trkpt lat="44.17855928374077" lon="9.598683046147471"><ele>148.0</ele><time>2026-04-05T15:47:23Z</time></trkpt><trkpt lat="44.17846295272019" lon="9.598713688946859"><ele>148.0</ele><time>2026-04-05T15:47:24Z</time></trkpt><trkpt lat="44.178362054156274" lon="9.598741735763308"><ele>148.0</ele><time>2026-04-05T15:47:25Z</time></trkpt><trkpt lat="44.17825795931851" lon="9.598782071058363"><ele>148.0</ele><time>2026-04-05T15:47:26Z</time></trkpt><trkpt lat="44.1781480166402" lon="9.598815766901172"><ele>148.5</ele><time>2026-04-05T15:47:27Z</time></trkpt><trkpt lat="44.178032557955575" lon="9.598822556281753"><ele>149.0</ele><time>2026-04-05T15:47:28Z</time></trkpt><trkpt lat="44.17791434643606" lon="9.598838532981594"><ele>149.5</ele><time>2026-04-05T15:47:29Z</time></trkpt><trkpt lat="44.17779339336818" lon="9.59885553501267"><ele>150.0</ele><time>2026-04-05T15:47:30Z</time></trkpt><trkpt lat="44.177687608525645" lon="9.59887456687533"><ele>150.0</ele><time>2026-04-05T15:47:31Z</time></trkpt><trkpt lat="44.177597132547255" lon="9.598869184927233"><ele>150.0</ele><time>2026-04-05T15:47:32Z</time></trkpt><trkpt lat="44.17750477758059" lon="9.598832198269141"><ele>150.0</ele><time>2026-04-05T15:47:33Z</time></trkpt><trkpt lat="44.177419892157474" lon="9.598777128656183"><ele>150.0</ele><time>2026-04-05T15:47:34Z</time></trkpt><trkpt lat="44.17734803686617" lon="9.598703854424718"><ele>150.0</ele><time>2026-04-05T15:47:35Z</time></trkpt><trkpt lat="44.17728465871795" lon="9.598620765774822"><ele>148.99999999999997</ele><time>2026-04-05T15:47:36Z</time></trkpt><trkpt lat="44.177243488264736" lon="9.598537474841478"><ele>148.0</ele><time>2026-04-05T15:47:37Z</time></trkpt><trkpt lat="44.17722702883675" lon="9.598435531027915"><ele>147.0</ele><time>2026-04-05T15:47:38Z</time></trkpt><trkpt lat="44.177251530065284" lon="9.598344483767393"><ele>146.0</ele><time>2026-04-05T15:47:39Z</time></trkpt><trkpt lat="44.17732815180358" lon="9.598300366320553"><ele>145.0</ele><time>2026-04-05T15:47:40Z</time></trkpt><trkpt lat="44.177377067008734" lon="9.598238580930287"><ele>143.99999999999997</ele><time>2026-04-05T15:47:41Z</time></trkpt><trkpt lat="44.177440405884404" lon="9.598187207683468"><ele>143.0</ele><time>2026-04-05T15:47:42Z</time></trkpt><trkpt lat="44.17751547179677" lon="9.598132776166711"><ele>147.8</ele><time>2026-04-05T15:47:43Z</time></trkpt><trkpt lat="44.17759007866096" lon="9.598072391309108"><ele>152.60000000000002</ele><time>2026-04-05T15:47:44Z</time></trkpt><trkpt lat="44.1776776496076" lon="9.59803832384829"><ele>157.39999999999998</ele><time>2026-04-05T15:47:44.999Z</time></trkpt><trkpt lat="44.17775876021581" lon="9.5979688528596"><ele>162.2</ele><time>2026-04-05T15:47:45.999Z</time></trkpt><trkpt lat="44.17785278893376" lon="9.597923410340641"><ele>167.0</ele><time>2026-04-05T15:47:46.999Z</time></trkpt><trkpt lat="44.17795526261947" lon="9.597912223166237"><ele>167.0</ele><time>2026-04-05T15:47:47.999Z</time></trkpt><trkpt lat="44.17806305497789" lon="9.597885851530958"><ele>167.0</ele><time>2026-04-05T15:47:48.999Z</time></trkpt><trkpt lat="44.178173851503665" lon="9.597845201376112"><ele>167.0</ele><time>2026-04-05T15:47:49.999Z</time></trkpt><trkpt lat="44.178292052526444" lon="9.597846808713388"><ele>167.0</ele><time>2026-04-05T15:47:50.999Z</time></trkpt><trkpt lat="44.178402224881204" lon="9.59780353787875"><ele>169.0</ele><time>2026-04-05T15:47:51.999Z</time></trkpt><trkpt lat="44.178513596070765" lon="9.597737230398224"><ele>171.0</ele><time>2026-04-05T15:47:52.999Z</time></trkpt><trkpt lat="44.17861518977662" lon="9.597640502038281"><ele>173.0</ele><time>2026-04-05T15:47:53.999Z</time></trkpt><trkpt lat="44.17870532609438" lon="9.597509621043654"><ele>175.0</ele><time>2026-04-05T15:47:54.999Z</time></trkpt><trkpt lat="44.17877038112384" lon="9.597356176154735"><ele>175.0</ele><time>2026-04-05T15:47:55.999Z</time></trkpt><trkpt lat="44.17881677751814" lon="9.597187979350208"><ele>175.0</ele><time>2026-04-05T15:47:56.999Z</time></trkpt><trkpt lat="44.178849692983" lon="9.597030260591305"><ele>175.0</ele><time>2026-04-05T15:47:57.999Z</time></trkpt><trkpt lat="44.17889099571809" lon="9.596906068030004"><ele>175.0</ele><time>2026-04-05T15:47:58.999Z</time></trkpt><trkpt lat="44.17895597704143" lon="9.596792281655913"><ele>177.8</ele><time>2026-04-05T15:47:59.999Z</time></trkpt><trkpt lat="44.17904501956791" lon="9.596703022831928"><ele>180.6</ele><time>2026-04-05T15:48:00.999Z</time></trkpt><trkpt lat="44.17913751361465" lon="9.596619541259516"><ele>183.39999999999998</ele><time>2026-04-05T15:48:01.999Z</time></trkpt><trkpt lat="44.17922282814785" lon="9.596531564414269"><ele>186.2</ele><time>2026-04-05T15:48:02.999Z</time></trkpt><trkpt lat="44.17931019076939" lon="9.596449480971623"><ele>189.0</ele><time>2026-04-05T15:48:03.999Z</time></trkpt><trkpt lat="44.17940269878015" lon="9.596399696944932"><ele>189.0</ele><time>2026-04-05T15:48:04.999Z</time></trkpt><trkpt lat="44.17949131006084" lon="9.596373830157551"><ele>189.0</ele><time>2026-04-05T15:48:05.999Z</time></trkpt><trkpt lat="44.179559961628605" lon="9.5963250204079"><ele>189.0</ele><time>2026-04-05T15:48:06.999Z</time></trkpt><trkpt lat="44.179623328304736" lon="9.59625443800667"><ele>189.0</ele><time>2026-04-05T15:48:07.999Z</time></trkpt><trkpt lat="44.17967784515654" lon="9.596174742107092"><ele>189.0</ele><time>2026-04-05T15:48:08.999Z</time></trkpt><trkpt lat="44.179694466237514" lon="9.596044184537968"><ele>189.0</ele><time>2026-04-05T15:48:09.999Z</time></trkpt><trkpt lat="44.179697095794936" lon="9.595927008329689"><ele>188.0</ele><time>2026-04-05T15:48:10.999Z</time></trkpt><trkpt lat="44.179586113610746" lon="9.595813986460442"><ele>187.0</ele><time>2026-04-05T15:48:11.999Z</time></trkpt><trkpt lat="44.179555653889246" lon="9.59566879063713"><ele>186.0</ele><time>2026-04-05T15:48:12.999Z</time></trkpt><trkpt lat="44.17951460707422" lon="9.59550955255347"><ele>185.0</ele><time>2026-04-05T15:48:13.999Z</time></trkpt><trkpt lat="44.1794655451426" lon="9.595335064225047"><ele>185.0</ele><time>2026-04-05T15:48:14.999Z</time></trkpt><trkpt lat="44.17941867294833" lon="9.595153709001153"><ele>185.0</ele><time>2026-04-05T15:48:15.999Z</time></trkpt><trkpt lat="44.17937299438252" lon="9.594984154612996"><ele>185.0</ele><time>2026-04-05T15:48:16.999Z</time></trkpt><trkpt lat="44.17933240368424" lon="9.594812102677569"><ele>185.0</ele><time>2026-04-05T15:48:17.999Z</time></trkpt><trkpt lat="44.17929877907274" lon="9.594667882824996"><ele>185.0</ele><time>2026-04-05T15:48:18.999Z</time></trkpt><trkpt lat="44.179266937531665" lon="9.59453701128537"><ele>185.0</ele><time>2026-04-05T15:48:19.999Z</time></trkpt><trkpt lat="44.1792394483864" lon="9.594424622217009"><ele>185.0</ele><time>2026-04-05T15:48:20.999Z</time></trkpt><trkpt lat="44.1792047014149" lon="9.594308010890483"><ele>185.0</ele><time>2026-04-05T15:48:21.999Z</time></trkpt><trkpt lat="44.17917108432419" lon="9.594189394560424"><ele>185.0</ele><time>2026-04-05T15:48:22.999Z</time></trkpt><trkpt lat="44.17913147298935" lon="9.594050370290317"><ele>185.5</ele><time>2026-04-05T15:48:23.999Z</time></trkpt><trkpt lat="44.179087975418845" lon="9.593898151617692"><ele>186.0</ele><time>2026-04-05T15:48:24.999Z</time></trkpt><trkpt lat="44.179047814902724" lon="9.59373933271615"><ele>186.5</ele><time>2026-04-05T15:48:25.999Z</time></trkpt><trkpt lat="44.17903457956285" lon="9.59356745415455"><ele>187.0</ele><time>2026-04-05T15:48:26.999Z</time></trkpt><trkpt lat="44.179015969813825" lon="9.593387581191102"><ele>185.0</ele><time>2026-04-05T15:48:27.999Z</time></trkpt><trkpt lat="44.17900143775157" lon="9.593216924996605"><ele>183.0</ele><time>2026-04-05T15:48:28.999Z</time></trkpt><trkpt lat="44.1789856548494" lon="9.59305439056939"><ele>181.0</ele><time>2026-04-05T15:48:29.999Z</time></trkpt><trkpt lat="44.178975035678675" lon="9.592898818575355"><ele>179.0</ele><time>2026-04-05T15:48:30.999Z</time></trkpt><trkpt lat="44.17896162530818" lon="9.592774258036387"><ele>177.0</ele><time>2026-04-05T15:48:31.999Z</time></trkpt><trkpt lat="44.178962793889205" lon="9.592659637972464"><ele>177.0</ele><time>2026-04-05T15:48:32.999Z</time></trkpt><trkpt lat="44.17895661340147" lon="9.59255317874373"><ele>177.0</ele><time>2026-04-05T15:48:33.999Z</time></trkpt><trkpt lat="44.178935175045574" lon="9.592461324754625"><ele>177.0</ele><time>2026-04-05T15:48:34.999Z</time></trkpt><trkpt lat="44.17892337305519" lon="9.592362912306603"><ele>177.0</ele><time>2026-04-05T15:48:35.999Z</time></trkpt><trkpt lat="44.1789285340103" lon="9.59222229663425"><ele>177.0</ele><time>2026-04-05T15:48:36.999Z</time></trkpt><trkpt lat="44.17892376117524" lon="9.59209263073933"><ele>177.0</ele><time>2026-04-05T15:48:37.999Z</time></trkpt><trkpt lat="44.17889988460037" lon="9.591955611977703"><ele>178.0</ele><time>2026-04-05T15:48:38.999Z</time></trkpt><trkpt lat="44.178858822744466" lon="9.591815758858854"><ele>179.0</ele><time>2026-04-05T15:48:39.999Z</time></trkpt><trkpt lat="44.178810015221266" lon="9.591682367105506"><ele>180.0</ele><time>2026-04-05T15:48:40.999Z</time></trkpt><trkpt lat="44.17876435582912" lon="9.591544858915547"><ele>181.0</ele><time>2026-04-05T15:48:41.999Z</time></trkpt><trkpt lat="44.178753970652735" lon="9.591416240385715"><ele>182.0</ele><time>2026-04-05T15:48:42.999Z</time></trkpt><trkpt lat="44.17878147867991" lon="9.591268393633001"><ele>181.39999999999998</ele><time>2026-04-05T15:48:43.999Z</time></trkpt><trkpt lat="44.17880249488256" lon="9.59113076519489"><ele>180.79999999999998</ele><time>2026-04-05T15:48:44.999Z</time></trkpt><trkpt lat="44.178814777052075" lon="9.590994269125298"><ele>180.2</ele><time>2026-04-05T15:48:45.999Z</time></trkpt><trkpt lat="44.17882600211784" lon="9.590845242220304"><ele>179.6</ele><time>2026-04-05T15:48:46.999Z</time></trkpt><trkpt lat="44.17882743004585" lon="9.590699210195487"><ele>179.0</ele><time>2026-04-05T15:48:47.999Z</time></trkpt><trkpt lat="44.17881190345251" lon="9.590554124499755"><ele>179.0</ele><time>2026-04-05T15:48:48.998Z</time></trkpt><trkpt lat="44.1787861397929" lon="9.590407129657597"><ele>179.0</ele><time>2026-04-05T15:48:49.998Z</time></trkpt><trkpt lat="44.178761184411904" lon="9.590262384899987"><ele>179.0</ele><time>2026-04-05T15:48:50.998Z</time></trkpt><trkpt lat="44.178735087867" lon="9.590112389608768"><ele>179.0</ele><time>2026-04-05T15:48:51.998Z</time></trkpt><trkpt lat="44.17870610678711" lon="9.589958925610645"><ele>179.0</ele><time>2026-04-05T15:48:52.998Z</time></trkpt><trkpt lat="44.17865263018723" lon="9.58983664042793"><ele>177.0</ele><time>2026-04-05T15:48:53.998Z</time></trkpt><trkpt lat="44.17861213629087" lon="9.589713825252185"><ele>175.0</ele><time>2026-04-05T15:48:54.998Z</time></trkpt><trkpt lat="44.17857171542123" lon="9.589586805013797"><ele>173.0</ele><time>2026-04-05T15:48:55.998Z</time></trkpt><trkpt lat="44.17852073304748" lon="9.58945328046118"><ele>171.0</ele><time>2026-04-05T15:48:56.998Z</time></trkpt><trkpt lat="44.17846507167656" lon="9.589318036230916"><ele>169.0</ele><time>2026-04-05T15:48:57.998Z</time></trkpt><trkpt lat="44.17841925013377" lon="9.58917345476258"><ele>166.75</ele><time>2026-04-05T15:48:58.998Z</time></trkpt><trkpt lat="44.17836806158561" lon="9.589029292960348"><ele>164.5</ele><time>2026-04-05T15:48:59.998Z</time></trkpt><trkpt lat="44.17831619072482" lon="9.588889419010068"><ele>162.25</ele><time>2026-04-05T15:49:01Z</time></trkpt><trkpt lat="44.17826564190396" lon="9.588746969218104"><ele>160.0</ele><time>2026-04-05T15:49:02Z</time></trkpt><trkpt lat="44.178214144432154" lon="9.588603334564937"><ele>157.0</ele><time>2026-04-05T15:49:03Z</time></trkpt><trkpt lat="44.178165715817144" lon="9.588461537057093"><ele>154.0</ele><time>2026-04-05T15:49:04Z</time></trkpt><trkpt lat="44.17811451692156" lon="9.588322822660947"><ele>151.0</ele><time>2026-04-05T15:49:05Z</time></trkpt><trkpt lat="44.178058371315046" lon="9.588192814737026"><ele>148.0</ele><time>2026-04-05T15:49:06Z</time></trkpt><trkpt lat="44.17800320860292" lon="9.588080599036296"><ele>145.0</ele><time>2026-04-05T15:49:07Z</time></trkpt><trkpt lat="44.17795015665126" lon="9.587987844074991"><ele>145.0</ele><time>2026-04-05T15:49:08Z</time></trkpt><trkpt lat="44.177888926110825" lon="9.587857111787441"><ele>145.0</ele><time>2026-04-05T15:49:10Z</time></trkpt><trkpt lat="44.17790416407394" lon="9.587759067748944"><ele>145.0</ele><time>2026-04-05T15:49:12Z</time></trkpt><trkpt lat="44.1780134843084" lon="9.587757095986222"><ele>145.0</ele><time>2026-04-05T15:49:14Z</time></trkpt><trkpt lat="44.178054297798994" lon="9.587828379996763"><ele>145.0</ele><time>2026-04-05T15:49:15Z</time></trkpt><trkpt lat="44.17809434188677" lon="9.587917005566808"><ele>145.0</ele><time>2026-04-05T15:49:16Z</time></trkpt><trkpt lat="44.178145603642946" lon="9.588002243174195"><ele>144.8</ele><time>2026-04-05T15:49:17Z</time></trkpt><trkpt lat="44.17820456159326" lon="9.588081835660589"><ele>144.6</ele><time>2026-04-05T15:49:18Z</time></trkpt><trkpt lat="44.178259867110185" lon="9.588169351576683"><ele>144.4</ele><time>2026-04-05T15:49:19Z</time></trkpt><trkpt lat="44.17831632150983" lon="9.588265817578597"><ele>144.2</ele><time>2026-04-05T15:49:20Z</time></trkpt><trkpt lat="44.17837662598198" lon="9.588370738534232"><ele>144.0</ele><time>2026-04-05T15:49:21Z</time></trkpt><trkpt lat="44.17844257317743" lon="9.588481186319765"><ele>144.0</ele><time>2026-04-05T15:49:22Z</time></trkpt><trkpt lat="44.178521404200026" lon="9.588587163061572"><ele>144.0</ele><time>2026-04-05T15:49:23Z</time></trkpt><trkpt lat="44.17859907829554" lon="9.588696813881725"><ele>144.0</ele><time>2026-04-05T15:49:24Z</time></trkpt><trkpt lat="44.17867386880381" lon="9.588820658463687"><ele>144.0</ele><time>2026-04-05T15:49:25Z</time></trkpt><trkpt lat="44.17874896041417" lon="9.588945320494972"><ele>144.8</ele><time>2026-04-05T15:49:26Z</time></trkpt><trkpt lat="44.1788083473733" lon="9.589072359667488"><ele>145.60000000000002</ele><time>2026-04-05T15:49:27Z</time></trkpt><trkpt lat="44.17887878023354" lon="9.589200514830269"><ele>146.4</ele><time>2026-04-05T15:49:28Z</time></trkpt><trkpt lat="44.17894883470986" lon="9.589322663143577"><ele>147.20000000000002</ele><time>2026-04-05T15:49:29Z</time></trkpt><trkpt lat="44.17901337027105" lon="9.589449814767116"><ele>148.0</ele><time>2026-04-05T15:49:30Z</time></trkpt><trkpt lat="44.17908237571036" lon="9.58957896169971"><ele>148.0</ele><time>2026-04-05T15:49:31Z</time></trkpt><trkpt lat="44.179136610766356" lon="9.589709077996583"><ele>148.0</ele><time>2026-04-05T15:49:32Z</time></trkpt><trkpt lat="44.17918375898509" lon="9.589816905269457"><ele>148.0</ele><time>2026-04-05T15:49:33Z</time></trkpt><trkpt lat="44.17921636587985" lon="9.589919754287957"><ele>148.0</ele><time>2026-04-05T15:49:34Z</time></trkpt><trkpt lat="44.17924690116124" lon="9.59001668903698"><ele>148.0</ele><time>2026-04-05T15:49:35Z</time></trkpt><trkpt lat="44.17926327896876" lon="9.590111511980536"><ele>148.0</ele><time>2026-04-05T15:49:36Z</time></trkpt><trkpt lat="44.17930641420668" lon="9.590181987165623"><ele>148.0</ele><time>2026-04-05T15:49:37Z</time></trkpt><trkpt lat="44.17939192754543" lon="9.590201548539028"><ele>148.0</ele><time>2026-04-05T15:49:38Z</time></trkpt><trkpt lat="44.179453134626804" lon="9.590111334923881"><ele>148.0</ele><time>2026-04-05T15:49:39Z</time></trkpt><trkpt lat="44.17948041293179" lon="9.59001130263061"><ele>148.0</ele><time>2026-04-05T15:49:40Z</time></trkpt><trkpt lat="44.17950406964405" lon="9.58991264695765"><ele>148.0</ele><time>2026-04-05T15:49:41Z</time></trkpt><trkpt lat="44.179541914844954" lon="9.589796162888858"><ele>148.0</ele><time>2026-04-05T15:49:42Z</time></trkpt><trkpt lat="44.17957851210302" lon="9.589673328658947"><ele>148.0</ele><time>2026-04-05T15:49:43Z</time></trkpt><trkpt lat="44.179655893370395" lon="9.589606964327967"><ele>148.0</ele><time>2026-04-05T15:49:44Z</time></trkpt><trkpt lat="44.179723826630564" lon="9.589511835812951"><ele>148.0</ele><time>2026-04-05T15:49:45Z</time></trkpt><trkpt lat="44.17980348346063" lon="9.589433862185345"><ele>148.0</ele><time>2026-04-05T15:49:46Z</time></trkpt><trkpt lat="44.179880257709925" lon="9.589364193043401"><ele>148.0</ele><time>2026-04-05T15:49:47Z</time></trkpt><trkpt lat="44.17993744824938" lon="9.58930020843199"><ele>148.0</ele><time>2026-04-05T15:49:48Z</time></trkpt><trkpt lat="44.180068462472676" lon="9.589299491752778"><ele>143.16666666666669</ele><time>2026-04-05T15:49:49.999Z</time></trkpt><trkpt lat="44.18014018893556" lon="9.58930437612612"><ele>138.33333333333334</ele><time>2026-04-05T15:49:50.999Z</time></trkpt><trkpt lat="44.18022107442749" lon="9.589313397507603"><ele>133.5</ele><time>2026-04-05T15:49:51.999Z</time></trkpt><trkpt lat="44.18030806250669" lon="9.589301799296686"><ele>128.66666666666666</ele><time>2026-04-05T15:49:52.999Z</time></trkpt><trkpt lat="44.18039153953689" lon="9.58932463028365"><ele>123.83333333333333</ele><time>2026-04-05T15:49:53.999Z</time></trkpt><trkpt lat="44.18046777556973" lon="9.589323643351658"><ele>119.0</ele><time>2026-04-05T15:49:54.999Z</time></trkpt><trkpt lat="44.18053666778495" lon="9.589333489016173"><ele>119.0</ele><time>2026-04-05T15:49:55.999Z</time></trkpt><trkpt lat="44.18064235289838" lon="9.589315536844966"><ele>119.0</ele><time>2026-04-05T15:49:57.999Z</time></trkpt><trkpt lat="44.180655489721836" lon="9.589139244931197"><ele>119.0</ele><time>2026-04-05T15:50:00.999Z</time></trkpt><trkpt lat="44.180553716879075" lon="9.589081102763815"><ele>119.0</ele><time>2026-04-05T15:50:02.999Z</time></trkpt><trkpt lat="44.1804907429951" lon="9.589071144251196"><ele>119.0</ele><time>2026-04-05T15:50:03.999Z</time></trkpt><trkpt lat="44.18041945317041" lon="9.589035145336794"><ele>119.0</ele><time>2026-04-05T15:50:04.999Z</time></trkpt><trkpt lat="44.1803253395183" lon="9.5889953690173"><ele>119.0</ele><time>2026-04-05T15:50:05.999Z</time></trkpt><trkpt lat="44.18022526503477" lon="9.588934065945232"><ele>119.0</ele><time>2026-04-05T15:50:06.999Z</time></trkpt><trkpt lat="44.180129036561496" lon="9.588855583213604"><ele>119.0</ele><time>2026-04-05T15:50:07.999Z</time></trkpt><trkpt lat="44.180052653424454" lon="9.588773616253691"><ele>119.0</ele><time>2026-04-05T15:50:08.999Z</time></trkpt><trkpt lat="44.1799783847039" lon="9.588719465569486"><ele>118.99999999999999</ele><time>2026-04-05T15:50:09.999Z</time></trkpt><trkpt lat="44.179895168369455" lon="9.588695818467425"><ele>119.0</ele><time>2026-04-05T15:50:10.999Z</time></trkpt><trkpt lat="44.179803137647" lon="9.588708820316018"><ele>119.0</ele><time>2026-04-05T15:50:11.999Z</time></trkpt><trkpt lat="44.17971546552572" lon="9.588771821514772"><ele>119.0</ele><time>2026-04-05T15:50:12.999Z</time></trkpt><trkpt lat="44.179647564858485" lon="9.58884727595539"><ele>118.99999999999999</ele><time>2026-04-05T15:50:13.999Z</time></trkpt><trkpt lat="44.17958400271259" lon="9.588902719344713"><ele>119.0</ele><time>2026-04-05T15:50:14.999Z</time></trkpt><trkpt lat="44.17947359101874" lon="9.588967675863216"><ele>117.80000000000001</ele><time>2026-04-05T15:50:16.999Z</time></trkpt><trkpt lat="44.17941168213389" lon="9.588917176200635"><ele>116.60000000000001</ele><time>2026-04-05T15:50:17.999Z</time></trkpt><trkpt lat="44.17938971347196" lon="9.588824946721706"><ele>115.4</ele><time>2026-04-05T15:50:18.999Z</time></trkpt><trkpt lat="44.17937502904734" lon="9.58870112703005"><ele>114.2</ele><time>2026-04-05T15:50:19.999Z</time></trkpt><trkpt lat="44.17933700437383" lon="9.588573853372116"><ele>113.0</ele><time>2026-04-05T15:50:20.999Z</time></trkpt><trkpt lat="44.17929358672168" lon="9.58841066852034"><ele>113.0</ele><time>2026-04-05T15:50:21.999Z</time></trkpt><trkpt lat="44.179276177152126" lon="9.588251342496427"><ele>113.0</ele><time>2026-04-05T15:50:22.999Z</time></trkpt><trkpt lat="44.179248863743645" lon="9.588102261017847"><ele>113.0</ele><time>2026-04-05T15:50:23.999Z</time></trkpt><trkpt lat="44.179200585800665" lon="9.587954667884068"><ele>113.0</ele><time>2026-04-05T15:50:24.999Z</time></trkpt><trkpt lat="44.17912314502327" lon="9.587795910582384"><ele>108.80000000000001</ele><time>2026-04-05T15:50:25.999Z</time></trkpt><trkpt lat="44.17905085185849" lon="9.587642299531284"><ele>104.60000000000001</ele><time>2026-04-05T15:50:26.999Z</time></trkpt><trkpt lat="44.178989536179714" lon="9.587526515049882"><ele>100.4</ele><time>2026-04-05T15:50:27.999Z</time></trkpt><trkpt lat="44.17894536627317" lon="9.587423037313462"><ele>96.19999999999999</ele><time>2026-04-05T15:50:28.999Z</time></trkpt><trkpt lat="44.178896473886574" lon="9.587281878950574"><ele>92.0</ele><time>2026-04-05T15:50:29.999Z</time></trkpt><trkpt lat="44.1789006702371" lon="9.587141559098812"><ele>99.75</ele><time>2026-04-05T15:50:30.999Z</time></trkpt><trkpt lat="44.17890261687262" lon="9.58699268520171"><ele>107.5</ele><time>2026-04-05T15:50:31.999Z</time></trkpt><trkpt lat="44.178891378645716" lon="9.586834311338114"><ele>115.25</ele><time>2026-04-05T15:50:32.999Z</time></trkpt><trkpt lat="44.178874766510404" lon="9.586654917514132"><ele>123.0</ele><time>2026-04-05T15:50:33.999Z</time></trkpt><trkpt lat="44.178833377834955" lon="9.586446216731487"><ele>123.0</ele><time>2026-04-05T15:50:34.999Z</time></trkpt><trkpt lat="44.178786043619766" lon="9.58626630686073"><ele>123.0</ele><time>2026-04-05T15:50:35.999Z</time></trkpt><trkpt lat="44.178745042030094" lon="9.586098002672372"><ele>123.0</ele><time>2026-04-05T15:50:36.999Z</time></trkpt><trkpt lat="44.178693767444244" lon="9.585930368338909"><ele>123.0</ele><time>2026-04-05T15:50:37.999Z</time></trkpt><trkpt lat="44.17863201473878" lon="9.585784570152253"><ele>119.16666666666667</ele><time>2026-04-05T15:50:38.999Z</time></trkpt><trkpt lat="44.17857089951608" lon="9.585657440841207"><ele>115.33333333333334</ele><time>2026-04-05T15:50:39.999Z</time></trkpt><trkpt lat="44.178506401694825" lon="9.585565377759727"><ele>111.5</ele><time>2026-04-05T15:50:40.999Z</time></trkpt><trkpt lat="44.17844979599648" lon="9.585496270363889"><ele>107.66666666666667</ele><time>2026-04-05T15:50:41.999Z</time></trkpt><trkpt lat="44.17841072524526" lon="9.585413380351298"><ele>103.83333333333334</ele><time>2026-04-05T15:50:43.999Z</time></trkpt><trkpt lat="44.17848411686796" lon="9.58537420203492"><ele>100.0</ele><time>2026-04-05T15:50:45.999Z</time></trkpt><trkpt lat="44.178530146500094" lon="9.585441182577362"><ele>100.0</ele><time>2026-04-05T15:50:46.999Z</time></trkpt><trkpt lat="44.17858774280636" lon="9.585585819087246"><ele>100.0</ele><time>2026-04-05T15:50:48.999Z</time></trkpt><trkpt lat="44.178647828244095" lon="9.585684107343797"><ele>100.0</ele><time>2026-04-05T15:50:49.999Z</time></trkpt><trkpt lat="44.17870407892372" lon="9.58578502337506"><ele>100.0</ele><time>2026-04-05T15:50:50.999Z</time></trkpt><trkpt lat="44.17875774452851" lon="9.585887382516347"><ele>100.0</ele><time>2026-04-05T15:50:51.999Z</time></trkpt><trkpt lat="44.17881658887766" lon="9.585999965044376"><ele>100.0</ele><time>2026-04-05T15:50:52.999Z</time></trkpt><trkpt lat="44.17887334790014" lon="9.586114547277464"><ele>100.0</ele><time>2026-04-05T15:50:53.998Z</time></trkpt><trkpt lat="44.17892224787363" lon="9.586228097962435"><ele>100.0</ele><time>2026-04-05T15:50:54.998Z</time></trkpt><trkpt lat="44.17896638512812" lon="9.586348766550874"><ele>100.0</ele><time>2026-04-05T15:50:55.998Z</time></trkpt><trkpt lat="44.17901242747121" lon="9.586473692322903"><ele>100.0</ele><time>2026-04-05T15:50:56.998Z</time></trkpt><trkpt lat="44.17905586586837" lon="9.58659393942047"><ele>98.66666666666667</ele><time>2026-04-05T15:50:57.998Z</time></trkpt><trkpt lat="44.17909948359887" lon="9.58671468303563"><ele>97.33333333333334</ele><time>2026-04-05T15:50:58.998Z</time></trkpt><trkpt lat="44.17913986644914" lon="9.58682762267559"><ele>96.0</ele><time>2026-04-05T15:50:59.998Z</time></trkpt><trkpt lat="44.17918119589266" lon="9.586942568047798"><ele>94.66666666666667</ele><time>2026-04-05T15:51:00.998Z</time></trkpt><trkpt lat="44.179216840242084" lon="9.587038178976755"><ele>93.33333333333334</ele><time>2026-04-05T15:51:01.998Z</time></trkpt><trkpt lat="44.17926604670198" lon="9.587123805497624"><ele>92.0</ele><time>2026-04-05T15:51:02.998Z</time></trkpt><trkpt lat="44.17931568836272" lon="9.587196190324562"><ele>92.0</ele><time>2026-04-05T15:51:03.998Z</time></trkpt><trkpt lat="44.17938453077485" lon="9.587211062477342"><ele>92.0</ele><time>2026-04-05T15:51:04.998Z</time></trkpt><trkpt lat="44.1794585899527" lon="9.587208445439146"><ele>92.0</ele><time>2026-04-05T15:51:05.998Z</time></trkpt><trkpt lat="44.1795236265631" lon="9.587273724944543"><ele>92.0</ele><time>2026-04-05T15:51:07Z</time></trkpt><trkpt lat="44.17958554192167" lon="9.587314292165933"><ele>92.0</ele><time>2026-04-05T15:51:08Z</time></trkpt><trkpt lat="44.179641996033624" lon="9.587392831241447"><ele>92.0</ele><time>2026-04-05T15:51:09Z</time></trkpt><trkpt lat="44.179696483966325" lon="9.587451063488047"><ele>92.0</ele><time>2026-04-05T15:51:10Z</time></trkpt><trkpt lat="44.179734337421635" lon="9.587530514484772"><ele>92.0</ele><time>2026-04-05T15:51:11Z</time></trkpt><trkpt lat="44.17982644108172" lon="9.587600547893965"><ele>92.0</ele><time>2026-04-05T15:51:13Z</time></trkpt><trkpt lat="44.179910754762396" lon="9.587594966152988"><ele>92.0</ele><time>2026-04-05T15:51:15Z</time></trkpt><trkpt lat="44.179994053812266" lon="9.587573939015712"><ele>92.0</ele><time>2026-04-05T15:51:17Z</time></trkpt><trkpt lat="44.18011927182805" lon="9.587528071195326"><ele>92.0</ele><time>2026-04-05T15:51:19Z</time></trkpt><trkpt lat="44.180183784251184" lon="9.587499696222372"><ele>88.83333333333334</ele><time>2026-04-05T15:51:20Z</time></trkpt><trkpt lat="44.18024626366153" lon="9.587428291624136"><ele>85.66666666666667</ele><time>2026-04-05T15:51:21Z</time></trkpt><trkpt lat="44.18031582680982" lon="9.587382908069547"><ele>82.5</ele><time>2026-04-05T15:51:22Z</time></trkpt><trkpt lat="44.18037773380893" lon="9.587314139810745"><ele>79.33333333333333</ele><time>2026-04-05T15:51:23Z</time></trkpt><trkpt lat="44.18044260555426" lon="9.587235046439254"><ele>76.16666666666666</ele><time>2026-04-05T15:51:24Z</time></trkpt><trkpt lat="44.18050876238515" lon="9.58715033094723"><ele>73.0</ele><time>2026-04-05T15:51:25Z</time></trkpt><trkpt lat="44.1805838674334" lon="9.587080513818648"><ele>70.83333333333333</ele><time>2026-04-05T15:51:26Z</time></trkpt><trkpt lat="44.1806319796376" lon="9.586976222903425"><ele>68.66666666666666</ele><time>2026-04-05T15:51:27Z</time></trkpt><trkpt lat="44.180688762223916" lon="9.586905846338531"><ele>66.5</ele><time>2026-04-05T15:51:28Z</time></trkpt><trkpt lat="44.18073189549347" lon="9.58683175441322"><ele>64.33333333333333</ele><time>2026-04-05T15:51:30Z</time></trkpt><trkpt lat="44.18076245262627" lon="9.586754381108676"><ele>62.166666666666664</ele><time>2026-04-05T15:51:35Z</time></trkpt><trkpt lat="44.180799908890464" lon="9.586677732319949"><ele>60.0</ele><time>2026-04-05T15:51:40Z</time></trkpt><trkpt lat="44.180860115164236" lon="9.586583785529276"><ele>60.0</ele><time>2026-04-05T15:51:42Z</time></trkpt><trkpt lat="44.18096252674486" lon="9.586497696886875"><ele>60.0</ele><time>2026-04-05T15:51:44Z</time></trkpt><trkpt lat="44.18105353905041" lon="9.586442700592103"><ele>60.0</ele><time>2026-04-05T15:51:46Z</time></trkpt><trkpt lat="44.18114120089363" lon="9.586483338331393"><ele>60.0</ele><time>2026-04-05T15:51:48Z</time></trkpt><trkpt lat="44.18123497474768" lon="9.58657829370153"><ele>60.0</ele><time>2026-04-05T15:51:49.999Z</time></trkpt><trkpt lat="44.181321899293565" lon="9.586688547266633"><ele>60.0</ele><time>2026-04-05T15:51:51.999Z</time></trkpt><trkpt lat="44.1814138531499" lon="9.586760250667187"><ele>60.0</ele><time>2026-04-05T15:51:53.999Z</time></trkpt><trkpt lat="44.18154125289304" lon="9.586709602033691"><ele>60.0</ele><time>2026-04-05T15:51:55.999Z</time></trkpt><trkpt lat="44.18158967228849" lon="9.586623708761804"><ele>60.0</ele><time>2026-04-05T15:51:56.999Z</time></trkpt><trkpt lat="44.181634927020774" lon="9.58654541132058"><ele>60.0</ele><time>2026-04-05T15:51:57.999Z</time></trkpt><trkpt lat="44.18163577954807" lon="9.586420732755876"><ele>60.666666666666664</ele><time>2026-04-05T15:51:58.999Z</time></trkpt><trkpt lat="44.18167371269871" lon="9.586323977690226"><ele>61.33333333333333</ele><time>2026-04-05T15:51:59.999Z</time></trkpt><trkpt lat="44.18171617718217" lon="9.586220063583276"><ele>62.0</ele><time>2026-04-05T15:52:00.999Z</time></trkpt><trkpt lat="44.18175776426293" lon="9.586112019916351"><ele>62.666666666666664</ele><time>2026-04-05T15:52:01.999Z</time></trkpt><trkpt lat="44.1817948437491" lon="9.58600429451143"><ele>63.33333333333333</ele><time>2026-04-05T15:52:02.999Z</time></trkpt><trkpt lat="44.18183257547769" lon="9.585896945823828"><ele>64.0</ele><time>2026-04-05T15:52:03.999Z</time></trkpt><trkpt lat="44.18184842113651" lon="9.585788795775866"><ele>61.33333333333333</ele><time>2026-04-05T15:52:04.999Z</time></trkpt><trkpt lat="44.18186299596647" lon="9.585689319224178"><ele>58.666666666666664</ele><time>2026-04-05T15:52:05.999Z</time></trkpt><trkpt lat="44.18186244475571" lon="9.585592825998958"><ele>56.0</ele><time>2026-04-05T15:52:06.999Z</time></trkpt><trkpt lat="44.181903630923806" lon="9.58545914845957"><ele>53.33333333333333</ele><time>2026-04-05T15:52:08.999Z</time></trkpt><trkpt lat="44.181955766262426" lon="9.585364997526337"><ele>50.666666666666664</ele><time>2026-04-05T15:52:10.999Z</time></trkpt><trkpt lat="44.18206386428122" lon="9.585361455630613"><ele>48.0</ele><time>2026-04-05T15:52:12.999Z</time></trkpt><trkpt lat="44.18216571479162" lon="9.585350673255027"><ele>48.666666666666664</ele><time>2026-04-05T15:52:14.999Z</time></trkpt><trkpt lat="44.18222688218093" lon="9.585329508433299"><ele>49.33333333333333</ele><time>2026-04-05T15:52:15.999Z</time></trkpt><trkpt lat="44.18233975736935" lon="9.585272966208153"><ele>50.0</ele><time>2026-04-05T15:52:17.999Z</time></trkpt><trkpt lat="44.18242031902916" lon="9.585325919881639"><ele>50.666666666666664</ele><time>2026-04-05T15:52:19.999Z</time></trkpt><trkpt lat="44.18248476555408" lon="9.585397676634491"><ele>51.33333333333333</ele><time>2026-04-05T15:52:21.999Z</time></trkpt><trkpt lat="44.18255675135073" lon="9.585475310401119"><ele>52.0</ele><time>2026-04-05T15:52:23.999Z</time></trkpt><trkpt lat="44.182626458686705" lon="9.58554321939487"><ele>51.99999999999999</ele><time>2026-04-05T15:52:25.999Z</time></trkpt><trkpt lat="44.18268047419037" lon="9.585591123924122"><ele>52.0</ele><time>2026-04-05T15:52:27.999Z</time></trkpt><trkpt lat="44.18275989035326" lon="9.585640084202234"><ele>52.0</ele><time>2026-04-05T15:52:30.999Z</time></trkpt><trkpt lat="44.18283803395097" lon="9.585609757361134"><ele>52.0</ele><time>2026-04-05T15:52:32.999Z</time></trkpt><trkpt lat="44.182864220047804" lon="9.585525809718451"><ele>51.99999999999999</ele><time>2026-04-05T15:52:34.999Z</time></trkpt><trkpt lat="44.18279836845167" lon="9.585437658358357"><ele>52.0</ele><time>2026-04-05T15:52:35.999Z</time></trkpt><trkpt lat="44.18273764685786" lon="9.585392754385605"><ele>52.0</ele><time>2026-04-05T15:52:36.999Z</time></trkpt><trkpt lat="44.18267575020538" lon="9.585350536833726"><ele>52.0</ele><time>2026-04-05T15:52:37.999Z</time></trkpt><trkpt lat="44.18261829537906" lon="9.585285670308776"><ele>52.0</ele><time>2026-04-05T15:52:38.999Z</time></trkpt><trkpt lat="44.18257991002484" lon="9.585202599232963"><ele>52.0</ele><time>2026-04-05T15:52:39.999Z</time></trkpt><trkpt lat="44.18254019279429" lon="9.585115436481418"><ele>52.0</ele><time>2026-04-05T15:52:40.999Z</time></trkpt><trkpt lat="44.182509912789996" lon="9.585038215151842"><ele>52.0</ele><time>2026-04-05T15:52:41.999Z</time></trkpt><trkpt lat="44.18246796394496" lon="9.58496741870451"><ele>52.0</ele><time>2026-04-05T15:52:42.999Z</time></trkpt><trkpt lat="44.18239993332233" lon="9.584936426230026"><ele>48.49999999999999</ele><time>2026-04-05T15:52:43.999Z</time></trkpt><trkpt lat="44.18234292345579" lon="9.584989475627234"><ele>45.0</ele><time>2026-04-05T15:52:44.999Z</time></trkpt><trkpt lat="44.182274007810086" lon="9.585041784778786"><ele>41.5</ele><time>2026-04-05T15:52:45.999Z</time></trkpt><trkpt lat="44.18222344118579" lon="9.585100161422886"><ele>38.0</ele><time>2026-04-05T15:52:46.999Z</time></trkpt><trkpt lat="44.182156431017525" lon="9.585111397811271"><ele>34.5</ele><time>2026-04-05T15:52:47.999Z</time></trkpt><trkpt lat="44.18207026931474" lon="9.585022452920045"><ele>31.0</ele><time>2026-04-05T15:52:49.999Z</time></trkpt><trkpt lat="44.18204166293662" lon="9.584854904127125"><ele>31.0</ele><time>2026-04-05T15:52:51.999Z</time></trkpt><trkpt lat="44.18204809576457" lon="9.584764758027914"><ele>31.0</ele><time>2026-04-05T15:52:52.999Z</time></trkpt><trkpt lat="44.18200116500432" lon="9.584623291520973"><ele>31.0</ele><time>2026-04-05T15:52:54.998Z</time></trkpt><trkpt lat="44.18194762107253" lon="9.58451141209769"><ele>31.0</ele><time>2026-04-05T15:52:56.998Z</time></trkpt><trkpt lat="44.181851764674946" lon="9.5844387083998"><ele>31.0</ele><time>2026-04-05T15:52:58.998Z</time></trkpt><trkpt lat="44.18177339581101" lon="9.584442164639631"><ele>31.000000000000004</ele><time>2026-04-05T15:53:00.998Z</time></trkpt><trkpt lat="44.18173133474137" lon="9.584374736712451"><ele>31.0</ele><time>2026-04-05T15:53:03.998Z</time></trkpt><trkpt lat="44.18179436536849" lon="9.58433510163649"><ele>31.0</ele><time>2026-04-05T15:53:05.998Z</time></trkpt><trkpt lat="44.18190221488593" lon="9.584374190092767"><ele>31.0</ele><time>2026-04-05T15:53:07.998Z</time></trkpt><trkpt lat="44.18196554144777" lon="9.58440090929691"><ele>31.000000000000004</ele><time>2026-04-05T15:53:08.998Z</time></trkpt><trkpt lat="44.1820498463388" lon="9.584523993934138"><ele>31.0</ele><time>2026-04-05T15:53:10.998Z</time></trkpt><trkpt lat="44.18206451363456" lon="9.58462232838169"><ele>31.0</ele><time>2026-04-05T15:53:11.998Z</time></trkpt><trkpt lat="44.18206891569192" lon="9.58471778541335"><ele>31.0</ele><time>2026-04-05T15:53:13Z</time></trkpt><trkpt lat="44.18211226389128" lon="9.584873134311426"><ele>31.0</ele><time>2026-04-05T15:53:15Z</time></trkpt><trkpt lat="44.18223763094812" lon="9.58491219459914"><ele>31.0</ele><time>2026-04-05T15:53:17Z</time></trkpt><trkpt lat="44.18230107072372" lon="9.584889017569997"><ele>31.0</ele><time>2026-04-05T15:53:18Z</time></trkpt><trkpt lat="44.182384628175654" lon="9.584781063416909"><ele>30.200000000000003</ele><time>2026-04-05T15:53:20Z</time></trkpt><trkpt lat="44.18241705932053" lon="9.584629095532748"><ele>29.400000000000002</ele><time>2026-04-05T15:53:22Z</time></trkpt><trkpt lat="44.18237337787372" lon="9.584452542478935"><ele>28.6</ele><time>2026-04-05T15:53:24Z</time></trkpt><trkpt lat="44.18234800204556" lon="9.584370816673504"><ele>27.8</ele><time>2026-04-05T15:53:25Z</time></trkpt><trkpt lat="44.18228948897308" lon="9.58422015480049"><ele>27.0</ele><time>2026-04-05T15:53:27Z</time></trkpt><trkpt lat="44.182281405674814" lon="9.584075641942158"><ele>24.0</ele><time>2026-04-05T15:53:29Z</time></trkpt><trkpt lat="44.1823318979614" lon="9.583945556122954"><ele>21.000000000000004</ele><time>2026-04-05T15:53:31Z</time></trkpt><trkpt lat="44.18241047360239" lon="9.583855376561385"><ele>18.0</ele><time>2026-04-05T15:53:33Z</time></trkpt><trkpt lat="44.18247895427119" lon="9.583769408569859"><ele>15.0</ele><time>2026-04-05T15:53:35Z</time></trkpt><trkpt lat="44.18254099923163" lon="9.583675773147844"><ele>12.0</ele><time>2026-04-05T15:53:38Z</time></trkpt><trkpt lat="44.182450090554426" lon="9.58356177880876"><ele>12.0</ele><time>2026-04-05T15:53:46Z</time></trkpt><trkpt lat="44.182366266075434" lon="9.58364256214849"><ele>12.0</ele><time>2026-04-05T15:53:48Z</time></trkpt><trkpt lat="44.182270854008415" lon="9.583721728439622"><ele>12.0</ele><time>2026-04-05T15:53:50Z</time></trkpt><trkpt lat="44.18219064276692" lon="9.583787790313577"><ele>12.0</ele><time>2026-04-05T15:53:52Z</time></trkpt><trkpt lat="44.18211036466107" lon="9.583841575070778"><ele>12.0</ele><time>2026-04-05T15:53:54Z</time></trkpt><trkpt lat="44.18206228341216" lon="9.583903949029489"><ele>12.0</ele><time>2026-04-05T15:53:55.999Z</time></trkpt><trkpt lat="44.18198574198369" lon="9.583871040785542"><ele>12.0</ele><time>2026-04-05T15:53:58.999Z</time></trkpt><trkpt lat="44.18189624573398" lon="9.583850073725973"><ele>12.0</ele><time>2026-04-05T15:54:00.999Z</time></trkpt><trkpt lat="44.18180902331464" lon="9.583921673280825"><ele>12.0</ele><time>2026-04-05T15:54:02.999Z</time></trkpt><trkpt lat="44.181701760402945" lon="9.583954292411065"><ele>12.0</ele><time>2026-04-05T15:54:04.999Z</time></trkpt><trkpt lat="44.18161738362315" lon="9.583988354281367"><ele>12.0</ele><time>2026-04-05T15:54:06.999Z</time></trkpt><trkpt lat="44.181721823758814" lon="9.584077192060926"><ele>12.0</ele><time>2026-04-05T15:54:12.999Z</time></trkpt><trkpt lat="44.181797714251104" lon="9.584051951911578"><ele>12.0</ele><time>2026-04-05T15:54:14.999Z</time></trkpt><trkpt lat="44.18189240719806" lon="9.584015956886095"><ele>12.0</ele><time>2026-04-05T15:54:16.999Z</time></trkpt><trkpt lat="44.181991323342636" lon="9.583922919354256"><ele>12.0</ele><time>2026-04-05T15:54:18.999Z</time></trkpt><trkpt lat="44.18207230038121" lon="9.583839092705984"><ele>11.999999999999998</ele><time>2026-04-05T15:54:20.999Z</time></trkpt><trkpt lat="44.18209427606255" lon="9.583730695281046"><ele>12.0</ele><time>2026-04-05T15:54:21.999Z</time></trkpt><trkpt lat="44.18215466973017" lon="9.583686139420237"><ele>12.0</ele><time>2026-04-05T15:54:22.999Z</time></trkpt><trkpt lat="44.18221660161057" lon="9.583631413160411"><ele>12.0</ele><time>2026-04-05T15:54:23.999Z</time></trkpt><trkpt lat="44.18227968109688" lon="9.583577257691514"><ele>12.0</ele><time>2026-04-05T15:54:24.999Z</time></trkpt><trkpt lat="44.18233173004994" lon="9.583522469622839"><ele>11.999999999999998</ele><time>2026-04-05T15:54:25.999Z</time></trkpt><trkpt lat="44.182385349658986" lon="9.583467119818097"><ele>12.0</ele><time>2026-04-05T15:54:26.999Z</time></trkpt><trkpt lat="44.182436122850206" lon="9.583412804587681"><ele>10.999999999999998</ele><time>2026-04-05T15:54:27.999Z</time></trkpt><trkpt lat="44.18248412956907" lon="9.583354943853411"><ele>10.0</ele><time>2026-04-05T15:54:28.999Z</time></trkpt><trkpt lat="44.18255642518545" lon="9.583275855320682"><ele>9.0</ele><time>2026-04-05T15:54:30.999Z</time></trkpt><trkpt lat="44.182614961717974" lon="9.583202678601204"><ele>8.0</ele><time>2026-04-05T15:54:33.999Z</time></trkpt><trkpt lat="44.182662509227" lon="9.58313176363437"><ele>7.0</ele><time>2026-04-05T15:54:38.999Z</time></trkpt><trkpt lat="44.182705447773216" lon="9.58306308338223"><ele>6.0</ele><time>2026-04-05T15:54:44.999Z</time></trkpt><trkpt lat="44.182752089806925" lon="9.58300277780514"><ele>5.0</ele><time>2026-04-05T15:54:46.999Z</time></trkpt><trkpt lat="44.182827406902675" lon="9.582913488897853"><ele>4.6</ele><time>2026-04-05T15:54:48.999Z</time></trkpt><trkpt lat="44.18290463233013" lon="9.582790032883086"><ele>4.2</ele><time>2026-04-05T15:54:50.999Z</time></trkpt><trkpt lat="44.18298316037755" lon="9.582659707559346"><ele>3.8</ele><time>2026-04-05T15:54:52.999Z</time></trkpt><trkpt lat="44.18305565260855" lon="9.58253930869018"><ele>3.4</ele><time>2026-04-05T15:54:54.999Z</time></trkpt><trkpt lat="44.183117388483936" lon="9.582436258765407"><ele>3.0</ele><time>2026-04-05T15:54:56.999Z</time></trkpt><trkpt lat="44.18318728205549" lon="9.58232108997013"><ele>3.4</ele><time>2026-04-05T15:54:58.999Z</time></trkpt><trkpt lat="44.18324851221422" lon="9.58221458308359"><ele>3.8</ele><time>2026-04-05T15:55:00.998Z</time></trkpt><trkpt lat="44.183309031243446" lon="9.58209812356014"><ele>4.2</ele><time>2026-04-05T15:55:02.998Z</time></trkpt><trkpt lat="44.183362571249084" lon="9.581980188821797"><ele>4.6</ele><time>2026-04-05T15:55:04.998Z</time></trkpt><trkpt lat="44.18341299871518" lon="9.581871568552216"><ele>5.0</ele><time>2026-04-05T15:55:06.998Z</time></trkpt><trkpt lat="44.18346799410751" lon="9.581760332298495"><ele>5.0</ele><time>2026-04-05T15:55:08.998Z</time></trkpt><trkpt lat="44.1835178175394" lon="9.581657895497617"><ele>5.0</ele><time>2026-04-05T15:55:10.998Z</time></trkpt><trkpt lat="44.18354191658762" lon="9.581563405695471"><ele>5.0</ele><time>2026-04-05T15:55:12.998Z</time></trkpt><trkpt lat="44.18347707393925" lon="9.581457509421961"><ele>5.0</ele><time>2026-04-05T16:02:17.998Z</time></trkpt><trkpt lat="44.18350477477199" lon="9.581561805868326"><ele>5.0</ele><time>2026-04-05T16:03:53.999Z</time></trkpt><trkpt lat="44.18343810632787" lon="9.581746503730631"><ele>5.0</ele><time>2026-04-05T16:03:55.999Z</time></trkpt><trkpt lat="44.183375660450885" lon="9.581866574107671"><ele>5.0</ele><time>2026-04-05T16:03:56.999Z</time></trkpt><trkpt lat="44.18331379526877" lon="9.582010109909328"><ele>5.0</ele><time>2026-04-05T16:03:57.999Z</time></trkpt><trkpt lat="44.18324496448915" lon="9.582154338926388"><ele>5.0</ele><time>2026-04-05T16:03:58.999Z</time></trkpt><trkpt lat="44.18316896528227" lon="9.582303921021293"><ele>5.0</ele><time>2026-04-05T16:03:59.999Z</time></trkpt><trkpt lat="44.18308483849905" lon="9.58246189691301"><ele>5.0</ele><time>2026-04-05T16:04:00.999Z</time></trkpt><trkpt lat="44.182991952275486" lon="9.582620854799162"><ele>5.0</ele><time>2026-04-05T16:04:01.999Z</time></trkpt><trkpt lat="44.18288421663124" lon="9.582755144649024"><ele>5.0</ele><time>2026-04-05T16:04:02.999Z</time></trkpt><trkpt lat="44.182810891090355" lon="9.582893889376223"><ele>5.0</ele><time>2026-04-05T16:04:03.999Z</time></trkpt><trkpt lat="44.182730462540874" lon="9.582998806007044"><ele>5.0</ele><time>2026-04-05T16:04:04.999Z</time></trkpt><trkpt lat="44.18266996662178" lon="9.58309508248937"><ele>5.0</ele><time>2026-04-05T16:04:05.999Z</time></trkpt><trkpt lat="44.18260154910347" lon="9.583188409648269"><ele>5.0</ele><time>2026-04-05T16:04:06.999Z</time></trkpt><trkpt lat="44.18252685820896" lon="9.583279423118295"><ele>5.0</ele><time>2026-04-05T16:04:07.999Z</time></trkpt><trkpt lat="44.182448841007606" lon="9.583362743731817"><ele>5.0</ele><time>2026-04-05T16:04:08.999Z</time></trkpt><trkpt lat="44.182375716266506" lon="9.583439111479422"><ele>5.0</ele><time>2026-04-05T16:04:09.999Z</time></trkpt><trkpt lat="44.18230093556624" lon="9.583507257216008"><ele>5.0</ele><time>2026-04-05T16:04:10.999Z</time></trkpt><trkpt lat="44.18223894154811" lon="9.583566752388034"><ele>5.0</ele><time>2026-04-05T16:04:11.999Z</time></trkpt><trkpt lat="44.18216882225837" lon="9.583634454240105"><ele>5.0</ele><time>2026-04-05T16:04:12.999Z</time></trkpt><trkpt lat="44.18210845321524" lon="9.583689502720159"><ele>5.0</ele><time>2026-04-05T16:04:13.999Z</time></trkpt><trkpt lat="44.18204794189362" lon="9.583737403103498"><ele>6.4</ele><time>2026-04-05T16:04:14.999Z</time></trkpt><trkpt lat="44.18196149212065" lon="9.583811753441427"><ele>7.8</ele><time>2026-04-05T16:04:16.999Z</time></trkpt><trkpt lat="44.181992507778965" lon="9.583976093745907"><ele>9.2</ele><time>2026-04-05T16:04:20.998Z</time></trkpt><trkpt lat="44.18209581561379" lon="9.5838964704491"><ele>10.6</ele><time>2026-04-05T16:04:22.998Z</time></trkpt><trkpt lat="44.18217460355606" lon="9.583857302789117"><ele>12.0</ele><time>2026-04-05T16:04:23.998Z</time></trkpt><trkpt lat="44.18223329983287" lon="9.583780532948948"><ele>12.0</ele><time>2026-04-05T16:04:24.998Z</time></trkpt><trkpt lat="44.18230898242181" lon="9.583736167138323"><ele>12.0</ele><time>2026-04-05T16:04:25.998Z</time></trkpt><trkpt lat="44.182357071436854" lon="9.583658388804785"><ele>12.0</ele><time>2026-04-05T16:04:26.998Z</time></trkpt><trkpt lat="44.1824536838963" lon="9.583586050318374"><ele>12.0</ele><time>2026-04-05T16:04:29Z</time></trkpt><trkpt lat="44.18251421631784" lon="9.583634792916918"><ele>12.0</ele><time>2026-04-05T16:04:33Z</time></trkpt><trkpt lat="44.182484013756515" lon="9.583756601488373"><ele>12.0</ele><time>2026-04-05T16:04:36Z</time></trkpt><trkpt lat="44.182424040098574" lon="9.58381607184711"><ele>12.0</ele><time>2026-04-05T16:04:37Z</time></trkpt><trkpt lat="44.182362369897106" lon="9.583874570448764"><ele>12.0</ele><time>2026-04-05T16:04:38Z</time></trkpt><trkpt lat="44.18227681398911" lon="9.584005850003852"><ele>12.0</ele><time>2026-04-05T16:04:40Z</time></trkpt><trkpt lat="44.18225166088705" lon="9.58409253597995"><ele>12.0</ele><time>2026-04-05T16:04:41Z</time></trkpt><trkpt lat="44.18223664248871" lon="9.584181645964597"><ele>12.0</ele><time>2026-04-05T16:04:42Z</time></trkpt><trkpt lat="44.18227381526509" lon="9.584283088081358"><ele>12.0</ele><time>2026-04-05T16:04:43Z</time></trkpt><trkpt lat="44.18231156392727" lon="9.58437482707817"><ele>12.0</ele><time>2026-04-05T16:04:44Z</time></trkpt><trkpt lat="44.18234674924514" lon="9.58446344376772"><ele>12.0</ele><time>2026-04-05T16:04:45Z</time></trkpt><trkpt lat="44.18237615216592" lon="9.584558248482391"><ele>12.0</ele><time>2026-04-05T16:04:46Z</time></trkpt><trkpt lat="44.182369682853164" lon="9.584696138479687"><ele>12.0</ele><time>2026-04-05T16:04:48Z</time></trkpt><trkpt lat="44.18230213431862" lon="9.584837398090047"><ele>12.0</ele><time>2026-04-05T16:04:51Z</time></trkpt><trkpt lat="44.18224235401007" lon="9.58490753994465"><ele>12.0</ele><time>2026-04-05T16:04:53Z</time></trkpt><trkpt lat="44.18213462595095" lon="9.584784860262797"><ele>12.0</ele><time>2026-04-05T16:04:55Z</time></trkpt><trkpt lat="44.18211298750344" lon="9.584701132136486"><ele>12.0</ele><time>2026-04-05T16:04:56Z</time></trkpt><trkpt lat="44.18209900867504" lon="9.584599279371036"><ele>12.0</ele><time>2026-04-05T16:04:57Z</time></trkpt><trkpt lat="44.18208048340481" lon="9.584512687629614"><ele>12.0</ele><time>2026-04-05T16:04:58Z</time></trkpt><trkpt lat="44.18202890199291" lon="9.584400414989128"><ele>12.0</ele><time>2026-04-05T16:05:00Z</time></trkpt><trkpt lat="44.181927794487734" lon="9.58434607624288"><ele>12.0</ele><time>2026-04-05T16:05:02Z</time></trkpt><trkpt lat="44.181835823187996" lon="9.5843410404428"><ele>12.0</ele><time>2026-04-05T16:05:04Z</time></trkpt><trkpt lat="44.181703778666495" lon="9.584340960507086"><ele>12.0</ele><time>2026-04-05T16:05:06Z</time></trkpt><trkpt lat="44.18169222305179" lon="9.584446338126991"><ele>12.0</ele><time>2026-04-05T16:05:08Z</time></trkpt><trkpt lat="44.18176242882046" lon="9.584485142548834"><ele>12.0</ele><time>2026-04-05T16:05:10Z</time></trkpt><trkpt lat="44.181833826794524" lon="9.584493265045662"><ele>12.0</ele><time>2026-04-05T16:05:11Z</time></trkpt><trkpt lat="44.1819357217745" lon="9.58455107816882"><ele>15.166666666666668</ele><time>2026-04-05T16:05:13Z</time></trkpt><trkpt lat="44.1819716478242" lon="9.58462867726615"><ele>18.333333333333336</ele><time>2026-04-05T16:05:14Z</time></trkpt><trkpt lat="44.18199666740632" lon="9.584788230524747"><ele>21.5</ele><time>2026-04-05T16:05:16Z</time></trkpt><trkpt lat="44.18201869073617" lon="9.584888529989884"><ele>24.666666666666668</ele><time>2026-04-05T16:05:17Z</time></trkpt><trkpt lat="44.182042706322505" lon="9.584989048928815"><ele>27.833333333333336</ele><time>2026-04-05T16:05:18Z</time></trkpt><trkpt lat="44.18209263566508" lon="9.585103101508166"><ele>31.0</ele><time>2026-04-05T16:05:19.999Z</time></trkpt><trkpt lat="44.18218566889241" lon="9.585163143917617"><ele>31.000000000000004</ele><time>2026-04-05T16:05:21.999Z</time></trkpt><trkpt lat="44.1822492787015" lon="9.585149717214374"><ele>31.0</ele><time>2026-04-05T16:05:22.999Z</time></trkpt><trkpt lat="44.182330499947575" lon="9.585032389138444"><ele>31.0</ele><time>2026-04-05T16:05:23.999Z</time></trkpt><trkpt lat="44.18240067455913" lon="9.585004147467009"><ele>31.0</ele><time>2026-04-05T16:05:24.999Z</time></trkpt><trkpt lat="44.18247367069714" lon="9.585006357509892"><ele>31.000000000000004</ele><time>2026-04-05T16:05:26.999Z</time></trkpt><trkpt lat="44.18251834136662" lon="9.58506995342315"><ele>31.0</ele><time>2026-04-05T16:05:28.999Z</time></trkpt><trkpt lat="44.18253429603211" lon="9.58518341993568"><ele>30.333333333333336</ele><time>2026-04-05T16:05:29.999Z</time></trkpt><trkpt lat="44.182592517387306" lon="9.585302257332028"><ele>29.666666666666668</ele><time>2026-04-05T16:05:30.999Z</time></trkpt><trkpt lat="44.18265207480962" lon="9.585376374853501"><ele>29.0</ele><time>2026-04-05T16:05:31.999Z</time></trkpt><trkpt lat="44.18273045623756" lon="9.585443708201582"><ele>28.333333333333336</ele><time>2026-04-05T16:05:32.999Z</time></trkpt><trkpt lat="44.1827876300788" lon="9.585497804724024"><ele>27.666666666666668</ele><time>2026-04-05T16:05:34.999Z</time></trkpt><trkpt lat="44.182737164535325" lon="9.585553555643177"><ele>27.0</ele><time>2026-04-05T16:05:39.999Z</time></trkpt><trkpt lat="44.18264164324494" lon="9.585463591272"><ele>27.0</ele><time>2026-04-05T16:05:41.999Z</time></trkpt><trkpt lat="44.18257689087751" lon="9.585394267033482"><ele>27.0</ele><time>2026-04-05T16:05:42.999Z</time></trkpt><trkpt lat="44.18250811511148" lon="9.585334711966317"><ele>27.0</ele><time>2026-04-05T16:05:43.999Z</time></trkpt><trkpt lat="44.18246403951436" lon="9.585266718495365"><ele>27.0</ele><time>2026-04-05T16:05:44.999Z</time></trkpt><trkpt lat="44.1824050697796" lon="9.58523358545116"><ele>27.0</ele><time>2026-04-05T16:05:45.999Z</time></trkpt><trkpt lat="44.18232940340383" lon="9.585245226171075"><ele>27.0</ele><time>2026-04-05T16:05:46.999Z</time></trkpt><trkpt lat="44.18225870647238" lon="9.585283735193249"><ele>27.0</ele><time>2026-04-05T16:05:47.999Z</time></trkpt><trkpt lat="44.182179686500234" lon="9.585332083792624"><ele>27.666666666666668</ele><time>2026-04-05T16:05:48.999Z</time></trkpt><trkpt lat="44.18209412925952" lon="9.585358866430607"><ele>28.333333333333336</ele><time>2026-04-05T16:05:49.999Z</time></trkpt><trkpt lat="44.18200593714531" lon="9.585335608193366"><ele>29.0</ele><time>2026-04-05T16:05:50.999Z</time></trkpt><trkpt lat="44.18193874458625" lon="9.585353876320077"><ele>29.666666666666668</ele><time>2026-04-05T16:05:51.999Z</time></trkpt><trkpt lat="44.18186441581477" lon="9.585453645741717"><ele>30.333333333333336</ele><time>2026-04-05T16:05:53.999Z</time></trkpt><trkpt lat="44.18185538819713" lon="9.58556734150446"><ele>31.0</ele><time>2026-04-05T16:05:54.999Z</time></trkpt><trkpt lat="44.18183186543116" lon="9.58566986078517"><ele>33.833333333333336</ele><time>2026-04-05T16:05:55.999Z</time></trkpt><trkpt lat="44.18181626130234" lon="9.585776362724458"><ele>36.66666666666667</ele><time>2026-04-05T16:05:56.999Z</time></trkpt><trkpt lat="44.18179837542229" lon="9.585898437840456"><ele>39.5</ele><time>2026-04-05T16:05:57.999Z</time></trkpt><trkpt lat="44.18179071179133" lon="9.586017746370828"><ele>42.333333333333336</ele><time>2026-04-05T16:05:58.999Z</time></trkpt><trkpt lat="44.181753398320545" lon="9.58613142181264"><ele>45.166666666666664</ele><time>2026-04-05T16:05:59.999Z</time></trkpt><trkpt lat="44.18170849430648" lon="9.58624001685588"><ele>48.0</ele><time>2026-04-05T16:06:00.999Z</time></trkpt><trkpt lat="44.18166990844965" lon="9.586352331743472"><ele>50.4</ele><time>2026-04-05T16:06:01.999Z</time></trkpt><trkpt lat="44.18161266058323" lon="9.586457560109883"><ele>52.8</ele><time>2026-04-05T16:06:02.999Z</time></trkpt><trkpt lat="44.18158152569405" lon="9.586583019381893"><ele>55.2</ele><time>2026-04-05T16:06:03.999Z</time></trkpt><trkpt lat="44.18151324034882" lon="9.58671010486788"><ele>57.6</ele><time>2026-04-05T16:06:05.999Z</time></trkpt><trkpt lat="44.18139999008635" lon="9.586698366787935"><ele>60.0</ele><time>2026-04-05T16:06:07.999Z</time></trkpt><trkpt lat="44.181335514882704" lon="9.586657904802433"><ele>60.0</ele><time>2026-04-05T16:06:08.999Z</time></trkpt><trkpt lat="44.18128347213946" lon="9.586594923327086"><ele>60.0</ele><time>2026-04-05T16:06:09.999Z</time></trkpt><trkpt lat="44.181230239737324" lon="9.586508040715513"><ele>60.0</ele><time>2026-04-05T16:06:10.999Z</time></trkpt><trkpt lat="44.18116901815984" lon="9.586424142761736"><ele>60.0</ele><time>2026-04-05T16:06:11.999Z</time></trkpt><trkpt lat="44.18106439987684" lon="9.586379970157783"><ele>60.0</ele><time>2026-04-05T16:06:13.999Z</time></trkpt><trkpt lat="44.18101443121833" lon="9.586437180703902"><ele>60.0</ele><time>2026-04-05T16:06:14.999Z</time></trkpt><trkpt lat="44.1809436372833" lon="9.586503214610678"><ele>60.0</ele><time>2026-04-05T16:06:15.999Z</time></trkpt><trkpt lat="44.18086071326492" lon="9.586541770970022"><ele>60.0</ele><time>2026-04-05T16:06:16.999Z</time></trkpt><trkpt lat="44.180811624973515" lon="9.586625232857168"><ele>60.0</ele><time>2026-04-05T16:06:17.999Z</time></trkpt><trkpt lat="44.180766880410616" lon="9.586702498252722"><ele>60.0</ele><time>2026-04-05T16:06:18.999Z</time></trkpt><trkpt lat="44.180744177108075" lon="9.586794207336611"><ele>60.0</ele><time>2026-04-05T16:06:19.999Z</time></trkpt><trkpt lat="44.180702798065006" lon="9.586875170167199"><ele>60.0</ele><time>2026-04-05T16:06:20.999Z</time></trkpt><trkpt lat="44.1806629895702" lon="9.586948394702528"><ele>60.0</ele><time>2026-04-05T16:06:21.999Z</time></trkpt><trkpt lat="44.18059702322963" lon="9.586992849681728"><ele>63.25</ele><time>2026-04-05T16:06:22.999Z</time></trkpt><trkpt lat="44.18051124751435" lon="9.587143893607875"><ele>66.5</ele><time>2026-04-05T16:06:24.999Z</time></trkpt><trkpt lat="44.18045456933279" lon="9.587197942062513"><ele>69.75</ele><time>2026-04-05T16:06:25.999Z</time></trkpt><trkpt lat="44.18034768741381" lon="9.58730291111267"><ele>73.0</ele><time>2026-04-05T16:06:27.999Z</time></trkpt><trkpt lat="44.18024785775423" lon="9.587418181659825"><ele>73.0</ele><time>2026-04-05T16:06:29.998Z</time></trkpt><trkpt lat="44.18013017939218" lon="9.58749075314263"><ele>73.0</ele><time>2026-04-05T16:06:31.998Z</time></trkpt><trkpt lat="44.180057044428864" lon="9.587522984420518"><ele>73.0</ele><time>2026-04-05T16:06:32.998Z</time></trkpt><trkpt lat="44.17998900830504" lon="9.587550652607629"><ele>73.0</ele><time>2026-04-05T16:06:33.998Z</time></trkpt><trkpt lat="44.17987213916097" lon="9.587553018673766"><ele>73.0</ele><time>2026-04-05T16:06:36Z</time></trkpt><trkpt lat="44.17978256649088" lon="9.587501546514659"><ele>76.16666666666666</ele><time>2026-04-05T16:06:38Z</time></trkpt><trkpt lat="44.17970573131889" lon="9.587382031825758"><ele>79.33333333333333</ele><time>2026-04-05T16:06:40Z</time></trkpt><trkpt lat="44.17965309916697" lon="9.587317196366609"><ele>82.5</ele><time>2026-04-05T16:06:41Z</time></trkpt><trkpt lat="44.17959869975706" lon="9.587256499717261"><ele>85.66666666666667</ele><time>2026-04-05T16:06:42Z</time></trkpt><trkpt lat="44.17953816742934" lon="9.587202626945887"><ele>88.83333333333334</ele><time>2026-04-05T16:06:43Z</time></trkpt><trkpt lat="44.17947786341564" lon="9.58716466573324"><ele>92.0</ele><time>2026-04-05T16:06:44Z</time></trkpt><trkpt lat="44.17938212615893" lon="9.587129751273055"><ele>92.0</ele><time>2026-04-05T16:06:46Z</time></trkpt><trkpt lat="44.179304030087394" lon="9.587074625566832"><ele>92.0</ele><time>2026-04-05T16:06:48Z</time></trkpt><trkpt lat="44.17924531344353" lon="9.586942795125642"><ele>92.0</ele><time>2026-04-05T16:06:50Z</time></trkpt><trkpt lat="44.17920572421272" lon="9.586843574979484"><ele>92.0</ele><time>2026-04-05T16:06:51Z</time></trkpt><trkpt lat="44.179169281132275" lon="9.586753142074812"><ele>92.0</ele><time>2026-04-05T16:06:52Z</time></trkpt><trkpt lat="44.179129735878156" lon="9.586658714320876"><ele>92.0</ele><time>2026-04-05T16:06:53Z</time></trkpt><trkpt lat="44.17910119009874" lon="9.58656698708177"><ele>93.33333333333334</ele><time>2026-04-05T16:06:54Z</time></trkpt><trkpt lat="44.17906914837092" lon="9.586455083625026"><ele>94.66666666666667</ele><time>2026-04-05T16:06:56Z</time></trkpt><trkpt lat="44.179042625808115" lon="9.586366463845918"><ele>96.0</ele><time>2026-04-05T16:06:59Z</time></trkpt><trkpt lat="44.17897631475906" lon="9.586301691974581"><ele>97.33333333333334</ele><time>2026-04-05T16:07:03Z</time></trkpt><trkpt lat="44.178943328902946" lon="9.586184487012366"><ele>98.66666666666667</ele><time>2026-04-05T16:07:05Z</time></trkpt><trkpt lat="44.17890879100298" lon="9.586092408563568"><ele>100.0</ele><time>2026-04-05T16:07:07Z</time></trkpt><trkpt lat="44.17885727150459" lon="9.585971144726328"><ele>100.00000000000001</ele><time>2026-04-05T16:07:09Z</time></trkpt><trkpt lat="44.17878430585253" lon="9.585840888631084"><ele>100.0</ele><time>2026-04-05T16:07:11Z</time></trkpt><trkpt lat="44.17873833465083" lon="9.585766277032057"><ele>100.0</ele><time>2026-04-05T16:07:12Z</time></trkpt><trkpt lat="44.17869794031481" lon="9.585681809786214"><ele>100.0</ele><time>2026-04-05T16:07:13Z</time></trkpt><trkpt lat="44.17865473252496" lon="9.585596549245578"><ele>100.00000000000001</ele><time>2026-04-05T16:07:14Z</time></trkpt><trkpt lat="44.178597252468144" lon="9.585518039226747"><ele>100.0</ele><time>2026-04-05T16:07:15Z</time></trkpt><trkpt lat="44.17855204847672" lon="9.585452469672495"><ele>100.00000000000001</ele><time>2026-04-05T16:07:16Z</time></trkpt><trkpt lat="44.17847821449123" lon="9.585372078156295"><ele>100.0</ele><time>2026-04-05T16:07:18Z</time></trkpt><trkpt lat="44.17841115434281" lon="9.585355095512583"><ele>100.0</ele><time>2026-04-05T16:07:20Z</time></trkpt><trkpt lat="44.178408132634985" lon="9.58551879787205"><ele>100.0</ele><time>2026-04-05T16:07:23Z</time></trkpt><trkpt lat="44.178459071087566" lon="9.585591337277627"><ele>100.00000000000001</ele><time>2026-04-05T16:07:24Z</time></trkpt><trkpt lat="44.1785072589025" lon="9.58565703264821"><ele>100.0</ele><time>2026-04-05T16:07:25Z</time></trkpt><trkpt lat="44.178551573947175" lon="9.58572461618656"><ele>100.00000000000001</ele><time>2026-04-05T16:07:26Z</time></trkpt><trkpt lat="44.17858730946629" lon="9.585798809745981"><ele>100.0</ele><time>2026-04-05T16:07:27Z</time></trkpt><trkpt lat="44.178621646029974" lon="9.585882491315639"><ele>100.0</ele><time>2026-04-05T16:07:28Z</time></trkpt><trkpt lat="44.178654055576956" lon="9.585977206731764"><ele>100.0</ele><time>2026-04-05T16:07:29Z</time></trkpt><trkpt lat="44.1786828944739" lon="9.586086203543543"><ele>100.00000000000001</ele><time>2026-04-05T16:07:30Z</time></trkpt><trkpt lat="44.17871363654813" lon="9.586207886486626"><ele>100.0</ele><time>2026-04-05T16:07:30.999Z</time></trkpt><trkpt lat="44.1787479032473" lon="9.586343519879843"><ele>104.6</ele><time>2026-04-05T16:07:31.999Z</time></trkpt><trkpt lat="44.17878022578427" lon="9.586481762043759"><ele>109.2</ele><time>2026-04-05T16:07:32.999Z</time></trkpt><trkpt lat="44.17881320695712" lon="9.586636292701023"><ele>113.80000000000001</ele><time>2026-04-05T16:07:33.999Z</time></trkpt><trkpt lat="44.17883335711574" lon="9.586783798831453"><ele>118.4</ele><time>2026-04-05T16:07:34.999Z</time></trkpt><trkpt lat="44.178843848262" lon="9.586914822226769"><ele>123.0</ele><time>2026-04-05T16:07:35.999Z</time></trkpt><trkpt lat="44.17885036269151" lon="9.587036005385658"><ele>125.0</ele><time>2026-04-05T16:07:36.999Z</time></trkpt><trkpt lat="44.17887291663655" lon="9.587150054919054"><ele>127.0</ele><time>2026-04-05T16:07:37.999Z</time></trkpt><trkpt lat="44.178871807509736" lon="9.587250185131017"><ele>129.0</ele><time>2026-04-05T16:07:38.999Z</time></trkpt><trkpt lat="44.178871676593126" lon="9.58734680609403"><ele>131.0</ele><time>2026-04-05T16:07:39.999Z</time></trkpt><trkpt lat="44.17889238614938" lon="9.587444284636094"><ele>133.0</ele><time>2026-04-05T16:07:40.999Z</time></trkpt><trkpt lat="44.178942009232635" lon="9.587543873549176"><ele>135.0</ele><time>2026-04-05T16:07:41.999Z</time></trkpt><trkpt lat="44.17899283190385" lon="9.587614444900254"><ele>131.33333333333334</ele><time>2026-04-05T16:07:42.999Z</time></trkpt><trkpt lat="44.179041093690216" lon="9.587711513851401"><ele>127.66666666666666</ele><time>2026-04-05T16:07:43.999Z</time></trkpt><trkpt lat="44.17908413253075" lon="9.587807309061045"><ele>124.0</ele><time>2026-04-05T16:07:44.999Z</time></trkpt><trkpt lat="44.17913187916172" lon="9.587910435625664"><ele>120.33333333333333</ele><time>2026-04-05T16:07:45.999Z</time></trkpt><trkpt lat="44.17917409185786" lon="9.588011403479134"><ele>116.66666666666666</ele><time>2026-04-05T16:07:46.999Z</time></trkpt><trkpt lat="44.179206526307006" lon="9.588116905788656"><ele>113.0</ele><time>2026-04-05T16:07:47.999Z</time></trkpt><trkpt lat="44.17922732028637" lon="9.588222657901676"><ele>112.99999999999999</ele><time>2026-04-05T16:07:48.999Z</time></trkpt><trkpt lat="44.17924609644969" lon="9.588332799786603"><ele>113.0</ele><time>2026-04-05T16:07:49.999Z</time></trkpt><trkpt lat="44.17926746797792" lon="9.588439626323549"><ele>113.0</ele><time>2026-04-05T16:07:50.999Z</time></trkpt><trkpt lat="44.179291678938526" lon="9.588540649287468"><ele>113.0</ele><time>2026-04-05T16:07:51.999Z</time></trkpt><trkpt lat="44.179319767905035" lon="9.588642728649083"><ele>112.99999999999999</ele><time>2026-04-05T16:07:52.999Z</time></trkpt><trkpt lat="44.17933113362067" lon="9.588734214217407"><ele>113.0</ele><time>2026-04-05T16:07:53.999Z</time></trkpt><trkpt lat="44.179357256513704" lon="9.58885212660611"><ele>115.42857142857143</ele><time>2026-04-05T16:07:55.999Z</time></trkpt><trkpt lat="44.17940681371053" lon="9.588959311300842"><ele>117.85714285714286</ele><time>2026-04-05T16:07:59.999Z</time></trkpt><trkpt lat="44.17946234900183" lon="9.589000819723992"><ele>120.28571428571429</ele><time>2026-04-05T16:08:00.999Z</time></trkpt><trkpt lat="44.179549943752214" lon="9.58898986121688"><ele>122.71428571428572</ele><time>2026-04-05T16:08:01.999Z</time></trkpt><trkpt lat="44.17960703511744" lon="9.588938935807075"><ele>125.14285714285714</ele><time>2026-04-05T16:08:02.999Z</time></trkpt><trkpt lat="44.17965864780719" lon="9.588884619641817"><ele>127.57142857142858</ele><time>2026-04-05T16:08:03.999Z</time></trkpt><trkpt lat="44.17971059925656" lon="9.58883223444785"><ele>130.0</ele><time>2026-04-05T16:08:04.999Z</time></trkpt><trkpt lat="44.179767456144276" lon="9.588790904807583"><ele>130.0</ele><time>2026-04-05T16:08:05.999Z</time></trkpt><trkpt lat="44.17983232299078" lon="9.588764699864326"><ele>130.0</ele><time>2026-04-05T16:08:06.999Z</time></trkpt><trkpt lat="44.17993883454665" lon="9.588761876182692"><ele>130.0</ele><time>2026-04-05T16:08:08.999Z</time></trkpt><trkpt lat="44.18004415402741" lon="9.588830268317247"><ele>130.0</ele><time>2026-04-05T16:08:10.999Z</time></trkpt><trkpt lat="44.18010556305304" lon="9.588894142626755"><ele>130.0</ele><time>2026-04-05T16:08:11.999Z</time></trkpt><trkpt lat="44.18018226527402" lon="9.58896009324383"><ele>128.16666666666669</ele><time>2026-04-05T16:08:12.999Z</time></trkpt><trkpt lat="44.18024866677661" lon="9.588999731806407"><ele>126.33333333333334</ele><time>2026-04-05T16:08:13.999Z</time></trkpt><trkpt lat="44.180337894029186" lon="9.589042903753166"><ele>124.5</ele><time>2026-04-05T16:08:15.999Z</time></trkpt><trkpt lat="44.18040220052748" lon="9.589075440276366"><ele>122.66666666666666</ele><time>2026-04-05T16:08:17.999Z</time></trkpt><trkpt lat="44.18046856997938" lon="9.589109020439992"><ele>120.83333333333333</ele><time>2026-04-05T16:08:23.999Z</time></trkpt><trkpt lat="44.18055454237302" lon="9.589144653315744"><ele>119.0</ele><time>2026-04-05T16:08:27.999Z</time></trkpt><trkpt lat="44.180637383319734" lon="9.589195401530866"><ele>119.0</ele><time>2026-04-05T16:08:30.999Z</time></trkpt><trkpt lat="44.1805975863668" lon="9.589267785603786"><ele>119.0</ele><time>2026-04-05T16:08:32.999Z</time></trkpt><trkpt lat="44.18051763935357" lon="9.589315891583288"><ele>119.0</ele><time>2026-04-05T16:08:34.999Z</time></trkpt><trkpt lat="44.1804551264542" lon="9.58926811473011"><ele>119.0</ele><time>2026-04-05T16:08:35.999Z</time></trkpt><trkpt lat="44.18032675837937" lon="9.589243985730185"><ele>119.0</ele><time>2026-04-05T16:08:37.999Z</time></trkpt><trkpt lat="44.180229440137694" lon="9.589247024606394"><ele>118.99999999999999</ele><time>2026-04-05T16:08:38.998Z</time></trkpt><trkpt lat="44.180136893722405" lon="9.589245679432645"><ele>119.0</ele><time>2026-04-05T16:08:39.998Z</time></trkpt><trkpt lat="44.18006074553729" lon="9.589245664325599"><ele>119.0</ele><time>2026-04-05T16:08:41Z</time></trkpt><trkpt lat="44.17999777626942" lon="9.589253312513446"><ele>119.0</ele><time>2026-04-05T16:08:42Z</time></trkpt><trkpt lat="44.17993382958635" lon="9.589267454906077"><ele>118.99999999999999</ele><time>2026-04-05T16:08:43Z</time></trkpt><trkpt lat="44.1798419461162" lon="9.58934883829439"><ele>119.0</ele><time>2026-04-05T16:08:45Z</time></trkpt><trkpt lat="44.179739624394436" lon="9.589465105352966"><ele>123.83333333333333</ele><time>2026-04-05T16:08:47Z</time></trkpt><trkpt lat="44.17967582990365" lon="9.58953380154806"><ele>128.66666666666666</ele><time>2026-04-05T16:08:48Z</time></trkpt><trkpt lat="44.17961396044831" lon="9.58960307264547"><ele>133.5</ele><time>2026-04-05T16:08:49Z</time></trkpt><trkpt lat="44.179568064326645" lon="9.589676048417788"><ele>138.33333333333334</ele><time>2026-04-05T16:08:50Z</time></trkpt><trkpt lat="44.179499053649856" lon="9.589810159013734"><ele>143.16666666666669</ele><time>2026-04-05T16:08:52Z</time></trkpt><trkpt lat="44.17946913960243" lon="9.589943455521464"><ele>148.0</ele><time>2026-04-05T16:08:54Z</time></trkpt><trkpt lat="44.179408960030614" lon="9.590035532589505"><ele>148.0</ele><time>2026-04-05T16:08:56Z</time></trkpt><trkpt lat="44.17932170839717" lon="9.590098852770579"><ele>148.0</ele><time>2026-04-05T16:08:59Z</time></trkpt><trkpt lat="44.1792891759673" lon="9.590020626374164"><ele>148.0</ele><time>2026-04-05T16:09:00Z</time></trkpt><trkpt lat="44.17925614724386" lon="9.589833836015277"><ele>148.0</ele><time>2026-04-05T16:09:02Z</time></trkpt><trkpt lat="44.17921692895587" lon="9.589729424851242"><ele>148.0</ele><time>2026-04-05T16:09:03Z</time></trkpt><trkpt lat="44.17917455910541" lon="9.589638294522329"><ele>148.0</ele><time>2026-04-05T16:09:04Z</time></trkpt><trkpt lat="44.1791206545054" lon="9.589557227703184"><ele>148.0</ele><time>2026-04-05T16:09:05Z</time></trkpt><trkpt lat="44.179066569730985" lon="9.589446621150433"><ele>148.0</ele><time>2026-04-05T16:09:06Z</time></trkpt><trkpt lat="44.179022203504594" lon="9.589325011324073"><ele>148.0</ele><time>2026-04-05T16:09:07Z</time></trkpt><trkpt lat="44.17896072472935" lon="9.589215114659254"><ele>148.0</ele><time>2026-04-05T16:09:08Z</time></trkpt><trkpt lat="44.178896536129585" lon="9.589108770520996"><ele>147.0</ele><time>2026-04-05T16:09:09Z</time></trkpt><trkpt lat="44.178823480023794" lon="9.588987281458012"><ele>146.0</ele><time>2026-04-05T16:09:10Z</time></trkpt><trkpt lat="44.178750353045636" lon="9.588858105860185"><ele>145.0</ele><time>2026-04-05T16:09:11Z</time></trkpt><trkpt lat="44.178668518968806" lon="9.588723570538084"><ele>144.0</ele><time>2026-04-05T16:09:12Z</time></trkpt><trkpt lat="44.178583520440284" lon="9.588595107834122"><ele>144.0</ele><time>2026-04-05T16:09:13Z</time></trkpt><trkpt lat="44.17849700807181" lon="9.588481196055557"><ele>144.0</ele><time>2026-04-05T16:09:14Z</time></trkpt><trkpt lat="44.1784213840659" lon="9.588370598339788"><ele>144.0</ele><time>2026-04-05T16:09:15Z</time></trkpt><trkpt lat="44.17836431660373" lon="9.588263253307371"><ele>144.0</ele><time>2026-04-05T16:09:16Z</time></trkpt><trkpt lat="44.178308820766304" lon="9.58817797554174"><ele>144.0</ele><time>2026-04-05T16:09:17Z</time></trkpt><trkpt lat="44.17826130882809" lon="9.588100829807665"><ele>144.0</ele><time>2026-04-05T16:09:18Z</time></trkpt><trkpt lat="44.1782207727584" lon="9.588030197794431"><ele>144.0</ele><time>2026-04-05T16:09:19Z</time></trkpt><trkpt lat="44.1781373323602" lon="9.587902919025126"><ele>144.0</ele><time>2026-04-05T16:09:21Z</time></trkpt><trkpt lat="44.178062292866684" lon="9.587777720389772"><ele>144.0</ele><time>2026-04-05T16:09:23Z</time></trkpt><trkpt lat="44.17799616749491" lon="9.58770300501336"><ele>144.0</ele><time>2026-04-05T16:09:25Z</time></trkpt><trkpt lat="44.17790989862982" lon="9.587687836588767"><ele>144.16666666666666</ele><time>2026-04-05T16:09:27Z</time></trkpt><trkpt lat="44.17782564847853" lon="9.587764487267332"><ele>144.33333333333334</ele><time>2026-04-05T16:09:29Z</time></trkpt><trkpt lat="44.17787284652366" lon="9.587907150733738"><ele>144.5</ele><time>2026-04-05T16:09:30Z</time></trkpt><trkpt lat="44.17792385754206" lon="9.587966561899513"><ele>144.66666666666669</ele><time>2026-04-05T16:09:31Z</time></trkpt><trkpt lat="44.177949567758134" lon="9.588047392609708"><ele>144.83333333333334</ele><time>2026-04-05T16:09:32Z</time></trkpt><trkpt lat="44.177992223307854" lon="9.588135199901773"><ele>145.0</ele><time>2026-04-05T16:09:33Z</time></trkpt><trkpt lat="44.17803656608382" lon="9.588228714770151"><ele>145.0</ele><time>2026-04-05T16:09:34Z</time></trkpt><trkpt lat="44.178082358820774" lon="9.588332618297343"><ele>145.0</ele><time>2026-04-05T16:09:34.999Z</time></trkpt><trkpt lat="44.17812520111222" lon="9.588442691467035"><ele>145.0</ele><time>2026-04-05T16:09:35.999Z</time></trkpt><trkpt lat="44.17816551176469" lon="9.588562125524891"><ele>145.0</ele><time>2026-04-05T16:09:36.999Z</time></trkpt><trkpt lat="44.17820620280819" lon="9.588689369371311"><ele>145.0</ele><time>2026-04-05T16:09:37.999Z</time></trkpt><trkpt lat="44.17824880837462" lon="9.588819464862313"><ele>148.0</ele><time>2026-04-05T16:09:38.999Z</time></trkpt><trkpt lat="44.17829492562873" lon="9.588949761043063"><ele>151.0</ele><time>2026-04-05T16:09:39.999Z</time></trkpt><trkpt lat="44.17834128349633" lon="9.589078744545697"><ele>154.0</ele><time>2026-04-05T16:09:40.999Z</time></trkpt><trkpt lat="44.17840295987465" lon="9.58919793524223"><ele>157.0</ele><time>2026-04-05T16:09:41.999Z</time></trkpt><trkpt lat="44.17843620531201" lon="9.589345341653074"><ele>160.0</ele><time>2026-04-05T16:09:42.999Z</time></trkpt><trkpt lat="44.178480586213574" lon="9.589472425448989"><ele>161.8</ele><time>2026-04-05T16:09:43.999Z</time></trkpt><trkpt lat="44.178526811016376" lon="9.589604788760408"><ele>163.6</ele><time>2026-04-05T16:09:44.999Z</time></trkpt><trkpt lat="44.17857303752293" lon="9.589732508734857"><ele>165.39999999999998</ele><time>2026-04-05T16:09:45.999Z</time></trkpt><trkpt lat="44.17863380275848" lon="9.589849967151713"><ele>167.2</ele><time>2026-04-05T16:09:46.999Z</time></trkpt><trkpt lat="44.17867873126543" lon="9.589972644984583"><ele>169.0</ele><time>2026-04-05T16:09:47.999Z</time></trkpt><trkpt lat="44.178710296222164" lon="9.590111843739102"><ele>169.0</ele><time>2026-04-05T16:09:48.999Z</time></trkpt><trkpt lat="44.17873095718059" lon="9.590242681860573"><ele>169.0</ele><time>2026-04-05T16:09:49.999Z</time></trkpt><trkpt lat="44.178757132798964" lon="9.590363532039826"><ele>169.0</ele><time>2026-04-05T16:09:50.999Z</time></trkpt><trkpt lat="44.17877832918859" lon="9.590485418113957"><ele>169.0</ele><time>2026-04-05T16:09:51.999Z</time></trkpt><trkpt lat="44.17878744608492" lon="9.590613437340245"><ele>169.0</ele><time>2026-04-05T16:09:52.999Z</time></trkpt><trkpt lat="44.17879803872577" lon="9.590753190768424"><ele>170.66666666666669</ele><time>2026-04-05T16:09:53.999Z</time></trkpt><trkpt lat="44.178796503295125" lon="9.59087997618721"><ele>172.33333333333334</ele><time>2026-04-05T16:09:54.999Z</time></trkpt><trkpt lat="44.17878518398801" lon="9.591008243165371"><ele>174.0</ele><time>2026-04-05T16:09:55.999Z</time></trkpt><trkpt lat="44.178782337046016" lon="9.59112994787169"><ele>175.66666666666666</ele><time>2026-04-05T16:09:56.999Z</time></trkpt><trkpt lat="44.178760868334116" lon="9.591249143125264"><ele>177.33333333333331</ele><time>2026-04-05T16:09:57.999Z</time></trkpt><trkpt lat="44.17875523741419" lon="9.591360823875629"><ele>179.0</ele><time>2026-04-05T16:09:58.999Z</time></trkpt><trkpt lat="44.17875028395018" lon="9.591456919319217"><ele>178.66666666666666</ele><time>2026-04-05T16:09:59.999Z</time></trkpt><trkpt lat="44.17875860702939" lon="9.591643254039667"><ele>178.33333333333331</ele><time>2026-04-05T16:10:01.999Z</time></trkpt><trkpt lat="44.178787939203" lon="9.591745848453352"><ele>178.0</ele><time>2026-04-05T16:10:02.999Z</time></trkpt><trkpt lat="44.17881925221669" lon="9.591851567391796"><ele>177.66666666666666</ele><time>2026-04-05T16:10:03.999Z</time></trkpt><trkpt lat="44.17884793413448" lon="9.591950910673726"><ele>177.33333333333334</ele><time>2026-04-05T16:10:04.999Z</time></trkpt><trkpt lat="44.17887309412756" lon="9.592048094435816"><ele>177.0</ele><time>2026-04-05T16:10:05.999Z</time></trkpt><trkpt lat="44.17889340223703" lon="9.592184264245413"><ele>177.0</ele><time>2026-04-05T16:10:07.999Z</time></trkpt><trkpt lat="44.178899765329156" lon="9.592284225690284"><ele>177.0</ele><time>2026-04-05T16:10:09.999Z</time></trkpt><trkpt lat="44.17890501644841" lon="9.592373750027114"><ele>177.0</ele><time>2026-04-05T16:10:11.999Z</time></trkpt><trkpt lat="44.178911352386244" lon="9.592472344160822"><ele>177.0</ele><time>2026-04-05T16:10:15.999Z</time></trkpt><trkpt lat="44.17892680054867" lon="9.592633670379104"><ele>177.0</ele><time>2026-04-05T16:10:18.999Z</time></trkpt><trkpt lat="44.17893731515366" lon="9.592733382163981"><ele>177.0</ele><time>2026-04-05T16:10:19.999Z</time></trkpt><trkpt lat="44.178962338855584" lon="9.592843602628779"><ele>175.0</ele><time>2026-04-05T16:10:20.999Z</time></trkpt><trkpt lat="44.17895890458395" lon="9.592968711854688"><ele>173.0</ele><time>2026-04-05T16:10:21.999Z</time></trkpt><trkpt lat="44.178968085577175" lon="9.59312045066429"><ele>171.0</ele><time>2026-04-05T16:10:22.999Z</time></trkpt><trkpt lat="44.17897877404598" lon="9.593274292504242"><ele>169.0</ele><time>2026-04-05T16:10:23.999Z</time></trkpt><trkpt lat="44.17898988746424" lon="9.593432888932394"><ele>167.0</ele><time>2026-04-05T16:10:24.999Z</time></trkpt><trkpt lat="44.1790034761924" lon="9.593593986796712"><ele>171.0</ele><time>2026-04-05T16:10:25.999Z</time></trkpt><trkpt lat="44.179022286768145" lon="9.593751716719913"><ele>175.0</ele><time>2026-04-05T16:10:26.999Z</time></trkpt><trkpt lat="44.17905617650055" lon="9.593914505769876"><ele>179.0</ele><time>2026-04-05T16:10:27.999Z</time></trkpt><trkpt lat="44.17909333833244" lon="9.594059172225885"><ele>183.0</ele><time>2026-04-05T16:10:28.999Z</time></trkpt><trkpt lat="44.17912453344049" lon="9.59417725447426"><ele>187.0</ele><time>2026-04-05T16:10:29.999Z</time></trkpt><trkpt lat="44.179163866317886" lon="9.594326140261462"><ele>187.0</ele><time>2026-04-05T16:10:31.999Z</time></trkpt><trkpt lat="44.17920160129704" lon="9.594469069496544"><ele>187.0</ele><time>2026-04-05T16:10:33.999Z</time></trkpt><trkpt lat="44.17923683459271" lon="9.594544239702183"><ele>187.0</ele><time>2026-04-05T16:10:34.999Z</time></trkpt><trkpt lat="44.179279247792024" lon="9.594718264079397"><ele>187.0</ele><time>2026-04-05T16:10:36.999Z</time></trkpt><trkpt lat="44.179308584523035" lon="9.594830535280535"><ele>187.0</ele><time>2026-04-05T16:10:37.999Z</time></trkpt><trkpt lat="44.17933900897217" lon="9.594953624081223"><ele>186.66666666666669</ele><time>2026-04-05T16:10:38.999Z</time></trkpt><trkpt lat="44.17935951483509" lon="9.595069866209409"><ele>186.33333333333334</ele><time>2026-04-05T16:10:39.999Z</time></trkpt><trkpt lat="44.17938421054347" lon="9.595163823428392"><ele>186.0</ele><time>2026-04-05T16:10:40.999Z</time></trkpt><trkpt lat="44.179408147040476" lon="9.595254891796346"><ele>185.66666666666666</ele><time>2026-04-05T16:10:41.998Z</time></trkpt><trkpt lat="44.179440616001905" lon="9.595338168439197"><ele>185.33333333333331</ele><time>2026-04-05T16:10:42.998Z</time></trkpt><trkpt lat="44.1794709405636" lon="9.59544400376638"><ele>185.0</ele><time>2026-04-05T16:10:43.998Z</time></trkpt><trkpt lat="44.17949685338355" lon="9.595544349163466"><ele>185.0</ele><time>2026-04-05T16:10:44.998Z</time></trkpt><trkpt lat="44.17952059408904" lon="9.595655495861777"><ele>185.0</ele><time>2026-04-05T16:10:45.998Z</time></trkpt><trkpt lat="44.17954069146822" lon="9.59574892330777"><ele>185.0</ele><time>2026-04-05T16:10:47Z</time></trkpt><trkpt lat="44.179571794398306" lon="9.595885149160202"><ele>185.0</ele><time>2026-04-05T16:10:49Z</time></trkpt><trkpt lat="44.17959236783382" lon="9.595981711420677"><ele>185.0</ele><time>2026-04-05T16:10:51Z</time></trkpt><trkpt lat="44.179609623735736" lon="9.596074377154928"><ele>185.0</ele><time>2026-04-05T16:10:54Z</time></trkpt><trkpt lat="44.179614687752895" lon="9.59616421953934"><ele>185.0</ele><time>2026-04-05T16:10:55Z</time></trkpt><trkpt lat="44.17963536758793" lon="9.596268787018506"><ele>185.0</ele><time>2026-04-05T16:10:56Z</time></trkpt><trkpt lat="44.17964178443214" lon="9.596361369118785"><ele>185.0</ele><time>2026-04-05T16:10:57Z</time></trkpt><trkpt lat="44.17964252386827" lon="9.596472235881132"><ele>185.0</ele><time>2026-04-05T16:10:59Z</time></trkpt><trkpt lat="44.17969818939788" lon="9.596341938573794"><ele>185.0</ele><time>2026-04-05T16:12:13.999Z</time></trkpt><trkpt lat="44.17970495029787" lon="9.596246060083557"><ele>185.0</ele><time>2026-04-05T16:12:14.999Z</time></trkpt><trkpt lat="44.179713366141605" lon="9.596131173015229"><ele>185.0</ele><time>2026-04-05T16:12:15.999Z</time></trkpt><trkpt lat="44.179721704916325" lon="9.595999837968268"><ele>185.0</ele><time>2026-04-05T16:12:16.999Z</time></trkpt><trkpt lat="44.17972639285669" lon="9.595859531931321"><ele>185.0</ele><time>2026-04-05T16:12:17.999Z</time></trkpt><trkpt lat="44.179714015682805" lon="9.595721805886113"><ele>185.0</ele><time>2026-04-05T16:12:18.999Z</time></trkpt><trkpt lat="44.17971286256076" lon="9.595575259820338"><ele>185.0</ele><time>2026-04-05T16:12:19.999Z</time></trkpt><trkpt lat="44.179708528966884" lon="9.595430294621572"><ele>185.0</ele><time>2026-04-05T16:12:20.999Z</time></trkpt><trkpt lat="44.17971528036089" lon="9.595277726427428"><ele>185.0</ele><time>2026-04-05T16:12:21.999Z</time></trkpt><trkpt lat="44.17973797374126" lon="9.595122170180758"><ele>185.0</ele><time>2026-04-05T16:12:22.999Z</time></trkpt><trkpt lat="44.1797409162034" lon="9.59498945040483"><ele>185.0</ele><time>2026-04-05T16:12:23.999Z</time></trkpt><trkpt lat="44.17974736660452" lon="9.594861928124681"><ele>185.0</ele><time>2026-04-05T16:12:24.999Z</time></trkpt><trkpt lat="44.17975728077978" lon="9.59475622351241"><ele>184.99999999999997</ele><time>2026-04-05T16:12:25.999Z</time></trkpt><trkpt lat="44.17977113246782" lon="9.594661797987998"><ele>185.0</ele><time>2026-04-05T16:12:26.999Z</time></trkpt><trkpt lat="44.17980515690285" lon="9.594572939773952"><ele>185.0</ele><time>2026-04-05T16:12:27.999Z</time></trkpt><trkpt lat="44.17986928428552" lon="9.594510747283666"><ele>185.0</ele><time>2026-04-05T16:12:28.999Z</time></trkpt><trkpt lat="44.17993189074249" lon="9.594464193351703"><ele>185.0</ele><time>2026-04-05T16:12:29.999Z</time></trkpt><trkpt lat="44.17999846407139" lon="9.594429646426532"><ele>184.99999999999997</ele><time>2026-04-05T16:12:30.999Z</time></trkpt><trkpt lat="44.18006287017345" lon="9.59437706715382"><ele>185.0</ele><time>2026-04-05T16:12:31.999Z</time></trkpt><trkpt lat="44.18012860411118" lon="9.594315032574979"><ele>189.2</ele><time>2026-04-05T16:12:32.999Z</time></trkpt><trkpt lat="44.18019625478261" lon="9.594250760457328"><ele>193.4</ele><time>2026-04-05T16:12:33.999Z</time></trkpt><trkpt lat="44.18026875242418" lon="9.594186739789981"><ele>197.60000000000002</ele><time>2026-04-05T16:12:34.999Z</time></trkpt><trkpt lat="44.18034546773789" lon="9.594109286224981"><ele>201.8</ele><time>2026-04-05T16:12:35.999Z</time></trkpt><trkpt lat="44.1804250533599" lon="9.594025917498493"><ele>206.0</ele><time>2026-04-05T16:12:36.999Z</time></trkpt><trkpt lat="44.180504111928876" lon="9.593928391844187"><ele>206.0</ele><time>2026-04-05T16:12:37.999Z</time></trkpt><trkpt lat="44.18058336332962" lon="9.59381979484767"><ele>206.0</ele><time>2026-04-05T16:12:38.999Z</time></trkpt><trkpt lat="44.18065768024659" lon="9.593701190478994"><ele>206.0</ele><time>2026-04-05T16:12:39.999Z</time></trkpt><trkpt lat="44.18072772158099" lon="9.59357132756368"><ele>206.0</ele><time>2026-04-05T16:12:40.999Z</time></trkpt><trkpt lat="44.180798875455096" lon="9.593441593142792"><ele>208.60000000000002</ele><time>2026-04-05T16:12:41.999Z</time></trkpt><trkpt lat="44.18086065310976" lon="9.593328401221681"><ele>211.2</ele><time>2026-04-05T16:12:42.999Z</time></trkpt><trkpt lat="44.18092025067638" lon="9.593218407726898"><ele>213.79999999999998</ele><time>2026-04-05T16:12:43.999Z</time></trkpt><trkpt lat="44.18098239510924" lon="9.593108086276878"><ele>216.39999999999998</ele><time>2026-04-05T16:12:44.998Z</time></trkpt><trkpt lat="44.18104525562624" lon="9.592993904309013"><ele>219.0</ele><time>2026-04-05T16:12:45.998Z</time></trkpt><trkpt lat="44.181110497138505" lon="9.592880121397197"><ele>219.33333333333334</ele><time>2026-04-05T16:12:46.998Z</time></trkpt><trkpt lat="44.18117353635215" lon="9.59278373547051"><ele>219.66666666666669</ele><time>2026-04-05T16:12:47.998Z</time></trkpt><trkpt lat="44.181230815476106" lon="9.59270829885468"><ele>220.0</ele><time>2026-04-05T16:12:48.998Z</time></trkpt><trkpt lat="44.18130352503621" lon="9.59266854127618"><ele>220.33333333333334</ele><time>2026-04-05T16:12:49.998Z</time></trkpt><trkpt lat="44.1813946213599" lon="9.592672977516324"><ele>220.66666666666669</ele><time>2026-04-05T16:12:50.998Z</time></trkpt><trkpt lat="44.181483033627046" lon="9.592682912147898"><ele>221.0</ele><time>2026-04-05T16:12:51.998Z</time></trkpt><trkpt lat="44.181570329028055" lon="9.592705358672232"><ele>221.00000000000003</ele><time>2026-04-05T16:12:53Z</time></trkpt><trkpt lat="44.181663709222015" lon="9.592727855082053"><ele>221.0</ele><time>2026-04-05T16:12:54Z</time></trkpt><trkpt lat="44.18175074283244" lon="9.592731927888009"><ele>221.0</ele><time>2026-04-05T16:12:55Z</time></trkpt><trkpt lat="44.181822459807584" lon="9.592740136005927"><ele>221.0</ele><time>2026-04-05T16:12:56Z</time></trkpt><trkpt lat="44.18189973409842" lon="9.592750583674185"><ele>221.00000000000003</ele><time>2026-04-05T16:12:57Z</time></trkpt><trkpt lat="44.18196850025391" lon="9.592690315798157"><ele>221.0</ele><time>2026-04-05T16:12:58Z</time></trkpt><trkpt lat="44.182011692156436" lon="9.592591038337455"><ele>221.0</ele><time>2026-04-05T16:12:59Z</time></trkpt><trkpt lat="44.1820523719016" lon="9.592480860693824"><ele>221.00000000000003</ele><time>2026-04-05T16:13:00Z</time></trkpt><trkpt lat="44.18209496884943" lon="9.592341374115636"><ele>221.00000000000003</ele><time>2026-04-05T16:13:01Z</time></trkpt><trkpt lat="44.1821596299347" lon="9.59222928711135"><ele>221.0</ele><time>2026-04-05T16:13:02Z</time></trkpt><trkpt lat="44.18221309913476" lon="9.592112485952569"><ele>221.0</ele><time>2026-04-05T16:13:03Z</time></trkpt><trkpt lat="44.18227475901237" lon="9.592010715287628"><ele>221.33333333333334</ele><time>2026-04-05T16:13:04Z</time></trkpt><trkpt lat="44.1823541790447" lon="9.59195641740524"><ele>221.66666666666669</ele><time>2026-04-05T16:13:05Z</time></trkpt><trkpt lat="44.18243051657567" lon="9.591925925006674"><ele>222.0</ele><time>2026-04-05T16:13:06Z</time></trkpt><trkpt lat="44.18250708792694" lon="9.591907864059943"><ele>222.33333333333331</ele><time>2026-04-05T16:13:07Z</time></trkpt><trkpt lat="44.182588755375946" lon="9.591893300670435"><ele>222.66666666666666</ele><time>2026-04-05T16:13:08Z</time></trkpt><trkpt lat="44.18267618856555" lon="9.591880098015071"><ele>223.0</ele><time>2026-04-05T16:13:09Z</time></trkpt><trkpt lat="44.18276766968002" lon="9.591870594935457"><ele>223.0</ele><time>2026-04-05T16:13:10Z</time></trkpt><trkpt lat="44.18286487848058" lon="9.591841500380383"><ele>223.0</ele><time>2026-04-05T16:13:11Z</time></trkpt><trkpt lat="44.18295181520827" lon="9.591741384353382"><ele>223.0</ele><time>2026-04-05T16:13:12Z</time></trkpt><trkpt lat="44.18303508601117" lon="9.591640561466658"><ele>223.0</ele><time>2026-04-05T16:13:13Z</time></trkpt><trkpt lat="44.18310852047493" lon="9.591524131858279"><ele>223.0</ele><time>2026-04-05T16:13:14Z</time></trkpt><trkpt lat="44.1831761504949" lon="9.591397533492238"><ele>224.60000000000002</ele><time>2026-04-05T16:13:15Z</time></trkpt><trkpt lat="44.18323292836212" lon="9.591249564283748"><ele>226.20000000000002</ele><time>2026-04-05T16:13:16Z</time></trkpt><trkpt lat="44.18327857112436" lon="9.591090963991496"><ele>227.8</ele><time>2026-04-05T16:13:17Z</time></trkpt><trkpt lat="44.18332954364026" lon="9.590959694031895"><ele>229.4</ele><time>2026-04-05T16:13:18Z</time></trkpt><trkpt lat="44.18337180870402" lon="9.590849317211168"><ele>231.0</ele><time>2026-04-05T16:13:19Z</time></trkpt><trkpt lat="44.183424139376235" lon="9.590748911553883"><ele>231.0</ele><time>2026-04-05T16:13:20Z</time></trkpt><trkpt lat="44.183501227370726" lon="9.590694547303038"><ele>231.0</ele><time>2026-04-05T16:13:21Z</time></trkpt><trkpt lat="44.18358228357738" lon="9.59067729511301"><ele>231.0</ele><time>2026-04-05T16:13:22Z</time></trkpt><trkpt lat="44.18367092356065" lon="9.59069703495642"><ele>231.0</ele><time>2026-04-05T16:13:23Z</time></trkpt><trkpt lat="44.183741645212876" lon="9.590750840525802"><ele>231.0</ele><time>2026-04-05T16:13:24Z</time></trkpt><trkpt lat="44.183811469850234" lon="9.590830545330142"><ele>231.0</ele><time>2026-04-05T16:13:25Z</time></trkpt><trkpt lat="44.183882324694935" lon="9.590942296761774"><ele>231.0</ele><time>2026-04-05T16:13:26Z</time></trkpt><trkpt lat="44.183952069500734" lon="9.591063811528088"><ele>231.0</ele><time>2026-04-05T16:13:27Z</time></trkpt><trkpt lat="44.18402524292794" lon="9.591195916442862"><ele>231.0</ele><time>2026-04-05T16:13:28Z</time></trkpt><trkpt lat="44.18408735335308" lon="9.591337217999646"><ele>231.0</ele><time>2026-04-05T16:13:29Z</time></trkpt><trkpt lat="44.18412779144819" lon="9.591501136499057"><ele>239.0</ele><time>2026-04-05T16:13:30Z</time></trkpt><trkpt lat="44.18416499602803" lon="9.59168075993256"><ele>247.0</ele><time>2026-04-05T16:13:31Z</time></trkpt><trkpt lat="44.18421931955085" lon="9.591856911181269"><ele>255.0</ele><time>2026-04-05T16:13:32Z</time></trkpt><trkpt lat="44.18430699830345" lon="9.592021848599904"><ele>263.0</ele><time>2026-04-05T16:13:33Z</time></trkpt><trkpt lat="44.18439620558756" lon="9.592160144947849"><ele>268.75</ele><time>2026-04-05T16:13:34Z</time></trkpt><trkpt lat="44.1844880441917" lon="9.592300687820698"><ele>274.5</ele><time>2026-04-05T16:13:35Z</time></trkpt><trkpt lat="44.184580431997915" lon="9.592442072480868"><ele>280.25</ele><time>2026-04-05T16:13:36Z</time></trkpt><trkpt lat="44.18467116644585" lon="9.592585521742386"><ele>286.0</ele><time>2026-04-05T16:13:37Z</time></trkpt><trkpt lat="44.18475966036462" lon="9.592740086929537"><ele>284.0</ele><time>2026-04-05T16:13:38Z</time></trkpt><trkpt lat="44.18484026509358" lon="9.592880621557269"><ele>282.0</ele><time>2026-04-05T16:13:39Z</time></trkpt><trkpt lat="44.18490313247691" lon="9.592990230838655"><ele>280.0</ele><time>2026-04-05T16:13:40Z</time></trkpt><trkpt lat="44.18496638971407" lon="9.593098474633406"><ele>278.0</ele><time>2026-04-05T16:13:41Z</time></trkpt><trkpt lat="44.18503151991873" lon="9.593205642375665"><ele>276.0</ele><time>2026-04-05T16:13:42Z</time></trkpt><trkpt lat="44.18510452371969" lon="9.593288676421366"><ele>276.0</ele><time>2026-04-05T16:13:42.999Z</time></trkpt><trkpt lat="44.18519801194741" lon="9.593323680140198"><ele>276.0</ele><time>2026-04-05T16:13:43.999Z</time></trkpt><trkpt lat="44.18529676193909" lon="9.593295095068859"><ele>276.0</ele><time>2026-04-05T16:13:44.999Z</time></trkpt><trkpt lat="44.1853855418788" lon="9.593226909577801"><ele>276.0</ele><time>2026-04-05T16:13:45.999Z</time></trkpt><trkpt lat="44.18547041449285" lon="9.593184458963902"><ele>276.0</ele><time>2026-04-05T16:13:46.999Z</time></trkpt><trkpt lat="44.185547147988096" lon="9.593177527213955"><ele>276.0</ele><time>2026-04-05T16:13:47.999Z</time></trkpt><trkpt lat="44.18560187791262" lon="9.593269707597525"><ele>276.0</ele><time>2026-04-05T16:13:48.999Z</time></trkpt><trkpt lat="44.18561952020737" lon="9.593372439941335"><ele>276.0</ele><time>2026-04-05T16:13:49.999Z</time></trkpt><trkpt lat="44.185661755252156" lon="9.593490495920737"><ele>276.0</ele><time>2026-04-05T16:13:50.999Z</time></trkpt><trkpt lat="44.185744007043766" lon="9.593583019490875"><ele>276.0</ele><time>2026-04-05T16:13:51.999Z</time></trkpt><trkpt lat="44.18582241977625" lon="9.593661384946763"><ele>279.8</ele><time>2026-04-05T16:13:52.999Z</time></trkpt><trkpt lat="44.18590016807201" lon="9.593745255111482"><ele>283.6</ele><time>2026-04-05T16:13:53.999Z</time></trkpt><trkpt lat="44.18597452522218" lon="9.593826372106072"><ele>287.4</ele><time>2026-04-05T16:13:54.999Z</time></trkpt><trkpt lat="44.186062194356126" lon="9.593883766045101"><ele>291.2</ele><time>2026-04-05T16:13:55.999Z</time></trkpt><trkpt lat="44.18616474017702" lon="9.593846780877094"><ele>295.0</ele><time>2026-04-05T16:13:56.999Z</time></trkpt><trkpt lat="44.18624816115931" lon="9.593745587309323"><ele>295.0</ele><time>2026-04-05T16:13:57.999Z</time></trkpt><trkpt lat="44.186323679240765" lon="9.593672617771883"><ele>295.0</ele><time>2026-04-05T16:13:58.999Z</time></trkpt><trkpt lat="44.18640265040813" lon="9.59359631156745"><ele>295.0</ele><time>2026-04-05T16:13:59.999Z</time></trkpt><trkpt lat="44.18648472649193" lon="9.593521168081832"><ele>295.0</ele><time>2026-04-05T16:14:00.999Z</time></trkpt><trkpt lat="44.18657407159828" lon="9.593445254094387"><ele>295.0</ele><time>2026-04-05T16:14:01.999Z</time></trkpt><trkpt lat="44.18665847142405" lon="9.593398239231993"><ele>294.8333333333333</ele><time>2026-04-05T16:14:02.999Z</time></trkpt><trkpt lat="44.186739370052315" lon="9.593398063632103"><ele>294.66666666666663</ele><time>2026-04-05T16:14:03.999Z</time></trkpt><trkpt lat="44.18682394899806" lon="9.593436806816538"><ele>294.5</ele><time>2026-04-05T16:14:04.999Z</time></trkpt><trkpt lat="44.18688353714317" lon="9.593497249342473"><ele>294.3333333333333</ele><time>2026-04-05T16:14:05.999Z</time></trkpt><trkpt lat="44.18693418028782" lon="9.59357033297452"><ele>294.1666666666667</ele><time>2026-04-05T16:14:06.999Z</time></trkpt><trkpt lat="44.18698033980305" lon="9.593656018358239"><ele>294.0</ele><time>2026-04-05T16:14:07.999Z</time></trkpt><trkpt lat="44.18702958620559" lon="9.593756933901183"><ele>294.0</ele><time>2026-04-05T16:14:08.999Z</time></trkpt><trkpt lat="44.18707644337145" lon="9.59385087351838"><ele>294.0</ele><time>2026-04-05T16:14:09.999Z</time></trkpt><trkpt lat="44.18712591683745" lon="9.593940692362834"><ele>294.0</ele><time>2026-04-05T16:14:10.999Z</time></trkpt><trkpt lat="44.18719200368797" lon="9.594027516555757"><ele>294.0</ele><time>2026-04-05T16:14:11.999Z</time></trkpt><trkpt lat="44.187278640020544" lon="9.594090962378612"><ele>294.0</ele><time>2026-04-05T16:14:12.999Z</time></trkpt><trkpt lat="44.18735584032713" lon="9.59416084925788"><ele>294.0</ele><time>2026-04-05T16:14:13.999Z</time></trkpt><trkpt lat="44.1874337688079" lon="9.594238044807998"><ele>292.4</ele><time>2026-04-05T16:14:14.999Z</time></trkpt><trkpt lat="44.18750339147923" lon="9.594309897747978"><ele>290.79999999999995</ele><time>2026-04-05T16:14:15.999Z</time></trkpt><trkpt lat="44.18757014999745" lon="9.594382800912696"><ele>289.20000000000005</ele><time>2026-04-05T16:14:16.999Z</time></trkpt><trkpt lat="44.18764112963623" lon="9.594468255399983"><ele>287.6</ele><time>2026-04-05T16:14:17.999Z</time></trkpt><trkpt lat="44.18770882717383" lon="9.594568880773698"><ele>286.0</ele><time>2026-04-05T16:14:18.999Z</time></trkpt><trkpt lat="44.18777210939787" lon="9.594687861425301"><ele>289.40000000000003</ele><time>2026-04-05T16:14:19.999Z</time></trkpt><trkpt lat="44.18781294642903" lon="9.594816390577334"><ele>292.8</ele><time>2026-04-05T16:14:20.999Z</time></trkpt><trkpt lat="44.187860783945865" lon="9.594935580126526"><ele>296.20000000000005</ele><time>2026-04-05T16:14:21.999Z</time></trkpt><trkpt lat="44.187883437995865" lon="9.595064715851096"><ele>299.6</ele><time>2026-04-05T16:14:22.999Z</time></trkpt><trkpt lat="44.18788914545901" lon="9.595186937438779"><ele>303.0</ele><time>2026-04-05T16:14:23.999Z</time></trkpt><trkpt lat="44.187894807397946" lon="9.59532060460209"><ele>302.2</ele><time>2026-04-05T16:14:24.999Z</time></trkpt><trkpt lat="44.187888004935786" lon="9.595432281458462"><ele>301.4</ele><time>2026-04-05T16:14:25.999Z</time></trkpt><trkpt lat="44.1879607059722" lon="9.59555625526526"><ele>300.59999999999997</ele><time>2026-04-05T16:14:27.999Z</time></trkpt><trkpt lat="44.188047549770026" lon="9.59556713427036"><ele>299.8</ele><time>2026-04-05T16:14:28.999Z</time></trkpt><trkpt lat="44.18814426996247" lon="9.59560209135885"><ele>299.0</ele><time>2026-04-05T16:14:29.999Z</time></trkpt><trkpt lat="44.188207783103564" lon="9.595638200866913"><ele>299.0</ele><time>2026-04-05T16:14:30.999Z</time></trkpt><trkpt lat="44.18825873578968" lon="9.5956985614692"><ele>299.0</ele><time>2026-04-05T16:14:31.999Z</time></trkpt><trkpt lat="44.188313096091" lon="9.595785815839793"><ele>299.0</ele><time>2026-04-05T16:14:32.999Z</time></trkpt><trkpt lat="44.188350790960946" lon="9.595873091651375"><ele>299.0</ele><time>2026-04-05T16:14:33.999Z</time></trkpt><trkpt lat="44.188386528590776" lon="9.595986389177986"><ele>299.0</ele><time>2026-04-05T16:14:34.999Z</time></trkpt><trkpt lat="44.188409816140776" lon="9.596091426465966"><ele>299.0</ele><time>2026-04-05T16:14:35.999Z</time></trkpt><trkpt lat="44.18842940718217" lon="9.596204470110575"><ele>301.5</ele><time>2026-04-05T16:14:36.999Z</time></trkpt><trkpt lat="44.18844207048881" lon="9.596315957600424"><ele>304.0</ele><time>2026-04-05T16:14:37.999Z</time></trkpt><trkpt lat="44.18846521290215" lon="9.596439562487316"><ele>306.5</ele><time>2026-04-05T16:14:38.999Z</time></trkpt><trkpt lat="44.18848999092023" lon="9.596556843160473"><ele>309.0</ele><time>2026-04-05T16:14:39.999Z</time></trkpt><trkpt lat="44.18851513379847" lon="9.596675850238096"><ele>311.5</ele><time>2026-04-05T16:14:40.999Z</time></trkpt><trkpt lat="44.188558191558656" lon="9.596790095828085"><ele>314.0</ele><time>2026-04-05T16:14:41.999Z</time></trkpt><trkpt lat="44.18857371194913" lon="9.596909634206249"><ele>314.0</ele><time>2026-04-05T16:14:42.999Z</time></trkpt><trkpt lat="44.18862333673371" lon="9.59698658005121"><ele>314.0</ele><time>2026-04-05T16:14:43.999Z</time></trkpt><trkpt lat="44.1887505457811" lon="9.596969381572395"><ele>314.0</ele><time>2026-04-05T16:14:44.999Z</time></trkpt><trkpt lat="44.18881597906863" lon="9.596858528279785"><ele>314.0</ele><time>2026-04-05T16:14:45.998Z</time></trkpt><trkpt lat="44.18886350458567" lon="9.596759612886146"><ele>314.0</ele><time>2026-04-05T16:14:46.998Z</time></trkpt><trkpt lat="44.18891624453676" lon="9.596652780735676"><ele>314.0</ele><time>2026-04-05T16:14:47.998Z</time></trkpt><trkpt lat="44.18897683739161" lon="9.596541933578425"><ele>314.0</ele><time>2026-04-05T16:14:48.998Z</time></trkpt><trkpt lat="44.18905758574202" lon="9.596453915815841"><ele>314.0</ele><time>2026-04-05T16:14:49.998Z</time></trkpt><trkpt lat="44.18914668327698" lon="9.596358185264469"><ele>314.0</ele><time>2026-04-05T16:14:50.998Z</time></trkpt><trkpt lat="44.18923702211686" lon="9.596272353566958"><ele>314.0</ele><time>2026-04-05T16:14:51.998Z</time></trkpt><trkpt lat="44.1893475495701" lon="9.596241023849965"><ele>314.0</ele><time>2026-04-05T16:14:52.998Z</time></trkpt><trkpt lat="44.189451198564335" lon="9.596218756185229"><ele>314.0</ele><time>2026-04-05T16:14:53.998Z</time></trkpt><trkpt lat="44.18953112185984" lon="9.596213379040325"><ele>314.0</ele><time>2026-04-05T16:14:54.998Z</time></trkpt><trkpt lat="44.18960526580633" lon="9.596191268511609"><ele>314.0</ele><time>2026-04-05T16:14:55.998Z</time></trkpt><trkpt lat="44.189680175468496" lon="9.596162249150014"><ele>314.0</ele><time>2026-04-05T16:14:56.998Z</time></trkpt><trkpt lat="44.189760229908714" lon="9.596129576701342"><ele>314.0</ele><time>2026-04-05T16:14:57.998Z</time></trkpt><trkpt lat="44.18984338422772" lon="9.596087647843465"><ele>312.59999999999997</ele><time>2026-04-05T16:14:59Z</time></trkpt><trkpt lat="44.18993310663337" lon="9.596053047488548"><ele>311.2</ele><time>2026-04-05T16:15:00Z</time></trkpt><trkpt lat="44.1900361243737" lon="9.596037095883815"><ele>309.79999999999995</ele><time>2026-04-05T16:15:01Z</time></trkpt><trkpt lat="44.190134103563686" lon="9.59603935614592"><ele>308.4</ele><time>2026-04-05T16:15:02Z</time></trkpt><trkpt lat="44.19023658987695" lon="9.59607413107335"><ele>307.0</ele><time>2026-04-05T16:15:03Z</time></trkpt><trkpt lat="44.1903240616454" lon="9.59612770022996"><ele>311.6</ele><time>2026-04-05T16:15:04Z</time></trkpt><trkpt lat="44.19038089023222" lon="9.596241615737485"><ele>316.2</ele><time>2026-04-05T16:15:05Z</time></trkpt><trkpt lat="44.19043785942886" lon="9.596365538815741"><ele>320.8</ele><time>2026-04-05T16:15:06Z</time></trkpt><trkpt lat="44.19048890943331" lon="9.59648672322418"><ele>325.4</ele><time>2026-04-05T16:15:07Z</time></trkpt><trkpt lat="44.19052465322635" lon="9.596609390597202"><ele>330.0</ele><time>2026-04-05T16:15:08Z</time></trkpt><trkpt lat="44.190571075129505" lon="9.596734906628912"><ele>330.0</ele><time>2026-04-05T16:15:09Z</time></trkpt><trkpt lat="44.19062125258276" lon="9.59685708324466"><ele>330.0</ele><time>2026-04-05T16:15:10Z</time></trkpt><trkpt lat="44.19069044153828" lon="9.596972216203474"><ele>330.0</ele><time>2026-04-05T16:15:11Z</time></trkpt><trkpt lat="44.19077787008077" lon="9.59706156562566"><ele>330.0</ele><time>2026-04-05T16:15:12Z</time></trkpt><trkpt lat="44.190873586189674" lon="9.59714121801133"><ele>330.0</ele><time>2026-04-05T16:15:13Z</time></trkpt><trkpt lat="44.19097769125265" lon="9.597176963957267"><ele>333.0</ele><time>2026-04-05T16:15:14Z</time></trkpt><trkpt lat="44.19108351255241" lon="9.597183468654963"><ele>336.0</ele><time>2026-04-05T16:15:15Z</time></trkpt><trkpt lat="44.19118252994159" lon="9.597206900835548"><ele>339.0</ele><time>2026-04-05T16:15:16Z</time></trkpt><trkpt lat="44.19127775898195" lon="9.59726048157497"><ele>342.0</ele><time>2026-04-05T16:15:17Z</time></trkpt><trkpt lat="44.19137729507727" lon="9.597292990647913"><ele>345.0</ele><time>2026-04-05T16:15:18Z</time></trkpt><trkpt lat="44.191481835089924" lon="9.597339094088916"><ele>344.0</ele><time>2026-04-05T16:15:19Z</time></trkpt><trkpt lat="44.19158238589587" lon="9.597389995353153"><ele>343.0</ele><time>2026-04-05T16:15:20Z</time></trkpt><trkpt lat="44.19168450982477" lon="9.597430762841112"><ele>342.0</ele><time>2026-04-05T16:15:21Z</time></trkpt><trkpt lat="44.191768778849706" lon="9.597392093711711"><ele>341.0</ele><time>2026-04-05T16:15:22Z</time></trkpt><trkpt lat="44.19183204916234" lon="9.597318174657952"><ele>340.0</ele><time>2026-04-05T16:15:23Z</time></trkpt><trkpt lat="44.19185975082395" lon="9.597212467774106"><ele>340.0</ele><time>2026-04-05T16:15:24Z</time></trkpt><trkpt lat="44.19184457568078" lon="9.597099875945574"><ele>340.0</ele><time>2026-04-05T16:15:25Z</time></trkpt><trkpt lat="44.19179177452587" lon="9.597017647153862"><ele>340.0</ele><time>2026-04-05T16:15:26Z</time></trkpt><trkpt lat="44.191712312657" lon="9.59695951000799"><ele>340.0</ele><time>2026-04-05T16:15:27Z</time></trkpt><trkpt lat="44.19164797767368" lon="9.596866356248912"><ele>340.0</ele><time>2026-04-05T16:15:28Z</time></trkpt><trkpt lat="44.1915908257308" lon="9.596770009945445"><ele>340.0</ele><time>2026-04-05T16:15:29Z</time></trkpt><trkpt lat="44.191536622472746" lon="9.59668245371837"><ele>339.3333333333333</ele><time>2026-04-05T16:15:30Z</time></trkpt><trkpt lat="44.191499306275645" lon="9.596597810802063"><ele>338.66666666666663</ele><time>2026-04-05T16:15:31Z</time></trkpt><trkpt lat="44.191523287725616" lon="9.596431452178031"><ele>338.0</ele><time>2026-04-05T16:15:33Z</time></trkpt><trkpt lat="44.19158811988195" lon="9.596368401824922"><ele>337.3333333333333</ele><time>2026-04-05T16:15:34Z</time></trkpt><trkpt lat="44.191660178133965" lon="9.596333709373178"><ele>336.6666666666667</ele><time>2026-04-05T16:15:35Z</time></trkpt><trkpt lat="44.191740178967954" lon="9.59631412790642"><ele>336.0</ele><time>2026-04-05T16:15:36Z</time></trkpt><trkpt lat="44.19182677019125" lon="9.596303143008505"><ele>336.0</ele><time>2026-04-05T16:15:37Z</time></trkpt><trkpt lat="44.19190592250806" lon="9.596275329555633"><ele>336.0</ele><time>2026-04-05T16:15:38Z</time></trkpt><trkpt lat="44.1919845698157" lon="9.596253423095238"><ele>336.0</ele><time>2026-04-05T16:15:39Z</time></trkpt><trkpt lat="44.19206880131129" lon="9.596222912527839"><ele>336.0</ele><time>2026-04-05T16:15:40Z</time></trkpt><trkpt lat="44.19214677270225" lon="9.596177414238808"><ele>336.0</ele><time>2026-04-05T16:15:41Z</time></trkpt><trkpt lat="44.19223891691934" lon="9.596137777887803"><ele>336.0</ele><time>2026-04-05T16:15:42Z</time></trkpt><trkpt lat="44.192327961474" lon="9.596074092783772"><ele>337.6</ele><time>2026-04-05T16:15:43Z</time></trkpt><trkpt lat="44.19240396938848" lon="9.596002744558714"><ele>339.20000000000005</ele><time>2026-04-05T16:15:44Z</time></trkpt><trkpt lat="44.192462800536155" lon="9.595947620860311"><ele>340.79999999999995</ele><time>2026-04-05T16:15:45Z</time></trkpt><trkpt lat="44.19255617557406" lon="9.595989102735167"><ele>342.4</ele><time>2026-04-05T16:15:47Z</time></trkpt><trkpt lat="44.19252728790937" lon="9.596136312414613"><ele>344.0</ele><time>2026-04-05T16:15:48.999Z</time></trkpt><trkpt lat="44.192458966344766" lon="9.59619981714001"><ele>342.4</ele><time>2026-04-05T16:15:49.999Z</time></trkpt><trkpt lat="44.19237695486133" lon="9.596255063203534"><ele>340.79999999999995</ele><time>2026-04-05T16:15:50.999Z</time></trkpt><trkpt lat="44.19229807252493" lon="9.5963370758647"><ele>339.20000000000005</ele><time>2026-04-05T16:15:51.999Z</time></trkpt><trkpt lat="44.19222555283402" lon="9.596438544293528"><ele>337.6</ele><time>2026-04-05T16:15:52.999Z</time></trkpt><trkpt lat="44.19216153242923" lon="9.596517894551207"><ele>336.0</ele><time>2026-04-05T16:15:53.999Z</time></trkpt><trkpt lat="44.19213366716094" lon="9.596652084521788"><ele>336.0</ele><time>2026-04-05T16:15:55.999Z</time></trkpt><trkpt lat="44.192167018830474" lon="9.596742100817526"><ele>336.0</ele><time>2026-04-05T16:15:57.999Z</time></trkpt><trkpt lat="44.192230977748046" lon="9.596724736446738"><ele>336.0</ele><time>2026-04-05T16:17:34Z</time></trkpt><trkpt lat="44.19230058906917" lon="9.59663498427065"><ele>336.0</ele><time>2026-04-05T16:17:37Z</time></trkpt><trkpt lat="44.19239163316246" lon="9.59649107904628"><ele>336.0</ele><time>2026-04-05T16:17:39Z</time></trkpt><trkpt lat="44.19245108682034" lon="9.596417117791317"><ele>337.3333333333333</ele><time>2026-04-05T16:17:40Z</time></trkpt><trkpt lat="44.1925154269633" lon="9.596355062991849"><ele>338.6666666666667</ele><time>2026-04-05T16:17:41Z</time></trkpt><trkpt lat="44.19258570928306" lon="9.596290990839158"><ele>340.0</ele><time>2026-04-05T16:17:42Z</time></trkpt><trkpt lat="44.192647400156496" lon="9.596226639987755"><ele>341.33333333333337</ele><time>2026-04-05T16:17:43Z</time></trkpt><trkpt lat="44.192705829595305" lon="9.596152841903459"><ele>342.6666666666667</ele><time>2026-04-05T16:17:44Z</time></trkpt><trkpt lat="44.19276813817384" lon="9.5960782980096"><ele>344.0</ele><time>2026-04-05T16:17:45Z</time></trkpt><trkpt lat="44.192841529538065" lon="9.596029171830747"><ele>344.0</ele><time>2026-04-05T16:17:46Z</time></trkpt><trkpt lat="44.192925544327956" lon="9.596011166389154"><ele>344.0</ele><time>2026-04-05T16:17:47Z</time></trkpt><trkpt lat="44.19300947748635" lon="9.59600172609125"><ele>344.0</ele><time>2026-04-05T16:17:48Z</time></trkpt><trkpt lat="44.193091482355506" lon="9.595965058196478"><ele>344.0</ele><time>2026-04-05T16:17:48.999Z</time></trkpt><trkpt lat="44.19316329333337" lon="9.59589147361019"><ele>344.0</ele><time>2026-04-05T16:17:49.999Z</time></trkpt><trkpt lat="44.193216757592396" lon="9.595781208221661"><ele>344.0</ele><time>2026-04-05T16:17:50.999Z</time></trkpt><trkpt lat="44.19326000677313" lon="9.595662743432813"><ele>349.0</ele><time>2026-04-05T16:17:51.999Z</time></trkpt><trkpt lat="44.19333445612129" lon="9.595557764886056"><ele>354.0</ele><time>2026-04-05T16:17:52.999Z</time></trkpt><trkpt lat="44.19341756024556" lon="9.595459810439003"><ele>359.0</ele><time>2026-04-05T16:17:53.999Z</time></trkpt><trkpt lat="44.19349012288938" lon="9.595369442172142"><ele>364.0</ele><time>2026-04-05T16:17:54.999Z</time></trkpt><trkpt lat="44.1935382148703" lon="9.595291342493939"><ele>369.0</ele><time>2026-04-05T16:17:55.999Z</time></trkpt><trkpt lat="44.19356011893029" lon="9.595207473212405"><ele>370.0</ele><time>2026-04-05T16:17:56.999Z</time></trkpt><trkpt lat="44.19353151154761" lon="9.59511807335642"><ele>371.0</ele><time>2026-04-05T16:17:57.999Z</time></trkpt><trkpt lat="44.1934653207881" lon="9.595053954924534"><ele>372.0</ele><time>2026-04-05T16:17:58.999Z</time></trkpt><trkpt lat="44.19338039509826" lon="9.595038278226413"><ele>373.0</ele><time>2026-04-05T16:17:59.999Z</time></trkpt><trkpt lat="44.19329376705249" lon="9.5950509173532"><ele>374.0</ele><time>2026-04-05T16:18:00.999Z</time></trkpt><trkpt lat="44.19319737281111" lon="9.595035387781804"><ele>375.0</ele><time>2026-04-05T16:18:01.999Z</time></trkpt><trkpt lat="44.193095798106135" lon="9.595020115646639"><ele>370.8</ele><time>2026-04-05T16:18:02.999Z</time></trkpt><trkpt lat="44.19299785635673" lon="9.594981493362356"><ele>366.6</ele><time>2026-04-05T16:18:03.999Z</time></trkpt><trkpt lat="44.192917811342774" lon="9.59489979222296"><ele>362.4</ele><time>2026-04-05T16:18:04.999Z</time></trkpt><trkpt lat="44.192843529056496" lon="9.594814893689193"><ele>358.2</ele><time>2026-04-05T16:18:05.999Z</time></trkpt><trkpt lat="44.192759555969715" lon="9.594750095045569"><ele>354.0</ele><time>2026-04-05T16:18:06.999Z</time></trkpt><trkpt lat="44.19267168457339" lon="9.594704093098509"><ele>354.0</ele><time>2026-04-05T16:18:07.999Z</time></trkpt><trkpt lat="44.19257557487444" lon="9.594674658693087"><ele>354.0</ele><time>2026-04-05T16:18:08.999Z</time></trkpt><trkpt lat="44.19248507153264" lon="9.59462971503717"><ele>354.0</ele><time>2026-04-05T16:18:09.999Z</time></trkpt><trkpt lat="44.192396546191176" lon="9.594577177698673"><ele>354.0</ele><time>2026-04-05T16:18:10.999Z</time></trkpt><trkpt lat="44.192295629066216" lon="9.59455789642857"><ele>354.0</ele><time>2026-04-05T16:18:11.999Z</time></trkpt><trkpt lat="44.19219789028998" lon="9.594512103850356"><ele>355.2</ele><time>2026-04-05T16:18:12.999Z</time></trkpt><trkpt lat="44.192098016016686" lon="9.594466363822683"><ele>356.4</ele><time>2026-04-05T16:18:13.999Z</time></trkpt><trkpt lat="44.19201154266618" lon="9.594382076669778"><ele>357.6</ele><time>2026-04-05T16:18:14.999Z</time></trkpt><trkpt lat="44.191935498055585" lon="9.594306838264014"><ele>358.8</ele><time>2026-04-05T16:18:15.999Z</time></trkpt><trkpt lat="44.19188292338353" lon="9.594226853063605"><ele>360.0</ele><time>2026-04-05T16:18:16.999Z</time></trkpt><trkpt lat="44.19184152322234" lon="9.594140797123906"><ele>360.0</ele><time>2026-04-05T16:18:17.999Z</time></trkpt><trkpt lat="44.191831499105405" lon="9.594025068885067"><ele>360.0</ele><time>2026-04-05T16:18:18.999Z</time></trkpt><trkpt lat="44.19182868249014" lon="9.593918376292363"><ele>360.0</ele><time>2026-04-05T16:18:19.999Z</time></trkpt><trkpt lat="44.19183325915314" lon="9.593802089269039"><ele>360.0</ele><time>2026-04-05T16:18:20.999Z</time></trkpt><trkpt lat="44.19182790616734" lon="9.593688365078874"><ele>360.0</ele><time>2026-04-05T16:18:21.999Z</time></trkpt><trkpt lat="44.19182254119274" lon="9.593580888413017"><ele>360.0</ele><time>2026-04-05T16:18:22.999Z</time></trkpt><trkpt lat="44.19180307379285" lon="9.59347685915582"><ele>362.3333333333333</ele><time>2026-04-05T16:18:23.999Z</time></trkpt><trkpt lat="44.191771251151465" lon="9.5933689125695"><ele>364.6666666666667</ele><time>2026-04-05T16:18:24.999Z</time></trkpt><trkpt lat="44.19173909194834" lon="9.593260565200978"><ele>367.0</ele><time>2026-04-05T16:18:25.999Z</time></trkpt><trkpt lat="44.19171130217466" lon="9.593150467393837"><ele>369.33333333333337</ele><time>2026-04-05T16:18:26.999Z</time></trkpt><trkpt lat="44.19168541834068" lon="9.59303752271666"><ele>371.6666666666667</ele><time>2026-04-05T16:18:27.999Z</time></trkpt><trkpt lat="44.19166437489192" lon="9.592936728624869"><ele>374.0</ele><time>2026-04-05T16:18:28.999Z</time></trkpt><trkpt lat="44.19166680636578" lon="9.592840279929733"><ele>373.5</ele><time>2026-04-05T16:18:29.999Z</time></trkpt><trkpt lat="44.19170201822319" lon="9.592736179317413"><ele>373.0</ele><time>2026-04-05T16:18:30.999Z</time></trkpt><trkpt lat="44.19176519073962" lon="9.592669412139474"><ele>372.5</ele><time>2026-04-05T16:18:31.999Z</time></trkpt><trkpt lat="44.1918473882676" lon="9.592634909095164"><ele>372.0</ele><time>2026-04-05T16:18:32.999Z</time></trkpt><trkpt lat="44.19192034939031" lon="9.592600839546291"><ele>371.5</ele><time>2026-04-05T16:18:33.999Z</time></trkpt><trkpt lat="44.191991960688526" lon="9.592554905514918"><ele>371.0</ele><time>2026-04-05T16:18:34.999Z</time></trkpt><trkpt lat="44.192053444191" lon="9.59251001219243"><ele>371.0</ele><time>2026-04-05T16:18:35.999Z</time></trkpt><trkpt lat="44.19214876107073" lon="9.592395622531265"><ele>371.0</ele><time>2026-04-05T16:18:37.999Z</time></trkpt><trkpt lat="44.19219524373743" lon="9.59233044788719"><ele>371.0</ele><time>2026-04-05T16:18:38.999Z</time></trkpt><trkpt lat="44.192246726423626" lon="9.592272455934987"><ele>371.0</ele><time>2026-04-05T16:18:39.999Z</time></trkpt><trkpt lat="44.19229095468498" lon="9.592203590917888"><ele>371.0</ele><time>2026-04-05T16:18:40.999Z</time></trkpt><trkpt lat="44.19233199608509" lon="9.592130375296527"><ele>371.0</ele><time>2026-04-05T16:18:41.999Z</time></trkpt><trkpt lat="44.19237869724174" lon="9.592067443002515"><ele>372.7142857142857</ele><time>2026-04-05T16:18:42.999Z</time></trkpt><trkpt lat="44.192423883299575" lon="9.592000740340904"><ele>374.42857142857144</ele><time>2026-04-05T16:18:43.999Z</time></trkpt><trkpt lat="44.1924694076479" lon="9.591931208089498"><ele>376.1428571428571</ele><time>2026-04-05T16:18:44.999Z</time></trkpt><trkpt lat="44.19251526359776" lon="9.591857096633413"><ele>377.8571428571429</ele><time>2026-04-05T16:18:45.999Z</time></trkpt><trkpt lat="44.19256168895113" lon="9.591783949098094"><ele>379.57142857142856</ele><time>2026-04-05T16:18:46.999Z</time></trkpt><trkpt lat="44.192611736313395" lon="9.591706363390733"><ele>381.2857142857143</ele><time>2026-04-05T16:18:47.999Z</time></trkpt><trkpt lat="44.1926716812073" lon="9.591634090639857"><ele>383.0</ele><time>2026-04-05T16:18:48.998Z</time></trkpt><trkpt lat="44.19275071632169" lon="9.591588990631458"><ele>383.0</ele><time>2026-04-05T16:18:49.998Z</time></trkpt><trkpt lat="44.19282747614301" lon="9.591557509675258"><ele>383.0</ele><time>2026-04-05T16:18:50.998Z</time></trkpt><trkpt lat="44.19290774163195" lon="9.591514282733227"><ele>383.0</ele><time>2026-04-05T16:18:51.998Z</time></trkpt><trkpt lat="44.192979358421915" lon="9.59146107766874"><ele>383.0</ele><time>2026-04-05T16:18:52.998Z</time></trkpt><trkpt lat="44.193046583248965" lon="9.591396610330133"><ele>383.0</ele><time>2026-04-05T16:18:53.998Z</time></trkpt><trkpt lat="44.19313183360864" lon="9.591310117010043"><ele>383.0</ele><time>2026-04-05T16:18:54.998Z</time></trkpt><trkpt lat="44.19320291092534" lon="9.591210190347255"><ele>383.83333333333337</ele><time>2026-04-05T16:18:55.998Z</time></trkpt><trkpt lat="44.193279315893484" lon="9.591140748037589"><ele>384.6666666666667</ele><time>2026-04-05T16:18:56.998Z</time></trkpt><trkpt lat="44.193356350123935" lon="9.591119039227934"><ele>385.5</ele><time>2026-04-05T16:18:57.998Z</time></trkpt><trkpt lat="44.19344015198199" lon="9.591151902235321"><ele>386.33333333333337</ele><time>2026-04-05T16:18:58.998Z</time></trkpt><trkpt lat="44.19351422346293" lon="9.591223996522139"><ele>387.1666666666667</ele><time>2026-04-05T16:18:59.998Z</time></trkpt><trkpt lat="44.19357931999104" lon="9.591299246217458"><ele>388.0</ele><time>2026-04-05T16:19:00.998Z</time></trkpt><trkpt lat="44.19366488739127" lon="9.591350969290806"><ele>392.00000000000006</ele><time>2026-04-05T16:19:01.998Z</time></trkpt><trkpt lat="44.1937488744679" lon="9.591375326680582"><ele>396.0</ele><time>2026-04-05T16:19:02.998Z</time></trkpt><trkpt lat="44.193831191255335" lon="9.591391710626263"><ele>400.0</ele><time>2026-04-05T16:19:03.998Z</time></trkpt><trkpt lat="44.193912551743736" lon="9.591400626009753"><ele>404.0</ele><time>2026-04-05T16:19:04.998Z</time></trkpt><trkpt lat="44.193995868984345" lon="9.591396430497017"><ele>408.00000000000006</ele><time>2026-04-05T16:19:05.998Z</time></trkpt><trkpt lat="44.19408497690037" lon="9.591403716571458"><ele>412.0</ele><time>2026-04-05T16:19:06.998Z</time></trkpt><trkpt lat="44.194168603863965" lon="9.591424700370084"><ele>413.50000000000006</ele><time>2026-04-05T16:19:07.998Z</time></trkpt><trkpt lat="44.19425797160898" lon="9.591451596946362"><ele>415.0</ele><time>2026-04-05T16:19:08.998Z</time></trkpt><trkpt lat="44.19434495779086" lon="9.591473618461144"><ele>416.5</ele><time>2026-04-05T16:19:09.998Z</time></trkpt><trkpt lat="44.1944224870434" lon="9.59149235616002"><ele>418.0</ele><time>2026-04-05T16:19:11Z</time></trkpt><trkpt lat="44.19450466910614" lon="9.591515828602425"><ele>419.50000000000006</ele><time>2026-04-05T16:19:12Z</time></trkpt><trkpt lat="44.194596973216385" lon="9.5915279029237"><ele>421.0</ele><time>2026-04-05T16:19:13Z</time></trkpt><trkpt lat="44.19468368515703" lon="9.591561294300927"><ele>421.0</ele><time>2026-04-05T16:19:14Z</time></trkpt><trkpt lat="44.194776984739036" lon="9.591605449912667"><ele>421.0</ele><time>2026-04-05T16:19:15Z</time></trkpt><trkpt lat="44.19487035112156" lon="9.591647003805045"><ele>421.0</ele><time>2026-04-05T16:19:16Z</time></trkpt><trkpt lat="44.194961966624014" lon="9.591702089538398"><ele>421.0</ele><time>2026-04-05T16:19:17Z</time></trkpt><trkpt lat="44.195057221080965" lon="9.591733236754871"><ele>421.0</ele><time>2026-04-05T16:19:18Z</time></trkpt><trkpt lat="44.195154385708086" lon="9.591758835074913"><ele>419.83333333333337</ele><time>2026-04-05T16:19:19Z</time></trkpt><trkpt lat="44.19524328399584" lon="9.591772359434383"><ele>418.6666666666667</ele><time>2026-04-05T16:19:20Z</time></trkpt><trkpt lat="44.19531987085273" lon="9.591787520175005"><ele>417.5</ele><time>2026-04-05T16:19:21Z</time></trkpt><trkpt lat="44.19538346219038" lon="9.591852936658816"><ele>416.33333333333337</ele><time>2026-04-05T16:19:22Z</time></trkpt><trkpt lat="44.195427252287345" lon="9.591943387159194"><ele>415.1666666666667</ele><time>2026-04-05T16:19:23Z</time></trkpt><trkpt lat="44.19545358277748" lon="9.592046525531897"><ele>414.0</ele><time>2026-04-05T16:19:24Z</time></trkpt><trkpt lat="44.19546805636048" lon="9.592196987610928"><ele>418.0</ele><time>2026-04-05T16:19:26Z</time></trkpt><trkpt lat="44.19549451096899" lon="9.59229682772629"><ele>422.0</ele><time>2026-04-05T16:19:28Z</time></trkpt><trkpt lat="44.19554326049768" lon="9.592375386076226"><ele>426.0</ele><time>2026-04-05T16:19:31Z</time></trkpt><trkpt lat="44.19560595897589" lon="9.592396517364453"><ele>430.0</ele><time>2026-04-05T16:20:58.998Z</time></trkpt><trkpt lat="44.195702034642835" lon="9.592302284460033"><ele>434.0</ele><time>2026-04-05T16:22:00.999Z</time></trkpt><trkpt lat="44.19576529090496" lon="9.592273056905183"><ele>438.0</ele><time>2026-04-05T16:22:01.999Z</time></trkpt><trkpt lat="44.19582209728939" lon="9.592210149180703"><ele>438.0</ele><time>2026-04-05T16:22:02.999Z</time></trkpt><trkpt lat="44.19589022351769" lon="9.592146516686341"><ele>438.0</ele><time>2026-04-05T16:22:03.999Z</time></trkpt><trkpt lat="44.19593638117423" lon="9.59208622714854"><ele>438.0</ele><time>2026-04-05T16:22:04.999Z</time></trkpt><trkpt lat="44.1959895944768" lon="9.592025138093673"><ele>438.0</ele><time>2026-04-05T16:22:05.999Z</time></trkpt><trkpt lat="44.196037718847364" lon="9.591938427405047"><ele>438.0</ele><time>2026-04-05T16:22:06.999Z</time></trkpt><trkpt lat="44.19606734976334" lon="9.591838495697349"><ele>438.0</ele><time>2026-04-05T16:22:07.999Z</time></trkpt><trkpt lat="44.19609746889082" lon="9.591735926002878"><ele>437.4</ele><time>2026-04-05T16:22:08.999Z</time></trkpt><trkpt lat="44.196144067675576" lon="9.591673632277493"><ele>436.79999999999995</ele><time>2026-04-05T16:22:09.999Z</time></trkpt><trkpt lat="44.19626283969223" lon="9.59160182858225"><ele>436.2</ele><time>2026-04-05T16:22:10.999Z</time></trkpt><trkpt lat="44.19636919353815" lon="9.591584536797368"><ele>435.6</ele><time>2026-04-05T16:22:11.999Z</time></trkpt><trkpt lat="44.19644353034669" lon="9.591568440922755"><ele>435.0</ele><time>2026-04-05T16:22:12.999Z</time></trkpt><trkpt lat="44.19655118431625" lon="9.591570622119416"><ele>435.0</ele><time>2026-04-05T16:22:13.999Z</time></trkpt><trkpt lat="44.19669149826265" lon="9.591559349126847"><ele>435.0</ele><time>2026-04-05T16:22:14.999Z</time></trkpt><trkpt lat="44.19676966490014" lon="9.59159436606382"><ele>435.0</ele><time>2026-04-05T16:22:15.999Z</time></trkpt><trkpt lat="44.1968541115196" lon="9.591635058639548"><ele>435.0</ele><time>2026-04-05T16:22:16.999Z</time></trkpt><trkpt lat="44.1972143308044" lon="9.591582093576358"><ele>435.0</ele><time>2026-04-05T16:22:20.999Z</time></trkpt><trkpt lat="44.19723507152867" lon="9.591440599580404"><ele>435.0</ele><time>2026-04-05T16:22:21.999Z</time></trkpt><trkpt lat="44.197257118214495" lon="9.591294043400522"><ele>435.0</ele><time>2026-04-05T16:22:22.999Z</time></trkpt><trkpt lat="44.197307746821444" lon="9.591185047938822"><ele>435.0</ele><time>2026-04-05T16:22:23.999Z</time></trkpt><trkpt lat="44.1973643536686" lon="9.591076437790331"><ele>435.0</ele><time>2026-04-05T16:22:24.999Z</time></trkpt><trkpt lat="44.19742963016871" lon="9.591002568406703"><ele>434.8</ele><time>2026-04-05T16:22:25.999Z</time></trkpt><trkpt lat="44.19750039599093" lon="9.590947377182895"><ele>434.6</ele><time>2026-04-05T16:22:26.999Z</time></trkpt><trkpt lat="44.197584756587155" lon="9.590896260419774"><ele>434.4</ele><time>2026-04-05T16:22:27.999Z</time></trkpt><trkpt lat="44.19767977994613" lon="9.590864234986253"><ele>434.2</ele><time>2026-04-05T16:22:28.999Z</time></trkpt><trkpt lat="44.19776439053289" lon="9.590838092943773"><ele>434.0</ele><time>2026-04-05T16:22:29.999Z</time></trkpt><trkpt lat="44.1978627340001" lon="9.590844457264378"><ele>433.99999999999994</ele><time>2026-04-05T16:22:30.999Z</time></trkpt><trkpt lat="44.19795238601123" lon="9.590863579644013"><ele>434.0</ele><time>2026-04-05T16:22:31.999Z</time></trkpt><trkpt lat="44.19802455845952" lon="9.590920605655691"><ele>434.0</ele><time>2026-04-05T16:22:32.999Z</time></trkpt><trkpt lat="44.19811488428435" lon="9.5909476155367"><ele>434.0</ele><time>2026-04-05T16:22:33.999Z</time></trkpt><trkpt lat="44.19819294873368" lon="9.590919273172242"><ele>433.99999999999994</ele><time>2026-04-05T16:22:34.999Z</time></trkpt><trkpt lat="44.19825992473083" lon="9.590857992028491"><ele>434.0</ele><time>2026-04-05T16:22:35.999Z</time></trkpt><trkpt lat="44.198316464434804" lon="9.590791443436068"><ele>434.66666666666663</ele><time>2026-04-05T16:22:36.999Z</time></trkpt><trkpt lat="44.19836328315966" lon="9.590692197943543"><ele>435.3333333333333</ele><time>2026-04-05T16:22:37.999Z</time></trkpt><trkpt lat="44.19837470117758" lon="9.590561295385188"><ele>436.0</ele><time>2026-04-05T16:22:38.999Z</time></trkpt><trkpt lat="44.198411538930195" lon="9.590436505668622"><ele>436.66666666666663</ele><time>2026-04-05T16:22:39.999Z</time></trkpt><trkpt lat="44.1984728178035" lon="9.590359165638331"><ele>437.3333333333333</ele><time>2026-04-05T16:22:40.999Z</time></trkpt><trkpt lat="44.19852355212344" lon="9.590275725511326"><ele>438.0</ele><time>2026-04-05T16:22:41.999Z</time></trkpt><trkpt lat="44.19861060832826" lon="9.590198949014184"><ele>438.0</ele><time>2026-04-05T16:22:42.999Z</time></trkpt><trkpt lat="44.19863467123922" lon="9.590104973404177"><ele>438.0</ele><time>2026-04-05T16:22:43.999Z</time></trkpt><trkpt lat="44.19869835608366" lon="9.590019357141161"><ele>438.0</ele><time>2026-04-05T16:22:44.999Z</time></trkpt><trkpt lat="44.198768530056725" lon="9.589927494182694"><ele>438.0</ele><time>2026-04-05T16:22:45.999Z</time></trkpt><trkpt lat="44.198844471000044" lon="9.589861383928207"><ele>438.0</ele><time>2026-04-05T16:22:46.999Z</time></trkpt><trkpt lat="44.1989235760271" lon="9.58979758115879"><ele>438.0</ele><time>2026-04-05T16:22:47.999Z</time></trkpt><trkpt lat="44.19900633009469" lon="9.589739171077214"><ele>440.4</ele><time>2026-04-05T16:22:48.999Z</time></trkpt><trkpt lat="44.199105541496245" lon="9.589728289240012"><ele>442.79999999999995</ele><time>2026-04-05T16:22:49.999Z</time></trkpt><trkpt lat="44.19919900350251" lon="9.589772096782442"><ele>445.2</ele><time>2026-04-05T16:22:50.998Z</time></trkpt><trkpt lat="44.19927004249681" lon="9.589865559496715"><ele>447.6</ele><time>2026-04-05T16:22:51.998Z</time></trkpt><trkpt lat="44.1993091579277" lon="9.58998086203343"><ele>450.0</ele><time>2026-04-05T16:22:52.998Z</time></trkpt><trkpt lat="44.19934420180809" lon="9.590094380795806"><ele>450.0</ele><time>2026-04-05T16:22:53.998Z</time></trkpt><trkpt lat="44.19936906359521" lon="9.590204551351466"><ele>450.0</ele><time>2026-04-05T16:22:54.998Z</time></trkpt><trkpt lat="44.199408342389496" lon="9.590308742157191"><ele>450.0</ele><time>2026-04-05T16:22:55.998Z</time></trkpt><trkpt lat="44.199472425303874" lon="9.59040347361747"><ele>450.0</ele><time>2026-04-05T16:22:56.998Z</time></trkpt><trkpt lat="44.19951474851679" lon="9.590508952993993"><ele>450.0</ele><time>2026-04-05T16:22:57.998Z</time></trkpt><trkpt lat="44.19958407725532" lon="9.590663388539067"><ele>455.2</ele><time>2026-04-05T16:22:59.998Z</time></trkpt><trkpt lat="44.199636056758024" lon="9.590762653918215"><ele>460.4</ele><time>2026-04-05T16:23:00.998Z</time></trkpt><trkpt lat="44.19968674716976" lon="9.590854572528992"><ele>465.6</ele><time>2026-04-05T16:23:01.998Z</time></trkpt><trkpt lat="44.199761096336026" lon="9.59098902374655"><ele>470.8</ele><time>2026-04-05T16:23:02.998Z</time></trkpt><trkpt lat="44.1998256400583" lon="9.591080544086918"><ele>476.0</ele><time>2026-04-05T16:23:03.998Z</time></trkpt><trkpt lat="44.19988947548492" lon="9.591174748068209"><ele>477.0</ele><time>2026-04-05T16:23:04.998Z</time></trkpt><trkpt lat="44.19995244629389" lon="9.591281754598777"><ele>478.0</ele><time>2026-04-05T16:23:05.998Z</time></trkpt><trkpt lat="44.20000894308308" lon="9.59139574625856"><ele>479.0</ele><time>2026-04-05T16:23:06.998Z</time></trkpt><trkpt lat="44.20006100751277" lon="9.591516967874599"><ele>480.0</ele><time>2026-04-05T16:23:07.998Z</time></trkpt><trkpt lat="44.20009279025085" lon="9.591624089047418"><ele>481.0</ele><time>2026-04-05T16:23:08.998Z</time></trkpt><trkpt lat="44.2001331591003" lon="9.591718936242884"><ele>481.00000000000006</ele><time>2026-04-05T16:23:09.998Z</time></trkpt><trkpt lat="44.200200513210746" lon="9.59178337511236"><ele>481.0</ele><time>2026-04-05T16:23:10.998Z</time></trkpt><trkpt lat="44.20028560658565" lon="9.59185294986736"><ele>481.0</ele><time>2026-04-05T16:23:11.998Z</time></trkpt><trkpt lat="44.2003613742572" lon="9.591911123718756"><ele>481.0</ele><time>2026-04-05T16:23:12.998Z</time></trkpt><trkpt lat="44.200419785884876" lon="9.59195761499149"><ele>481.00000000000006</ele><time>2026-04-05T16:23:13.998Z</time></trkpt><trkpt lat="44.200505720748644" lon="9.592039819178858"><ele>481.0</ele><time>2026-04-05T16:23:14.998Z</time></trkpt><trkpt lat="44.200644667326436" lon="9.59209078241411"><ele>480.0</ele><time>2026-04-05T16:23:15.998Z</time></trkpt><trkpt lat="44.20075785691578" lon="9.592098265653581"><ele>479.0</ele><time>2026-04-05T16:23:16.998Z</time></trkpt><trkpt lat="44.20085827881541" lon="9.592109034152337"><ele>478.0</ele><time>2026-04-05T16:23:17.998Z</time></trkpt><trkpt lat="44.20095273789754" lon="9.592114198065333"><ele>477.0</ele><time>2026-04-05T16:23:18.998Z</time></trkpt><trkpt lat="44.20104306998824" lon="9.592051823339641"><ele>476.0</ele><time>2026-04-05T16:23:19.998Z</time></trkpt><trkpt lat="44.20112186457349" lon="9.591987430159199"><ele>475.99999999999994</ele><time>2026-04-05T16:23:20.998Z</time></trkpt><trkpt lat="44.20120334973531" lon="9.591941238171911"><ele>476.0</ele><time>2026-04-05T16:23:21.998Z</time></trkpt><trkpt lat="44.20127276145274" lon="9.59193348355189"><ele>476.0</ele><time>2026-04-05T16:23:22.999Z</time></trkpt><trkpt lat="44.20133627448056" lon="9.59196960957824"><ele>476.0</ele><time>2026-04-05T16:23:23.999Z</time></trkpt><trkpt lat="44.201397867805134" lon="9.59205484979125"><ele>475.99999999999994</ele><time>2026-04-05T16:23:24.999Z</time></trkpt><trkpt lat="44.2014465935562" lon="9.59215013219677"><ele>476.0</ele><time>2026-04-05T16:23:25.999Z</time></trkpt><trkpt lat="44.20148224879946" lon="9.592237635411227"><ele>478.16666666666663</ele><time>2026-04-05T16:23:26.999Z</time></trkpt><trkpt lat="44.201525041892424" lon="9.592320405416256"><ele>480.3333333333333</ele><time>2026-04-05T16:23:27.999Z</time></trkpt><trkpt lat="44.20154637282151" lon="9.592406954510974"><ele>482.5</ele><time>2026-04-05T16:23:28.999Z</time></trkpt><trkpt lat="44.201597958358995" lon="9.59251425585163"><ele>484.66666666666663</ele><time>2026-04-05T16:23:29.999Z</time></trkpt><trkpt lat="44.201641472182565" lon="9.592622027179395"><ele>486.8333333333333</ele><time>2026-04-05T16:23:30.999Z</time></trkpt><trkpt lat="44.20168702672503" lon="9.592726937925182"><ele>489.0</ele><time>2026-04-05T16:23:31.999Z</time></trkpt><trkpt lat="44.20173244044688" lon="9.592826141284746"><ele>492.2</ele><time>2026-04-05T16:23:32.999Z</time></trkpt><trkpt lat="44.20178632551068" lon="9.592956716182256"><ele>495.4</ele><time>2026-04-05T16:23:33.999Z</time></trkpt><trkpt lat="44.201851944479706" lon="9.593112226795864"><ele>498.6</ele><time>2026-04-05T16:23:34.999Z</time></trkpt><trkpt lat="44.20188352033913" lon="9.593189356832903"><ele>501.8</ele><time>2026-04-05T16:23:35.999Z</time></trkpt><trkpt lat="44.20189477963824" lon="9.593314085377054"><ele>505.0</ele><time>2026-04-05T16:23:36.999Z</time></trkpt><trkpt lat="44.20187164563021" lon="9.593430587805981"><ele>505.0</ele><time>2026-04-05T16:23:37.999Z</time></trkpt><trkpt lat="44.201866849143606" lon="9.593538873673134"><ele>505.0</ele><time>2026-04-05T16:23:38.999Z</time></trkpt><trkpt lat="44.201868980106134" lon="9.593647346050858"><ele>505.0</ele><time>2026-04-05T16:23:39.999Z</time></trkpt><trkpt lat="44.20186630141364" lon="9.593764037053552"><ele>505.0</ele><time>2026-04-05T16:23:40.999Z</time></trkpt><trkpt lat="44.201933973140044" lon="9.59391465280943"><ele>505.0</ele><time>2026-04-05T16:23:42.999Z</time></trkpt><trkpt lat="44.202021511060195" lon="9.59393801818353"><ele>507.6</ele><time>2026-04-05T16:23:44.999Z</time></trkpt><trkpt lat="44.20216021395801" lon="9.593905367472175"><ele>510.2</ele><time>2026-04-05T16:23:46.999Z</time></trkpt><trkpt lat="44.202194561523086" lon="9.593979429415253"><ele>512.8</ele><time>2026-04-05T16:23:47.999Z</time></trkpt><trkpt lat="44.202213155737866" lon="9.594129776712931"><ele>515.4</ele><time>2026-04-05T16:23:49.999Z</time></trkpt><trkpt lat="44.20223643113871" lon="9.594308852203548"><ele>518.0</ele><time>2026-04-05T16:23:51.999Z</time></trkpt><trkpt lat="44.202280299331335" lon="9.594381441955354"><ele>518.0</ele><time>2026-04-05T16:23:52.999Z</time></trkpt><trkpt lat="44.20231906701671" lon="9.594471555569644"><ele>518.0</ele><time>2026-04-05T16:23:53.999Z</time></trkpt><trkpt lat="44.20233254824947" lon="9.594607703088036"><ele>518.0</ele><time>2026-04-05T16:23:54.999Z</time></trkpt><trkpt lat="44.2023890890355" lon="9.594693218103927"><ele>518.0</ele><time>2026-04-05T16:23:55.999Z</time></trkpt><trkpt lat="44.20241523517587" lon="9.594787367378405"><ele>518.0</ele><time>2026-04-05T16:23:56.999Z</time></trkpt><trkpt lat="44.20245882311069" lon="9.594911967648926"><ele>518.0</ele><time>2026-04-05T16:23:58.999Z</time></trkpt><trkpt lat="44.202559300190785" lon="9.594907121714671"><ele>519.6666666666666</ele><time>2026-04-05T16:24:00.999Z</time></trkpt><trkpt lat="44.202596826053025" lon="9.594754909942157"><ele>521.3333333333333</ele><time>2026-04-05T16:24:02.999Z</time></trkpt><trkpt lat="44.20260366846675" lon="9.594664132537018"><ele>523.0</ele><time>2026-04-05T16:24:03.999Z</time></trkpt><trkpt lat="44.20262450517523" lon="9.594574474374927"><ele>524.6666666666666</ele><time>2026-04-05T16:24:04.999Z</time></trkpt><trkpt lat="44.20267793022188" lon="9.59451007075731"><ele>526.3333333333334</ele><time>2026-04-05T16:24:05.999Z</time></trkpt><trkpt lat="44.202794144116496" lon="9.594567806969383"><ele>528.0</ele><time>2026-04-05T16:24:07.999Z</time></trkpt><trkpt lat="44.20287525532529" lon="9.594603786613881"><ele>528.0</ele><time>2026-04-05T16:24:08.999Z</time></trkpt><trkpt lat="44.20295388419339" lon="9.594623364824054"><ele>528.0</ele><time>2026-04-05T16:24:10.999Z</time></trkpt><trkpt lat="44.2029923321492" lon="9.594715407347769"><ele>528.0</ele><time>2026-04-05T16:24:22.999Z</time></trkpt><trkpt lat="44.2030337851666" lon="9.594637074681039"><ele>528.0</ele><time>2026-04-05T16:24:29.999Z</time></trkpt><trkpt lat="44.202972735295354" lon="9.594571468226336"><ele>528.0</ele><time>2026-04-05T16:24:33.999Z</time></trkpt><trkpt lat="44.202865790225815" lon="9.594544929074331"><ele>528.0</ele><time>2026-04-05T16:24:35.999Z</time></trkpt><trkpt lat="44.20280265752278" lon="9.594533544188764"><ele>528.0</ele><time>2026-04-05T16:24:36.999Z</time></trkpt><trkpt lat="44.20268057266872" lon="9.59454941888772"><ele>528.0</ele><time>2026-04-05T16:24:38.999Z</time></trkpt><trkpt lat="44.202600643550575" lon="9.594741593376135"><ele>528.0</ele><time>2026-04-05T16:24:40.999Z</time></trkpt><trkpt lat="44.202560444576406" lon="9.594845926954063"><ele>528.0</ele><time>2026-04-05T16:24:42.999Z</time></trkpt><trkpt lat="44.20248559682751" lon="9.594841217574245"><ele>528.0</ele><time>2026-04-05T16:24:44.999Z</time></trkpt><trkpt lat="44.20244881687001" lon="9.594716083614479"><ele>528.0</ele><time>2026-04-05T16:24:46.999Z</time></trkpt><trkpt lat="44.202423607485784" lon="9.594569949068141"><ele>528.0</ele><time>2026-04-05T16:24:48.999Z</time></trkpt><trkpt lat="44.2023740200242" lon="9.594385342879649"><ele>528.0</ele><time>2026-04-05T16:24:50.999Z</time></trkpt><trkpt lat="44.20232666724433" lon="9.594275731032809"><ele>528.0</ele><time>2026-04-05T16:24:51.999Z</time></trkpt><trkpt lat="44.202296111759054" lon="9.594160706231282"><ele>528.0</ele><time>2026-04-05T16:24:52.999Z</time></trkpt><trkpt lat="44.20227735361384" lon="9.594050592034108"><ele>526.3333333333334</ele><time>2026-04-05T16:24:53.999Z</time></trkpt><trkpt lat="44.202255282745945" lon="9.593961990970696"><ele>524.6666666666666</ele><time>2026-04-05T16:24:54.999Z</time></trkpt><trkpt lat="44.202208708130854" lon="9.593885562267328"><ele>523.0</ele><time>2026-04-05T16:24:55.999Z</time></trkpt><trkpt lat="44.20213144322243" lon="9.593853831327387"><ele>521.3333333333333</ele><time>2026-04-05T16:24:56.999Z</time></trkpt><trkpt lat="44.20206337753678" lon="9.593835560608058"><ele>519.6666666666666</ele><time>2026-04-05T16:24:57.999Z</time></trkpt><trkpt lat="44.201961393727125" lon="9.59388696380538"><ele>518.0</ele><time>2026-04-05T16:24:59.999Z</time></trkpt><trkpt lat="44.20190996742192" lon="9.593816545893425"><ele>518.0</ele><time>2026-04-05T16:25:00.999Z</time></trkpt><trkpt lat="44.201886300025556" lon="9.593724001243679"><ele>518.0</ele><time>2026-04-05T16:25:01.999Z</time></trkpt><trkpt lat="44.201883095261024" lon="9.593598024698135"><ele>518.0</ele><time>2026-04-05T16:25:02.999Z</time></trkpt><trkpt lat="44.20189181837243" lon="9.59347221100954"><ele>518.0</ele><time>2026-04-05T16:25:03.999Z</time></trkpt><trkpt lat="44.201880938746285" lon="9.59333212447926"><ele>518.0</ele><time>2026-04-05T16:25:04.999Z</time></trkpt><trkpt lat="44.20186544182584" lon="9.593198754371635"><ele>518.0</ele><time>2026-04-05T16:25:05.999Z</time></trkpt><trkpt lat="44.20184923297989" lon="9.593069922525123"><ele>515.4</ele><time>2026-04-05T16:25:06.999Z</time></trkpt><trkpt lat="44.20180285622139" lon="9.592950411705413"><ele>512.8</ele><time>2026-04-05T16:25:07.999Z</time></trkpt><trkpt lat="44.20174463617013" lon="9.592831268945703"><ele>510.2</ele><time>2026-04-05T16:25:08.998Z</time></trkpt><trkpt lat="44.201681159484316" lon="9.592705601256837"><ele>507.6</ele><time>2026-04-05T16:25:09.998Z</time></trkpt><trkpt lat="44.20163147855975" lon="9.592561760460384"><ele>505.0</ele><time>2026-04-05T16:25:10.998Z</time></trkpt><trkpt lat="44.201574698680176" lon="9.592431194959262"><ele>503.4</ele><time>2026-04-05T16:25:11.998Z</time></trkpt><trkpt lat="44.201521434028784" lon="9.592310464803237"><ele>501.8</ele><time>2026-04-05T16:25:12.998Z</time></trkpt><trkpt lat="44.20148358251667" lon="9.59217813652313"><ele>500.20000000000005</ele><time>2026-04-05T16:25:13.998Z</time></trkpt><trkpt lat="44.20142486058831" lon="9.592084812943924"><ele>498.6</ele><time>2026-04-05T16:25:14.998Z</time></trkpt><trkpt lat="44.20138269677076" lon="9.591979656098653"><ele>497.0</ele><time>2026-04-05T16:25:15.998Z</time></trkpt><trkpt lat="44.20132203109158" lon="9.591910331162957"><ele>496.99999999999994</ele><time>2026-04-05T16:25:16.998Z</time></trkpt><trkpt lat="44.20124521549928" lon="9.591870742528997"><ele>497.0</ele><time>2026-04-05T16:25:17.998Z</time></trkpt><trkpt lat="44.20116161287589" lon="9.591879269287901"><ele>497.0</ele><time>2026-04-05T16:25:18.998Z</time></trkpt><trkpt lat="44.20108359142606" lon="9.591902492473706"><ele>497.0</ele><time>2026-04-05T16:25:19.998Z</time></trkpt><trkpt lat="44.201000166093884" lon="9.59193036499277"><ele>496.99999999999994</ele><time>2026-04-05T16:25:20.998Z</time></trkpt><trkpt lat="44.20090857452476" lon="9.591960600940357"><ele>497.0</ele><time>2026-04-05T16:25:21.998Z</time></trkpt><trkpt lat="44.200836194753784" lon="9.592027897344352"><ele>497.0</ele><time>2026-04-05T16:25:22.998Z</time></trkpt><trkpt lat="44.2007080329387" lon="9.592064872966324"><ele>497.00000000000006</ele><time>2026-04-05T16:25:23.998Z</time></trkpt><trkpt lat="44.20064645260561" lon="9.592014867405538"><ele>497.00000000000006</ele><time>2026-04-05T16:25:24.998Z</time></trkpt><trkpt lat="44.20054441451866" lon="9.59199519883532"><ele>497.0</ele><time>2026-04-05T16:25:25.998Z</time></trkpt><trkpt lat="44.200448645464164" lon="9.591918542801519"><ele>497.0</ele><time>2026-04-05T16:25:26.998Z</time></trkpt><trkpt lat="44.200364428713705" lon="9.591839390239254"><ele>493.0</ele><time>2026-04-05T16:25:27.998Z</time></trkpt><trkpt lat="44.20025973981115" lon="9.591770170584455"><ele>489.0</ele><time>2026-04-05T16:25:29Z</time></trkpt><trkpt lat="44.20016415459359" lon="9.59171449723126"><ele>485.0</ele><time>2026-04-05T16:25:30Z</time></trkpt><trkpt lat="44.2000791565504" lon="9.591603207520548"><ele>481.0</ele><time>2026-04-05T16:25:31Z</time></trkpt><trkpt lat="44.20002274090028" lon="9.591441915858947"><ele>481.0</ele><time>2026-04-05T16:25:32Z</time></trkpt><trkpt lat="44.19997111842101" lon="9.591294905733795"><ele>481.0</ele><time>2026-04-05T16:25:33Z</time></trkpt><trkpt lat="44.19989729468755" lon="9.591158552183414"><ele>481.0</ele><time>2026-04-05T16:25:34Z</time></trkpt><trkpt lat="44.19981953889566" lon="9.59103326372933"><ele>481.0</ele><time>2026-04-05T16:25:35Z</time></trkpt><trkpt lat="44.19973494206086" lon="9.59091352124566"><ele>479.75</ele><time>2026-04-05T16:25:36Z</time></trkpt><trkpt lat="44.1996540563343" lon="9.590782021900997"><ele>478.5</ele><time>2026-04-05T16:25:37Z</time></trkpt><trkpt lat="44.19957837754897" lon="9.590644902414063"><ele>477.25</ele><time>2026-04-05T16:25:38Z</time></trkpt><trkpt lat="44.19951117927796" lon="9.590515186540173"><ele>476.0</ele><time>2026-04-05T16:25:39Z</time></trkpt><trkpt lat="44.19945073342247" lon="9.590387955779654"><ele>470.8</ele><time>2026-04-05T16:25:40Z</time></trkpt><trkpt lat="44.199395740435854" lon="9.590269951943966"><ele>465.6</ele><time>2026-04-05T16:25:41Z</time></trkpt><trkpt lat="44.19935131163598" lon="9.590150317652158"><ele>460.4</ele><time>2026-04-05T16:25:42Z</time></trkpt><trkpt lat="44.19930722199564" lon="9.590026952234998"><ele>455.2</ele><time>2026-04-05T16:25:43Z</time></trkpt><trkpt lat="44.19926202742373" lon="9.589914063053712"><ele>450.0</ele><time>2026-04-05T16:25:44Z</time></trkpt><trkpt lat="44.19921208435979" lon="9.589818601136502"><ele>450.0</ele><time>2026-04-05T16:25:45Z</time></trkpt><trkpt lat="44.1991467783393" lon="9.589749831966975"><ele>450.0</ele><time>2026-04-05T16:25:46Z</time></trkpt><trkpt lat="44.19906604164185" lon="9.589723443722873"><ele>450.0</ele><time>2026-04-05T16:25:47Z</time></trkpt><trkpt lat="44.19897721103173" lon="9.589745541534864"><ele>450.0</ele><time>2026-04-05T16:25:48Z</time></trkpt><trkpt lat="44.1988977457084" lon="9.589798444631462"><ele>450.0</ele><time>2026-04-05T16:25:49Z</time></trkpt><trkpt lat="44.198826678717644" lon="9.58986979657076"><ele>450.0</ele><time>2026-04-05T16:25:50Z</time></trkpt><trkpt lat="44.198758331190895" lon="9.589948348623047"><ele>451.3333333333333</ele><time>2026-04-05T16:25:51Z</time></trkpt><trkpt lat="44.19869408215739" lon="9.590026945034896"><ele>452.66666666666663</ele><time>2026-04-05T16:25:52Z</time></trkpt><trkpt lat="44.19863339848358" lon="9.590108396944968"><ele>454.0</ele><time>2026-04-05T16:25:53Z</time></trkpt><trkpt lat="44.19857298102648" lon="9.590191934715776"><ele>455.3333333333333</ele><time>2026-04-05T16:25:54Z</time></trkpt><trkpt lat="44.198521321630366" lon="9.590271130863975"><ele>456.66666666666663</ele><time>2026-04-05T16:25:55Z</time></trkpt><trkpt lat="44.19847093428994" lon="9.590363225741559"><ele>458.0</ele><time>2026-04-05T16:25:56Z</time></trkpt><trkpt lat="44.198421078518635" lon="9.590457804557639"><ele>457.99999999999994</ele><time>2026-04-05T16:25:57Z</time></trkpt><trkpt lat="44.1983750298195" lon="9.590553549833933"><ele>458.0</ele><time>2026-04-05T16:25:58Z</time></trkpt><trkpt lat="44.19832765106068" lon="9.590648768608242"><ele>458.0</ele><time>2026-04-05T16:25:59Z</time></trkpt><trkpt lat="44.19828100858982" lon="9.590734585236545"><ele>458.0</ele><time>2026-04-05T16:26:00Z</time></trkpt><trkpt lat="44.198216386971" lon="9.590821391604905"><ele>457.99999999999994</ele><time>2026-04-05T16:26:01Z</time></trkpt><trkpt lat="44.19815516962962" lon="9.590874996726841"><ele>458.0</ele><time>2026-04-05T16:26:02Z</time></trkpt><trkpt lat="44.19807600306418" lon="9.590986793695995"><ele>453.2</ele><time>2026-04-05T16:26:04Z</time></trkpt><trkpt lat="44.19796847913906" lon="9.591053438230638"><ele>448.4</ele><time>2026-04-05T16:26:06Z</time></trkpt><trkpt lat="44.19788918749866" lon="9.59106746764154"><ele>443.59999999999997</ele><time>2026-04-05T16:26:07Z</time></trkpt><trkpt lat="44.197841378894424" lon="9.5908388359243"><ele>438.79999999999995</ele><time>2026-04-05T16:26:09Z</time></trkpt><trkpt lat="44.197771583922034" lon="9.590859104955218"><ele>434.0</ele><time>2026-04-05T16:26:10Z</time></trkpt><trkpt lat="44.19769766180345" lon="9.590869716195431"><ele>434.0</ele><time>2026-04-05T16:26:12Z</time></trkpt><trkpt lat="44.19758806548769" lon="9.59089879594978"><ele>434.0</ele><time>2026-04-05T16:26:13Z</time></trkpt><trkpt lat="44.19745436966756" lon="9.590985153875438"><ele>434.0</ele><time>2026-04-05T16:26:15Z</time></trkpt><trkpt lat="44.19737360590394" lon="9.591051209701446"><ele>434.0</ele><time>2026-04-05T16:26:16Z</time></trkpt><trkpt lat="44.19728674229877" lon="9.591124818105001"><ele>434.2</ele><time>2026-04-05T16:26:17Z</time></trkpt><trkpt lat="44.197225593093" lon="9.59127976619853"><ele>434.4</ele><time>2026-04-05T16:26:18Z</time></trkpt><trkpt lat="44.1971708646752" lon="9.591417137672952"><ele>434.6</ele><time>2026-04-05T16:26:19Z</time></trkpt><trkpt lat="44.19710195552817" lon="9.591516310995642"><ele>434.8</ele><time>2026-04-05T16:26:20Z</time></trkpt><trkpt lat="44.19702556540052" lon="9.591618413287872"><ele>435.0</ele><time>2026-04-05T16:26:21Z</time></trkpt><trkpt lat="44.19695573397992" lon="9.591678232864068"><ele>435.0</ele><time>2026-04-05T16:26:22Z</time></trkpt><trkpt lat="44.196853542502836" lon="9.591707807671865"><ele>435.0</ele><time>2026-04-05T16:26:23Z</time></trkpt><trkpt lat="44.19673665081047" lon="9.591782249021653"><ele>435.0</ele><time>2026-04-05T16:26:24Z</time></trkpt><trkpt lat="44.19661088237269" lon="9.591821143053364"><ele>435.0</ele><time>2026-04-05T16:26:25Z</time></trkpt><trkpt lat="44.19652097444695" lon="9.59186185012796"><ele>431.6</ele><time>2026-04-05T16:26:25.999Z</time></trkpt><trkpt lat="44.19644864175461" lon="9.591826501245166"><ele>428.2</ele><time>2026-04-05T16:26:26.999Z</time></trkpt><trkpt lat="44.19634489622113" lon="9.591754317439682"><ele>424.79999999999995</ele><time>2026-04-05T16:26:27.999Z</time></trkpt><trkpt lat="44.196248474948256" lon="9.59179397678165"><ele>421.4</ele><time>2026-04-05T16:26:28.999Z</time></trkpt><trkpt lat="44.19616867771799" lon="9.591844748314967"><ele>418.0</ele><time>2026-04-05T16:26:29.999Z</time></trkpt><trkpt lat="44.19609210830486" lon="9.591901662510377"><ele>418.0</ele><time>2026-04-05T16:26:30.999Z</time></trkpt><trkpt lat="44.19600655265704" lon="9.591957308994786"><ele>418.0</ele><time>2026-04-05T16:26:31.999Z</time></trkpt><trkpt lat="44.195908175554806" lon="9.59201474503141"><ele>418.0</ele><time>2026-04-05T16:26:32.999Z</time></trkpt><trkpt lat="44.195837380484534" lon="9.592092233990579"><ele>418.0</ele><time>2026-04-05T16:26:33.999Z</time></trkpt><trkpt lat="44.195777187228025" lon="9.592212445995157"><ele>418.0</ele><time>2026-04-05T16:26:35.999Z</time></trkpt><trkpt lat="44.19565535185142" lon="9.592301403540466"><ele>417.2</ele><time>2026-04-05T16:26:37.999Z</time></trkpt><trkpt lat="44.1955532770671" lon="9.592291150305025"><ele>416.4</ele><time>2026-04-05T16:26:39.999Z</time></trkpt><trkpt lat="44.19546297494753" lon="9.592153692926104"><ele>415.59999999999997</ele><time>2026-04-05T16:26:41.999Z</time></trkpt><trkpt lat="44.19546470299877" lon="9.592055021010564"><ele>414.79999999999995</ele><time>2026-04-05T16:26:42.999Z</time></trkpt><trkpt lat="44.19534952677347" lon="9.59195064614136"><ele>414.0</ele><time>2026-04-05T16:26:43.999Z</time></trkpt><trkpt lat="44.1952313249652" lon="9.591838291674463"><ele>414.0</ele><time>2026-04-05T16:26:44.999Z</time></trkpt><trkpt lat="44.19516043683585" lon="9.591816917219317"><ele>414.0</ele><time>2026-04-05T16:26:45.999Z</time></trkpt><trkpt lat="44.19516155004546" lon="9.591701568729507"><ele>414.0</ele><time>2026-04-05T16:26:46.999Z</time></trkpt><trkpt lat="44.19508520549853" lon="9.591712047105077"><ele>414.0</ele><time>2026-04-05T16:26:47.999Z</time></trkpt><trkpt lat="44.194979267525106" lon="9.59166113944673"><ele>414.0</ele><time>2026-04-05T16:26:48.999Z</time></trkpt><trkpt lat="44.19487950876647" lon="9.591599507773267"><ele>415.4</ele><time>2026-04-05T16:26:50.999Z</time></trkpt><trkpt lat="44.19478239258109" lon="9.591570416455971"><ele>416.79999999999995</ele><time>2026-04-05T16:26:51.999Z</time></trkpt><trkpt lat="44.19470179262872" lon="9.591559801512197"><ele>418.20000000000005</ele><time>2026-04-05T16:26:52.999Z</time></trkpt><trkpt lat="44.19458923342902" lon="9.591535050053459"><ele>419.6</ele><time>2026-04-05T16:26:53.999Z</time></trkpt><trkpt lat="44.194513280156215" lon="9.591499748738828"><ele>421.0</ele><time>2026-04-05T16:26:54.999Z</time></trkpt><trkpt lat="44.194408986851" lon="9.59146483144199"><ele>421.0</ele><time>2026-04-05T16:26:55.999Z</time></trkpt><trkpt lat="44.19430039422739" lon="9.591410189245575"><ele>421.0</ele><time>2026-04-05T16:26:56.999Z</time></trkpt><trkpt lat="44.19420333304068" lon="9.591368245017415"><ele>421.0</ele><time>2026-04-05T16:26:57.999Z</time></trkpt><trkpt lat="44.19410783885774" lon="9.591344862017081"><ele>421.0</ele><time>2026-04-05T16:26:58.999Z</time></trkpt><trkpt lat="44.19399649410145" lon="9.591334835246219"><ele>421.0</ele><time>2026-04-05T16:26:59.999Z</time></trkpt><trkpt lat="44.19388361883324" lon="9.591323296299565"><ele>419.20000000000005</ele><time>2026-04-05T16:27:00.999Z</time></trkpt><trkpt lat="44.193804855790034" lon="9.591319203167354"><ele>417.40000000000003</ele><time>2026-04-05T16:27:01.999Z</time></trkpt><trkpt lat="44.19363596741395" lon="9.591289865693406"><ele>415.6</ele><time>2026-04-05T16:27:03.999Z</time></trkpt><trkpt lat="44.19354928580279" lon="9.591248229230295"><ele>413.8</ele><time>2026-04-05T16:27:04.999Z</time></trkpt><trkpt lat="44.19345226737635" lon="9.591196996364092"><ele>412.0</ele><time>2026-04-05T16:27:05.999Z</time></trkpt><trkpt lat="44.19338621952689" lon="9.591149920199602"><ele>407.20000000000005</ele><time>2026-04-05T16:27:06.999Z</time></trkpt><trkpt lat="44.1933142459391" lon="9.591123645385077"><ele>402.4</ele><time>2026-04-05T16:27:07.999Z</time></trkpt><trkpt lat="44.19321655141023" lon="9.591103164835785"><ele>397.6</ele><time>2026-04-05T16:27:08.999Z</time></trkpt><trkpt lat="44.19312177842993" lon="9.591140935826756"><ele>392.79999999999995</ele><time>2026-04-05T16:27:09.999Z</time></trkpt><trkpt lat="44.1930310098394" lon="9.591188651370913"><ele>388.0</ele><time>2026-04-05T16:27:10.999Z</time></trkpt><trkpt lat="44.19295206444689" lon="9.591253934289362"><ele>387.1666666666667</ele><time>2026-04-05T16:27:11.999Z</time></trkpt><trkpt lat="44.192873116356346" lon="9.59130985994524"><ele>386.33333333333337</ele><time>2026-04-05T16:27:12.999Z</time></trkpt><trkpt lat="44.192790893348274" lon="9.591358770725085"><ele>385.5</ele><time>2026-04-05T16:27:13.999Z</time></trkpt><trkpt lat="44.19270905798936" lon="9.591378029563275"><ele>384.6666666666667</ele><time>2026-04-05T16:27:14.999Z</time></trkpt><trkpt lat="44.192747353890326" lon="9.591451026043051"><ele>383.83333333333337</ele><time>2026-04-05T16:27:15.999Z</time></trkpt><trkpt lat="44.192691173370385" lon="9.591539710838024"><ele>383.0</ele><time>2026-04-05T16:27:16.999Z</time></trkpt><trkpt lat="44.19261463992753" lon="9.591601308893457"><ele>383.0</ele><time>2026-04-05T16:27:17.999Z</time></trkpt><trkpt lat="44.19256354933815" lon="9.591687864768756"><ele>383.0</ele><time>2026-04-05T16:27:18.999Z</time></trkpt><trkpt lat="44.192516430746295" lon="9.591785047042551"><ele>383.0</ele><time>2026-04-05T16:27:19.999Z</time></trkpt><trkpt lat="44.19246988194782" lon="9.591891762640818"><ele>383.0</ele><time>2026-04-05T16:27:20.999Z</time></trkpt><trkpt lat="44.19241918097381" lon="9.59199703299769"><ele>383.0</ele><time>2026-04-05T16:27:21.999Z</time></trkpt><trkpt lat="44.192288645289985" lon="9.592118837984305"><ele>380.59999999999997</ele><time>2026-04-05T16:27:22.999Z</time></trkpt><trkpt lat="44.19219010965272" lon="9.592258632115753"><ele>378.2</ele><time>2026-04-05T16:27:23.999Z</time></trkpt><trkpt lat="44.19210543038562" lon="9.592348699761748"><ele>375.8</ele><time>2026-04-05T16:27:24.999Z</time></trkpt><trkpt lat="44.192026880905026" lon="9.592420372868943"><ele>373.4</ele><time>2026-04-05T16:27:25.999Z</time></trkpt><trkpt lat="44.191956414165546" lon="9.592492336604824"><ele>371.0</ele><time>2026-04-05T16:27:26.999Z</time></trkpt><trkpt lat="44.19187652891177" lon="9.592516644820094"><ele>371.0</ele><time>2026-04-05T16:27:27.999Z</time></trkpt><trkpt lat="44.19179163536868" lon="9.592569690883243"><ele>371.0</ele><time>2026-04-05T16:27:28.999Z</time></trkpt><trkpt lat="44.19172661598377" lon="9.592597168193656"><ele>371.0</ele><time>2026-04-05T16:27:29.999Z</time></trkpt><trkpt lat="44.19166985641118" lon="9.59265472727757"><ele>371.0</ele><time>2026-04-05T16:27:30.999Z</time></trkpt><trkpt lat="44.1916295717168" lon="9.592748739343481"><ele>371.0</ele><time>2026-04-05T16:27:31.999Z</time></trkpt><trkpt lat="44.191620654552736" lon="9.592873340297137"><ele>371.0</ele><time>2026-04-05T16:27:32.999Z</time></trkpt><trkpt lat="44.19166365180673" lon="9.592984941102925"><ele>371.6</ele><time>2026-04-05T16:27:33.999Z</time></trkpt><trkpt lat="44.19169705285041" lon="9.593100261189345"><ele>372.20000000000005</ele><time>2026-04-05T16:27:35Z</time></trkpt><trkpt lat="44.19173012088896" lon="9.593230097984495"><ele>372.79999999999995</ele><time>2026-04-05T16:27:36Z</time></trkpt><trkpt lat="44.19174902706861" lon="9.59336453855808"><ele>373.4</ele><time>2026-04-05T16:27:37Z</time></trkpt><trkpt lat="44.191782474757495" lon="9.593507104843471"><ele>374.0</ele><time>2026-04-05T16:27:38Z</time></trkpt><trkpt lat="44.19180060109125" lon="9.593648808322905"><ele>371.6666666666667</ele><time>2026-04-05T16:27:39Z</time></trkpt><trkpt lat="44.19181190773772" lon="9.593764721057989"><ele>369.33333333333337</ele><time>2026-04-05T16:27:40Z</time></trkpt><trkpt lat="44.19181015216941" lon="9.593889357604949"><ele>367.0</ele><time>2026-04-05T16:27:41Z</time></trkpt><trkpt lat="44.191811470044584" lon="9.594002828542875"><ele>364.6666666666667</ele><time>2026-04-05T16:27:42Z</time></trkpt><trkpt lat="44.191826042928824" lon="9.594121328584892"><ele>362.3333333333333</ele><time>2026-04-05T16:27:43Z</time></trkpt><trkpt lat="44.191868029089434" lon="9.594237701275906"><ele>360.0</ele><time>2026-04-05T16:27:44Z</time></trkpt><trkpt lat="44.19193812789525" lon="9.59433212980652"><ele>360.0</ele><time>2026-04-05T16:27:45Z</time></trkpt><trkpt lat="44.192020758804325" lon="9.594398742083296"><ele>360.0</ele><time>2026-04-05T16:27:46Z</time></trkpt><trkpt lat="44.19208544868694" lon="9.594474913586048"><ele>360.0</ele><time>2026-04-05T16:27:47Z</time></trkpt><trkpt lat="44.19217656915637" lon="9.594532975517865"><ele>360.0</ele><time>2026-04-05T16:27:48Z</time></trkpt><trkpt lat="44.192278428159504" lon="9.594582430077756"><ele>360.0</ele><time>2026-04-05T16:27:49Z</time></trkpt><trkpt lat="44.192379653331294" lon="9.594604892195745"><ele>358.8</ele><time>2026-04-05T16:27:50Z</time></trkpt><trkpt lat="44.19247715190644" lon="9.594632529526988"><ele>357.6</ele><time>2026-04-05T16:27:51Z</time></trkpt><trkpt lat="44.19256883287421" lon="9.594670318521173"><ele>356.4</ele><time>2026-04-05T16:27:52Z</time></trkpt><trkpt lat="44.19264554685778" lon="9.594743853321601"><ele>355.2</ele><time>2026-04-05T16:27:53Z</time></trkpt><trkpt lat="44.1927514826686" lon="9.594799136846241"><ele>354.0</ele><time>2026-04-05T16:27:54Z</time></trkpt><trkpt lat="44.19284790686468" lon="9.594880047843809"><ele>354.0</ele><time>2026-04-05T16:27:55Z</time></trkpt><trkpt lat="44.19293638627321" lon="9.594961013684172"><ele>354.0</ele><time>2026-04-05T16:27:56Z</time></trkpt><trkpt lat="44.19302204752564" lon="9.59503049301255"><ele>354.0</ele><time>2026-04-05T16:27:57Z</time></trkpt><trkpt lat="44.19311415774118" lon="9.595044142219859"><ele>354.0</ele><time>2026-04-05T16:27:58Z</time></trkpt><trkpt lat="44.19320466441748" lon="9.595062132115594"><ele>354.0</ele><time>2026-04-05T16:27:59Z</time></trkpt><trkpt lat="44.19329450481632" lon="9.595070994786647"><ele>356.5</ele><time>2026-04-05T16:28:00Z</time></trkpt><trkpt lat="44.1933698577894" lon="9.595086626940247"><ele>359.0</ele><time>2026-04-05T16:28:01Z</time></trkpt><trkpt lat="44.1934358411914" lon="9.595099949740904"><ele>361.5</ele><time>2026-04-05T16:28:02Z</time></trkpt><trkpt lat="44.19351633863468" lon="9.595207753769563"><ele>364.0</ele><time>2026-04-05T16:28:04Z</time></trkpt><trkpt lat="44.193492958662745" lon="9.59535780496574"><ele>366.5</ele><time>2026-04-05T16:28:06Z</time></trkpt><trkpt lat="44.19343163451221" lon="9.595414273531356"><ele>369.0</ele><time>2026-04-05T16:28:07Z</time></trkpt><trkpt lat="44.19336971356339" lon="9.595473501745637"><ele>369.0</ele><time>2026-04-05T16:28:08Z</time></trkpt><trkpt lat="44.193310032361715" lon="9.595543143701025"><ele>369.0</ele><time>2026-04-05T16:28:09Z</time></trkpt><trkpt lat="44.19326345022275" lon="9.595625648600194"><ele>369.0</ele><time>2026-04-05T16:28:10Z</time></trkpt><trkpt lat="44.1932180493578" lon="9.595707145997277"><ele>369.0</ele><time>2026-04-05T16:28:11Z</time></trkpt><trkpt lat="44.193167629240875" lon="9.59580199313274"><ele>369.0</ele><time>2026-04-05T16:28:12Z</time></trkpt><trkpt lat="44.19311735172151" lon="9.595885625729434"><ele>369.0</ele><time>2026-04-05T16:28:13Z</time></trkpt><trkpt lat="44.19305061189582" lon="9.59595255071832"><ele>364.0</ele><time>2026-04-05T16:28:14Z</time></trkpt><trkpt lat="44.19296762285246" lon="9.595993089046424"><ele>359.0</ele><time>2026-04-05T16:28:15Z</time></trkpt><trkpt lat="44.192858915084564" lon="9.59601768543312"><ele>354.0</ele><time>2026-04-05T16:28:16Z</time></trkpt><trkpt lat="44.19276157578641" lon="9.596053274762504"><ele>349.0</ele><time>2026-04-05T16:28:17Z</time></trkpt><trkpt lat="44.192696242208456" lon="9.596092372907243"><ele>344.0</ele><time>2026-04-05T16:28:18Z</time></trkpt><trkpt lat="44.19262098701661" lon="9.596165587086931"><ele>342.6666666666667</ele><time>2026-04-05T16:28:19Z</time></trkpt><trkpt lat="44.192558307735794" lon="9.596247417419313"><ele>341.33333333333337</ele><time>2026-04-05T16:28:20Z</time></trkpt><trkpt lat="44.19249628277299" lon="9.596324510899418"><ele>340.0</ele><time>2026-04-05T16:28:21Z</time></trkpt><trkpt lat="44.192435417100846" lon="9.596385682454283"><ele>338.6666666666667</ele><time>2026-04-05T16:28:22Z</time></trkpt><trkpt lat="44.19237870352751" lon="9.596443105338318"><ele>337.3333333333333</ele><time>2026-04-05T16:28:23Z</time></trkpt><trkpt lat="44.19232671847176" lon="9.59650945444957"><ele>336.0</ele><time>2026-04-05T16:28:24Z</time></trkpt><trkpt lat="44.192282133109636" lon="9.596580321745943"><ele>336.0</ele><time>2026-04-05T16:28:25Z</time></trkpt><trkpt lat="44.192223546616184" lon="9.5966779865434"><ele>336.0</ele><time>2026-04-05T16:28:27Z</time></trkpt><trkpt lat="44.192164505302614" lon="9.596633676203888"><ele>336.0</ele><time>2026-04-05T16:28:29Z</time></trkpt><trkpt lat="44.19218210766512" lon="9.596490290696606"><ele>336.0</ele><time>2026-04-05T16:28:31Z</time></trkpt><trkpt lat="44.19223309452299" lon="9.596428881516205"><ele>336.0</ele><time>2026-04-05T16:28:32Z</time></trkpt><trkpt lat="44.192296269554156" lon="9.5963466852048"><ele>336.0</ele><time>2026-04-05T16:28:33Z</time></trkpt><trkpt lat="44.192360215374144" lon="9.59626854966343"><ele>337.3333333333333</ele><time>2026-04-05T16:28:34Z</time></trkpt><trkpt lat="44.19241296610577" lon="9.596210700047925"><ele>338.6666666666667</ele><time>2026-04-05T16:28:35Z</time></trkpt><trkpt lat="44.19246134611724" lon="9.59613467134546"><ele>340.0</ele><time>2026-04-05T16:28:35.999Z</time></trkpt><trkpt lat="44.192515456031586" lon="9.596069967882013"><ele>341.33333333333337</ele><time>2026-04-05T16:28:36.999Z</time></trkpt><trkpt lat="44.19252258396988" lon="9.595951060787902"><ele>342.6666666666667</ele><time>2026-04-05T16:28:38.999Z</time></trkpt><trkpt lat="44.19242875933644" lon="9.595908902753868"><ele>344.0</ele><time>2026-04-05T16:28:40.999Z</time></trkpt><trkpt lat="44.192356394895995" lon="9.595963313671021"><ele>342.4</ele><time>2026-04-05T16:28:41.999Z</time></trkpt><trkpt lat="44.19229494183113" lon="9.59605230888971"><ele>340.79999999999995</ele><time>2026-04-05T16:28:42.999Z</time></trkpt><trkpt lat="44.19222732198429" lon="9.59612433170223"><ele>339.20000000000005</ele><time>2026-04-05T16:28:43.999Z</time></trkpt><trkpt lat="44.19213453114072" lon="9.596175213866974"><ele>337.6</ele><time>2026-04-05T16:28:44.999Z</time></trkpt><trkpt lat="44.19203546906965" lon="9.596206073287844"><ele>336.0</ele><time>2026-04-05T16:28:45.999Z</time></trkpt><trkpt lat="44.19193817830673" lon="9.596229906507412"><ele>336.0</ele><time>2026-04-05T16:28:46.999Z</time></trkpt><trkpt lat="44.19185043865522" lon="9.596255147047687"><ele>336.0</ele><time>2026-04-05T16:28:47.999Z</time></trkpt><trkpt lat="44.19176402813813" lon="9.596283741903855"><ele>336.0</ele><time>2026-04-05T16:28:48.999Z</time></trkpt><trkpt lat="44.19167737788324" lon="9.596309938000847"><ele>336.0</ele><time>2026-04-05T16:28:49.999Z</time></trkpt><trkpt lat="44.191586463373156" lon="9.596343263080385"><ele>336.0</ele><time>2026-04-05T16:28:50.999Z</time></trkpt><trkpt lat="44.19150664641648" lon="9.596402659847575"><ele>336.0</ele><time>2026-04-05T16:28:51.999Z</time></trkpt><trkpt lat="44.19146089622685" lon="9.596472868126378"><ele>336.0</ele><time>2026-04-05T16:28:52.999Z</time></trkpt><trkpt lat="44.191433554844735" lon="9.596599626731056"><ele>336.0</ele><time>2026-04-05T16:28:53.999Z</time></trkpt><trkpt lat="44.191453448391066" lon="9.596730984834219"><ele>336.0</ele><time>2026-04-05T16:28:54.999Z</time></trkpt><trkpt lat="44.19151711183843" lon="9.596837796977937"><ele>336.0</ele><time>2026-04-05T16:28:55.999Z</time></trkpt><trkpt lat="44.191594861752684" lon="9.59692004676163"><ele>336.0</ele><time>2026-04-05T16:28:56.999Z</time></trkpt><trkpt lat="44.19167682620357" lon="9.597002482097942"><ele>336.0</ele><time>2026-04-05T16:28:57.999Z</time></trkpt><trkpt lat="44.19175194949513" lon="9.59711469771206"><ele>336.0</ele><time>2026-04-05T16:28:58.999Z</time></trkpt><trkpt lat="44.19178901856997" lon="9.597190246647223"><ele>336.0</ele><time>2026-04-05T16:28:59.999Z</time></trkpt><trkpt lat="44.19184122035276" lon="9.59732850841095"><ele>336.0</ele><time>2026-04-05T16:29:01.999Z</time></trkpt><trkpt lat="44.19180467583174" lon="9.597405643293092"><ele>336.8</ele><time>2026-04-05T16:29:02.999Z</time></trkpt><trkpt lat="44.191741721703764" lon="9.597444877226538"><ele>337.6</ele><time>2026-04-05T16:29:03.999Z</time></trkpt><trkpt lat="44.19165799477626" lon="9.597489149889713"><ele>338.4</ele><time>2026-04-05T16:29:05.999Z</time></trkpt><trkpt lat="44.19157140893638" lon="9.597468316018226"><ele>339.2</ele><time>2026-04-05T16:29:06.999Z</time></trkpt><trkpt lat="44.19147534607072" lon="9.597410492200893"><ele>340.0</ele><time>2026-04-05T16:29:07.999Z</time></trkpt><trkpt lat="44.191342133605566" lon="9.597377678135901"><ele>341.25</ele><time>2026-04-05T16:29:08.999Z</time></trkpt><trkpt lat="44.19125028017811" lon="9.597366647908617"><ele>342.5</ele><time>2026-04-05T16:29:09.999Z</time></trkpt><trkpt lat="44.19112326171198" lon="9.597301159060368"><ele>343.75</ele><time>2026-04-05T16:29:10.999Z</time></trkpt><trkpt lat="44.191001798551575" lon="9.597253028471732"><ele>345.0</ele><time>2026-04-05T16:29:11.999Z</time></trkpt><trkpt lat="44.190897226392" lon="9.597192449827954"><ele>345.0</ele><time>2026-04-05T16:29:12.999Z</time></trkpt><trkpt lat="44.19077366282494" lon="9.597121754506201"><ele>345.0</ele><time>2026-04-05T16:29:13.999Z</time></trkpt><trkpt lat="44.19070994391014" lon="9.597065384079551"><ele>345.0</ele><time>2026-04-05T16:29:14.999Z</time></trkpt><trkpt lat="44.190636311592336" lon="9.59696802715253"><ele>345.0</ele><time>2026-04-05T16:29:15.999Z</time></trkpt><trkpt lat="44.19057224599941" lon="9.59687726245228"><ele>345.0</ele><time>2026-04-05T16:29:16.999Z</time></trkpt><trkpt lat="44.19054966502679" lon="9.596684367635998"><ele>342.0</ele><time>2026-04-05T16:29:17.999Z</time></trkpt><trkpt lat="44.19048021866498" lon="9.596554493569924"><ele>339.0</ele><time>2026-04-05T16:29:18.999Z</time></trkpt><trkpt lat="44.19043375987547" lon="9.596418819507344"><ele>336.0</ele><time>2026-04-05T16:29:19.999Z</time></trkpt><trkpt lat="44.190407915761796" lon="9.59627574400691"><ele>333.0</ele><time>2026-04-05T16:29:20.999Z</time></trkpt><trkpt lat="44.190328259255814" lon="9.596159781836764"><ele>330.0</ele><time>2026-04-05T16:29:21.999Z</time></trkpt><trkpt lat="44.19026747440387" lon="9.596049782340728"><ele>324.25</ele><time>2026-04-05T16:29:22.999Z</time></trkpt><trkpt lat="44.19017594508956" lon="9.595960841038195"><ele>318.5</ele><time>2026-04-05T16:29:23.999Z</time></trkpt><trkpt lat="44.190050202100004" lon="9.59598669962992"><ele>312.75</ele><time>2026-04-05T16:29:24.999Z</time></trkpt><trkpt lat="44.18993506152993" lon="9.595999230897439"><ele>307.0</ele><time>2026-04-05T16:29:25.999Z</time></trkpt><trkpt lat="44.1898239496258" lon="9.596016599763361"><ele>308.4</ele><time>2026-04-05T16:29:26.999Z</time></trkpt><trkpt lat="44.18972421951147" lon="9.596031907059087"><ele>309.79999999999995</ele><time>2026-04-05T16:29:27.999Z</time></trkpt><trkpt lat="44.189626887957026" lon="9.596149283158729"><ele>311.2</ele><time>2026-04-05T16:29:28.999Z</time></trkpt><trkpt lat="44.18952929951221" lon="9.596182144177348"><ele>312.59999999999997</ele><time>2026-04-05T16:29:29.999Z</time></trkpt><trkpt lat="44.189420462880726" lon="9.596226203958219"><ele>314.0</ele><time>2026-04-05T16:29:30.999Z</time></trkpt><trkpt lat="44.189307905455095" lon="9.596258320628785"><ele>314.0</ele><time>2026-04-05T16:29:31.999Z</time></trkpt><trkpt lat="44.18919089211247" lon="9.596325695923323"><ele>314.0</ele><time>2026-04-05T16:29:32.999Z</time></trkpt><trkpt lat="44.18910075965169" lon="9.59640046913941"><ele>314.0</ele><time>2026-04-05T16:29:33.999Z</time></trkpt><trkpt lat="44.18899474300926" lon="9.596475168476422"><ele>314.0</ele><time>2026-04-05T16:29:34.999Z</time></trkpt><trkpt lat="44.18893422420955" lon="9.596597550927285"><ele>314.0</ele><time>2026-04-05T16:29:35.999Z</time></trkpt><trkpt lat="44.188871810461436" lon="9.596717198176938"><ele>314.0</ele><time>2026-04-05T16:29:36.999Z</time></trkpt><trkpt lat="44.188809010991925" lon="9.59680359990814"><ele>314.0</ele><time>2026-04-05T16:29:37.999Z</time></trkpt><trkpt lat="44.18875919598043" lon="9.596877467805681"><ele>314.0</ele><time>2026-04-05T16:29:38.999Z</time></trkpt><trkpt lat="44.18867873113665" lon="9.596952371065186"><ele>314.0</ele><time>2026-04-05T16:29:41Z</time></trkpt><trkpt lat="44.18861708132491" lon="9.596887775430833"><ele>314.0</ele><time>2026-04-05T16:29:42Z</time></trkpt><trkpt lat="44.18859981026786" lon="9.596794949054358"><ele>314.0</ele><time>2026-04-05T16:29:43Z</time></trkpt><trkpt lat="44.188569766004775" lon="9.596670455168336"><ele>314.0</ele><time>2026-04-05T16:29:44Z</time></trkpt><trkpt lat="44.18852652560384" lon="9.596530602472408"><ele>314.0</ele><time>2026-04-05T16:29:45Z</time></trkpt><trkpt lat="44.1885028677008" lon="9.59640860094157"><ele>314.0</ele><time>2026-04-05T16:29:46Z</time></trkpt><trkpt lat="44.188480731888944" lon="9.596287932437953"><ele>314.0</ele><time>2026-04-05T16:29:47Z</time></trkpt><trkpt lat="44.1884612020736" lon="9.596161038357769"><ele>314.83333333333337</ele><time>2026-04-05T16:29:48Z</time></trkpt><trkpt lat="44.18843844386403" lon="9.596046230253974"><ele>315.6666666666667</ele><time>2026-04-05T16:29:49Z</time></trkpt><trkpt lat="44.18840070482219" lon="9.59593578106181"><ele>316.5</ele><time>2026-04-05T16:29:50Z</time></trkpt><trkpt lat="44.188360833161674" lon="9.595816659611565"><ele>317.3333333333333</ele><time>2026-04-05T16:29:51Z</time></trkpt><trkpt lat="44.18830297241694" lon="9.595720095521527"><ele>318.16666666666663</ele><time>2026-04-05T16:29:52Z</time></trkpt><trkpt lat="44.18824890413806" lon="9.595627198787813"><ele>319.0</ele><time>2026-04-05T16:29:53Z</time></trkpt><trkpt lat="44.18816603670622" lon="9.595562402064207"><ele>319.0</ele><time>2026-04-05T16:29:54Z</time></trkpt><trkpt lat="44.18807199733578" lon="9.595533647798417"><ele>319.0</ele><time>2026-04-05T16:29:55Z</time></trkpt><trkpt lat="44.18798943025795" lon="9.59552139599898"><ele>319.0</ele><time>2026-04-05T16:29:56Z</time></trkpt><trkpt lat="44.18790423270359" lon="9.595419477478076"><ele>319.0</ele><time>2026-04-05T16:29:58Z</time></trkpt><trkpt lat="44.187914632608496" lon="9.595268150899342"><ele>319.0</ele><time>2026-04-05T16:30:00Z</time></trkpt><trkpt lat="44.18790598052791" lon="9.595055003527905"><ele>315.8</ele><time>2026-04-05T16:30:02Z</time></trkpt><trkpt lat="44.18786788581021" lon="9.594933167614018"><ele>312.59999999999997</ele><time>2026-04-05T16:30:03Z</time></trkpt><trkpt lat="44.187839335885016" lon="9.594819026372639"><ele>309.4</ele><time>2026-04-05T16:30:04Z</time></trkpt><trkpt lat="44.1878097526112" lon="9.594691576052126"><ele>306.2</ele><time>2026-04-05T16:30:05Z</time></trkpt><trkpt lat="44.1877510053217" lon="9.594587453661784"><ele>303.0</ele><time>2026-04-05T16:30:06Z</time></trkpt><trkpt lat="44.1876863426929" lon="9.594473602938969"><ele>301.2</ele><time>2026-04-05T16:30:07Z</time></trkpt><trkpt lat="44.1876110367003" lon="9.59439267545998"><ele>299.4</ele><time>2026-04-05T16:30:08Z</time></trkpt><trkpt lat="44.187533675651615" lon="9.59430945668546"><ele>297.59999999999997</ele><time>2026-04-05T16:30:09Z</time></trkpt><trkpt lat="44.18745407796572" lon="9.594205326000472"><ele>295.8</ele><time>2026-04-05T16:30:10Z</time></trkpt><trkpt lat="44.18737354110324" lon="9.59412552422259"><ele>294.0</ele><time>2026-04-05T16:30:11Z</time></trkpt><trkpt lat="44.187295056433065" lon="9.5940483022126"><ele>294.0</ele><time>2026-04-05T16:30:12Z</time></trkpt><trkpt lat="44.18722932052247" lon="9.593938271480846"><ele>294.0</ele><time>2026-04-05T16:30:13Z</time></trkpt><trkpt lat="44.1871591215948" lon="9.593854915365602"><ele>294.0</ele><time>2026-04-05T16:30:14Z</time></trkpt><trkpt lat="44.18710622537944" lon="9.593732749542498"><ele>294.0</ele><time>2026-04-05T16:30:15Z</time></trkpt><trkpt lat="44.18705269156933" lon="9.593633025372343"><ele>294.0</ele><time>2026-04-05T16:30:16Z</time></trkpt><trkpt lat="44.187001116417704" lon="9.593531400589821"><ele>288.59999999999997</ele><time>2026-04-05T16:30:17Z</time></trkpt><trkpt lat="44.186938382695274" lon="9.59344738009107"><ele>283.2</ele><time>2026-04-05T16:30:18Z</time></trkpt><trkpt lat="44.186855561987784" lon="9.593372807573365"><ele>277.79999999999995</ele><time>2026-04-05T16:30:19Z</time></trkpt><trkpt lat="44.18676303403865" lon="9.593365224923591"><ele>272.4</ele><time>2026-04-05T16:30:20Z</time></trkpt><trkpt lat="44.1866463397079" lon="9.59335563731828"><ele>267.0</ele><time>2026-04-05T16:30:21Z</time></trkpt><trkpt lat="44.18653626046218" lon="9.593421479024274"><ele>266.4</ele><time>2026-04-05T16:30:22Z</time></trkpt><trkpt lat="44.18643803537974" lon="9.593524996896926"><ele>265.79999999999995</ele><time>2026-04-05T16:30:23Z</time></trkpt><trkpt lat="44.18635963137201" lon="9.593591082111342"><ele>265.2</ele><time>2026-04-05T16:30:24Z</time></trkpt><trkpt lat="44.18627361228306" lon="9.593641800428392"><ele>264.59999999999997</ele><time>2026-04-05T16:30:25Z</time></trkpt><trkpt lat="44.18619137450659" lon="9.59370173142012"><ele>264.0</ele><time>2026-04-05T16:30:26Z</time></trkpt><trkpt lat="44.18610745140405" lon="9.593743869679018"><ele>264.0</ele><time>2026-04-05T16:30:27Z</time></trkpt><trkpt lat="44.1860317000608" lon="9.593763663768597"><ele>264.0</ele><time>2026-04-05T16:30:28Z</time></trkpt><trkpt lat="44.18595816966469" lon="9.593744295201114"><ele>264.0</ele><time>2026-04-05T16:30:29Z</time></trkpt><trkpt lat="44.18591005199982" lon="9.593655408007592"><ele>264.0</ele><time>2026-04-05T16:30:30Z</time></trkpt><trkpt lat="44.18578936109404" lon="9.59351858097704"><ele>264.0</ele><time>2026-04-05T16:30:32Z</time></trkpt><trkpt lat="44.18569999952435" lon="9.593442494184963"><ele>266.0</ele><time>2026-04-05T16:30:33Z</time></trkpt><trkpt lat="44.18566614329519" lon="9.593359470532459"><ele>268.0</ele><time>2026-04-05T16:30:34Z</time></trkpt><trkpt lat="44.18562118742678" lon="9.593257931437305"><ele>270.0</ele><time>2026-04-05T16:30:34.999Z</time></trkpt><trkpt lat="44.18556217034781" lon="9.593172038842427"><ele>272.0</ele><time>2026-04-05T16:30:35.999Z</time></trkpt><trkpt lat="44.18548547790594" lon="9.593102119251196"><ele>274.0</ele><time>2026-04-05T16:30:36.999Z</time></trkpt><trkpt lat="44.18538723291588" lon="9.59314540240112"><ele>276.0</ele><time>2026-04-05T16:30:37.999Z</time></trkpt><trkpt lat="44.18529533456681" lon="9.593228440679802"><ele>276.0</ele><time>2026-04-05T16:30:38.999Z</time></trkpt><trkpt lat="44.185216178834814" lon="9.593259538240432"><ele>276.0</ele><time>2026-04-05T16:30:39.999Z</time></trkpt><trkpt lat="44.18513217149188" lon="9.593226934188195"><ele>276.0</ele><time>2026-04-05T16:30:40.999Z</time></trkpt><trkpt lat="44.18505625447698" lon="9.593160920926028"><ele>276.0</ele><time>2026-04-05T16:30:41.999Z</time></trkpt><trkpt lat="44.18499799975448" lon="9.593071296973742"><ele>276.0</ele><time>2026-04-05T16:30:42.999Z</time></trkpt><trkpt lat="44.184949535598626" lon="9.592959027903511"><ele>276.0</ele><time>2026-04-05T16:30:43.999Z</time></trkpt><trkpt lat="44.18489747501323" lon="9.592853362056717"><ele>278.5</ele><time>2026-04-05T16:30:44.999Z</time></trkpt><trkpt lat="44.18482897482507" lon="9.592738713661069"><ele>281.0</ele><time>2026-04-05T16:30:45.999Z</time></trkpt><trkpt lat="44.18475480152663" lon="9.592612428200628"><ele>283.5</ele><time>2026-04-05T16:30:46.999Z</time></trkpt><trkpt lat="44.184687300931884" lon="9.592487718533008"><ele>286.0</ele><time>2026-04-05T16:30:47.999Z</time></trkpt><trkpt lat="44.184611744577126" lon="9.592369080546101"><ele>286.0</ele><time>2026-04-05T16:30:48.999Z</time></trkpt><trkpt lat="44.18453242912119" lon="9.592256748765045"><ele>286.0</ele><time>2026-04-05T16:30:49.999Z</time></trkpt><trkpt lat="44.1844577787709" lon="9.592142330680225"><ele>286.0</ele><time>2026-04-05T16:30:50.999Z</time></trkpt><trkpt lat="44.184385993920245" lon="9.592025429202883"><ele>286.0</ele><time>2026-04-05T16:30:51.999Z</time></trkpt><trkpt lat="44.18430621903625" lon="9.591918114516105"><ele>286.0</ele><time>2026-04-05T16:30:52.999Z</time></trkpt><trkpt lat="44.18425588346582" lon="9.591790031665187"><ele>280.25</ele><time>2026-04-05T16:30:53.999Z</time></trkpt><trkpt lat="44.18420709114817" lon="9.591652606083718"><ele>274.5</ele><time>2026-04-05T16:30:54.999Z</time></trkpt><trkpt lat="44.184163576720195" lon="9.591497994519624"><ele>268.75</ele><time>2026-04-05T16:30:55.999Z</time></trkpt><trkpt lat="44.18414538122" lon="9.591357995000365"><ele>263.0</ele><time>2026-04-05T16:30:56.999Z</time></trkpt><trkpt lat="44.184083039224106" lon="9.591208454374698"><ele>257.2</ele><time>2026-04-05T16:30:57.999Z</time></trkpt><trkpt lat="44.18402350216693" lon="9.591097429691729"><ele>251.4</ele><time>2026-04-05T16:30:58.999Z</time></trkpt><trkpt lat="44.183958650324584" lon="9.590975669034997"><ele>245.59999999999997</ele><time>2026-04-05T16:30:59.999Z</time></trkpt><trkpt lat="44.183895264715495" lon="9.59086173581862"><ele>239.79999999999998</ele><time>2026-04-05T16:31:00.999Z</time></trkpt><trkpt lat="44.18382400132057" lon="9.59077103163308"><ele>234.0</ele><time>2026-04-05T16:31:01.999Z</time></trkpt><trkpt lat="44.18376433599994" lon="9.590703155584121"><ele>233.5</ele><time>2026-04-05T16:31:02.999Z</time></trkpt><trkpt lat="44.18368175513143" lon="9.590663507647443"><ele>233.0</ele><time>2026-04-05T16:31:03.999Z</time></trkpt><trkpt lat="44.183595763390265" lon="9.590645399339603"><ele>232.5</ele><time>2026-04-05T16:31:04.999Z</time></trkpt><trkpt lat="44.18351261482571" lon="9.590651566015856"><ele>232.0</ele><time>2026-04-05T16:31:05.999Z</time></trkpt><trkpt lat="44.18341905504739" lon="9.590710875249277"><ele>231.5</ele><time>2026-04-05T16:31:06.999Z</time></trkpt><trkpt lat="44.183363063750235" lon="9.590800609877839"><ele>231.0</ele><time>2026-04-05T16:31:07.999Z</time></trkpt><trkpt lat="44.18331110578733" lon="9.590925970012302"><ele>231.0</ele><time>2026-04-05T16:31:08.999Z</time></trkpt><trkpt lat="44.18327811098171" lon="9.591011234347656"><ele>231.00000000000003</ele><time>2026-04-05T16:31:09.999Z</time></trkpt><trkpt lat="44.18323287239733" lon="9.591130571892323"><ele>231.00000000000003</ele><time>2026-04-05T16:31:10.999Z</time></trkpt><trkpt lat="44.183195901307734" lon="9.59126525019515"><ele>231.0</ele><time>2026-04-05T16:31:11.999Z</time></trkpt><trkpt lat="44.183148370568254" lon="9.591369504929089"><ele>231.0</ele><time>2026-04-05T16:31:12.999Z</time></trkpt><trkpt lat="44.183090865888474" lon="9.591496425482632"><ele>229.4</ele><time>2026-04-05T16:31:13.999Z</time></trkpt><trkpt lat="44.183023844793205" lon="9.591598458274078"><ele>227.8</ele><time>2026-04-05T16:31:14.999Z</time></trkpt><trkpt lat="44.18295781207726" lon="9.59170605936362"><ele>226.20000000000002</ele><time>2026-04-05T16:31:15.999Z</time></trkpt><trkpt lat="44.182876366069195" lon="9.591763872282975"><ele>224.60000000000002</ele><time>2026-04-05T16:31:16.999Z</time></trkpt><trkpt lat="44.1827885971646" lon="9.591822274892811"><ele>223.0</ele><time>2026-04-05T16:31:17.999Z</time></trkpt><trkpt lat="44.182683333337984" lon="9.591834938508727"><ele>223.0</ele><time>2026-04-05T16:31:18.999Z</time></trkpt><trkpt lat="44.182580350735115" lon="9.591834505699323"><ele>223.0</ele><time>2026-04-05T16:31:19.999Z</time></trkpt><trkpt lat="44.18247471599009" lon="9.591854008893536"><ele>223.0</ele><time>2026-04-05T16:31:20.999Z</time></trkpt><trkpt lat="44.18238019312297" lon="9.591875771906647"><ele>223.0</ele><time>2026-04-05T16:31:21.999Z</time></trkpt><trkpt lat="44.182292925648454" lon="9.591931131128774"><ele>223.0</ele><time>2026-04-05T16:31:22.999Z</time></trkpt><trkpt lat="44.182220095230655" lon="9.592017421933031"><ele>222.60000000000002</ele><time>2026-04-05T16:31:23.999Z</time></trkpt><trkpt lat="44.182165013533094" lon="9.59212512963743"><ele>222.20000000000002</ele><time>2026-04-05T16:31:24.999Z</time></trkpt><trkpt lat="44.182117385020256" lon="9.592248719961212"><ele>221.8</ele><time>2026-04-05T16:31:25.999Z</time></trkpt><trkpt lat="44.182055994434926" lon="9.592356802653692"><ele>221.4</ele><time>2026-04-05T16:31:26.999Z</time></trkpt><trkpt lat="44.18200729182445" lon="9.592477844986862"><ele>221.0</ele><time>2026-04-05T16:31:27.999Z</time></trkpt><trkpt lat="44.18196233269271" lon="9.59258806792982"><ele>221.0</ele><time>2026-04-05T16:31:28.999Z</time></trkpt><trkpt lat="44.18192788200608" lon="9.592691315224567"><ele>221.00000000000003</ele><time>2026-04-05T16:31:29.999Z</time></trkpt><trkpt lat="44.181847629958405" lon="9.592729606845383"><ele>221.00000000000003</ele><time>2026-04-05T16:31:30.999Z</time></trkpt><trkpt lat="44.18175315879166" lon="9.592716206101692"><ele>221.0</ele><time>2026-04-05T16:31:31.999Z</time></trkpt><trkpt lat="44.18165103910172" lon="9.592682167218335"><ele>221.0</ele><time>2026-04-05T16:31:32.999Z</time></trkpt><trkpt lat="44.181551412110956" lon="9.592651272894551"><ele>216.20000000000002</ele><time>2026-04-05T16:31:33.999Z</time></trkpt><trkpt lat="44.18142128907606" lon="9.592642637066612"><ele>211.40000000000003</ele><time>2026-04-05T16:31:34.999Z</time></trkpt><trkpt lat="44.18132667599629" lon="9.592636237107957"><ele>206.6</ele><time>2026-04-05T16:31:35.999Z</time></trkpt><trkpt lat="44.181236408464166" lon="9.592651209606123"><ele>201.8</ele><time>2026-04-05T16:31:36.999Z</time></trkpt><trkpt lat="44.18116372903458" lon="9.592710860788328"><ele>197.0</ele><time>2026-04-05T16:31:37.999Z</time></trkpt><trkpt lat="44.1810838594966" lon="9.592807148902832"><ele>201.39999999999998</ele><time>2026-04-05T16:31:38.999Z</time></trkpt><trkpt lat="44.18102308958613" lon="9.592932184119984"><ele>205.79999999999998</ele><time>2026-04-05T16:31:39.999Z</time></trkpt><trkpt lat="44.18096466878073" lon="9.59304017692765"><ele>210.2</ele><time>2026-04-05T16:31:40.999Z</time></trkpt><trkpt lat="44.18090738354561" lon="9.593148325073633"><ele>214.6</ele><time>2026-04-05T16:31:41.999Z</time></trkpt><trkpt lat="44.18084992081823" lon="9.59326199361024"><ele>219.0</ele><time>2026-04-05T16:31:42.999Z</time></trkpt><trkpt lat="44.180794098891575" lon="9.593379256391204"><ele>219.0</ele><time>2026-04-05T16:31:43.999Z</time></trkpt><trkpt lat="44.180728098730285" lon="9.593483145885262"><ele>218.99999999999997</ele><time>2026-04-05T16:31:44.999Z</time></trkpt><trkpt lat="44.180661633922924" lon="9.593605819111984"><ele>218.99999999999997</ele><time>2026-04-05T16:31:45.999Z</time></trkpt><trkpt lat="44.180603538956355" lon="9.593715937232798"><ele>219.0</ele><time>2026-04-05T16:31:47.001Z</time></trkpt><trkpt lat="44.18053514355905" lon="9.593801096793113"><ele>219.0</ele><time>2026-04-05T16:31:48.001Z</time></trkpt><trkpt lat="44.18047138131879" lon="9.593884974583869"><ele>216.83333333333334</ele><time>2026-04-05T16:31:49.001Z</time></trkpt><trkpt lat="44.180407185738076" lon="9.593955789596253"><ele>214.66666666666669</ele><time>2026-04-05T16:31:50.001Z</time></trkpt><trkpt lat="44.18035644249071" lon="9.594026132188699"><ele>212.5</ele><time>2026-04-05T16:31:51.001Z</time></trkpt><trkpt lat="44.18030513622118" lon="9.594099683701867"><ele>210.33333333333334</ele><time>2026-04-05T16:31:52.001Z</time></trkpt><trkpt lat="44.18023277620886" lon="9.594161531482063"><ele>208.16666666666669</ele><time>2026-04-05T16:31:53.001Z</time></trkpt><trkpt lat="44.18016967889354" lon="9.594231294080226"><ele>206.0</ele><time>2026-04-05T16:31:54.001Z</time></trkpt><trkpt lat="44.18009298199473" lon="9.59431094800697"><ele>206.00000000000003</ele><time>2026-04-05T16:31:55.001Z</time></trkpt><trkpt lat="44.17999672483399" lon="9.594390109254489"><ele>206.0</ele><time>2026-04-05T16:31:56.001Z</time></trkpt><trkpt lat="44.17990638825056" lon="9.594427374074662"><ele>206.0</ele><time>2026-04-05T16:31:57.001Z</time></trkpt><trkpt lat="44.17983382545031" lon="9.594466429636178"><ele>206.0</ele><time>2026-04-05T16:31:58.001Z</time></trkpt><trkpt lat="44.17977302295885" lon="9.594516747282205"><ele>206.00000000000003</ele><time>2026-04-05T16:31:59.001Z</time></trkpt><trkpt lat="44.17972542175892" lon="9.594601650650084"><ele>206.0</ele><time>2026-04-05T16:32:00.001Z</time></trkpt><trkpt lat="44.179693623311486" lon="9.59471295404408"><ele>201.8</ele><time>2026-04-05T16:32:01.001Z</time></trkpt><trkpt lat="44.179698762357965" lon="9.594816402469121"><ele>197.60000000000002</ele><time>2026-04-05T16:32:02Z</time></trkpt><trkpt lat="44.179680905625254" lon="9.594955320569385"><ele>193.4</ele><time>2026-04-05T16:32:03Z</time></trkpt><trkpt lat="44.17968731143718" lon="9.595090995745716"><ele>189.2</ele><time>2026-04-05T16:32:04Z</time></trkpt><trkpt lat="44.17966408925702" lon="9.595230186959915"><ele>185.0</ele><time>2026-04-05T16:32:05Z</time></trkpt><trkpt lat="44.17965714802264" lon="9.595369879298545"><ele>185.0</ele><time>2026-04-05T16:32:06Z</time></trkpt><trkpt lat="44.1796515913898" lon="9.595512423434094"><ele>185.0</ele><time>2026-04-05T16:32:07Z</time></trkpt><trkpt lat="44.17965179040265" lon="9.59564830858427"><ele>185.0</ele><time>2026-04-05T16:32:08Z</time></trkpt><trkpt lat="44.17965691602744" lon="9.595766823453303"><ele>185.0</ele><time>2026-04-05T16:32:09Z</time></trkpt><trkpt lat="44.17966170940363" lon="9.595879343924189"><ele>185.0</ele><time>2026-04-05T16:32:10Z</time></trkpt><trkpt lat="44.179675699413586" lon="9.595979890233746"><ele>185.0</ele><time>2026-04-05T16:32:11Z</time></trkpt><trkpt lat="44.17965294595468" lon="9.596089984942731"><ele>185.8</ele><time>2026-04-05T16:32:12Z</time></trkpt><trkpt lat="44.179608933155286" lon="9.596197316442622"><ele>186.6</ele><time>2026-04-05T16:32:13Z</time></trkpt><trkpt lat="44.179538286260545" lon="9.596304685703236"><ele>187.39999999999998</ele><time>2026-04-05T16:32:14Z</time></trkpt><trkpt lat="44.17944903478417" lon="9.596368231672011"><ele>188.2</ele><time>2026-04-05T16:32:15Z</time></trkpt><trkpt lat="44.17933501495331" lon="9.59641029530862"><ele>189.0</ele><time>2026-04-05T16:32:16Z</time></trkpt><trkpt lat="44.17922204430384" lon="9.596494385407446"><ele>189.0</ele><time>2026-04-05T16:32:17Z</time></trkpt><trkpt lat="44.17910793676562" lon="9.59660312916261"><ele>189.0</ele><time>2026-04-05T16:32:18Z</time></trkpt><trkpt lat="44.17900693585458" lon="9.596723914309294"><ele>189.0</ele><time>2026-04-05T16:32:19Z</time></trkpt><trkpt lat="44.17891779830492" lon="9.596807696332945"><ele>189.0</ele><time>2026-04-05T16:32:20Z</time></trkpt><trkpt lat="44.178850922149266" lon="9.596936401181011"><ele>185.5</ele><time>2026-04-05T16:32:21Z</time></trkpt><trkpt lat="44.17880554598159" lon="9.597098847347171"><ele>182.0</ele><time>2026-04-05T16:32:22Z</time></trkpt><trkpt lat="44.178780601629526" lon="9.59726282213826"><ele>178.5</ele><time>2026-04-05T16:32:23Z</time></trkpt><trkpt lat="44.17871146105035" lon="9.597411952233433"><ele>175.0</ele><time>2026-04-05T16:32:24Z</time></trkpt><trkpt lat="44.17863518706335" lon="9.597539123360546"><ele>175.0</ele><time>2026-04-05T16:32:25Z</time></trkpt><trkpt lat="44.17853653605212" lon="9.597651826472328"><ele>175.0</ele><time>2026-04-05T16:32:26Z</time></trkpt><trkpt lat="44.17841999967433" lon="9.597737483144297"><ele>175.0</ele><time>2026-04-05T16:32:27Z</time></trkpt><trkpt lat="44.17828200337201" lon="9.597787972950037"><ele>175.0</ele><time>2026-04-05T16:32:28Z</time></trkpt><trkpt lat="44.17813396112464" lon="9.597819045921039"><ele>172.33333333333334</ele><time>2026-04-05T16:32:29Z</time></trkpt><trkpt lat="44.17797354889914" lon="9.59785463846565"><ele>169.66666666666666</ele><time>2026-04-05T16:32:30Z</time></trkpt><trkpt lat="44.17781440992713" lon="9.597903520925833"><ele>167.0</ele><time>2026-04-05T16:32:31Z</time></trkpt><trkpt lat="44.17766162074331" lon="9.597997905291269"><ele>167.0</ele><time>2026-04-05T16:32:32Z</time></trkpt><trkpt lat="44.17754252171619" lon="9.598091662675124"><ele>167.0</ele><time>2026-04-05T16:32:33Z</time></trkpt><trkpt lat="44.1774379427455" lon="9.598158805740836"><ele>167.0</ele><time>2026-04-05T16:32:34Z</time></trkpt><trkpt lat="44.177355069041695" lon="9.59822649454499"><ele>167.0</ele><time>2026-04-05T16:32:35Z</time></trkpt><trkpt lat="44.177286442541345" lon="9.59829636650986"><ele>167.0</ele><time>2026-04-05T16:32:36Z</time></trkpt><trkpt lat="44.177231316031" lon="9.598367064131015"><ele>163.6</ele><time>2026-04-05T16:32:37Z</time></trkpt><trkpt lat="44.1771820132425" lon="9.598457527698011"><ele>160.2</ele><time>2026-04-05T16:32:38Z</time></trkpt><trkpt lat="44.17721064441716" lon="9.598613494053563"><ele>156.8</ele><time>2026-04-05T16:32:39Z</time></trkpt><trkpt lat="44.17731092489833" lon="9.598714284844798"><ele>153.4</ele><time>2026-04-05T16:32:40Z</time></trkpt><trkpt lat="44.177411839309734" lon="9.598808267399983"><ele>150.0</ele><time>2026-04-05T16:32:41Z</time></trkpt><trkpt lat="44.17751743210367" lon="9.598902504862382"><ele>150.0</ele><time>2026-04-05T16:32:42Z</time></trkpt><trkpt lat="44.17765297164403" lon="9.59891090948774"><ele>150.0</ele><time>2026-04-05T16:32:43Z</time></trkpt><trkpt lat="44.177792599272216" lon="9.598902149685124"><ele>150.0</ele><time>2026-04-05T16:32:44Z</time></trkpt><trkpt lat="44.17794778406385" lon="9.598878472957953"><ele>150.0</ele><time>2026-04-05T16:32:45Z</time></trkpt><trkpt lat="44.17810594806328" lon="9.598846488207357"><ele>149.5</ele><time>2026-04-05T16:32:46Z</time></trkpt><trkpt lat="44.1782573142353" lon="9.598812829916179"><ele>149.0</ele><time>2026-04-05T16:32:47Z</time></trkpt><trkpt lat="44.17840092846713" lon="9.598768530903868"><ele>148.5</ele><time>2026-04-05T16:32:48Z</time></trkpt><trkpt lat="44.178523097654256" lon="9.598730039537951"><ele>148.0</ele><time>2026-04-05T16:32:49Z</time></trkpt><trkpt lat="44.17863429824288" lon="9.598722187759577"><ele>148.0</ele><time>2026-04-05T16:32:50Z</time></trkpt><trkpt lat="44.178750159823025" lon="9.598792387811264"><ele>148.0</ele><time>2026-04-05T16:32:51Z</time></trkpt><trkpt lat="44.17885177403327" lon="9.598865279067962"><ele>148.0</ele><time>2026-04-05T16:32:52Z</time></trkpt><trkpt lat="44.1789486945174" lon="9.598934353364882"><ele>148.0</ele><time>2026-04-05T16:32:53Z</time></trkpt><trkpt lat="44.17899975695066" lon="9.599088250776697"><ele>151.0</ele><time>2026-04-05T16:32:54Z</time></trkpt><trkpt lat="44.17902236821714" lon="9.599251333018984"><ele>154.0</ele><time>2026-04-05T16:32:55Z</time></trkpt><trkpt lat="44.17905028759096" lon="9.599393340234856"><ele>157.0</ele><time>2026-04-05T16:32:56Z</time></trkpt><trkpt lat="44.17906681678664" lon="9.599491836843342"><ele>160.0</ele><time>2026-04-05T16:32:57Z</time></trkpt><trkpt lat="44.17905433901054" lon="9.59959598105094"><ele>163.0</ele><time>2026-04-05T16:32:58Z</time></trkpt><trkpt lat="44.17896420098997" lon="9.599685697981645"><ele>155.5</ele><time>2026-04-05T16:32:59Z</time></trkpt><trkpt lat="44.178860481290535" lon="9.599766484319638"><ele>148.0</ele><time>2026-04-05T16:33:00Z</time></trkpt><trkpt lat="44.178753536625635" lon="9.599865508789543"><ele>140.5</ele><time>2026-04-05T16:33:01Z</time></trkpt><trkpt lat="44.178647618453" lon="9.599972459584151"><ele>133.0</ele><time>2026-04-05T16:33:02Z</time></trkpt><trkpt lat="44.17855485009048" lon="9.600078292339555"><ele>133.0</ele><time>2026-04-05T16:33:03Z</time></trkpt><trkpt lat="44.17847849115054" lon="9.600225014084641"><ele>133.0</ele><time>2026-04-05T16:33:04Z</time></trkpt><trkpt lat="44.17841448868328" lon="9.600378657460332"><ele>133.0</ele><time>2026-04-05T16:33:05Z</time></trkpt><trkpt lat="44.17837890022325" lon="9.600577088160145"><ele>133.0</ele><time>2026-04-05T16:33:06Z</time></trkpt><trkpt lat="44.17835589091313" lon="9.600734680962363"><ele>133.25</ele><time>2026-04-05T16:33:07Z</time></trkpt><trkpt lat="44.178364488643204" lon="9.600910142291497"><ele>133.5</ele><time>2026-04-05T16:33:08Z</time></trkpt><trkpt lat="44.178432360189326" lon="9.60104747736391"><ele>133.75</ele><time>2026-04-05T16:33:08.999Z</time></trkpt><trkpt lat="44.17846474334731" lon="9.601176710869595"><ele>134.0</ele><time>2026-04-05T16:33:09.999Z</time></trkpt><trkpt lat="44.17849818013726" lon="9.601328548744982"><ele>134.0</ele><time>2026-04-05T16:33:10.999Z</time></trkpt><trkpt lat="44.17841449013423" lon="9.601455447023563"><ele>134.0</ele><time>2026-04-05T16:33:11.999Z</time></trkpt><trkpt lat="44.17835253121199" lon="9.601576668682679"><ele>134.0</ele><time>2026-04-05T16:33:12.999Z</time></trkpt><trkpt lat="44.17832210788464" lon="9.601726097135574"><ele>134.0</ele><time>2026-04-05T16:33:13.999Z</time></trkpt><trkpt lat="44.17836098764821" lon="9.601912397533598"><ele>134.0</ele><time>2026-04-05T16:33:14.999Z</time></trkpt><trkpt lat="44.17840160063304" lon="9.602073093469983"><ele>134.0</ele><time>2026-04-05T16:33:15.999Z</time></trkpt><trkpt lat="44.178393967293985" lon="9.602255177080368"><ele>134.0</ele><time>2026-04-05T16:33:16.999Z</time></trkpt><trkpt lat="44.17833829783343" lon="9.602425682963421"><ele>134.0</ele><time>2026-04-05T16:33:17.999Z</time></trkpt><trkpt lat="44.17830176564985" lon="9.60261894954157"><ele>133.25</ele><time>2026-04-05T16:33:18.999Z</time></trkpt><trkpt lat="44.178294192675885" lon="9.602833739973292"><ele>132.5</ele><time>2026-04-05T16:33:19.999Z</time></trkpt><trkpt lat="44.178264405009834" lon="9.603022453417841"><ele>131.75</ele><time>2026-04-05T16:33:20.999Z</time></trkpt><trkpt lat="44.178216202898696" lon="9.603204626609138"><ele>131.0</ele><time>2026-04-05T16:33:21.999Z</time></trkpt><trkpt lat="44.178172603120736" lon="9.60338242953145"><ele>123.0</ele><time>2026-04-05T16:33:22.999Z</time></trkpt><trkpt lat="44.178157715799045" lon="9.603563938380622"><ele>115.0</ele><time>2026-04-05T16:33:23.999Z</time></trkpt><trkpt lat="44.178118218960805" lon="9.603754025027397"><ele>107.0</ele><time>2026-04-05T16:33:24.999Z</time></trkpt><trkpt lat="44.17815273383402" lon="9.60397643448514"><ele>99.0</ele><time>2026-04-05T16:33:25.999Z</time></trkpt><trkpt lat="44.17816338303387" lon="9.604210800514387"><ele>99.66666666666666</ele><time>2026-04-05T16:33:26.999Z</time></trkpt><trkpt lat="44.178172139388586" lon="9.604453195624234"><ele>100.33333333333333</ele><time>2026-04-05T16:33:27.999Z</time></trkpt><trkpt lat="44.17818815828944" lon="9.604666092417425"><ele>101.0</ele><time>2026-04-05T16:33:28.999Z</time></trkpt><trkpt lat="44.17818227965015" lon="9.604847999372945"><ele>105.75</ele><time>2026-04-05T16:33:29.999Z</time></trkpt><trkpt lat="44.17821337669868" lon="9.605024908140908"><ele>110.5</ele><time>2026-04-05T16:33:30.999Z</time></trkpt><trkpt lat="44.17829718341928" lon="9.605163445518242"><ele>115.25</ele><time>2026-04-05T16:33:31.999Z</time></trkpt><trkpt lat="44.178384569866665" lon="9.605259859198812"><ele>120.0</ele><time>2026-04-05T16:33:32.999Z</time></trkpt><trkpt lat="44.17846272266651" lon="9.605323658162138"><ele>121.2</ele><time>2026-04-05T16:33:33.999Z</time></trkpt><trkpt lat="44.178514823050236" lon="9.605384391703655"><ele>122.4</ele><time>2026-04-05T16:33:34.999Z</time></trkpt><trkpt lat="44.17851651972387" lon="9.60551814605796"><ele>123.6</ele><time>2026-04-05T16:33:36.999Z</time></trkpt><trkpt lat="44.178466416755576" lon="9.605596456189861"><ele>124.8</ele><time>2026-04-05T16:33:37.999Z</time></trkpt><trkpt lat="44.17836646085926" lon="9.605640382750048"><ele>126.0</ele><time>2026-04-05T16:33:38.999Z</time></trkpt><trkpt lat="44.17825175127255" lon="9.605658519734796"><ele>126.75</ele><time>2026-04-05T16:33:39.999Z</time></trkpt><trkpt lat="44.178128819099086" lon="9.605654109397708"><ele>127.5</ele><time>2026-04-05T16:33:40.999Z</time></trkpt><trkpt lat="44.178009014597826" lon="9.605600668522683"><ele>128.25</ele><time>2026-04-05T16:33:41.999Z</time></trkpt><trkpt lat="44.17786727624647" lon="9.605522071791285"><ele>129.0</ele><time>2026-04-05T16:33:42.999Z</time></trkpt><trkpt lat="44.17772430983029" lon="9.60543642756303"><ele>129.0</ele><time>2026-04-05T16:33:43.999Z</time></trkpt><trkpt lat="44.17758704795034" lon="9.605330103012363"><ele>129.0</ele><time>2026-04-05T16:33:44.999Z</time></trkpt><trkpt lat="44.177450697531135" lon="9.605213453415619"><ele>129.0</ele><time>2026-04-05T16:33:45.999Z</time></trkpt><trkpt lat="44.17732442092665" lon="9.605103397428644"><ele>119.66666666666666</ele><time>2026-04-05T16:33:46.999Z</time></trkpt><trkpt lat="44.177160741743315" lon="9.604973523744059"><ele>110.33333333333333</ele><time>2026-04-05T16:33:47.999Z</time></trkpt><trkpt lat="44.17700349522371" lon="9.604881577223658"><ele>101.0</ele><time>2026-04-05T16:33:48.999Z</time></trkpt><trkpt lat="44.17685475414087" lon="9.604844584969989"><ele>101.0</ele><time>2026-04-05T16:33:49.999Z</time></trkpt><trkpt lat="44.17668575040408" lon="9.604819907565297"><ele>101.0</ele><time>2026-04-05T16:33:50.999Z</time></trkpt><trkpt lat="44.17650367108673" lon="9.604749617407212"><ele>101.0</ele><time>2026-04-05T16:33:51.999Z</time></trkpt><trkpt lat="44.17633243154716" lon="9.604734058325157"><ele>97.33333333333333</ele><time>2026-04-05T16:33:53.001Z</time></trkpt><trkpt lat="44.17613479641572" lon="9.604748809691458"><ele>93.66666666666666</ele><time>2026-04-05T16:33:54.001Z</time></trkpt><trkpt lat="44.17595119421976" lon="9.604809947540696"><ele>90.0</ele><time>2026-04-05T16:33:55.001Z</time></trkpt><trkpt lat="44.17578662244183" lon="9.604845801502705"><ele>85.33333333333333</ele><time>2026-04-05T16:33:56.001Z</time></trkpt><trkpt lat="44.175601133682136" lon="9.60488919397722"><ele>80.66666666666666</ele><time>2026-04-05T16:33:57.001Z</time></trkpt><trkpt lat="44.1754162780161" lon="9.604963927062979"><ele>76.0</ele><time>2026-04-05T16:33:58.001Z</time></trkpt><trkpt lat="44.175234868225346" lon="9.605057078750038"><ele>76.0</ele><time>2026-04-05T16:33:59.001Z</time></trkpt><trkpt lat="44.17506058329142" lon="9.605158450567762"><ele>76.0</ele><time>2026-04-05T16:34:00.001Z</time></trkpt><trkpt lat="44.17490495757851" lon="9.605262600283899"><ele>76.0</ele><time>2026-04-05T16:34:01.001Z</time></trkpt><trkpt lat="44.17474699104717" lon="9.60535176802971"><ele>78.33333333333333</ele><time>2026-04-05T16:34:02.001Z</time></trkpt><trkpt lat="44.17459406179568" lon="9.605424320062387"><ele>80.66666666666667</ele><time>2026-04-05T16:34:03.001Z</time></trkpt><trkpt lat="44.1744424814998" lon="9.605488682751835"><ele>83.0</ele><time>2026-04-05T16:34:04.001Z</time></trkpt><trkpt lat="44.17428399155131" lon="9.605509003674753"><ele>83.0</ele><time>2026-04-05T16:34:05.001Z</time></trkpt><trkpt lat="44.17415243604708" lon="9.60551670612241"><ele>83.0</ele><time>2026-04-05T16:34:06.001Z</time></trkpt><trkpt lat="44.17401657836217" lon="9.605528871974826"><ele>83.0</ele><time>2026-04-05T16:34:07.001Z</time></trkpt><trkpt lat="44.17387264632633" lon="9.605537854511606"><ele>83.0</ele><time>2026-04-05T16:34:08.001Z</time></trkpt><trkpt lat="44.17373493259239" lon="9.60551821768869"><ele>78.80000000000001</ele><time>2026-04-05T16:34:09.001Z</time></trkpt><trkpt lat="44.17361838860948" lon="9.60553869309143"><ele>74.60000000000001</ele><time>2026-04-05T16:34:10.001Z</time></trkpt><trkpt lat="44.17349730266304" lon="9.605571793501378"><ele>70.4</ele><time>2026-04-05T16:34:11Z</time></trkpt><trkpt lat="44.17341293820904" lon="9.605606173966386"><ele>66.2</ele><time>2026-04-05T16:34:12Z</time></trkpt><trkpt lat="44.17331502240066" lon="9.605672036217666"><ele>62.0</ele><time>2026-04-05T16:34:13Z</time></trkpt><trkpt lat="44.17323657039863" lon="9.605788454774624"><ele>54.0</ele><time>2026-04-05T16:34:14Z</time></trkpt><trkpt lat="44.17317513318546" lon="9.605955277235841"><ele>46.0</ele><time>2026-04-05T16:34:15Z</time></trkpt><trkpt lat="44.1731076225296" lon="9.60613510497164"><ele>38.0</ele><time>2026-04-05T16:34:16Z</time></trkpt><trkpt lat="44.17303730456733" lon="9.606336430179999"><ele>30.0</ele><time>2026-04-05T16:34:17Z</time></trkpt><trkpt lat="44.172955886448655" lon="9.606487985950324"><ele>30.0</ele><time>2026-04-05T16:34:18Z</time></trkpt><trkpt lat="44.17289507592164" lon="9.60662622147943"><ele>30.0</ele><time>2026-04-05T16:34:19Z</time></trkpt><trkpt lat="44.172846123633704" lon="9.606760086886043"><ele>30.0</ele><time>2026-04-05T16:34:20Z</time></trkpt><trkpt lat="44.17281094363908" lon="9.606911225114398"><ele>30.0</ele><time>2026-04-05T16:34:21Z</time></trkpt><trkpt lat="44.17280999411495" lon="9.607088108593997"><ele>31.0</ele><time>2026-04-05T16:34:22Z</time></trkpt><trkpt lat="44.172830855123806" lon="9.60729323310832"><ele>32.0</ele><time>2026-04-05T16:34:23Z</time></trkpt><trkpt lat="44.172817117640115" lon="9.607513651869873"><ele>33.0</ele><time>2026-04-05T16:34:24Z</time></trkpt><trkpt lat="44.17283491161192" lon="9.607770679633251"><ele>31.75</ele><time>2026-04-05T16:34:25Z</time></trkpt><trkpt lat="44.17283007873404" lon="9.607995795749304"><ele>30.5</ele><time>2026-04-05T16:34:26Z</time></trkpt><trkpt lat="44.17283425817171" lon="9.608188302361233"><ele>29.25</ele><time>2026-04-05T16:34:27Z</time></trkpt><trkpt lat="44.1728684905454" lon="9.608381613485326"><ele>28.0</ele><time>2026-04-05T16:34:28Z</time></trkpt><trkpt lat="44.17293172210172" lon="9.60856289245026"><ele>26.5</ele><time>2026-04-05T16:34:29Z</time></trkpt><trkpt lat="44.17298526404087" lon="9.608756436361395"><ele>25.0</ele><time>2026-04-05T16:34:30Z</time></trkpt><trkpt lat="44.17303582008777" lon="9.608902939570246"><ele>23.5</ele><time>2026-04-05T16:34:31Z</time></trkpt><trkpt lat="44.17308750705404" lon="9.6090610747453"><ele>22.0</ele><time>2026-04-05T16:34:32Z</time></trkpt><trkpt lat="44.17313811073988" lon="9.609215895705873"><ele>22.0</ele><time>2026-04-05T16:34:33Z</time></trkpt><trkpt lat="44.173178364177716" lon="9.609361873671912"><ele>22.0</ele><time>2026-04-05T16:34:34Z</time></trkpt><trkpt lat="44.17320851870157" lon="9.60949620458362"><ele>22.0</ele><time>2026-04-05T16:34:35Z</time></trkpt><trkpt lat="44.17325803748446" lon="9.609664920113353"><ele>22.0</ele><time>2026-04-05T16:34:36Z</time></trkpt><trkpt lat="44.173262400557114" lon="9.60982347067324"><ele>27.400000000000002</ele><time>2026-04-05T16:34:37Z</time></trkpt><trkpt lat="44.17327071009403" lon="9.609957617771087"><ele>32.800000000000004</ele><time>2026-04-05T16:34:38Z</time></trkpt><trkpt lat="44.17326765260021" lon="9.610112750896548"><ele>38.2</ele><time>2026-04-05T16:34:39Z</time></trkpt><trkpt lat="44.17322533799293" lon="9.610274627322223"><ele>43.6</ele><time>2026-04-05T16:34:40Z</time></trkpt><trkpt lat="44.17321699354593" lon="9.610436878313871"><ele>49.0</ele><time>2026-04-05T16:34:41Z</time></trkpt><trkpt lat="44.173200275891816" lon="9.610583712918592"><ele>49.0</ele><time>2026-04-05T16:34:42Z</time></trkpt><trkpt lat="44.173199090948785" lon="9.610693538731496"><ele>49.0</ele><time>2026-04-05T16:34:43Z</time></trkpt><trkpt lat="44.17316807032223" lon="9.610812561421799"><ele>49.0</ele><time>2026-04-05T16:34:44Z</time></trkpt><trkpt lat="44.17316151849373" lon="9.610967852763126"><ele>49.0</ele><time>2026-04-05T16:34:45Z</time></trkpt><trkpt lat="44.1732365446628" lon="9.61115434809296"><ele>49.0</ele><time>2026-04-05T16:34:46Z</time></trkpt><trkpt lat="44.17331536135104" lon="9.611302733827417"><ele>45.25</ele><time>2026-04-05T16:34:47Z</time></trkpt><trkpt lat="44.17339791474334" lon="9.611416666793659"><ele>41.5</ele><time>2026-04-05T16:34:48Z</time></trkpt><trkpt lat="44.17346697512668" lon="9.61162277197276"><ele>37.75</ele><time>2026-04-05T16:34:49Z</time></trkpt><trkpt lat="44.173550674619115" lon="9.611744703635969"><ele>34.0</ele><time>2026-04-05T16:34:50Z</time></trkpt><trkpt lat="44.17360438408904" lon="9.611868211014839"><ele>34.0</ele><time>2026-04-05T16:34:51Z</time></trkpt><trkpt lat="44.17366925834741" lon="9.611925102188435"><ele>34.0</ele><time>2026-04-05T16:34:52Z</time></trkpt><trkpt lat="44.173727418969236" lon="9.61198508055644"><ele>34.0</ele><time>2026-04-05T16:34:54Z</time></trkpt><trkpt lat="44.173671593861265" lon="9.612041718658094"><ele>34.0</ele><time>2026-04-05T16:34:57Z</time></trkpt><trkpt lat="44.173609471905785" lon="9.611959883081054"><ele>34.0</ele><time>2026-04-05T16:34:58Z</time></trkpt><trkpt lat="44.1735312099781" lon="9.611868438573248"><ele>34.0</ele><time>2026-04-05T16:34:59Z</time></trkpt><trkpt lat="44.173464066691785" lon="9.611781996903302"><ele>34.0</ele><time>2026-04-05T16:35:00Z</time></trkpt><trkpt lat="44.17339448400156" lon="9.61168389792052"><ele>34.0</ele><time>2026-04-05T16:35:01Z</time></trkpt><trkpt lat="44.17331708879711" lon="9.611565708126689"><ele>34.0</ele><time>2026-04-05T16:35:02Z</time></trkpt><trkpt lat="44.1732310226865" lon="9.611453329057195"><ele>34.0</ele><time>2026-04-05T16:35:03Z</time></trkpt><trkpt lat="44.17313854472184" lon="9.611337732876883"><ele>30.8</ele><time>2026-04-05T16:35:04Z</time></trkpt><trkpt lat="44.17305781187659" lon="9.611225899032261"><ele>27.599999999999998</ele><time>2026-04-05T16:35:05Z</time></trkpt><trkpt lat="44.17298493370582" lon="9.611122376881776"><ele>24.4</ele><time>2026-04-05T16:35:06Z</time></trkpt><trkpt lat="44.17292899635502" lon="9.611028644556146"><ele>21.2</ele><time>2026-04-05T16:35:07Z</time></trkpt><trkpt lat="44.17287611122011" lon="9.610943508637087"><ele>18.0</ele><time>2026-04-05T16:35:08Z</time></trkpt><trkpt lat="44.17278769026932" lon="9.610903919496343"><ele>18.0</ele><time>2026-04-05T16:35:10Z</time></trkpt><trkpt lat="44.17273044786958" lon="9.610942904478225"><ele>18.0</ele><time>2026-04-05T16:35:11.999Z</time></trkpt><trkpt lat="44.1727744659117" lon="9.611138047152178"><ele>18.0</ele><time>2026-04-05T16:35:12.999Z</time></trkpt><trkpt lat="44.172817017059934" lon="9.611224527277857"><ele>18.0</ele><time>2026-04-05T16:35:13.999Z</time></trkpt><trkpt lat="44.1728621110664" lon="9.611311223703042"><ele>18.0</ele><time>2026-04-05T16:35:14.999Z</time></trkpt><trkpt lat="44.172910978162975" lon="9.611403801075808"><ele>18.0</ele><time>2026-04-05T16:35:15.999Z</time></trkpt><trkpt lat="44.17296278951052" lon="9.611501846287654"><ele>17.5</ele><time>2026-04-05T16:35:16.999Z</time></trkpt><trkpt lat="44.17301343019136" lon="9.61159767617864"><ele>17.0</ele><time>2026-04-05T16:35:17.999Z</time></trkpt><trkpt lat="44.173065855107495" lon="9.611696882283221"><ele>16.5</ele><time>2026-04-05T16:35:18.999Z</time></trkpt><trkpt lat="44.17312095962042" lon="9.611777739667808"><ele>16.0</ele><time>2026-04-05T16:35:19.999Z</time></trkpt><trkpt lat="44.17317077650123" lon="9.611888618567852"><ele>15.5</ele><time>2026-04-05T16:35:20.999Z</time></trkpt><trkpt lat="44.17321439066026" lon="9.61197283872545"><ele>15.0</ele><time>2026-04-05T16:35:21.999Z</time></trkpt><trkpt lat="44.173255693338554" lon="9.612051203288825"><ele>14.5</ele><time>2026-04-05T16:35:22.999Z</time></trkpt><trkpt lat="44.173318054553974" lon="9.612196101046507"><ele>14.0</ele><time>2026-04-05T16:35:24.999Z</time></trkpt><trkpt lat="44.17334918112248" lon="9.612305898159839"><ele>13.5</ele><time>2026-04-05T16:35:26.999Z</time></trkpt><trkpt lat="44.173284842117695" lon="9.612290680797921"><ele>13.0</ele><time>2026-04-05T16:35:30.999Z</time></trkpt><trkpt lat="44.173226732217984" lon="9.612245168439328"><ele>12.5</ele><time>2026-04-05T16:35:33.999Z</time></trkpt><trkpt lat="44.17316574621032" lon="9.612188431325654"><ele>12.0</ele><time>2026-04-05T16:35:35.999Z</time></trkpt><trkpt lat="44.17311498686965" lon="9.61211672183253"><ele>12.0</ele><time>2026-04-05T16:35:37.999Z</time></trkpt><trkpt lat="44.173070851812135" lon="9.612181903632667"><ele>12.0</ele><time>2026-04-05T16:35:43.999Z</time></trkpt><trkpt lat="44.17313533923925" lon="9.61228215004209"><ele>12.0</ele><time>2026-04-05T16:35:54.999Z</time></trkpt><trkpt lat="44.17316683398957" lon="9.612159636437553"><ele>12.0</ele><time>2026-04-05T16:35:56.999Z</time></trkpt><trkpt lat="44.17308475948649" lon="9.612224486412348"><ele>12.0</ele><time>2026-04-05T16:36:11.001Z</time></trkpt><trkpt lat="44.1730516583216" lon="9.612302170117413"><ele>12.0</ele><time>2026-04-05T16:36:21Z</time></trkpt><trkpt lat="44.17306096003431" lon="9.612187767236655"><ele>12.0</ele><time>2026-04-05T16:36:31Z</time></trkpt><trkpt lat="44.173098413856216" lon="9.612265055998106"><ele>12.0</ele><time>2026-04-05T16:37:03Z</time></trkpt></trkseg></trk></gpx>